<?xml version="1.0" encoding="UTF-8" standalone="no" ?>
<gpx xmlns="http://www.topografix.com/GPX/1/1" xmlns:xsi="http://www.w3.org/2001/XMLSchema-instance" xsi:schemaLocation="http://www.topografix.com/GPX/1/1 http://www.topografix.com/GPX/1/1/gpx.xsd" version="1.1" creator="VisuGPX - https://www.visugpx.com">
  <metadata>
    <name>Champagnat Cyclisme sur route</name>
  </metadata>
  <trk>
    <name><![CDATA[Champagnat Cyclisme sur route_1]]></name>
    <trkseg>
      <trkpt lat="46.48268" lon="5.36834">
        <ele>263</ele>
        <time>2022-04-22T11:25:36Z</time>
      </trkpt>
      <trkpt lat="46.48259" lon="5.36822">
        <ele>262.6</ele>
        <time>2022-04-22T11:25:37Z</time>
      </trkpt>
      <trkpt lat="46.4825" lon="5.36812">
        <ele>261.6</ele>
        <time>2022-04-22T11:25:38Z</time>
      </trkpt>
      <trkpt lat="46.4824" lon="5.36803">
        <ele>260.4</ele>
        <time>2022-04-22T11:25:39Z</time>
      </trkpt>
      <trkpt lat="46.48219" lon="5.36786">
        <ele>259</ele>
        <time>2022-04-22T11:25:41Z</time>
      </trkpt>
      <trkpt lat="46.48199" lon="5.36769">
        <ele>257.8</ele>
        <time>2022-04-22T11:25:43Z</time>
      </trkpt>
      <trkpt lat="46.48188" lon="5.36761">
        <ele>257.2</ele>
        <time>2022-04-22T11:25:44Z</time>
      </trkpt>
      <trkpt lat="46.48178" lon="5.36752">
        <ele>255.8</ele>
        <time>2022-04-22T11:25:45Z</time>
      </trkpt>
      <trkpt lat="46.48157" lon="5.36736">
        <ele>254.4</ele>
        <time>2022-04-22T11:25:47Z</time>
      </trkpt>
      <trkpt lat="46.48136" lon="5.3672">
        <ele>253.2</ele>
        <time>2022-04-22T11:25:49Z</time>
      </trkpt>
      <trkpt lat="46.48127" lon="5.36713">
        <ele>252.2</ele>
        <time>2022-04-22T11:25:50Z</time>
      </trkpt>
      <trkpt lat="46.48118" lon="5.36707">
        <ele>251.6</ele>
        <time>2022-04-22T11:25:51Z</time>
      </trkpt>
      <trkpt lat="46.48111" lon="5.36701">
        <ele>250.8</ele>
        <time>2022-04-22T11:25:52Z</time>
      </trkpt>
      <trkpt lat="46.48099" lon="5.36687">
        <ele>250.4</ele>
        <time>2022-04-22T11:25:54Z</time>
      </trkpt>
      <trkpt lat="46.48095" lon="5.36681">
        <ele>250</ele>
        <time>2022-04-22T11:25:55Z</time>
      </trkpt>
      <trkpt lat="46.48091" lon="5.36677">
        <ele>249.6</ele>
        <time>2022-04-22T11:25:56Z</time>
      </trkpt>
      <trkpt lat="46.4809" lon="5.36672">
        <ele>249.4</ele>
        <time>2022-04-22T11:25:57Z</time>
      </trkpt>
      <trkpt lat="46.48095" lon="5.36666">
        <ele>249.4</ele>
        <time>2022-04-22T11:25:58Z</time>
      </trkpt>
      <trkpt lat="46.48103" lon="5.36658">
        <ele>249.2</ele>
        <time>2022-04-22T11:25:59Z</time>
      </trkpt>
      <trkpt lat="46.4815" lon="5.36619">
        <ele>247</ele>
        <time>2022-04-22T11:26:04Z</time>
      </trkpt>
      <trkpt lat="46.48176" lon="5.36605">
        <ele>246.6</ele>
        <time>2022-04-22T11:26:06Z</time>
      </trkpt>
      <trkpt lat="46.48204" lon="5.36597">
        <ele>246.4</ele>
        <time>2022-04-22T11:26:09Z</time>
      </trkpt>
      <trkpt lat="46.48211" lon="5.3659">
        <ele>246.4</ele>
        <time>2022-04-22T11:26:10Z</time>
      </trkpt>
      <trkpt lat="46.48215" lon="5.36581">
        <ele>246.4</ele>
        <time>2022-04-22T11:26:11Z</time>
      </trkpt>
      <trkpt lat="46.48222" lon="5.36561">
        <ele>246.2</ele>
        <time>2022-04-22T11:26:13Z</time>
      </trkpt>
      <trkpt lat="46.48242" lon="5.36539">
        <ele>245.8</ele>
        <time>2022-04-22T11:26:16Z</time>
      </trkpt>
      <trkpt lat="46.48263" lon="5.36517">
        <ele>245.4</ele>
        <time>2022-04-22T11:26:19Z</time>
      </trkpt>
      <trkpt lat="46.48283" lon="5.36495">
        <ele>245.2</ele>
        <time>2022-04-22T11:26:22Z</time>
      </trkpt>
      <trkpt lat="46.48303" lon="5.36473">
        <ele>244.4</ele>
        <time>2022-04-22T11:26:25Z</time>
      </trkpt>
      <trkpt lat="46.4833" lon="5.36443">
        <ele>243</ele>
        <time>2022-04-22T11:26:29Z</time>
      </trkpt>
      <trkpt lat="46.48337" lon="5.36436">
        <ele>242.8</ele>
        <time>2022-04-22T11:26:30Z</time>
      </trkpt>
      <trkpt lat="46.48366" lon="5.36404">
        <ele>242</ele>
        <time>2022-04-22T11:26:34Z</time>
      </trkpt>
      <trkpt lat="46.48402" lon="5.36367">
        <ele>241</ele>
        <time>2022-04-22T11:26:39Z</time>
      </trkpt>
      <trkpt lat="46.4841" lon="5.36361">
        <ele>240.8</ele>
        <time>2022-04-22T11:26:40Z</time>
      </trkpt>
      <trkpt lat="46.48434" lon="5.36349">
        <ele>240</ele>
        <time>2022-04-22T11:26:43Z</time>
      </trkpt>
      <trkpt lat="46.48442" lon="5.36348">
        <ele>240</ele>
        <time>2022-04-22T11:26:44Z</time>
      </trkpt>
      <trkpt lat="46.48474" lon="5.36343">
        <ele>239.6</ele>
        <time>2022-04-22T11:26:48Z</time>
      </trkpt>
      <trkpt lat="46.48534" lon="5.36333">
        <ele>239.2</ele>
        <time>2022-04-22T11:26:56Z</time>
      </trkpt>
      <trkpt lat="46.48542" lon="5.36332">
        <ele>239</ele>
        <time>2022-04-22T11:26:57Z</time>
      </trkpt>
      <trkpt lat="46.48573" lon="5.36327">
        <ele>238.8</ele>
        <time>2022-04-22T11:27:01Z</time>
      </trkpt>
      <trkpt lat="46.48606" lon="5.36322">
        <ele>238.4</ele>
        <time>2022-04-22T11:27:05Z</time>
      </trkpt>
      <trkpt lat="46.48622" lon="5.36311">
        <ele>237.6</ele>
        <time>2022-04-22T11:27:07Z</time>
      </trkpt>
      <trkpt lat="46.48632" lon="5.36288">
        <ele>237</ele>
        <time>2022-04-22T11:27:09Z</time>
      </trkpt>
      <trkpt lat="46.48635" lon="5.36275">
        <ele>236.6</ele>
        <time>2022-04-22T11:27:10Z</time>
      </trkpt>
      <trkpt lat="46.48638" lon="5.36248">
        <ele>235.4</ele>
        <time>2022-04-22T11:27:12Z</time>
      </trkpt>
      <trkpt lat="46.4864" lon="5.3622">
        <ele>234</ele>
        <time>2022-04-22T11:27:14Z</time>
      </trkpt>
      <trkpt lat="46.48641" lon="5.36206">
        <ele>233.8</ele>
        <time>2022-04-22T11:27:15Z</time>
      </trkpt>
      <trkpt lat="46.48644" lon="5.36166">
        <ele>232.8</ele>
        <time>2022-04-22T11:27:18Z</time>
      </trkpt>
      <trkpt lat="46.48649" lon="5.36128">
        <ele>231.6</ele>
        <time>2022-04-22T11:27:21Z</time>
      </trkpt>
      <trkpt lat="46.48651" lon="5.36116">
        <ele>231.6</ele>
        <time>2022-04-22T11:27:22Z</time>
      </trkpt>
      <trkpt lat="46.48656" lon="5.36092">
        <ele>231</ele>
        <time>2022-04-22T11:27:24Z</time>
      </trkpt>
      <trkpt lat="46.48666" lon="5.3605">
        <ele>230.8</ele>
        <time>2022-04-22T11:27:28Z</time>
      </trkpt>
      <trkpt lat="46.48675" lon="5.35995">
        <ele>232.2</ele>
        <time>2022-04-22T11:27:34Z</time>
      </trkpt>
      <trkpt lat="46.48679" lon="5.35971">
        <ele>233</ele>
        <time>2022-04-22T11:27:37Z</time>
      </trkpt>
      <trkpt lat="46.48683" lon="5.35943">
        <ele>233.4</ele>
        <time>2022-04-22T11:27:40Z</time>
      </trkpt>
      <trkpt lat="46.48688" lon="5.35914">
        <ele>233.6</ele>
        <time>2022-04-22T11:27:43Z</time>
      </trkpt>
      <trkpt lat="46.48694" lon="5.35895">
        <ele>233.6</ele>
        <time>2022-04-22T11:27:45Z</time>
      </trkpt>
      <trkpt lat="46.48701" lon="5.35876">
        <ele>233.4</ele>
        <time>2022-04-22T11:27:47Z</time>
      </trkpt>
      <trkpt lat="46.48713" lon="5.35846">
        <ele>233</ele>
        <time>2022-04-22T11:27:50Z</time>
      </trkpt>
      <trkpt lat="46.48742" lon="5.3578">
        <ele>232</ele>
        <time>2022-04-22T11:27:57Z</time>
      </trkpt>
      <trkpt lat="46.4875" lon="5.3576">
        <ele>231.6</ele>
        <time>2022-04-22T11:27:59Z</time>
      </trkpt>
      <trkpt lat="46.4877" lon="5.35712">
        <ele>230.8</ele>
        <time>2022-04-22T11:28:04Z</time>
      </trkpt>
      <trkpt lat="46.48787" lon="5.35676">
        <ele>230.2</ele>
        <time>2022-04-22T11:28:08Z</time>
      </trkpt>
      <trkpt lat="46.48813" lon="5.35617">
        <ele>230.4</ele>
        <time>2022-04-22T11:28:15Z</time>
      </trkpt>
      <trkpt lat="46.48837" lon="5.35569">
        <ele>231</ele>
        <time>2022-04-22T11:28:21Z</time>
      </trkpt>
      <trkpt lat="46.4885" lon="5.35561">
        <ele>230.8</ele>
        <time>2022-04-22T11:28:23Z</time>
      </trkpt>
      <trkpt lat="46.48857" lon="5.3556">
        <ele>230.6</ele>
        <time>2022-04-22T11:28:24Z</time>
      </trkpt>
      <trkpt lat="46.48909" lon="5.35558">
        <ele>230</ele>
        <time>2022-04-22T11:28:31Z</time>
      </trkpt>
      <trkpt lat="46.48918" lon="5.35558">
        <ele>229.6</ele>
        <time>2022-04-22T11:28:32Z</time>
      </trkpt>
      <trkpt lat="46.48962" lon="5.35555">
        <ele>228.6</ele>
        <time>2022-04-22T11:28:37Z</time>
      </trkpt>
      <trkpt lat="46.49004" lon="5.35554">
        <ele>227.4</ele>
        <time>2022-04-22T11:28:42Z</time>
      </trkpt>
      <trkpt lat="46.49029" lon="5.35553">
        <ele>227.2</ele>
        <time>2022-04-22T11:28:45Z</time>
      </trkpt>
      <trkpt lat="46.49066" lon="5.35551">
        <ele>227.2</ele>
        <time>2022-04-22T11:28:50Z</time>
      </trkpt>
      <trkpt lat="46.49105" lon="5.35551">
        <ele>228.4</ele>
        <time>2022-04-22T11:28:56Z</time>
      </trkpt>
      <trkpt lat="46.49111" lon="5.35551">
        <ele>228.4</ele>
        <time>2022-04-22T11:28:57Z</time>
      </trkpt>
      <trkpt lat="46.49134" lon="5.3555">
        <ele>229.2</ele>
        <time>2022-04-22T11:29:01Z</time>
      </trkpt>
      <trkpt lat="46.49139" lon="5.35549">
        <ele>229.8</ele>
        <time>2022-04-22T11:29:02Z</time>
      </trkpt>
      <trkpt lat="46.49157" lon="5.35548">
        <ele>230.6</ele>
        <time>2022-04-22T11:29:05Z</time>
      </trkpt>
      <trkpt lat="46.4918" lon="5.35545">
        <ele>231</ele>
        <time>2022-04-22T11:29:09Z</time>
      </trkpt>
      <trkpt lat="46.49185" lon="5.35544">
        <ele>231</ele>
        <time>2022-04-22T11:29:10Z</time>
      </trkpt>
      <trkpt lat="46.49191" lon="5.35544">
        <ele>231.2</ele>
        <time>2022-04-22T11:29:11Z</time>
      </trkpt>
      <trkpt lat="46.49211" lon="5.35544">
        <ele>231.4</ele>
        <time>2022-04-22T11:29:14Z</time>
      </trkpt>
      <trkpt lat="46.49255" lon="5.3554">
        <ele>232</ele>
        <time>2022-04-22T11:29:20Z</time>
      </trkpt>
      <trkpt lat="46.49275" lon="5.35539">
        <ele>232</ele>
        <time>2022-04-22T11:29:23Z</time>
      </trkpt>
      <trkpt lat="46.49281" lon="5.35538">
        <ele>232</ele>
        <time>2022-04-22T11:29:24Z</time>
      </trkpt>
      <trkpt lat="46.49308" lon="5.35537">
        <ele>231.8</ele>
        <time>2022-04-22T11:29:28Z</time>
      </trkpt>
      <trkpt lat="46.49351" lon="5.35535">
        <ele>231.6</ele>
        <time>2022-04-22T11:29:34Z</time>
      </trkpt>
      <trkpt lat="46.49396" lon="5.35541">
        <ele>231.2</ele>
        <time>2022-04-22T11:29:40Z</time>
      </trkpt>
      <trkpt lat="46.49411" lon="5.35545">
        <ele>230.8</ele>
        <time>2022-04-22T11:29:42Z</time>
      </trkpt>
      <trkpt lat="46.49447" lon="5.3556">
        <ele>229.8</ele>
        <time>2022-04-22T11:29:47Z</time>
      </trkpt>
      <trkpt lat="46.49462" lon="5.35566">
        <ele>229.6</ele>
        <time>2022-04-22T11:29:49Z</time>
      </trkpt>
      <trkpt lat="46.49505" lon="5.35583">
        <ele>229</ele>
        <time>2022-04-22T11:29:55Z</time>
      </trkpt>
      <trkpt lat="46.49542" lon="5.35599">
        <ele>228.6</ele>
        <time>2022-04-22T11:30:00Z</time>
      </trkpt>
      <trkpt lat="46.49557" lon="5.35605">
        <ele>228.6</ele>
        <time>2022-04-22T11:30:02Z</time>
      </trkpt>
      <trkpt lat="46.4961" lon="5.35622">
        <ele>227.8</ele>
        <time>2022-04-22T11:30:09Z</time>
      </trkpt>
      <trkpt lat="46.49618" lon="5.35625">
        <ele>227.8</ele>
        <time>2022-04-22T11:30:10Z</time>
      </trkpt>
      <trkpt lat="46.49625" lon="5.35627">
        <ele>227.6</ele>
        <time>2022-04-22T11:30:11Z</time>
      </trkpt>
      <trkpt lat="46.49647" lon="5.35633">
        <ele>226.6</ele>
        <time>2022-04-22T11:30:14Z</time>
      </trkpt>
      <trkpt lat="46.49669" lon="5.3564">
        <ele>226.2</ele>
        <time>2022-04-22T11:30:17Z</time>
      </trkpt>
      <trkpt lat="46.49676" lon="5.35642">
        <ele>226.2</ele>
        <time>2022-04-22T11:30:18Z</time>
      </trkpt>
      <trkpt lat="46.49691" lon="5.35648">
        <ele>225.6</ele>
        <time>2022-04-22T11:30:21Z</time>
      </trkpt>
      <trkpt lat="46.49694" lon="5.35647">
        <ele>225.6</ele>
        <time>2022-04-22T11:30:22Z</time>
      </trkpt>
      <trkpt lat="46.49702" lon="5.35634">
        <ele>225.4</ele>
        <time>2022-04-22T11:30:25Z</time>
      </trkpt>
      <trkpt lat="46.49704" lon="5.35627">
        <ele>225.2</ele>
        <time>2022-04-22T11:30:26Z</time>
      </trkpt>
      <trkpt lat="46.49705" lon="5.35618">
        <ele>225.2</ele>
        <time>2022-04-22T11:30:27Z</time>
      </trkpt>
      <trkpt lat="46.49709" lon="5.3559">
        <ele>225</ele>
        <time>2022-04-22T11:30:30Z</time>
      </trkpt>
      <trkpt lat="46.49713" lon="5.35557">
        <ele>224.6</ele>
        <time>2022-04-22T11:30:33Z</time>
      </trkpt>
      <trkpt lat="46.49717" lon="5.35524">
        <ele>223.8</ele>
        <time>2022-04-22T11:30:36Z</time>
      </trkpt>
      <trkpt lat="46.49718" lon="5.35513">
        <ele>223.4</ele>
        <time>2022-04-22T11:30:37Z</time>
      </trkpt>
      <trkpt lat="46.49725" lon="5.35445">
        <ele>223</ele>
        <time>2022-04-22T11:30:43Z</time>
      </trkpt>
      <trkpt lat="46.49733" lon="5.35372">
        <ele>222.4</ele>
        <time>2022-04-22T11:30:49Z</time>
      </trkpt>
      <trkpt lat="46.49733" lon="5.3536">
        <ele>222.4</ele>
        <time>2022-04-22T11:30:50Z</time>
      </trkpt>
      <trkpt lat="46.49727" lon="5.35302">
        <ele>221.6</ele>
        <time>2022-04-22T11:30:55Z</time>
      </trkpt>
      <trkpt lat="46.49714" lon="5.35241">
        <ele>222.2</ele>
        <time>2022-04-22T11:31:01Z</time>
      </trkpt>
      <trkpt lat="46.49697" lon="5.35157">
        <ele>223</ele>
        <time>2022-04-22T11:31:09Z</time>
      </trkpt>
      <trkpt lat="46.4968" lon="5.35077">
        <ele>222.2</ele>
        <time>2022-04-22T11:31:16Z</time>
      </trkpt>
      <trkpt lat="46.4967" lon="5.35027">
        <ele>221.8</ele>
        <time>2022-04-22T11:31:21Z</time>
      </trkpt>
      <trkpt lat="46.49656" lon="5.34955">
        <ele>222.6</ele>
        <time>2022-04-22T11:31:29Z</time>
      </trkpt>
      <trkpt lat="46.49653" lon="5.34939">
        <ele>223.4</ele>
        <time>2022-04-22T11:31:31Z</time>
      </trkpt>
      <trkpt lat="46.49647" lon="5.34905">
        <ele>224.6</ele>
        <time>2022-04-22T11:31:35Z</time>
      </trkpt>
      <trkpt lat="46.49639" lon="5.34868">
        <ele>224.8</ele>
        <time>2022-04-22T11:31:39Z</time>
      </trkpt>
      <trkpt lat="46.49628" lon="5.34801">
        <ele>224.6</ele>
        <time>2022-04-22T11:31:46Z</time>
      </trkpt>
      <trkpt lat="46.49625" lon="5.34755">
        <ele>224</ele>
        <time>2022-04-22T11:31:50Z</time>
      </trkpt>
      <trkpt lat="46.49625" lon="5.3473">
        <ele>223.2</ele>
        <time>2022-04-22T11:31:52Z</time>
      </trkpt>
      <trkpt lat="46.49627" lon="5.34705">
        <ele>221.8</ele>
        <time>2022-04-22T11:31:54Z</time>
      </trkpt>
      <trkpt lat="46.49628" lon="5.34693">
        <ele>221.4</ele>
        <time>2022-04-22T11:31:55Z</time>
      </trkpt>
      <trkpt lat="46.49632" lon="5.34654">
        <ele>220.2</ele>
        <time>2022-04-22T11:31:58Z</time>
      </trkpt>
      <trkpt lat="46.49635" lon="5.34627">
        <ele>219</ele>
        <time>2022-04-22T11:32:00Z</time>
      </trkpt>
      <trkpt lat="46.4964" lon="5.34586">
        <ele>217.8</ele>
        <time>2022-04-22T11:32:03Z</time>
      </trkpt>
      <trkpt lat="46.49644" lon="5.34559">
        <ele>216.8</ele>
        <time>2022-04-22T11:32:05Z</time>
      </trkpt>
      <trkpt lat="46.49646" lon="5.34547">
        <ele>216.6</ele>
        <time>2022-04-22T11:32:06Z</time>
      </trkpt>
      <trkpt lat="46.49658" lon="5.34501">
        <ele>216</ele>
        <time>2022-04-22T11:32:10Z</time>
      </trkpt>
      <trkpt lat="46.49671" lon="5.34453">
        <ele>216.8</ele>
        <time>2022-04-22T11:32:15Z</time>
      </trkpt>
      <trkpt lat="46.49679" lon="5.34428">
        <ele>217.8</ele>
        <time>2022-04-22T11:32:18Z</time>
      </trkpt>
      <trkpt lat="46.49686" lon="5.34404">
        <ele>218.8</ele>
        <time>2022-04-22T11:32:21Z</time>
      </trkpt>
      <trkpt lat="46.49688" lon="5.34396">
        <ele>218.8</ele>
        <time>2022-04-22T11:32:22Z</time>
      </trkpt>
      <trkpt lat="46.49697" lon="5.34361">
        <ele>219.8</ele>
        <time>2022-04-22T11:32:27Z</time>
      </trkpt>
      <trkpt lat="46.49698" lon="5.34353">
        <ele>220.2</ele>
        <time>2022-04-22T11:32:28Z</time>
      </trkpt>
      <trkpt lat="46.497" lon="5.34347">
        <ele>220.4</ele>
        <time>2022-04-22T11:32:29Z</time>
      </trkpt>
      <trkpt lat="46.49706" lon="5.34328">
        <ele>221</ele>
        <time>2022-04-22T11:32:32Z</time>
      </trkpt>
      <trkpt lat="46.49709" lon="5.3432">
        <ele>221.2</ele>
        <time>2022-04-22T11:32:33Z</time>
      </trkpt>
      <trkpt lat="46.49712" lon="5.34313">
        <ele>221.2</ele>
        <time>2022-04-22T11:32:34Z</time>
      </trkpt>
      <trkpt lat="46.49724" lon="5.3429">
        <ele>221.6</ele>
        <time>2022-04-22T11:32:37Z</time>
      </trkpt>
      <trkpt lat="46.49755" lon="5.34233">
        <ele>221.8</ele>
        <time>2022-04-22T11:32:44Z</time>
      </trkpt>
      <trkpt lat="46.49789" lon="5.34176">
        <ele>221.6</ele>
        <time>2022-04-22T11:32:52Z</time>
      </trkpt>
      <trkpt lat="46.49819" lon="5.34129">
        <ele>221.8</ele>
        <time>2022-04-22T11:32:59Z</time>
      </trkpt>
      <trkpt lat="46.49827" lon="5.34116">
        <ele>222.2</ele>
        <time>2022-04-22T11:33:01Z</time>
      </trkpt>
      <trkpt lat="46.49845" lon="5.34089">
        <ele>222.2</ele>
        <time>2022-04-22T11:33:05Z</time>
      </trkpt>
      <trkpt lat="46.49881" lon="5.34041">
        <ele>221.4</ele>
        <time>2022-04-22T11:33:12Z</time>
      </trkpt>
      <trkpt lat="46.49916" lon="5.34003">
        <ele>221.8</ele>
        <time>2022-04-22T11:33:19Z</time>
      </trkpt>
      <trkpt lat="46.49944" lon="5.33973">
        <ele>223</ele>
        <time>2022-04-22T11:33:25Z</time>
      </trkpt>
      <trkpt lat="46.49948" lon="5.33968">
        <ele>223.6</ele>
        <time>2022-04-22T11:33:26Z</time>
      </trkpt>
      <trkpt lat="46.49957" lon="5.33959">
        <ele>224</ele>
        <time>2022-04-22T11:33:28Z</time>
      </trkpt>
      <trkpt lat="46.4997" lon="5.33945">
        <ele>224.6</ele>
        <time>2022-04-22T11:33:31Z</time>
      </trkpt>
      <trkpt lat="46.49999" lon="5.33916">
        <ele>224.8</ele>
        <time>2022-04-22T11:33:37Z</time>
      </trkpt>
      <trkpt lat="46.50026" lon="5.33885">
        <ele>224.8</ele>
        <time>2022-04-22T11:33:42Z</time>
      </trkpt>
      <trkpt lat="46.50069" lon="5.33835">
        <ele>224</ele>
        <time>2022-04-22T11:33:49Z</time>
      </trkpt>
      <trkpt lat="46.50075" lon="5.33828">
        <ele>223.6</ele>
        <time>2022-04-22T11:33:50Z</time>
      </trkpt>
      <trkpt lat="46.50081" lon="5.33821">
        <ele>223</ele>
        <time>2022-04-22T11:33:51Z</time>
      </trkpt>
      <trkpt lat="46.50112" lon="5.33784">
        <ele>221.8</ele>
        <time>2022-04-22T11:33:56Z</time>
      </trkpt>
      <trkpt lat="46.50125" lon="5.33771">
        <ele>221.6</ele>
        <time>2022-04-22T11:33:58Z</time>
      </trkpt>
      <trkpt lat="46.50156" lon="5.33742">
        <ele>221.4</ele>
        <time>2022-04-22T11:34:03Z</time>
      </trkpt>
      <trkpt lat="46.50189" lon="5.33709">
        <ele>222</ele>
        <time>2022-04-22T11:34:09Z</time>
      </trkpt>
      <trkpt lat="46.50216" lon="5.3368">
        <ele>222.4</ele>
        <time>2022-04-22T11:34:14Z</time>
      </trkpt>
      <trkpt lat="46.50234" lon="5.33661">
        <ele>222.4</ele>
        <time>2022-04-22T11:34:17Z</time>
      </trkpt>
      <trkpt lat="46.5028" lon="5.3361">
        <ele>221.8</ele>
        <time>2022-04-22T11:34:25Z</time>
      </trkpt>
      <trkpt lat="46.50291" lon="5.33598">
        <ele>221.6</ele>
        <time>2022-04-22T11:34:27Z</time>
      </trkpt>
      <trkpt lat="46.5034" lon="5.33545">
        <ele>221</ele>
        <time>2022-04-22T11:34:35Z</time>
      </trkpt>
      <trkpt lat="46.50345" lon="5.33538">
        <ele>220.8</ele>
        <time>2022-04-22T11:34:36Z</time>
      </trkpt>
      <trkpt lat="46.50394" lon="5.33486">
        <ele>220.4</ele>
        <time>2022-04-22T11:34:44Z</time>
      </trkpt>
      <trkpt lat="46.50406" lon="5.33474">
        <ele>220.4</ele>
        <time>2022-04-22T11:34:46Z</time>
      </trkpt>
      <trkpt lat="46.50431" lon="5.33447">
        <ele>219.6</ele>
        <time>2022-04-22T11:34:50Z</time>
      </trkpt>
      <trkpt lat="46.50446" lon="5.33421">
        <ele>219</ele>
        <time>2022-04-22T11:34:53Z</time>
      </trkpt>
      <trkpt lat="46.50451" lon="5.33412">
        <ele>218.6</ele>
        <time>2022-04-22T11:34:54Z</time>
      </trkpt>
      <trkpt lat="46.50458" lon="5.33389">
        <ele>218.4</ele>
        <time>2022-04-22T11:34:56Z</time>
      </trkpt>
      <trkpt lat="46.50461" lon="5.33377">
        <ele>218.4</ele>
        <time>2022-04-22T11:34:57Z</time>
      </trkpt>
      <trkpt lat="46.50462" lon="5.33365">
        <ele>218</ele>
        <time>2022-04-22T11:34:58Z</time>
      </trkpt>
      <trkpt lat="46.50464" lon="5.33318">
        <ele>217.8</ele>
        <time>2022-04-22T11:35:02Z</time>
      </trkpt>
      <trkpt lat="46.50465" lon="5.33275">
        <ele>217.8</ele>
        <time>2022-04-22T11:35:06Z</time>
      </trkpt>
      <trkpt lat="46.50464" lon="5.33264">
        <ele>217.8</ele>
        <time>2022-04-22T11:35:07Z</time>
      </trkpt>
      <trkpt lat="46.50465" lon="5.33235">
        <ele>218.2</ele>
        <time>2022-04-22T11:35:10Z</time>
      </trkpt>
      <trkpt lat="46.50464" lon="5.33208">
        <ele>218.4</ele>
        <time>2022-04-22T11:35:13Z</time>
      </trkpt>
      <trkpt lat="46.50465" lon="5.33169">
        <ele>218.8</ele>
        <time>2022-04-22T11:35:17Z</time>
      </trkpt>
      <trkpt lat="46.50465" lon="5.3316">
        <ele>218.8</ele>
        <time>2022-04-22T11:35:18Z</time>
      </trkpt>
      <trkpt lat="46.50467" lon="5.33095">
        <ele>218.2</ele>
        <time>2022-04-22T11:35:24Z</time>
      </trkpt>
      <trkpt lat="46.50468" lon="5.33041">
        <ele>217</ele>
        <time>2022-04-22T11:35:28Z</time>
      </trkpt>
      <trkpt lat="46.50469" lon="5.33027">
        <ele>216.4</ele>
        <time>2022-04-22T11:35:29Z</time>
      </trkpt>
      <trkpt lat="46.50469" lon="5.33009">
        <ele>216</ele>
        <time>2022-04-22T11:35:30Z</time>
      </trkpt>
      <trkpt lat="46.5047" lon="5.32964">
        <ele>214.4</ele>
        <time>2022-04-22T11:35:33Z</time>
      </trkpt>
      <trkpt lat="46.50471" lon="5.32937">
        <ele>213</ele>
        <time>2022-04-22T11:35:35Z</time>
      </trkpt>
      <trkpt lat="46.50473" lon="5.32887">
        <ele>211.2</ele>
        <time>2022-04-22T11:35:38Z</time>
      </trkpt>
      <trkpt lat="46.50473" lon="5.32856">
        <ele>209.8</ele>
        <time>2022-04-22T11:35:40Z</time>
      </trkpt>
      <trkpt lat="46.50474" lon="5.32825">
        <ele>208.6</ele>
        <time>2022-04-22T11:35:42Z</time>
      </trkpt>
      <trkpt lat="46.50474" lon="5.3281">
        <ele>207.4</ele>
        <time>2022-04-22T11:35:43Z</time>
      </trkpt>
      <trkpt lat="46.50475" lon="5.32781">
        <ele>206.6</ele>
        <time>2022-04-22T11:35:45Z</time>
      </trkpt>
      <trkpt lat="46.50475" lon="5.32767">
        <ele>206.4</ele>
        <time>2022-04-22T11:35:46Z</time>
      </trkpt>
      <trkpt lat="46.50476" lon="5.32698">
        <ele>205.8</ele>
        <time>2022-04-22T11:35:51Z</time>
      </trkpt>
      <trkpt lat="46.50476" lon="5.32685">
        <ele>205.4</ele>
        <time>2022-04-22T11:35:52Z</time>
      </trkpt>
      <trkpt lat="46.50476" lon="5.32599">
        <ele>204.4</ele>
        <time>2022-04-22T11:35:59Z</time>
      </trkpt>
      <trkpt lat="46.50473" lon="5.32511">
        <ele>203.8</ele>
        <time>2022-04-22T11:36:06Z</time>
      </trkpt>
      <trkpt lat="46.50472" lon="5.32499">
        <ele>203.6</ele>
        <time>2022-04-22T11:36:07Z</time>
      </trkpt>
      <trkpt lat="46.5047" lon="5.32475">
        <ele>203.2</ele>
        <time>2022-04-22T11:36:09Z</time>
      </trkpt>
      <trkpt lat="46.50459" lon="5.32403">
        <ele>202.4</ele>
        <time>2022-04-22T11:36:15Z</time>
      </trkpt>
      <trkpt lat="46.50455" lon="5.32379">
        <ele>202.2</ele>
        <time>2022-04-22T11:36:17Z</time>
      </trkpt>
      <trkpt lat="46.50447" lon="5.32345">
        <ele>202.2</ele>
        <time>2022-04-22T11:36:20Z</time>
      </trkpt>
      <trkpt lat="46.50437" lon="5.323">
        <ele>202.2</ele>
        <time>2022-04-22T11:36:24Z</time>
      </trkpt>
      <trkpt lat="46.5043" lon="5.32237">
        <ele>202.2</ele>
        <time>2022-04-22T11:36:30Z</time>
      </trkpt>
      <trkpt lat="46.5043" lon="5.32213">
        <ele>202.2</ele>
        <time>2022-04-22T11:36:32Z</time>
      </trkpt>
      <trkpt lat="46.50436" lon="5.32195">
        <ele>202.2</ele>
        <time>2022-04-22T11:36:34Z</time>
      </trkpt>
      <trkpt lat="46.50446" lon="5.32182">
        <ele>202</ele>
        <time>2022-04-22T11:36:36Z</time>
      </trkpt>
      <trkpt lat="46.50462" lon="5.32161">
        <ele>202.2</ele>
        <time>2022-04-22T11:36:39Z</time>
      </trkpt>
      <trkpt lat="46.50466" lon="5.32152">
        <ele>202.2</ele>
        <time>2022-04-22T11:36:40Z</time>
      </trkpt>
      <trkpt lat="46.50478" lon="5.32112">
        <ele>202.2</ele>
        <time>2022-04-22T11:36:44Z</time>
      </trkpt>
      <trkpt lat="46.50507" lon="5.32051">
        <ele>202.2</ele>
        <time>2022-04-22T11:36:51Z</time>
      </trkpt>
      <trkpt lat="46.50546" lon="5.31992">
        <ele>202.4</ele>
        <time>2022-04-22T11:36:59Z</time>
      </trkpt>
      <trkpt lat="46.50562" lon="5.31955">
        <ele>203.4</ele>
        <time>2022-04-22T11:37:04Z</time>
      </trkpt>
      <trkpt lat="46.50564" lon="5.31948">
        <ele>203.6</ele>
        <time>2022-04-22T11:37:05Z</time>
      </trkpt>
      <trkpt lat="46.50571" lon="5.31929">
        <ele>204.8</ele>
        <time>2022-04-22T11:37:08Z</time>
      </trkpt>
      <trkpt lat="46.50575" lon="5.31918">
        <ele>205.2</ele>
        <time>2022-04-22T11:37:10Z</time>
      </trkpt>
      <trkpt lat="46.50578" lon="5.31911">
        <ele>205.8</ele>
        <time>2022-04-22T11:37:11Z</time>
      </trkpt>
      <trkpt lat="46.50585" lon="5.31889">
        <ele>207</ele>
        <time>2022-04-22T11:37:15Z</time>
      </trkpt>
      <trkpt lat="46.50586" lon="5.31884">
        <ele>207.2</ele>
        <time>2022-04-22T11:37:16Z</time>
      </trkpt>
      <trkpt lat="46.50589" lon="5.31873">
        <ele>208</ele>
        <time>2022-04-22T11:37:18Z</time>
      </trkpt>
      <trkpt lat="46.50597" lon="5.31854">
        <ele>209</ele>
        <time>2022-04-22T11:37:22Z</time>
      </trkpt>
      <trkpt lat="46.50599" lon="5.31848">
        <ele>209.2</ele>
        <time>2022-04-22T11:37:23Z</time>
      </trkpt>
      <trkpt lat="46.50602" lon="5.31837">
        <ele>209.8</ele>
        <time>2022-04-22T11:37:25Z</time>
      </trkpt>
      <trkpt lat="46.50604" lon="5.31832">
        <ele>210</ele>
        <time>2022-04-22T11:37:26Z</time>
      </trkpt>
      <trkpt lat="46.50606" lon="5.31827">
        <ele>210.2</ele>
        <time>2022-04-22T11:37:27Z</time>
      </trkpt>
      <trkpt lat="46.50627" lon="5.31778">
        <ele>211</ele>
        <time>2022-04-22T11:37:35Z</time>
      </trkpt>
      <trkpt lat="46.50637" lon="5.31758">
        <ele>211.2</ele>
        <time>2022-04-22T11:37:38Z</time>
      </trkpt>
      <trkpt lat="46.50645" lon="5.31742">
        <ele>211.2</ele>
        <time>2022-04-22T11:37:40Z</time>
      </trkpt>
      <trkpt lat="46.5065" lon="5.31735">
        <ele>211.2</ele>
        <time>2022-04-22T11:37:41Z</time>
      </trkpt>
      <trkpt lat="46.50661" lon="5.31726">
        <ele>211.2</ele>
        <time>2022-04-22T11:37:43Z</time>
      </trkpt>
      <trkpt lat="46.50666" lon="5.31722">
        <ele>211.2</ele>
        <time>2022-04-22T11:37:44Z</time>
      </trkpt>
      <trkpt lat="46.50671" lon="5.3172">
        <ele>211.4</ele>
        <time>2022-04-22T11:37:45Z</time>
      </trkpt>
      <trkpt lat="46.50702" lon="5.31711">
        <ele>211.8</ele>
        <time>2022-04-22T11:37:50Z</time>
      </trkpt>
      <trkpt lat="46.50754" lon="5.31704">
        <ele>212</ele>
        <time>2022-04-22T11:37:58Z</time>
      </trkpt>
      <trkpt lat="46.50767" lon="5.31706">
        <ele>211.8</ele>
        <time>2022-04-22T11:38:00Z</time>
      </trkpt>
      <trkpt lat="46.5078" lon="5.31711">
        <ele>211.8</ele>
        <time>2022-04-22T11:38:02Z</time>
      </trkpt>
      <trkpt lat="46.50814" lon="5.31737">
        <ele>211.8</ele>
        <time>2022-04-22T11:38:08Z</time>
      </trkpt>
      <trkpt lat="46.50825" lon="5.31744">
        <ele>212</ele>
        <time>2022-04-22T11:38:10Z</time>
      </trkpt>
      <trkpt lat="46.50837" lon="5.31746">
        <ele>212</ele>
        <time>2022-04-22T11:38:12Z</time>
      </trkpt>
      <trkpt lat="46.50848" lon="5.31743">
        <ele>212.2</ele>
        <time>2022-04-22T11:38:14Z</time>
      </trkpt>
      <trkpt lat="46.50853" lon="5.3174">
        <ele>212.4</ele>
        <time>2022-04-22T11:38:15Z</time>
      </trkpt>
      <trkpt lat="46.50884" lon="5.31707">
        <ele>213.2</ele>
        <time>2022-04-22T11:38:21Z</time>
      </trkpt>
      <trkpt lat="46.50895" lon="5.31697">
        <ele>213.2</ele>
        <time>2022-04-22T11:38:23Z</time>
      </trkpt>
      <trkpt lat="46.50899" lon="5.31692">
        <ele>213.2</ele>
        <time>2022-04-22T11:38:24Z</time>
      </trkpt>
      <trkpt lat="46.5091" lon="5.3168">
        <ele>213.2</ele>
        <time>2022-04-22T11:38:26Z</time>
      </trkpt>
      <trkpt lat="46.5095" lon="5.31637">
        <ele>212.8</ele>
        <time>2022-04-22T11:38:32Z</time>
      </trkpt>
      <trkpt lat="46.50962" lon="5.31624">
        <ele>212</ele>
        <time>2022-04-22T11:38:34Z</time>
      </trkpt>
      <trkpt lat="46.50999" lon="5.31585">
        <ele>211.2</ele>
        <time>2022-04-22T11:38:40Z</time>
      </trkpt>
      <trkpt lat="46.51021" lon="5.31563">
        <ele>211.6</ele>
        <time>2022-04-22T11:38:44Z</time>
      </trkpt>
      <trkpt lat="46.51024" lon="5.31558">
        <ele>211.8</ele>
        <time>2022-04-22T11:38:45Z</time>
      </trkpt>
      <trkpt lat="46.51033" lon="5.31541">
        <ele>211.8</ele>
        <time>2022-04-22T11:38:47Z</time>
      </trkpt>
      <trkpt lat="46.5104" lon="5.31523">
        <ele>211.8</ele>
        <time>2022-04-22T11:38:49Z</time>
      </trkpt>
      <trkpt lat="46.51053" lon="5.31469">
        <ele>211</ele>
        <time>2022-04-22T11:38:54Z</time>
      </trkpt>
      <trkpt lat="46.51055" lon="5.31458">
        <ele>210.6</ele>
        <time>2022-04-22T11:38:55Z</time>
      </trkpt>
      <trkpt lat="46.51064" lon="5.31413">
        <ele>209.4</ele>
        <time>2022-04-22T11:38:59Z</time>
      </trkpt>
      <trkpt lat="46.51068" lon="5.3139">
        <ele>208.8</ele>
        <time>2022-04-22T11:39:01Z</time>
      </trkpt>
      <trkpt lat="46.51068" lon="5.31354">
        <ele>208.2</ele>
        <time>2022-04-22T11:39:04Z</time>
      </trkpt>
      <trkpt lat="46.51067" lon="5.31332">
        <ele>207.6</ele>
        <time>2022-04-22T11:39:06Z</time>
      </trkpt>
      <trkpt lat="46.51073" lon="5.31308">
        <ele>207</ele>
        <time>2022-04-22T11:39:08Z</time>
      </trkpt>
      <trkpt lat="46.51077" lon="5.31297">
        <ele>206.8</ele>
        <time>2022-04-22T11:39:09Z</time>
      </trkpt>
      <trkpt lat="46.51084" lon="5.31287">
        <ele>206.6</ele>
        <time>2022-04-22T11:39:10Z</time>
      </trkpt>
      <trkpt lat="46.51099" lon="5.31271">
        <ele>206</ele>
        <time>2022-04-22T11:39:12Z</time>
      </trkpt>
      <trkpt lat="46.51106" lon="5.31261">
        <ele>205.4</ele>
        <time>2022-04-22T11:39:13Z</time>
      </trkpt>
      <trkpt lat="46.51127" lon="5.31231">
        <ele>203.6</ele>
        <time>2022-04-22T11:39:16Z</time>
      </trkpt>
      <trkpt lat="46.51158" lon="5.31193">
        <ele>202.4</ele>
        <time>2022-04-22T11:39:20Z</time>
      </trkpt>
      <trkpt lat="46.51186" lon="5.31159">
        <ele>201.8</ele>
        <time>2022-04-22T11:39:24Z</time>
      </trkpt>
      <trkpt lat="46.512" lon="5.31143">
        <ele>201.4</ele>
        <time>2022-04-22T11:39:26Z</time>
      </trkpt>
      <trkpt lat="46.51213" lon="5.31128">
        <ele>201.2</ele>
        <time>2022-04-22T11:39:28Z</time>
      </trkpt>
      <trkpt lat="46.51248" lon="5.3109">
        <ele>200.8</ele>
        <time>2022-04-22T11:39:33Z</time>
      </trkpt>
      <trkpt lat="46.51257" lon="5.31084">
        <ele>200.6</ele>
        <time>2022-04-22T11:39:34Z</time>
      </trkpt>
      <trkpt lat="46.51265" lon="5.31081">
        <ele>200.4</ele>
        <time>2022-04-22T11:39:35Z</time>
      </trkpt>
      <trkpt lat="46.51274" lon="5.3108">
        <ele>200</ele>
        <time>2022-04-22T11:39:36Z</time>
      </trkpt>
      <trkpt lat="46.51317" lon="5.31076">
        <ele>199.6</ele>
        <time>2022-04-22T11:39:41Z</time>
      </trkpt>
      <trkpt lat="46.51357" lon="5.31072">
        <ele>199.6</ele>
        <time>2022-04-22T11:39:46Z</time>
      </trkpt>
      <trkpt lat="46.51411" lon="5.31068">
        <ele>199.6</ele>
        <time>2022-04-22T11:39:53Z</time>
      </trkpt>
      <trkpt lat="46.51418" lon="5.31068">
        <ele>199.6</ele>
        <time>2022-04-22T11:39:54Z</time>
      </trkpt>
      <trkpt lat="46.51477" lon="5.31067">
        <ele>199.8</ele>
        <time>2022-04-22T11:40:02Z</time>
      </trkpt>
      <trkpt lat="46.51484" lon="5.31068">
        <ele>200</ele>
        <time>2022-04-22T11:40:03Z</time>
      </trkpt>
      <trkpt lat="46.51534" lon="5.3107">
        <ele>200.2</ele>
        <time>2022-04-22T11:40:10Z</time>
      </trkpt>
      <trkpt lat="46.51591" lon="5.3108">
        <ele>200.6</ele>
        <time>2022-04-22T11:40:18Z</time>
      </trkpt>
      <trkpt lat="46.51631" lon="5.311">
        <ele>201</ele>
        <time>2022-04-22T11:40:25Z</time>
      </trkpt>
      <trkpt lat="46.51642" lon="5.31102">
        <ele>201.6</ele>
        <time>2022-04-22T11:40:27Z</time>
      </trkpt>
      <trkpt lat="46.51652" lon="5.31101">
        <ele>202.2</ele>
        <time>2022-04-22T11:40:29Z</time>
      </trkpt>
      <trkpt lat="46.51662" lon="5.31101">
        <ele>202.6</ele>
        <time>2022-04-22T11:40:31Z</time>
      </trkpt>
      <trkpt lat="46.51666" lon="5.31103">
        <ele>202.8</ele>
        <time>2022-04-22T11:40:32Z</time>
      </trkpt>
      <trkpt lat="46.51671" lon="5.31107">
        <ele>203</ele>
        <time>2022-04-22T11:40:33Z</time>
      </trkpt>
      <trkpt lat="46.51678" lon="5.3112">
        <ele>203</ele>
        <time>2022-04-22T11:40:35Z</time>
      </trkpt>
      <trkpt lat="46.51686" lon="5.31135">
        <ele>203</ele>
        <time>2022-04-22T11:40:37Z</time>
      </trkpt>
      <trkpt lat="46.51695" lon="5.31149">
        <ele>202.8</ele>
        <time>2022-04-22T11:40:39Z</time>
      </trkpt>
      <trkpt lat="46.51707" lon="5.31161">
        <ele>202.6</ele>
        <time>2022-04-22T11:40:41Z</time>
      </trkpt>
      <trkpt lat="46.51721" lon="5.3117">
        <ele>202.2</ele>
        <time>2022-04-22T11:40:43Z</time>
      </trkpt>
      <trkpt lat="46.51728" lon="5.31174">
        <ele>202</ele>
        <time>2022-04-22T11:40:44Z</time>
      </trkpt>
      <trkpt lat="46.51736" lon="5.31176">
        <ele>202</ele>
        <time>2022-04-22T11:40:45Z</time>
      </trkpt>
      <trkpt lat="46.51744" lon="5.31178">
        <ele>201.8</ele>
        <time>2022-04-22T11:40:46Z</time>
      </trkpt>
      <trkpt lat="46.51773" lon="5.3118">
        <ele>201.4</ele>
        <time>2022-04-22T11:40:49Z</time>
      </trkpt>
      <trkpt lat="46.5179" lon="5.3118">
        <ele>200.6</ele>
        <time>2022-04-22T11:40:51Z</time>
      </trkpt>
      <trkpt lat="46.5182" lon="5.31182">
        <ele>199.4</ele>
        <time>2022-04-22T11:40:54Z</time>
      </trkpt>
      <trkpt lat="46.5183" lon="5.31184">
        <ele>198.6</ele>
        <time>2022-04-22T11:40:55Z</time>
      </trkpt>
      <trkpt lat="46.51841" lon="5.31188">
        <ele>198.2</ele>
        <time>2022-04-22T11:40:56Z</time>
      </trkpt>
      <trkpt lat="46.5186" lon="5.31201">
        <ele>197.4</ele>
        <time>2022-04-22T11:40:58Z</time>
      </trkpt>
      <trkpt lat="46.51869" lon="5.31209">
        <ele>197.2</ele>
        <time>2022-04-22T11:40:59Z</time>
      </trkpt>
      <trkpt lat="46.51876" lon="5.31219">
        <ele>196.2</ele>
        <time>2022-04-22T11:41:00Z</time>
      </trkpt>
      <trkpt lat="46.51896" lon="5.3125">
        <ele>195.4</ele>
        <time>2022-04-22T11:41:03Z</time>
      </trkpt>
      <trkpt lat="46.51909" lon="5.3127">
        <ele>195.2</ele>
        <time>2022-04-22T11:41:05Z</time>
      </trkpt>
      <trkpt lat="46.51927" lon="5.31298">
        <ele>194.8</ele>
        <time>2022-04-22T11:41:08Z</time>
      </trkpt>
      <trkpt lat="46.51968" lon="5.3136">
        <ele>194.8</ele>
        <time>2022-04-22T11:41:15Z</time>
      </trkpt>
      <trkpt lat="46.5198" lon="5.31377">
        <ele>195</ele>
        <time>2022-04-22T11:41:17Z</time>
      </trkpt>
      <trkpt lat="46.52018" lon="5.31433">
        <ele>195.8</ele>
        <time>2022-04-22T11:41:24Z</time>
      </trkpt>
      <trkpt lat="46.52027" lon="5.31448">
        <ele>196</ele>
        <time>2022-04-22T11:41:26Z</time>
      </trkpt>
      <trkpt lat="46.52037" lon="5.31463">
        <ele>196.4</ele>
        <time>2022-04-22T11:41:28Z</time>
      </trkpt>
      <trkpt lat="46.5206" lon="5.31497">
        <ele>197.2</ele>
        <time>2022-04-22T11:41:33Z</time>
      </trkpt>
      <trkpt lat="46.52065" lon="5.31504">
        <ele>197.4</ele>
        <time>2022-04-22T11:41:34Z</time>
      </trkpt>
      <trkpt lat="46.52082" lon="5.31529">
        <ele>198.6</ele>
        <time>2022-04-22T11:41:38Z</time>
      </trkpt>
      <trkpt lat="46.52094" lon="5.31547">
        <ele>199.2</ele>
        <time>2022-04-22T11:41:41Z</time>
      </trkpt>
      <trkpt lat="46.52105" lon="5.31565">
        <ele>199.8</ele>
        <time>2022-04-22T11:41:44Z</time>
      </trkpt>
      <trkpt lat="46.52118" lon="5.31585">
        <ele>200.2</ele>
        <time>2022-04-22T11:41:47Z</time>
      </trkpt>
      <trkpt lat="46.52121" lon="5.3159">
        <ele>200.4</ele>
        <time>2022-04-22T11:41:48Z</time>
      </trkpt>
      <trkpt lat="46.52125" lon="5.31595">
        <ele>200.8</ele>
        <time>2022-04-22T11:41:49Z</time>
      </trkpt>
      <trkpt lat="46.52136" lon="5.31612">
        <ele>201.6</ele>
        <time>2022-04-22T11:41:52Z</time>
      </trkpt>
      <trkpt lat="46.52139" lon="5.31618">
        <ele>202</ele>
        <time>2022-04-22T11:41:53Z</time>
      </trkpt>
      <trkpt lat="46.52146" lon="5.31629">
        <ele>202.4</ele>
        <time>2022-04-22T11:41:55Z</time>
      </trkpt>
      <trkpt lat="46.52155" lon="5.31639">
        <ele>202.6</ele>
        <time>2022-04-22T11:41:57Z</time>
      </trkpt>
      <trkpt lat="46.52172" lon="5.31661">
        <ele>203</ele>
        <time>2022-04-22T11:42:01Z</time>
      </trkpt>
      <trkpt lat="46.5218" lon="5.31672">
        <ele>203.4</ele>
        <time>2022-04-22T11:42:03Z</time>
      </trkpt>
      <trkpt lat="46.52196" lon="5.31692">
        <ele>203.8</ele>
        <time>2022-04-22T11:42:07Z</time>
      </trkpt>
      <trkpt lat="46.52206" lon="5.31705">
        <ele>204</ele>
        <time>2022-04-22T11:42:09Z</time>
      </trkpt>
      <trkpt lat="46.52218" lon="5.31722">
        <ele>204.6</ele>
        <time>2022-04-22T11:42:12Z</time>
      </trkpt>
      <trkpt lat="46.5223" lon="5.31739">
        <ele>204.8</ele>
        <time>2022-04-22T11:42:15Z</time>
      </trkpt>
      <trkpt lat="46.52238" lon="5.31751">
        <ele>205.2</ele>
        <time>2022-04-22T11:42:17Z</time>
      </trkpt>
      <trkpt lat="46.52247" lon="5.31762">
        <ele>205.6</ele>
        <time>2022-04-22T11:42:19Z</time>
      </trkpt>
      <trkpt lat="46.52259" lon="5.31779">
        <ele>206</ele>
        <time>2022-04-22T11:42:22Z</time>
      </trkpt>
      <trkpt lat="46.52262" lon="5.31783">
        <ele>206.2</ele>
        <time>2022-04-22T11:42:23Z</time>
      </trkpt>
      <trkpt lat="46.52271" lon="5.31792">
        <ele>206.6</ele>
        <time>2022-04-22T11:42:25Z</time>
      </trkpt>
      <trkpt lat="46.5228" lon="5.31807">
        <ele>207.2</ele>
        <time>2022-04-22T11:42:28Z</time>
      </trkpt>
      <trkpt lat="46.52288" lon="5.31819">
        <ele>207.4</ele>
        <time>2022-04-22T11:42:30Z</time>
      </trkpt>
      <trkpt lat="46.52292" lon="5.31824">
        <ele>207.4</ele>
        <time>2022-04-22T11:42:31Z</time>
      </trkpt>
      <trkpt lat="46.52298" lon="5.31834">
        <ele>207.8</ele>
        <time>2022-04-22T11:42:33Z</time>
      </trkpt>
      <trkpt lat="46.52302" lon="5.31841">
        <ele>208</ele>
        <time>2022-04-22T11:42:34Z</time>
      </trkpt>
      <trkpt lat="46.5231" lon="5.31851">
        <ele>208.4</ele>
        <time>2022-04-22T11:42:36Z</time>
      </trkpt>
      <trkpt lat="46.52325" lon="5.31873">
        <ele>209.2</ele>
        <time>2022-04-22T11:42:40Z</time>
      </trkpt>
      <trkpt lat="46.52331" lon="5.31883">
        <ele>209.6</ele>
        <time>2022-04-22T11:42:42Z</time>
      </trkpt>
      <trkpt lat="46.52347" lon="5.31904">
        <ele>210.4</ele>
        <time>2022-04-22T11:42:46Z</time>
      </trkpt>
      <trkpt lat="46.52351" lon="5.3191">
        <ele>210.6</ele>
        <time>2022-04-22T11:42:47Z</time>
      </trkpt>
      <trkpt lat="46.52355" lon="5.31916">
        <ele>210.8</ele>
        <time>2022-04-22T11:42:48Z</time>
      </trkpt>
      <trkpt lat="46.52378" lon="5.31949">
        <ele>211</ele>
        <time>2022-04-22T11:42:53Z</time>
      </trkpt>
      <trkpt lat="46.5241" lon="5.31997">
        <ele>209.8</ele>
        <time>2022-04-22T11:42:59Z</time>
      </trkpt>
      <trkpt lat="46.52416" lon="5.32005">
        <ele>209.4</ele>
        <time>2022-04-22T11:43:00Z</time>
      </trkpt>
      <trkpt lat="46.5244" lon="5.3204">
        <ele>208</ele>
        <time>2022-04-22T11:43:04Z</time>
      </trkpt>
      <trkpt lat="46.52458" lon="5.32067">
        <ele>207.2</ele>
        <time>2022-04-22T11:43:07Z</time>
      </trkpt>
      <trkpt lat="46.52464" lon="5.32075">
        <ele>206.8</ele>
        <time>2022-04-22T11:43:08Z</time>
      </trkpt>
      <trkpt lat="46.52482" lon="5.32102">
        <ele>205.8</ele>
        <time>2022-04-22T11:43:11Z</time>
      </trkpt>
      <trkpt lat="46.52514" lon="5.32146">
        <ele>204.2</ele>
        <time>2022-04-22T11:43:16Z</time>
      </trkpt>
      <trkpt lat="46.52521" lon="5.32155">
        <ele>203.6</ele>
        <time>2022-04-22T11:43:17Z</time>
      </trkpt>
      <trkpt lat="46.52535" lon="5.32171">
        <ele>203</ele>
        <time>2022-04-22T11:43:19Z</time>
      </trkpt>
      <trkpt lat="46.5256" lon="5.32193">
        <ele>202.2</ele>
        <time>2022-04-22T11:43:22Z</time>
      </trkpt>
      <trkpt lat="46.52569" lon="5.32198">
        <ele>201.8</ele>
        <time>2022-04-22T11:43:23Z</time>
      </trkpt>
      <trkpt lat="46.52609" lon="5.32217">
        <ele>200.4</ele>
        <time>2022-04-22T11:43:27Z</time>
      </trkpt>
      <trkpt lat="46.52629" lon="5.32228">
        <ele>199.2</ele>
        <time>2022-04-22T11:43:29Z</time>
      </trkpt>
      <trkpt lat="46.52649" lon="5.32241">
        <ele>197.4</ele>
        <time>2022-04-22T11:43:31Z</time>
      </trkpt>
      <trkpt lat="46.52658" lon="5.32249">
        <ele>196.8</ele>
        <time>2022-04-22T11:43:32Z</time>
      </trkpt>
      <trkpt lat="46.52668" lon="5.32257">
        <ele>195.8</ele>
        <time>2022-04-22T11:43:33Z</time>
      </trkpt>
      <trkpt lat="46.52686" lon="5.32274">
        <ele>194.6</ele>
        <time>2022-04-22T11:43:35Z</time>
      </trkpt>
      <trkpt lat="46.52703" lon="5.32294">
        <ele>193.8</ele>
        <time>2022-04-22T11:43:37Z</time>
      </trkpt>
      <trkpt lat="46.52716" lon="5.32311">
        <ele>193.4</ele>
        <time>2022-04-22T11:43:39Z</time>
      </trkpt>
      <trkpt lat="46.52737" lon="5.32337">
        <ele>193.4</ele>
        <time>2022-04-22T11:43:42Z</time>
      </trkpt>
      <trkpt lat="46.52778" lon="5.32383">
        <ele>193.8</ele>
        <time>2022-04-22T11:43:48Z</time>
      </trkpt>
      <trkpt lat="46.52819" lon="5.32427">
        <ele>194.2</ele>
        <time>2022-04-22T11:43:54Z</time>
      </trkpt>
      <trkpt lat="46.52867" lon="5.32477">
        <ele>194</ele>
        <time>2022-04-22T11:44:01Z</time>
      </trkpt>
      <trkpt lat="46.52912" lon="5.32522">
        <ele>194.4</ele>
        <time>2022-04-22T11:44:08Z</time>
      </trkpt>
      <trkpt lat="46.52931" lon="5.32541">
        <ele>194.4</ele>
        <time>2022-04-22T11:44:11Z</time>
      </trkpt>
      <trkpt lat="46.52956" lon="5.32565">
        <ele>194.6</ele>
        <time>2022-04-22T11:44:15Z</time>
      </trkpt>
      <trkpt lat="46.52984" lon="5.32594">
        <ele>194.8</ele>
        <time>2022-04-22T11:44:20Z</time>
      </trkpt>
      <trkpt lat="46.53003" lon="5.32614">
        <ele>195.6</ele>
        <time>2022-04-22T11:44:24Z</time>
      </trkpt>
      <trkpt lat="46.53008" lon="5.32618">
        <ele>195.8</ele>
        <time>2022-04-22T11:44:25Z</time>
      </trkpt>
      <trkpt lat="46.5302" lon="5.32632">
        <ele>197</ele>
        <time>2022-04-22T11:44:28Z</time>
      </trkpt>
      <trkpt lat="46.53031" lon="5.32644">
        <ele>198.2</ele>
        <time>2022-04-22T11:44:31Z</time>
      </trkpt>
      <trkpt lat="46.53048" lon="5.32662">
        <ele>199.2</ele>
        <time>2022-04-22T11:44:36Z</time>
      </trkpt>
      <trkpt lat="46.53052" lon="5.32666">
        <ele>199.6</ele>
        <time>2022-04-22T11:44:37Z</time>
      </trkpt>
      <trkpt lat="46.53055" lon="5.32669">
        <ele>200.4</ele>
        <time>2022-04-22T11:44:38Z</time>
      </trkpt>
      <trkpt lat="46.53063" lon="5.32678">
        <ele>201</ele>
        <time>2022-04-22T11:44:40Z</time>
      </trkpt>
      <trkpt lat="46.53069" lon="5.32684">
        <ele>201.4</ele>
        <time>2022-04-22T11:44:42Z</time>
      </trkpt>
      <trkpt lat="46.53075" lon="5.32692">
        <ele>202</ele>
        <time>2022-04-22T11:44:44Z</time>
      </trkpt>
      <trkpt lat="46.53081" lon="5.327">
        <ele>202.4</ele>
        <time>2022-04-22T11:44:46Z</time>
      </trkpt>
      <trkpt lat="46.53083" lon="5.32703">
        <ele>202.8</ele>
        <time>2022-04-22T11:44:47Z</time>
      </trkpt>
      <trkpt lat="46.53093" lon="5.32715">
        <ele>203.4</ele>
        <time>2022-04-22T11:44:50Z</time>
      </trkpt>
      <trkpt lat="46.53099" lon="5.32721">
        <ele>204</ele>
        <time>2022-04-22T11:44:52Z</time>
      </trkpt>
      <trkpt lat="46.53112" lon="5.32734">
        <ele>205.2</ele>
        <time>2022-04-22T11:44:56Z</time>
      </trkpt>
      <trkpt lat="46.53115" lon="5.32737">
        <ele>205.4</ele>
        <time>2022-04-22T11:44:57Z</time>
      </trkpt>
      <trkpt lat="46.53124" lon="5.32749">
        <ele>206.2</ele>
        <time>2022-04-22T11:45:00Z</time>
      </trkpt>
      <trkpt lat="46.53142" lon="5.32771">
        <ele>207.6</ele>
        <time>2022-04-22T11:45:06Z</time>
      </trkpt>
      <trkpt lat="46.53158" lon="5.3279">
        <ele>208.6</ele>
        <time>2022-04-22T11:45:11Z</time>
      </trkpt>
      <trkpt lat="46.53165" lon="5.32804">
        <ele>209.4</ele>
        <time>2022-04-22T11:45:14Z</time>
      </trkpt>
      <trkpt lat="46.53168" lon="5.32808">
        <ele>209.8</ele>
        <time>2022-04-22T11:45:15Z</time>
      </trkpt>
      <trkpt lat="46.53182" lon="5.32835">
        <ele>210.8</ele>
        <time>2022-04-22T11:45:21Z</time>
      </trkpt>
      <trkpt lat="46.53193" lon="5.32858">
        <ele>212</ele>
        <time>2022-04-22T11:45:26Z</time>
      </trkpt>
      <trkpt lat="46.53197" lon="5.32868">
        <ele>212.4</ele>
        <time>2022-04-22T11:45:28Z</time>
      </trkpt>
      <trkpt lat="46.53207" lon="5.32886">
        <ele>213</ele>
        <time>2022-04-22T11:45:32Z</time>
      </trkpt>
      <trkpt lat="46.53216" lon="5.32904">
        <ele>214.2</ele>
        <time>2022-04-22T11:45:36Z</time>
      </trkpt>
      <trkpt lat="46.53218" lon="5.32908">
        <ele>214.2</ele>
        <time>2022-04-22T11:45:37Z</time>
      </trkpt>
      <trkpt lat="46.53228" lon="5.3293">
        <ele>215.2</ele>
        <time>2022-04-22T11:45:42Z</time>
      </trkpt>
      <trkpt lat="46.53235" lon="5.32944">
        <ele>216</ele>
        <time>2022-04-22T11:45:45Z</time>
      </trkpt>
      <trkpt lat="46.53243" lon="5.32958">
        <ele>216.4</ele>
        <time>2022-04-22T11:45:48Z</time>
      </trkpt>
      <trkpt lat="46.53248" lon="5.32968">
        <ele>216.8</ele>
        <time>2022-04-22T11:45:50Z</time>
      </trkpt>
      <trkpt lat="46.5326" lon="5.32992">
        <ele>217.4</ele>
        <time>2022-04-22T11:45:55Z</time>
      </trkpt>
      <trkpt lat="46.53284" lon="5.33033">
        <ele>218.6</ele>
        <time>2022-04-22T11:46:03Z</time>
      </trkpt>
      <trkpt lat="46.53288" lon="5.33038">
        <ele>218.6</ele>
        <time>2022-04-22T11:46:04Z</time>
      </trkpt>
      <trkpt lat="46.53295" lon="5.33049">
        <ele>218.8</ele>
        <time>2022-04-22T11:46:06Z</time>
      </trkpt>
      <trkpt lat="46.53305" lon="5.33066">
        <ele>218.8</ele>
        <time>2022-04-22T11:46:09Z</time>
      </trkpt>
      <trkpt lat="46.53343" lon="5.33118">
        <ele>219.2</ele>
        <time>2022-04-22T11:46:18Z</time>
      </trkpt>
      <trkpt lat="46.53384" lon="5.33174">
        <ele>219.2</ele>
        <time>2022-04-22T11:46:27Z</time>
      </trkpt>
      <trkpt lat="46.53389" lon="5.3318">
        <ele>219.2</ele>
        <time>2022-04-22T11:46:28Z</time>
      </trkpt>
      <trkpt lat="46.53427" lon="5.33232">
        <ele>219.4</ele>
        <time>2022-04-22T11:46:36Z</time>
      </trkpt>
      <trkpt lat="46.5347" lon="5.33293">
        <ele>219.2</ele>
        <time>2022-04-22T11:46:45Z</time>
      </trkpt>
      <trkpt lat="46.5348" lon="5.33306">
        <ele>219.2</ele>
        <time>2022-04-22T11:46:47Z</time>
      </trkpt>
      <trkpt lat="46.53519" lon="5.33361">
        <ele>219</ele>
        <time>2022-04-22T11:46:55Z</time>
      </trkpt>
      <trkpt lat="46.53529" lon="5.33376">
        <ele>218.6</ele>
        <time>2022-04-22T11:46:57Z</time>
      </trkpt>
      <trkpt lat="46.53567" lon="5.33428">
        <ele>217.4</ele>
        <time>2022-04-22T11:47:04Z</time>
      </trkpt>
      <trkpt lat="46.53578" lon="5.33443">
        <ele>217</ele>
        <time>2022-04-22T11:47:06Z</time>
      </trkpt>
      <trkpt lat="46.53589" lon="5.33458">
        <ele>216.4</ele>
        <time>2022-04-22T11:47:08Z</time>
      </trkpt>
      <trkpt lat="46.53622" lon="5.33504">
        <ele>215.4</ele>
        <time>2022-04-22T11:47:14Z</time>
      </trkpt>
      <trkpt lat="46.53627" lon="5.33515">
        <ele>215.4</ele>
        <time>2022-04-22T11:47:16Z</time>
      </trkpt>
      <trkpt lat="46.53628" lon="5.33518">
        <ele>215.2</ele>
        <time>2022-04-22T11:47:17Z</time>
      </trkpt>
      <trkpt lat="46.53632" lon="5.33524">
        <ele>215</ele>
        <time>2022-04-22T11:47:20Z</time>
      </trkpt>
      <trkpt lat="46.53636" lon="5.33525">
        <ele>215</ele>
        <time>2022-04-22T11:47:21Z</time>
      </trkpt>
      <trkpt lat="46.53652" lon="5.33512">
        <ele>214.8</ele>
        <time>2022-04-22T11:47:25Z</time>
      </trkpt>
      <trkpt lat="46.5368" lon="5.33488">
        <ele>215.2</ele>
        <time>2022-04-22T11:47:31Z</time>
      </trkpt>
      <trkpt lat="46.53704" lon="5.33468">
        <ele>216</ele>
        <time>2022-04-22T11:47:36Z</time>
      </trkpt>
      <trkpt lat="46.5371" lon="5.3347">
        <ele>216.2</ele>
        <time>2022-04-22T11:47:37Z</time>
      </trkpt>
      <trkpt lat="46.53737" lon="5.33482">
        <ele>216.4</ele>
        <time>2022-04-22T11:47:41Z</time>
      </trkpt>
      <trkpt lat="46.53775" lon="5.33504">
        <ele>215.8</ele>
        <time>2022-04-22T11:47:46Z</time>
      </trkpt>
      <trkpt lat="46.53804" lon="5.33527">
        <ele>214.2</ele>
        <time>2022-04-22T11:47:50Z</time>
      </trkpt>
      <trkpt lat="46.53818" lon="5.33537">
        <ele>213.6</ele>
        <time>2022-04-22T11:47:52Z</time>
      </trkpt>
      <trkpt lat="46.53833" lon="5.33545">
        <ele>213</ele>
        <time>2022-04-22T11:47:54Z</time>
      </trkpt>
      <trkpt lat="46.53848" lon="5.33553">
        <ele>212.6</ele>
        <time>2022-04-22T11:47:56Z</time>
      </trkpt>
      <trkpt lat="46.53871" lon="5.3356">
        <ele>212.2</ele>
        <time>2022-04-22T11:47:59Z</time>
      </trkpt>
      <trkpt lat="46.5389" lon="5.33562">
        <ele>211.8</ele>
        <time>2022-04-22T11:48:01Z</time>
      </trkpt>
      <trkpt lat="46.53918" lon="5.33564">
        <ele>211.2</ele>
        <time>2022-04-22T11:48:04Z</time>
      </trkpt>
      <trkpt lat="46.53936" lon="5.33565">
        <ele>210</ele>
        <time>2022-04-22T11:48:06Z</time>
      </trkpt>
      <trkpt lat="46.53954" lon="5.33566">
        <ele>208.6</ele>
        <time>2022-04-22T11:48:08Z</time>
      </trkpt>
      <trkpt lat="46.53988" lon="5.33567">
        <ele>207.8</ele>
        <time>2022-04-22T11:48:11Z</time>
      </trkpt>
      <trkpt lat="46.53998" lon="5.33569">
        <ele>207.6</ele>
        <time>2022-04-22T11:48:12Z</time>
      </trkpt>
      <trkpt lat="46.5402" lon="5.33576">
        <ele>206.4</ele>
        <time>2022-04-22T11:48:14Z</time>
      </trkpt>
      <trkpt lat="46.5403" lon="5.33582">
        <ele>205</ele>
        <time>2022-04-22T11:48:15Z</time>
      </trkpt>
      <trkpt lat="46.5405" lon="5.33595">
        <ele>203.4</ele>
        <time>2022-04-22T11:48:17Z</time>
      </trkpt>
      <trkpt lat="46.5407" lon="5.33608">
        <ele>202.2</ele>
        <time>2022-04-22T11:48:19Z</time>
      </trkpt>
      <trkpt lat="46.54079" lon="5.33613">
        <ele>201</ele>
        <time>2022-04-22T11:48:20Z</time>
      </trkpt>
      <trkpt lat="46.54097" lon="5.33625">
        <ele>199.8</ele>
        <time>2022-04-22T11:48:22Z</time>
      </trkpt>
      <trkpt lat="46.54123" lon="5.33638">
        <ele>199.4</ele>
        <time>2022-04-22T11:48:25Z</time>
      </trkpt>
      <trkpt lat="46.5416" lon="5.3365">
        <ele>200.2</ele>
        <time>2022-04-22T11:48:30Z</time>
      </trkpt>
      <trkpt lat="46.54181" lon="5.33651">
        <ele>201.2</ele>
        <time>2022-04-22T11:48:33Z</time>
      </trkpt>
      <trkpt lat="46.54201" lon="5.33653">
        <ele>202.6</ele>
        <time>2022-04-22T11:48:36Z</time>
      </trkpt>
      <trkpt lat="46.54224" lon="5.33655">
        <ele>203.8</ele>
        <time>2022-04-22T11:48:40Z</time>
      </trkpt>
      <trkpt lat="46.54242" lon="5.33656">
        <ele>204.8</ele>
        <time>2022-04-22T11:48:43Z</time>
      </trkpt>
      <trkpt lat="46.54282" lon="5.33658">
        <ele>205.8</ele>
        <time>2022-04-22T11:48:49Z</time>
      </trkpt>
      <trkpt lat="46.54341" lon="5.33662">
        <ele>204.2</ele>
        <time>2022-04-22T11:48:57Z</time>
      </trkpt>
      <trkpt lat="46.54358" lon="5.33665">
        <ele>203.6</ele>
        <time>2022-04-22T11:48:59Z</time>
      </trkpt>
      <trkpt lat="46.54382" lon="5.33674">
        <ele>203</ele>
        <time>2022-04-22T11:49:02Z</time>
      </trkpt>
      <trkpt lat="46.54395" lon="5.3368">
        <ele>202.4</ele>
        <time>2022-04-22T11:49:04Z</time>
      </trkpt>
      <trkpt lat="46.54428" lon="5.33695">
        <ele>202.8</ele>
        <time>2022-04-22T11:49:09Z</time>
      </trkpt>
      <trkpt lat="46.54439" lon="5.337">
        <ele>203.6</ele>
        <time>2022-04-22T11:49:11Z</time>
      </trkpt>
      <trkpt lat="46.54449" lon="5.33705">
        <ele>204</ele>
        <time>2022-04-22T11:49:13Z</time>
      </trkpt>
      <trkpt lat="46.54453" lon="5.33707">
        <ele>204.2</ele>
        <time>2022-04-22T11:49:14Z</time>
      </trkpt>
      <trkpt lat="46.54458" lon="5.33709">
        <ele>204.6</ele>
        <time>2022-04-22T11:49:15Z</time>
      </trkpt>
      <trkpt lat="46.54477" lon="5.33717">
        <ele>205.8</ele>
        <time>2022-04-22T11:49:19Z</time>
      </trkpt>
      <trkpt lat="46.54491" lon="5.33724">
        <ele>206.6</ele>
        <time>2022-04-22T11:49:22Z</time>
      </trkpt>
      <trkpt lat="46.54495" lon="5.33726">
        <ele>206.8</ele>
        <time>2022-04-22T11:49:23Z</time>
      </trkpt>
      <trkpt lat="46.54511" lon="5.33734">
        <ele>208.4</ele>
        <time>2022-04-22T11:49:27Z</time>
      </trkpt>
      <trkpt lat="46.54522" lon="5.33741">
        <ele>209</ele>
        <time>2022-04-22T11:49:30Z</time>
      </trkpt>
      <trkpt lat="46.54526" lon="5.33743">
        <ele>209.6</ele>
        <time>2022-04-22T11:49:31Z</time>
      </trkpt>
      <trkpt lat="46.54541" lon="5.3375">
        <ele>210.6</ele>
        <time>2022-04-22T11:49:35Z</time>
      </trkpt>
      <trkpt lat="46.54552" lon="5.33757">
        <ele>211.6</ele>
        <time>2022-04-22T11:49:38Z</time>
      </trkpt>
      <trkpt lat="46.54555" lon="5.33759">
        <ele>211.6</ele>
        <time>2022-04-22T11:49:39Z</time>
      </trkpt>
      <trkpt lat="46.54566" lon="5.33764">
        <ele>212.8</ele>
        <time>2022-04-22T11:49:42Z</time>
      </trkpt>
      <trkpt lat="46.54585" lon="5.33771">
        <ele>213.8</ele>
        <time>2022-04-22T11:49:47Z</time>
      </trkpt>
      <trkpt lat="46.54588" lon="5.33772">
        <ele>214</ele>
        <time>2022-04-22T11:49:48Z</time>
      </trkpt>
      <trkpt lat="46.54605" lon="5.33776">
        <ele>215</ele>
        <time>2022-04-22T11:49:52Z</time>
      </trkpt>
      <trkpt lat="46.54617" lon="5.3378">
        <ele>215.4</ele>
        <time>2022-04-22T11:49:55Z</time>
      </trkpt>
      <trkpt lat="46.5465" lon="5.33788">
        <ele>215.8</ele>
        <time>2022-04-22T11:50:01Z</time>
      </trkpt>
      <trkpt lat="46.5469" lon="5.33791">
        <ele>215.4</ele>
        <time>2022-04-22T11:50:07Z</time>
      </trkpt>
      <trkpt lat="46.5473" lon="5.33783">
        <ele>214</ele>
        <time>2022-04-22T11:50:12Z</time>
      </trkpt>
      <trkpt lat="46.54772" lon="5.33778">
        <ele>212.6</ele>
        <time>2022-04-22T11:50:17Z</time>
      </trkpt>
      <trkpt lat="46.5478" lon="5.33778">
        <ele>212.4</ele>
        <time>2022-04-22T11:50:18Z</time>
      </trkpt>
      <trkpt lat="46.54814" lon="5.3378">
        <ele>211.2</ele>
        <time>2022-04-22T11:50:22Z</time>
      </trkpt>
      <trkpt lat="46.54842" lon="5.33781">
        <ele>210</ele>
        <time>2022-04-22T11:50:25Z</time>
      </trkpt>
      <trkpt lat="46.54851" lon="5.3378">
        <ele>209.4</ele>
        <time>2022-04-22T11:50:26Z</time>
      </trkpt>
      <trkpt lat="46.54867" lon="5.33777">
        <ele>208.6</ele>
        <time>2022-04-22T11:50:28Z</time>
      </trkpt>
      <trkpt lat="46.54892" lon="5.33772">
        <ele>207.6</ele>
        <time>2022-04-22T11:50:31Z</time>
      </trkpt>
      <trkpt lat="46.549" lon="5.33772">
        <ele>207.4</ele>
        <time>2022-04-22T11:50:32Z</time>
      </trkpt>
      <trkpt lat="46.54949" lon="5.33777">
        <ele>206.8</ele>
        <time>2022-04-22T11:50:38Z</time>
      </trkpt>
      <trkpt lat="46.54985" lon="5.33786">
        <ele>207</ele>
        <time>2022-04-22T11:50:43Z</time>
      </trkpt>
      <trkpt lat="46.55" lon="5.33791">
        <ele>207</ele>
        <time>2022-04-22T11:50:45Z</time>
      </trkpt>
      <trkpt lat="46.55043" lon="5.33809">
        <ele>207.2</ele>
        <time>2022-04-22T11:50:52Z</time>
      </trkpt>
      <trkpt lat="46.55075" lon="5.33835">
        <ele>207.8</ele>
        <time>2022-04-22T11:50:58Z</time>
      </trkpt>
      <trkpt lat="46.55106" lon="5.33874">
        <ele>208.8</ele>
        <time>2022-04-22T11:51:05Z</time>
      </trkpt>
      <trkpt lat="46.55124" lon="5.33902">
        <ele>209.8</ele>
        <time>2022-04-22T11:51:10Z</time>
      </trkpt>
      <trkpt lat="46.55128" lon="5.33908">
        <ele>210</ele>
        <time>2022-04-22T11:51:11Z</time>
      </trkpt>
      <trkpt lat="46.55142" lon="5.3393">
        <ele>210.8</ele>
        <time>2022-04-22T11:51:15Z</time>
      </trkpt>
      <trkpt lat="46.55155" lon="5.33951">
        <ele>211.6</ele>
        <time>2022-04-22T11:51:19Z</time>
      </trkpt>
      <trkpt lat="46.5516" lon="5.3396">
        <ele>212</ele>
        <time>2022-04-22T11:51:21Z</time>
      </trkpt>
      <trkpt lat="46.55168" lon="5.33976">
        <ele>213.4</ele>
        <time>2022-04-22T11:51:24Z</time>
      </trkpt>
      <trkpt lat="46.55172" lon="5.33986">
        <ele>213.8</ele>
        <time>2022-04-22T11:51:26Z</time>
      </trkpt>
      <trkpt lat="46.55177" lon="5.33996">
        <ele>214.2</ele>
        <time>2022-04-22T11:51:28Z</time>
      </trkpt>
      <trkpt lat="46.55184" lon="5.34001">
        <ele>215</ele>
        <time>2022-04-22T11:51:30Z</time>
      </trkpt>
      <trkpt lat="46.55189" lon="5.34">
        <ele>215.4</ele>
        <time>2022-04-22T11:51:31Z</time>
      </trkpt>
      <trkpt lat="46.55193" lon="5.33998">
        <ele>215.6</ele>
        <time>2022-04-22T11:51:32Z</time>
      </trkpt>
      <trkpt lat="46.55197" lon="5.33993">
        <ele>216</ele>
        <time>2022-04-22T11:51:33Z</time>
      </trkpt>
      <trkpt lat="46.55221" lon="5.33962">
        <ele>216.4</ele>
        <time>2022-04-22T11:51:40Z</time>
      </trkpt>
      <trkpt lat="46.55253" lon="5.33919">
        <ele>216.8</ele>
        <time>2022-04-22T11:51:48Z</time>
      </trkpt>
      <trkpt lat="46.55281" lon="5.33866">
        <ele>217</ele>
        <time>2022-04-22T11:51:56Z</time>
      </trkpt>
      <trkpt lat="46.55288" lon="5.33854">
        <ele>217</ele>
        <time>2022-04-22T11:51:58Z</time>
      </trkpt>
      <trkpt lat="46.55308" lon="5.33829">
        <ele>217</ele>
        <time>2022-04-22T11:52:02Z</time>
      </trkpt>
      <trkpt lat="46.55355" lon="5.33778">
        <ele>216.6</ele>
        <time>2022-04-22T11:52:11Z</time>
      </trkpt>
      <trkpt lat="46.55392" lon="5.3375">
        <ele>216.4</ele>
        <time>2022-04-22T11:52:17Z</time>
      </trkpt>
      <trkpt lat="46.55409" lon="5.33736">
        <ele>216.4</ele>
        <time>2022-04-22T11:52:20Z</time>
      </trkpt>
      <trkpt lat="46.55419" lon="5.33723">
        <ele>216.4</ele>
        <time>2022-04-22T11:52:22Z</time>
      </trkpt>
      <trkpt lat="46.55462" lon="5.33664">
        <ele>215.6</ele>
        <time>2022-04-22T11:52:30Z</time>
      </trkpt>
      <trkpt lat="46.55467" lon="5.33657">
        <ele>215.6</ele>
        <time>2022-04-22T11:52:31Z</time>
      </trkpt>
      <trkpt lat="46.555" lon="5.33613">
        <ele>215.4</ele>
        <time>2022-04-22T11:52:37Z</time>
      </trkpt>
      <trkpt lat="46.55523" lon="5.33582">
        <ele>214.8</ele>
        <time>2022-04-22T11:52:41Z</time>
      </trkpt>
      <trkpt lat="46.55541" lon="5.33558">
        <ele>214</ele>
        <time>2022-04-22T11:52:44Z</time>
      </trkpt>
      <trkpt lat="46.55565" lon="5.33524">
        <ele>213</ele>
        <time>2022-04-22T11:52:48Z</time>
      </trkpt>
      <trkpt lat="46.55572" lon="5.33516">
        <ele>212.8</ele>
        <time>2022-04-22T11:52:49Z</time>
      </trkpt>
      <trkpt lat="46.55577" lon="5.33507">
        <ele>212.6</ele>
        <time>2022-04-22T11:52:50Z</time>
      </trkpt>
      <trkpt lat="46.55582" lon="5.33497">
        <ele>211.8</ele>
        <time>2022-04-22T11:52:51Z</time>
      </trkpt>
      <trkpt lat="46.55586" lon="5.33485">
        <ele>211.8</ele>
        <time>2022-04-22T11:52:52Z</time>
      </trkpt>
      <trkpt lat="46.55594" lon="5.3345">
        <ele>210.4</ele>
        <time>2022-04-22T11:52:55Z</time>
      </trkpt>
      <trkpt lat="46.55597" lon="5.33407">
        <ele>209</ele>
        <time>2022-04-22T11:52:58Z</time>
      </trkpt>
      <trkpt lat="46.556" lon="5.3338">
        <ele>207.8</ele>
        <time>2022-04-22T11:53:00Z</time>
      </trkpt>
      <trkpt lat="46.55601" lon="5.33367">
        <ele>207.6</ele>
        <time>2022-04-22T11:53:01Z</time>
      </trkpt>
      <trkpt lat="46.55609" lon="5.33331">
        <ele>206.8</ele>
        <time>2022-04-22T11:53:04Z</time>
      </trkpt>
      <trkpt lat="46.55616" lon="5.33308">
        <ele>206.2</ele>
        <time>2022-04-22T11:53:06Z</time>
      </trkpt>
      <trkpt lat="46.55639" lon="5.33228">
        <ele>205.8</ele>
        <time>2022-04-22T11:53:13Z</time>
      </trkpt>
      <trkpt lat="46.55642" lon="5.33218">
        <ele>205.8</ele>
        <time>2022-04-22T11:53:14Z</time>
      </trkpt>
      <trkpt lat="46.55662" lon="5.33142">
        <ele>205.8</ele>
        <time>2022-04-22T11:53:21Z</time>
      </trkpt>
      <trkpt lat="46.55667" lon="5.33121">
        <ele>205.8</ele>
        <time>2022-04-22T11:53:23Z</time>
      </trkpt>
      <trkpt lat="46.55682" lon="5.33059">
        <ele>205.8</ele>
        <time>2022-04-22T11:53:29Z</time>
      </trkpt>
      <trkpt lat="46.55688" lon="5.33028">
        <ele>205.6</ele>
        <time>2022-04-22T11:53:32Z</time>
      </trkpt>
      <trkpt lat="46.55693" lon="5.32998">
        <ele>205.8</ele>
        <time>2022-04-22T11:53:35Z</time>
      </trkpt>
      <trkpt lat="46.55695" lon="5.32988">
        <ele>205.8</ele>
        <time>2022-04-22T11:53:36Z</time>
      </trkpt>
      <trkpt lat="46.55703" lon="5.32943">
        <ele>205.6</ele>
        <time>2022-04-22T11:53:41Z</time>
      </trkpt>
      <trkpt lat="46.55714" lon="5.32875">
        <ele>206.2</ele>
        <time>2022-04-22T11:53:49Z</time>
      </trkpt>
      <trkpt lat="46.55716" lon="5.32867">
        <ele>206.2</ele>
        <time>2022-04-22T11:53:50Z</time>
      </trkpt>
      <trkpt lat="46.55731" lon="5.3279">
        <ele>206.6</ele>
        <time>2022-04-22T11:53:59Z</time>
      </trkpt>
      <trkpt lat="46.55749" lon="5.32713">
        <ele>206.6</ele>
        <time>2022-04-22T11:54:08Z</time>
      </trkpt>
      <trkpt lat="46.55752" lon="5.32704">
        <ele>206.6</ele>
        <time>2022-04-22T11:54:09Z</time>
      </trkpt>
      <trkpt lat="46.55756" lon="5.32696">
        <ele>206.4</ele>
        <time>2022-04-22T11:54:10Z</time>
      </trkpt>
      <trkpt lat="46.55764" lon="5.32683">
        <ele>206.4</ele>
        <time>2022-04-22T11:54:12Z</time>
      </trkpt>
      <trkpt lat="46.5577" lon="5.32677">
        <ele>206.4</ele>
        <time>2022-04-22T11:54:13Z</time>
      </trkpt>
      <trkpt lat="46.55775" lon="5.32673">
        <ele>206.6</ele>
        <time>2022-04-22T11:54:14Z</time>
      </trkpt>
      <trkpt lat="46.55802" lon="5.32662">
        <ele>206.4</ele>
        <time>2022-04-22T11:54:18Z</time>
      </trkpt>
      <trkpt lat="46.5584" lon="5.3266">
        <ele>206.8</ele>
        <time>2022-04-22T11:54:24Z</time>
      </trkpt>
      <trkpt lat="46.55848" lon="5.32658">
        <ele>207</ele>
        <time>2022-04-22T11:54:25Z</time>
      </trkpt>
      <trkpt lat="46.55879" lon="5.32646">
        <ele>206.8</ele>
        <time>2022-04-22T11:54:30Z</time>
      </trkpt>
      <trkpt lat="46.55901" lon="5.32626">
        <ele>206.8</ele>
        <time>2022-04-22T11:54:34Z</time>
      </trkpt>
      <trkpt lat="46.55921" lon="5.3259">
        <ele>206.6</ele>
        <time>2022-04-22T11:54:39Z</time>
      </trkpt>
      <trkpt lat="46.55952" lon="5.32518">
        <ele>207</ele>
        <time>2022-04-22T11:54:48Z</time>
      </trkpt>
      <trkpt lat="46.55956" lon="5.32511">
        <ele>207</ele>
        <time>2022-04-22T11:54:49Z</time>
      </trkpt>
      <trkpt lat="46.55985" lon="5.3244">
        <ele>207.8</ele>
        <time>2022-04-22T11:54:58Z</time>
      </trkpt>
      <trkpt lat="46.55991" lon="5.32424">
        <ele>208</ele>
        <time>2022-04-22T11:55:00Z</time>
      </trkpt>
      <trkpt lat="46.55994" lon="5.32417">
        <ele>208</ele>
        <time>2022-04-22T11:55:01Z</time>
      </trkpt>
      <trkpt lat="46.56009" lon="5.32386">
        <ele>208.2</ele>
        <time>2022-04-22T11:55:05Z</time>
      </trkpt>
      <trkpt lat="46.56012" lon="5.3238">
        <ele>208.2</ele>
        <time>2022-04-22T11:55:06Z</time>
      </trkpt>
      <trkpt lat="46.56046" lon="5.3233">
        <ele>209</ele>
        <time>2022-04-22T11:55:14Z</time>
      </trkpt>
      <trkpt lat="46.56071" lon="5.32299">
        <ele>210</ele>
        <time>2022-04-22T11:55:20Z</time>
      </trkpt>
      <trkpt lat="46.56079" lon="5.32289">
        <ele>210.4</ele>
        <time>2022-04-22T11:55:22Z</time>
      </trkpt>
      <trkpt lat="46.56091" lon="5.32275">
        <ele>211.2</ele>
        <time>2022-04-22T11:55:25Z</time>
      </trkpt>
      <trkpt lat="46.5611" lon="5.32249">
        <ele>212.4</ele>
        <time>2022-04-22T11:55:30Z</time>
      </trkpt>
      <trkpt lat="46.56141" lon="5.32212">
        <ele>213.6</ele>
        <time>2022-04-22T11:55:37Z</time>
      </trkpt>
      <trkpt lat="46.56162" lon="5.32186">
        <ele>214.2</ele>
        <time>2022-04-22T11:55:42Z</time>
      </trkpt>
      <trkpt lat="46.5618" lon="5.32165">
        <ele>214.6</ele>
        <time>2022-04-22T11:55:46Z</time>
      </trkpt>
      <trkpt lat="46.56205" lon="5.32132">
        <ele>215</ele>
        <time>2022-04-22T11:55:52Z</time>
      </trkpt>
      <trkpt lat="46.56243" lon="5.32084">
        <ele>215.4</ele>
        <time>2022-04-22T11:56:01Z</time>
      </trkpt>
      <trkpt lat="46.56273" lon="5.32054">
        <ele>215.6</ele>
        <time>2022-04-22T11:56:07Z</time>
      </trkpt>
      <trkpt lat="46.56278" lon="5.3205">
        <ele>215.6</ele>
        <time>2022-04-22T11:56:08Z</time>
      </trkpt>
      <trkpt lat="46.56295" lon="5.32038">
        <ele>215.6</ele>
        <time>2022-04-22T11:56:11Z</time>
      </trkpt>
      <trkpt lat="46.5632" lon="5.32019">
        <ele>215.4</ele>
        <time>2022-04-22T11:56:15Z</time>
      </trkpt>
      <trkpt lat="46.5637" lon="5.31983">
        <ele>214.6</ele>
        <time>2022-04-22T11:56:23Z</time>
      </trkpt>
      <trkpt lat="46.56378" lon="5.31977">
        <ele>214.4</ele>
        <time>2022-04-22T11:56:24Z</time>
      </trkpt>
      <trkpt lat="46.56416" lon="5.31961">
        <ele>214.2</ele>
        <time>2022-04-22T11:56:30Z</time>
      </trkpt>
      <trkpt lat="46.56461" lon="5.31958">
        <ele>214.8</ele>
        <time>2022-04-22T11:56:37Z</time>
      </trkpt>
      <trkpt lat="46.56506" lon="5.31956">
        <ele>215</ele>
        <time>2022-04-22T11:56:44Z</time>
      </trkpt>
      <trkpt lat="46.56534" lon="5.31952">
        <ele>215</ele>
        <time>2022-04-22T11:56:49Z</time>
      </trkpt>
      <trkpt lat="46.56543" lon="5.3195">
        <ele>214.8</ele>
        <time>2022-04-22T11:56:51Z</time>
      </trkpt>
      <trkpt lat="46.56561" lon="5.31944">
        <ele>214.6</ele>
        <time>2022-04-22T11:56:54Z</time>
      </trkpt>
      <trkpt lat="46.56594" lon="5.31923">
        <ele>214.6</ele>
        <time>2022-04-22T11:56:59Z</time>
      </trkpt>
      <trkpt lat="46.56637" lon="5.31883">
        <ele>214.4</ele>
        <time>2022-04-22T11:57:06Z</time>
      </trkpt>
      <trkpt lat="46.56644" lon="5.31877">
        <ele>214.4</ele>
        <time>2022-04-22T11:57:07Z</time>
      </trkpt>
      <trkpt lat="46.56675" lon="5.31848">
        <ele>214.2</ele>
        <time>2022-04-22T11:57:12Z</time>
      </trkpt>
      <trkpt lat="46.56721" lon="5.31806">
        <ele>214.4</ele>
        <time>2022-04-22T11:57:20Z</time>
      </trkpt>
      <trkpt lat="46.56732" lon="5.31795">
        <ele>214.6</ele>
        <time>2022-04-22T11:57:22Z</time>
      </trkpt>
      <trkpt lat="46.56777" lon="5.31754">
        <ele>215.2</ele>
        <time>2022-04-22T11:57:30Z</time>
      </trkpt>
      <trkpt lat="46.56819" lon="5.31713">
        <ele>215.2</ele>
        <time>2022-04-22T11:57:37Z</time>
      </trkpt>
      <trkpt lat="46.56838" lon="5.31696">
        <ele>215</ele>
        <time>2022-04-22T11:57:40Z</time>
      </trkpt>
      <trkpt lat="46.56852" lon="5.31687">
        <ele>214.8</ele>
        <time>2022-04-22T11:57:42Z</time>
      </trkpt>
      <trkpt lat="46.56882" lon="5.31683">
        <ele>214.8</ele>
        <time>2022-04-22T11:57:46Z</time>
      </trkpt>
      <trkpt lat="46.56941" lon="5.31684">
        <ele>214.6</ele>
        <time>2022-04-22T11:57:54Z</time>
      </trkpt>
      <trkpt lat="46.56948" lon="5.31683">
        <ele>214.6</ele>
        <time>2022-04-22T11:57:55Z</time>
      </trkpt>
      <trkpt lat="46.57007" lon="5.31673">
        <ele>214.2</ele>
        <time>2022-04-22T11:58:03Z</time>
      </trkpt>
      <trkpt lat="46.57014" lon="5.31672">
        <ele>214.2</ele>
        <time>2022-04-22T11:58:04Z</time>
      </trkpt>
      <trkpt lat="46.57073" lon="5.31663">
        <ele>214.8</ele>
        <time>2022-04-22T11:58:12Z</time>
      </trkpt>
      <trkpt lat="46.5708" lon="5.31663">
        <ele>214.8</ele>
        <time>2022-04-22T11:58:13Z</time>
      </trkpt>
      <trkpt lat="46.57129" lon="5.31659">
        <ele>214.8</ele>
        <time>2022-04-22T11:58:20Z</time>
      </trkpt>
      <trkpt lat="46.57176" lon="5.31658">
        <ele>214.8</ele>
        <time>2022-04-22T11:58:27Z</time>
      </trkpt>
      <trkpt lat="46.5723" lon="5.31655">
        <ele>214.8</ele>
        <time>2022-04-22T11:58:35Z</time>
      </trkpt>
      <trkpt lat="46.57237" lon="5.31654">
        <ele>214.8</ele>
        <time>2022-04-22T11:58:36Z</time>
      </trkpt>
      <trkpt lat="46.57292" lon="5.31648">
        <ele>215</ele>
        <time>2022-04-22T11:58:44Z</time>
      </trkpt>
      <trkpt lat="46.57299" lon="5.31646">
        <ele>215</ele>
        <time>2022-04-22T11:58:45Z</time>
      </trkpt>
      <trkpt lat="46.57355" lon="5.31631">
        <ele>215</ele>
        <time>2022-04-22T11:58:53Z</time>
      </trkpt>
      <trkpt lat="46.57375" lon="5.31624">
        <ele>215</ele>
        <time>2022-04-22T11:58:56Z</time>
      </trkpt>
      <trkpt lat="46.57425" lon="5.31616">
        <ele>215</ele>
        <time>2022-04-22T11:59:03Z</time>
      </trkpt>
      <trkpt lat="46.5748" lon="5.31614">
        <ele>215</ele>
        <time>2022-04-22T11:59:11Z</time>
      </trkpt>
      <trkpt lat="46.57487" lon="5.31613">
        <ele>215</ele>
        <time>2022-04-22T11:59:12Z</time>
      </trkpt>
      <trkpt lat="46.57501" lon="5.31614">
        <ele>215.2</ele>
        <time>2022-04-22T11:59:14Z</time>
      </trkpt>
      <trkpt lat="46.57521" lon="5.3162">
        <ele>215.2</ele>
        <time>2022-04-22T11:59:17Z</time>
      </trkpt>
      <trkpt lat="46.57577" lon="5.31643">
        <ele>214.6</ele>
        <time>2022-04-22T11:59:25Z</time>
      </trkpt>
      <trkpt lat="46.5759" lon="5.31649">
        <ele>214.4</ele>
        <time>2022-04-22T11:59:27Z</time>
      </trkpt>
      <trkpt lat="46.57624" lon="5.31663">
        <ele>214.2</ele>
        <time>2022-04-22T11:59:32Z</time>
      </trkpt>
      <trkpt lat="46.57666" lon="5.3168">
        <ele>214.2</ele>
        <time>2022-04-22T11:59:38Z</time>
      </trkpt>
      <trkpt lat="46.57723" lon="5.31705">
        <ele>213.4</ele>
        <time>2022-04-22T11:59:46Z</time>
      </trkpt>
      <trkpt lat="46.5773" lon="5.31708">
        <ele>213.2</ele>
        <time>2022-04-22T11:59:47Z</time>
      </trkpt>
      <trkpt lat="46.57782" lon="5.31727">
        <ele>212.4</ele>
        <time>2022-04-22T11:59:54Z</time>
      </trkpt>
      <trkpt lat="46.57804" lon="5.31736">
        <ele>212.2</ele>
        <time>2022-04-22T11:59:57Z</time>
      </trkpt>
      <trkpt lat="46.57861" lon="5.31761">
        <ele>211.8</ele>
        <time>2022-04-22T12:00:05Z</time>
      </trkpt>
      <trkpt lat="46.5789" lon="5.31773">
        <ele>211.6</ele>
        <time>2022-04-22T12:00:09Z</time>
      </trkpt>
      <trkpt lat="46.57904" lon="5.31779">
        <ele>211.4</ele>
        <time>2022-04-22T12:00:11Z</time>
      </trkpt>
      <trkpt lat="46.57962" lon="5.31805">
        <ele>210.8</ele>
        <time>2022-04-22T12:00:19Z</time>
      </trkpt>
      <trkpt lat="46.58003" lon="5.3183">
        <ele>210.4</ele>
        <time>2022-04-22T12:00:25Z</time>
      </trkpt>
      <trkpt lat="46.58016" lon="5.31842">
        <ele>210.2</ele>
        <time>2022-04-22T12:00:27Z</time>
      </trkpt>
      <trkpt lat="46.58044" lon="5.31866">
        <ele>209.4</ele>
        <time>2022-04-22T12:00:31Z</time>
      </trkpt>
      <trkpt lat="46.58064" lon="5.31884">
        <ele>208.4</ele>
        <time>2022-04-22T12:00:34Z</time>
      </trkpt>
      <trkpt lat="46.58071" lon="5.31889">
        <ele>208.2</ele>
        <time>2022-04-22T12:00:35Z</time>
      </trkpt>
      <trkpt lat="46.58084" lon="5.31897">
        <ele>207.8</ele>
        <time>2022-04-22T12:00:37Z</time>
      </trkpt>
      <trkpt lat="46.58091" lon="5.31901">
        <ele>207.6</ele>
        <time>2022-04-22T12:00:38Z</time>
      </trkpt>
      <trkpt lat="46.581" lon="5.31905">
        <ele>207.4</ele>
        <time>2022-04-22T12:00:39Z</time>
      </trkpt>
      <trkpt lat="46.58121" lon="5.31915">
        <ele>207.2</ele>
        <time>2022-04-22T12:00:42Z</time>
      </trkpt>
      <trkpt lat="46.58156" lon="5.3193">
        <ele>206.8</ele>
        <time>2022-04-22T12:00:47Z</time>
      </trkpt>
      <trkpt lat="46.58198" lon="5.31947">
        <ele>206.2</ele>
        <time>2022-04-22T12:00:52Z</time>
      </trkpt>
      <trkpt lat="46.58216" lon="5.31954">
        <ele>205.4</ele>
        <time>2022-04-22T12:00:54Z</time>
      </trkpt>
      <trkpt lat="46.58224" lon="5.31958">
        <ele>204.8</ele>
        <time>2022-04-22T12:00:55Z</time>
      </trkpt>
      <trkpt lat="46.58268" lon="5.31969">
        <ele>204</ele>
        <time>2022-04-22T12:01:00Z</time>
      </trkpt>
      <trkpt lat="46.58277" lon="5.3197">
        <ele>203.8</ele>
        <time>2022-04-22T12:01:01Z</time>
      </trkpt>
      <trkpt lat="46.58321" lon="5.31974">
        <ele>202.6</ele>
        <time>2022-04-22T12:01:06Z</time>
      </trkpt>
      <trkpt lat="46.5833" lon="5.31976">
        <ele>202.6</ele>
        <time>2022-04-22T12:01:07Z</time>
      </trkpt>
      <trkpt lat="46.58371" lon="5.31998">
        <ele>201.6</ele>
        <time>2022-04-22T12:01:12Z</time>
      </trkpt>
      <trkpt lat="46.58379" lon="5.32002">
        <ele>201.2</ele>
        <time>2022-04-22T12:01:13Z</time>
      </trkpt>
      <trkpt lat="46.58405" lon="5.32008">
        <ele>200.8</ele>
        <time>2022-04-22T12:01:16Z</time>
      </trkpt>
      <trkpt lat="46.58422" lon="5.3201">
        <ele>200</ele>
        <time>2022-04-22T12:01:18Z</time>
      </trkpt>
      <trkpt lat="46.58457" lon="5.32012">
        <ele>198.8</ele>
        <time>2022-04-22T12:01:22Z</time>
      </trkpt>
      <trkpt lat="46.58475" lon="5.32015">
        <ele>198.4</ele>
        <time>2022-04-22T12:01:24Z</time>
      </trkpt>
      <trkpt lat="46.58492" lon="5.32021">
        <ele>197.6</ele>
        <time>2022-04-22T12:01:26Z</time>
      </trkpt>
      <trkpt lat="46.58511" lon="5.32024">
        <ele>196.8</ele>
        <time>2022-04-22T12:01:28Z</time>
      </trkpt>
      <trkpt lat="46.58529" lon="5.32024">
        <ele>196</ele>
        <time>2022-04-22T12:01:30Z</time>
      </trkpt>
      <trkpt lat="46.58536" lon="5.32023">
        <ele>195.6</ele>
        <time>2022-04-22T12:01:31Z</time>
      </trkpt>
      <trkpt lat="46.58555" lon="5.32022">
        <ele>195.4</ele>
        <time>2022-04-22T12:01:33Z</time>
      </trkpt>
      <trkpt lat="46.58571" lon="5.32026">
        <ele>194.8</ele>
        <time>2022-04-22T12:01:35Z</time>
      </trkpt>
      <trkpt lat="46.58579" lon="5.3203">
        <ele>194.6</ele>
        <time>2022-04-22T12:01:36Z</time>
      </trkpt>
      <trkpt lat="46.58586" lon="5.32035">
        <ele>194.4</ele>
        <time>2022-04-22T12:01:37Z</time>
      </trkpt>
      <trkpt lat="46.58593" lon="5.32042">
        <ele>194.4</ele>
        <time>2022-04-22T12:01:38Z</time>
      </trkpt>
      <trkpt lat="46.5863" lon="5.32068">
        <ele>194</ele>
        <time>2022-04-22T12:01:43Z</time>
      </trkpt>
      <trkpt lat="46.58674" lon="5.32092">
        <ele>193.4</ele>
        <time>2022-04-22T12:01:49Z</time>
      </trkpt>
      <trkpt lat="46.58681" lon="5.32095">
        <ele>193</ele>
        <time>2022-04-22T12:01:50Z</time>
      </trkpt>
      <trkpt lat="46.587" lon="5.32103">
        <ele>192.8</ele>
        <time>2022-04-22T12:01:53Z</time>
      </trkpt>
      <trkpt lat="46.58703" lon="5.32107">
        <ele>192.6</ele>
        <time>2022-04-22T12:01:54Z</time>
      </trkpt>
      <trkpt lat="46.58705" lon="5.32113">
        <ele>192.4</ele>
        <time>2022-04-22T12:01:55Z</time>
      </trkpt>
      <trkpt lat="46.58704" lon="5.32119">
        <ele>192.4</ele>
        <time>2022-04-22T12:01:56Z</time>
      </trkpt>
      <trkpt lat="46.58701" lon="5.32131">
        <ele>192.4</ele>
        <time>2022-04-22T12:02:00Z</time>
      </trkpt>
      <trkpt lat="46.58701" lon="5.32131">
        <ele>192.6</ele>
        <time>2022-04-22T12:02:03Z</time>
      </trkpt>
      <trkpt lat="46.58702" lon="5.32125">
        <ele>192.2</ele>
        <time>2022-04-22T12:04:28Z</time>
      </trkpt>
      <trkpt lat="46.58704" lon="5.32121">
        <ele>192.2</ele>
        <time>2022-04-22T12:04:29Z</time>
      </trkpt>
      <trkpt lat="46.58709" lon="5.32111">
        <ele>192</ele>
        <time>2022-04-22T12:04:31Z</time>
      </trkpt>
      <trkpt lat="46.58715" lon="5.32106">
        <ele>192</ele>
        <time>2022-04-22T12:04:32Z</time>
      </trkpt>
      <trkpt lat="46.58719" lon="5.32104">
        <ele>192</ele>
        <time>2022-04-22T12:04:33Z</time>
      </trkpt>
      <trkpt lat="46.58733" lon="5.32104">
        <ele>191.6</ele>
        <time>2022-04-22T12:04:35Z</time>
      </trkpt>
      <trkpt lat="46.58748" lon="5.32105">
        <ele>191</ele>
        <time>2022-04-22T12:04:37Z</time>
      </trkpt>
      <trkpt lat="46.58775" lon="5.32104">
        <ele>190</ele>
        <time>2022-04-22T12:04:41Z</time>
      </trkpt>
      <trkpt lat="46.58782" lon="5.32103">
        <ele>190</ele>
        <time>2022-04-22T12:04:42Z</time>
      </trkpt>
      <trkpt lat="46.58796" lon="5.32101">
        <ele>189.8</ele>
        <time>2022-04-22T12:04:44Z</time>
      </trkpt>
      <trkpt lat="46.5883" lon="5.32093">
        <ele>190.6</ele>
        <time>2022-04-22T12:04:49Z</time>
      </trkpt>
      <trkpt lat="46.58859" lon="5.32091">
        <ele>190.6</ele>
        <time>2022-04-22T12:04:53Z</time>
      </trkpt>
      <trkpt lat="46.58865" lon="5.32093">
        <ele>190.2</ele>
        <time>2022-04-22T12:04:54Z</time>
      </trkpt>
      <trkpt lat="46.58873" lon="5.32097">
        <ele>190.2</ele>
        <time>2022-04-22T12:04:55Z</time>
      </trkpt>
      <trkpt lat="46.58883" lon="5.32111">
        <ele>190</ele>
        <time>2022-04-22T12:04:57Z</time>
      </trkpt>
      <trkpt lat="46.58887" lon="5.32119">
        <ele>189.8</ele>
        <time>2022-04-22T12:04:58Z</time>
      </trkpt>
      <trkpt lat="46.58902" lon="5.32154">
        <ele>189.6</ele>
        <time>2022-04-22T12:05:02Z</time>
      </trkpt>
      <trkpt lat="46.58912" lon="5.32182">
        <ele>189.6</ele>
        <time>2022-04-22T12:05:05Z</time>
      </trkpt>
      <trkpt lat="46.58921" lon="5.32198">
        <ele>189.8</ele>
        <time>2022-04-22T12:05:07Z</time>
      </trkpt>
      <trkpt lat="46.58932" lon="5.3221">
        <ele>189.8</ele>
        <time>2022-04-22T12:05:09Z</time>
      </trkpt>
      <trkpt lat="46.58943" lon="5.32216">
        <ele>189.6</ele>
        <time>2022-04-22T12:05:11Z</time>
      </trkpt>
      <trkpt lat="46.58978" lon="5.32221">
        <ele>189.2</ele>
        <time>2022-04-22T12:05:16Z</time>
      </trkpt>
      <trkpt lat="46.59012" lon="5.32211">
        <ele>189.2</ele>
        <time>2022-04-22T12:05:21Z</time>
      </trkpt>
      <trkpt lat="46.59046" lon="5.32206">
        <ele>189.2</ele>
        <time>2022-04-22T12:05:26Z</time>
      </trkpt>
      <trkpt lat="46.59065" lon="5.32207">
        <ele>189.2</ele>
        <time>2022-04-22T12:05:29Z</time>
      </trkpt>
      <trkpt lat="46.59079" lon="5.32212">
        <ele>189</ele>
        <time>2022-04-22T12:05:31Z</time>
      </trkpt>
      <trkpt lat="46.59091" lon="5.32219">
        <ele>189</ele>
        <time>2022-04-22T12:05:33Z</time>
      </trkpt>
      <trkpt lat="46.59115" lon="5.32239">
        <ele>189</ele>
        <time>2022-04-22T12:05:37Z</time>
      </trkpt>
      <trkpt lat="46.59163" lon="5.32282">
        <ele>189.2</ele>
        <time>2022-04-22T12:05:45Z</time>
      </trkpt>
      <trkpt lat="46.59169" lon="5.32287">
        <ele>189.2</ele>
        <time>2022-04-22T12:05:46Z</time>
      </trkpt>
      <trkpt lat="46.59214" lon="5.32331">
        <ele>189.2</ele>
        <time>2022-04-22T12:05:54Z</time>
      </trkpt>
      <trkpt lat="46.59257" lon="5.32379">
        <ele>189.2</ele>
        <time>2022-04-22T12:06:02Z</time>
      </trkpt>
      <trkpt lat="46.59274" lon="5.32395">
        <ele>189</ele>
        <time>2022-04-22T12:06:05Z</time>
      </trkpt>
      <trkpt lat="46.59317" lon="5.32437">
        <ele>189.2</ele>
        <time>2022-04-22T12:06:13Z</time>
      </trkpt>
      <trkpt lat="46.59346" lon="5.32459">
        <ele>190</ele>
        <time>2022-04-22T12:06:18Z</time>
      </trkpt>
      <trkpt lat="46.59361" lon="5.3247">
        <ele>190.2</ele>
        <time>2022-04-22T12:06:21Z</time>
      </trkpt>
      <trkpt lat="46.59393" lon="5.32487">
        <ele>190.8</ele>
        <time>2022-04-22T12:06:27Z</time>
      </trkpt>
      <trkpt lat="46.59398" lon="5.32489">
        <ele>191.2</ele>
        <time>2022-04-22T12:06:28Z</time>
      </trkpt>
      <trkpt lat="46.59413" lon="5.32495">
        <ele>192.2</ele>
        <time>2022-04-22T12:06:31Z</time>
      </trkpt>
      <trkpt lat="46.59432" lon="5.32502">
        <ele>193.2</ele>
        <time>2022-04-22T12:06:35Z</time>
      </trkpt>
      <trkpt lat="46.59437" lon="5.32504">
        <ele>193.4</ele>
        <time>2022-04-22T12:06:36Z</time>
      </trkpt>
      <trkpt lat="46.59441" lon="5.32504">
        <ele>193.6</ele>
        <time>2022-04-22T12:06:37Z</time>
      </trkpt>
      <trkpt lat="46.5945" lon="5.32503">
        <ele>194.2</ele>
        <time>2022-04-22T12:06:39Z</time>
      </trkpt>
      <trkpt lat="46.59454" lon="5.32501">
        <ele>194.4</ele>
        <time>2022-04-22T12:06:40Z</time>
      </trkpt>
      <trkpt lat="46.59457" lon="5.325">
        <ele>194.6</ele>
        <time>2022-04-22T12:06:41Z</time>
      </trkpt>
      <trkpt lat="46.59461" lon="5.32498">
        <ele>194.6</ele>
        <time>2022-04-22T12:06:42Z</time>
      </trkpt>
      <trkpt lat="46.59467" lon="5.32492">
        <ele>195.4</ele>
        <time>2022-04-22T12:06:44Z</time>
      </trkpt>
      <trkpt lat="46.59471" lon="5.32487">
        <ele>195.6</ele>
        <time>2022-04-22T12:06:45Z</time>
      </trkpt>
      <trkpt lat="46.59481" lon="5.32474">
        <ele>196.4</ele>
        <time>2022-04-22T12:06:48Z</time>
      </trkpt>
      <trkpt lat="46.59484" lon="5.3247">
        <ele>196.8</ele>
        <time>2022-04-22T12:06:49Z</time>
      </trkpt>
      <trkpt lat="46.59493" lon="5.32463">
        <ele>197</ele>
        <time>2022-04-22T12:06:51Z</time>
      </trkpt>
      <trkpt lat="46.59502" lon="5.3246">
        <ele>197.4</ele>
        <time>2022-04-22T12:06:53Z</time>
      </trkpt>
      <trkpt lat="46.59511" lon="5.3246">
        <ele>197.8</ele>
        <time>2022-04-22T12:06:55Z</time>
      </trkpt>
      <trkpt lat="46.59515" lon="5.32461">
        <ele>198</ele>
        <time>2022-04-22T12:06:56Z</time>
      </trkpt>
      <trkpt lat="46.59524" lon="5.32464">
        <ele>198.8</ele>
        <time>2022-04-22T12:06:58Z</time>
      </trkpt>
      <trkpt lat="46.59528" lon="5.32466">
        <ele>199</ele>
        <time>2022-04-22T12:06:59Z</time>
      </trkpt>
      <trkpt lat="46.59531" lon="5.32469">
        <ele>199.4</ele>
        <time>2022-04-22T12:07:00Z</time>
      </trkpt>
      <trkpt lat="46.59535" lon="5.32473">
        <ele>199.6</ele>
        <time>2022-04-22T12:07:01Z</time>
      </trkpt>
      <trkpt lat="46.59541" lon="5.32484">
        <ele>199.8</ele>
        <time>2022-04-22T12:07:03Z</time>
      </trkpt>
      <trkpt lat="46.59544" lon="5.3249">
        <ele>200.2</ele>
        <time>2022-04-22T12:07:04Z</time>
      </trkpt>
      <trkpt lat="46.59551" lon="5.32512">
        <ele>200.4</ele>
        <time>2022-04-22T12:07:07Z</time>
      </trkpt>
      <trkpt lat="46.59555" lon="5.32527">
        <ele>200.4</ele>
        <time>2022-04-22T12:07:09Z</time>
      </trkpt>
      <trkpt lat="46.59563" lon="5.32544">
        <ele>200.4</ele>
        <time>2022-04-22T12:07:11Z</time>
      </trkpt>
      <trkpt lat="46.59568" lon="5.32549">
        <ele>200.2</ele>
        <time>2022-04-22T12:07:12Z</time>
      </trkpt>
      <trkpt lat="46.59573" lon="5.32552">
        <ele>200.2</ele>
        <time>2022-04-22T12:07:13Z</time>
      </trkpt>
      <trkpt lat="46.59594" lon="5.3256">
        <ele>199.6</ele>
        <time>2022-04-22T12:07:16Z</time>
      </trkpt>
      <trkpt lat="46.59651" lon="5.32577">
        <ele>199.8</ele>
        <time>2022-04-22T12:07:25Z</time>
      </trkpt>
      <trkpt lat="46.59705" lon="5.32594">
        <ele>201</ele>
        <time>2022-04-22T12:07:34Z</time>
      </trkpt>
      <trkpt lat="46.5971" lon="5.32596">
        <ele>201</ele>
        <time>2022-04-22T12:07:35Z</time>
      </trkpt>
      <trkpt lat="46.59743" lon="5.32602">
        <ele>201.8</ele>
        <time>2022-04-22T12:07:41Z</time>
      </trkpt>
      <trkpt lat="46.59749" lon="5.32601">
        <ele>201.8</ele>
        <time>2022-04-22T12:07:42Z</time>
      </trkpt>
      <trkpt lat="46.59755" lon="5.326">
        <ele>202.2</ele>
        <time>2022-04-22T12:07:43Z</time>
      </trkpt>
      <trkpt lat="46.59775" lon="5.32593">
        <ele>202.4</ele>
        <time>2022-04-22T12:07:47Z</time>
      </trkpt>
      <trkpt lat="46.59784" lon="5.32588">
        <ele>202.6</ele>
        <time>2022-04-22T12:07:49Z</time>
      </trkpt>
      <trkpt lat="46.59799" lon="5.32581">
        <ele>203.2</ele>
        <time>2022-04-22T12:07:52Z</time>
      </trkpt>
      <trkpt lat="46.59818" lon="5.32572">
        <ele>203.8</ele>
        <time>2022-04-22T12:07:56Z</time>
      </trkpt>
      <trkpt lat="46.5983" lon="5.32566">
        <ele>204.4</ele>
        <time>2022-04-22T12:07:59Z</time>
      </trkpt>
      <trkpt lat="46.59847" lon="5.32559">
        <ele>205.2</ele>
        <time>2022-04-22T12:08:03Z</time>
      </trkpt>
      <trkpt lat="46.59852" lon="5.32557">
        <ele>205.6</ele>
        <time>2022-04-22T12:08:04Z</time>
      </trkpt>
      <trkpt lat="46.59867" lon="5.32556">
        <ele>206.2</ele>
        <time>2022-04-22T12:08:07Z</time>
      </trkpt>
      <trkpt lat="46.59876" lon="5.3256">
        <ele>206.6</ele>
        <time>2022-04-22T12:08:09Z</time>
      </trkpt>
      <trkpt lat="46.59887" lon="5.32565">
        <ele>206.8</ele>
        <time>2022-04-22T12:08:11Z</time>
      </trkpt>
      <trkpt lat="46.59898" lon="5.32574">
        <ele>207</ele>
        <time>2022-04-22T12:08:13Z</time>
      </trkpt>
      <trkpt lat="46.5994" lon="5.32614">
        <ele>206.6</ele>
        <time>2022-04-22T12:08:20Z</time>
      </trkpt>
      <trkpt lat="46.5996" lon="5.32632">
        <ele>205.8</ele>
        <time>2022-04-22T12:08:23Z</time>
      </trkpt>
      <trkpt lat="46.59988" lon="5.32657">
        <ele>204.6</ele>
        <time>2022-04-22T12:08:27Z</time>
      </trkpt>
      <trkpt lat="46.59995" lon="5.32662">
        <ele>204.4</ele>
        <time>2022-04-22T12:08:28Z</time>
      </trkpt>
      <trkpt lat="46.60011" lon="5.32671">
        <ele>203.4</ele>
        <time>2022-04-22T12:08:30Z</time>
      </trkpt>
      <trkpt lat="46.60019" lon="5.32673">
        <ele>203.2</ele>
        <time>2022-04-22T12:08:31Z</time>
      </trkpt>
      <trkpt lat="46.60027" lon="5.32675">
        <ele>202.8</ele>
        <time>2022-04-22T12:08:32Z</time>
      </trkpt>
      <trkpt lat="46.60036" lon="5.32675">
        <ele>202.6</ele>
        <time>2022-04-22T12:08:33Z</time>
      </trkpt>
      <trkpt lat="46.60053" lon="5.32671">
        <ele>202.4</ele>
        <time>2022-04-22T12:08:35Z</time>
      </trkpt>
      <trkpt lat="46.60061" lon="5.32667">
        <ele>202.4</ele>
        <time>2022-04-22T12:08:36Z</time>
      </trkpt>
      <trkpt lat="46.60102" lon="5.32645">
        <ele>201</ele>
        <time>2022-04-22T12:08:41Z</time>
      </trkpt>
      <trkpt lat="46.6011" lon="5.32642">
        <ele>201</ele>
        <time>2022-04-22T12:08:42Z</time>
      </trkpt>
      <trkpt lat="46.60119" lon="5.32639">
        <ele>200.8</ele>
        <time>2022-04-22T12:08:43Z</time>
      </trkpt>
      <trkpt lat="46.60144" lon="5.32639">
        <ele>200</ele>
        <time>2022-04-22T12:08:46Z</time>
      </trkpt>
      <trkpt lat="46.60193" lon="5.32648">
        <ele>199</ele>
        <time>2022-04-22T12:08:52Z</time>
      </trkpt>
      <trkpt lat="46.60201" lon="5.32651">
        <ele>199</ele>
        <time>2022-04-22T12:08:53Z</time>
      </trkpt>
      <trkpt lat="46.60208" lon="5.32654">
        <ele>198.8</ele>
        <time>2022-04-22T12:08:54Z</time>
      </trkpt>
      <trkpt lat="46.60243" lon="5.32678">
        <ele>198.8</ele>
        <time>2022-04-22T12:08:59Z</time>
      </trkpt>
      <trkpt lat="46.60276" lon="5.32704">
        <ele>199</ele>
        <time>2022-04-22T12:09:04Z</time>
      </trkpt>
      <trkpt lat="46.60283" lon="5.32706">
        <ele>199.2</ele>
        <time>2022-04-22T12:09:05Z</time>
      </trkpt>
      <trkpt lat="46.6029" lon="5.32705">
        <ele>199.2</ele>
        <time>2022-04-22T12:09:06Z</time>
      </trkpt>
      <trkpt lat="46.60311" lon="5.32697">
        <ele>199.2</ele>
        <time>2022-04-22T12:09:09Z</time>
      </trkpt>
      <trkpt lat="46.60356" lon="5.32679">
        <ele>199.6</ele>
        <time>2022-04-22T12:09:16Z</time>
      </trkpt>
      <trkpt lat="46.60362" lon="5.32678">
        <ele>199.8</ele>
        <time>2022-04-22T12:09:17Z</time>
      </trkpt>
      <trkpt lat="46.60368" lon="5.32676">
        <ele>200</ele>
        <time>2022-04-22T12:09:18Z</time>
      </trkpt>
      <trkpt lat="46.60391" lon="5.32676">
        <ele>200.6</ele>
        <time>2022-04-22T12:09:22Z</time>
      </trkpt>
      <trkpt lat="46.60407" lon="5.32678">
        <ele>201.4</ele>
        <time>2022-04-22T12:09:25Z</time>
      </trkpt>
      <trkpt lat="46.60413" lon="5.32678">
        <ele>201.4</ele>
        <time>2022-04-22T12:09:26Z</time>
      </trkpt>
      <trkpt lat="46.60422" lon="5.32675">
        <ele>201.8</ele>
        <time>2022-04-22T12:09:28Z</time>
      </trkpt>
      <trkpt lat="46.60433" lon="5.32667">
        <ele>202.4</ele>
        <time>2022-04-22T12:09:30Z</time>
      </trkpt>
      <trkpt lat="46.60438" lon="5.32663">
        <ele>202.4</ele>
        <time>2022-04-22T12:09:31Z</time>
      </trkpt>
      <trkpt lat="46.60441" lon="5.32659">
        <ele>202.6</ele>
        <time>2022-04-22T12:09:32Z</time>
      </trkpt>
      <trkpt lat="46.60455" lon="5.32643">
        <ele>202.8</ele>
        <time>2022-04-22T12:09:35Z</time>
      </trkpt>
      <trkpt lat="46.60468" lon="5.32629">
        <ele>203</ele>
        <time>2022-04-22T12:09:38Z</time>
      </trkpt>
      <trkpt lat="46.60482" lon="5.32619">
        <ele>203.6</ele>
        <time>2022-04-22T12:09:41Z</time>
      </trkpt>
      <trkpt lat="46.60492" lon="5.32615">
        <ele>203.8</ele>
        <time>2022-04-22T12:09:43Z</time>
      </trkpt>
      <trkpt lat="46.60507" lon="5.32611">
        <ele>204.8</ele>
        <time>2022-04-22T12:09:46Z</time>
      </trkpt>
      <trkpt lat="46.6052" lon="5.3261">
        <ele>205.4</ele>
        <time>2022-04-22T12:09:49Z</time>
      </trkpt>
      <trkpt lat="46.60524" lon="5.3261">
        <ele>205.8</ele>
        <time>2022-04-22T12:09:50Z</time>
      </trkpt>
      <trkpt lat="46.60544" lon="5.32609">
        <ele>207.2</ele>
        <time>2022-04-22T12:09:55Z</time>
      </trkpt>
      <trkpt lat="46.60553" lon="5.32612">
        <ele>208</ele>
        <time>2022-04-22T12:09:59Z</time>
      </trkpt>
      <trkpt lat="46.60555" lon="5.32611">
        <ele>208.2</ele>
        <time>2022-04-22T12:10:00Z</time>
      </trkpt>
      <trkpt lat="46.60566" lon="5.32608">
        <ele>208.6</ele>
        <time>2022-04-22T12:10:03Z</time>
      </trkpt>
      <trkpt lat="46.6057" lon="5.32607">
        <ele>208.6</ele>
        <time>2022-04-22T12:10:04Z</time>
      </trkpt>
      <trkpt lat="46.60587" lon="5.32608">
        <ele>208.8</ele>
        <time>2022-04-22T12:10:07Z</time>
      </trkpt>
      <trkpt lat="46.60637" lon="5.32607">
        <ele>208.8</ele>
        <time>2022-04-22T12:10:16Z</time>
      </trkpt>
      <trkpt lat="46.60686" lon="5.32608">
        <ele>209</ele>
        <time>2022-04-22T12:10:24Z</time>
      </trkpt>
      <trkpt lat="46.60704" lon="5.32613">
        <ele>209</ele>
        <time>2022-04-22T12:10:27Z</time>
      </trkpt>
      <trkpt lat="46.60716" lon="5.3262">
        <ele>209</ele>
        <time>2022-04-22T12:10:29Z</time>
      </trkpt>
      <trkpt lat="46.60754" lon="5.32657">
        <ele>208.8</ele>
        <time>2022-04-22T12:10:36Z</time>
      </trkpt>
      <trkpt lat="46.608" lon="5.32703">
        <ele>207.6</ele>
        <time>2022-04-22T12:10:44Z</time>
      </trkpt>
      <trkpt lat="46.60806" lon="5.32709">
        <ele>207.6</ele>
        <time>2022-04-22T12:10:45Z</time>
      </trkpt>
      <trkpt lat="46.60835" lon="5.32736">
        <ele>207.6</ele>
        <time>2022-04-22T12:10:50Z</time>
      </trkpt>
      <trkpt lat="46.60841" lon="5.3274">
        <ele>207.6</ele>
        <time>2022-04-22T12:10:51Z</time>
      </trkpt>
      <trkpt lat="46.60848" lon="5.32742">
        <ele>207.4</ele>
        <time>2022-04-22T12:10:52Z</time>
      </trkpt>
      <trkpt lat="46.60861" lon="5.32741">
        <ele>207.4</ele>
        <time>2022-04-22T12:10:54Z</time>
      </trkpt>
      <trkpt lat="46.60894" lon="5.32725">
        <ele>207.4</ele>
        <time>2022-04-22T12:10:59Z</time>
      </trkpt>
      <trkpt lat="46.60908" lon="5.32719">
        <ele>207.4</ele>
        <time>2022-04-22T12:11:01Z</time>
      </trkpt>
      <trkpt lat="46.60923" lon="5.32716">
        <ele>207.2</ele>
        <time>2022-04-22T12:11:03Z</time>
      </trkpt>
      <trkpt lat="46.6093" lon="5.32717">
        <ele>207</ele>
        <time>2022-04-22T12:11:04Z</time>
      </trkpt>
      <trkpt lat="46.60961" lon="5.32727">
        <ele>206</ele>
        <time>2022-04-22T12:11:08Z</time>
      </trkpt>
      <trkpt lat="46.60976" lon="5.32732">
        <ele>205.8</ele>
        <time>2022-04-22T12:11:10Z</time>
      </trkpt>
      <trkpt lat="46.61033" lon="5.32743">
        <ele>205.4</ele>
        <time>2022-04-22T12:11:17Z</time>
      </trkpt>
      <trkpt lat="46.61057" lon="5.32743">
        <ele>205</ele>
        <time>2022-04-22T12:11:20Z</time>
      </trkpt>
      <trkpt lat="46.61089" lon="5.3274">
        <ele>204.2</ele>
        <time>2022-04-22T12:11:24Z</time>
      </trkpt>
      <trkpt lat="46.61097" lon="5.32739">
        <ele>203.8</ele>
        <time>2022-04-22T12:11:25Z</time>
      </trkpt>
      <trkpt lat="46.61112" lon="5.32736">
        <ele>203.4</ele>
        <time>2022-04-22T12:11:27Z</time>
      </trkpt>
      <trkpt lat="46.61117" lon="5.32734">
        <ele>203.4</ele>
        <time>2022-04-22T12:11:28Z</time>
      </trkpt>
      <trkpt lat="46.61125" lon="5.32727">
        <ele>203.2</ele>
        <time>2022-04-22T12:11:29Z</time>
      </trkpt>
      <trkpt lat="46.61134" lon="5.32711">
        <ele>203</ele>
        <time>2022-04-22T12:11:31Z</time>
      </trkpt>
      <trkpt lat="46.61139" lon="5.32669">
        <ele>203.2</ele>
        <time>2022-04-22T12:11:35Z</time>
      </trkpt>
      <trkpt lat="46.61135" lon="5.32622">
        <ele>203</ele>
        <time>2022-04-22T12:11:39Z</time>
      </trkpt>
      <trkpt lat="46.61128" lon="5.32571">
        <ele>202.8</ele>
        <time>2022-04-22T12:11:43Z</time>
      </trkpt>
      <trkpt lat="46.61126" lon="5.32557">
        <ele>202.6</ele>
        <time>2022-04-22T12:11:44Z</time>
      </trkpt>
      <trkpt lat="46.61121" lon="5.32516">
        <ele>201.4</ele>
        <time>2022-04-22T12:11:47Z</time>
      </trkpt>
      <trkpt lat="46.61117" lon="5.32474">
        <ele>199.8</ele>
        <time>2022-04-22T12:11:50Z</time>
      </trkpt>
      <trkpt lat="46.61116" lon="5.32461">
        <ele>199.4</ele>
        <time>2022-04-22T12:11:51Z</time>
      </trkpt>
      <trkpt lat="46.61116" lon="5.32435">
        <ele>198.8</ele>
        <time>2022-04-22T12:11:53Z</time>
      </trkpt>
      <trkpt lat="46.61119" lon="5.32384">
        <ele>198.2</ele>
        <time>2022-04-22T12:11:57Z</time>
      </trkpt>
      <trkpt lat="46.61121" lon="5.32329">
        <ele>198.4</ele>
        <time>2022-04-22T12:12:02Z</time>
      </trkpt>
      <trkpt lat="46.61125" lon="5.32256">
        <ele>198.8</ele>
        <time>2022-04-22T12:12:09Z</time>
      </trkpt>
      <trkpt lat="46.61127" lon="5.32241">
        <ele>199.2</ele>
        <time>2022-04-22T12:12:11Z</time>
      </trkpt>
      <trkpt lat="46.6113" lon="5.32228">
        <ele>199.6</ele>
        <time>2022-04-22T12:12:13Z</time>
      </trkpt>
      <trkpt lat="46.61133" lon="5.32223">
        <ele>199.8</ele>
        <time>2022-04-22T12:12:14Z</time>
      </trkpt>
      <trkpt lat="46.61137" lon="5.3222">
        <ele>200.2</ele>
        <time>2022-04-22T12:12:15Z</time>
      </trkpt>
      <trkpt lat="46.61147" lon="5.3222">
        <ele>200.6</ele>
        <time>2022-04-22T12:12:17Z</time>
      </trkpt>
      <trkpt lat="46.6116" lon="5.32219">
        <ele>201.2</ele>
        <time>2022-04-22T12:12:19Z</time>
      </trkpt>
      <trkpt lat="46.61164" lon="5.32218">
        <ele>201.2</ele>
        <time>2022-04-22T12:12:20Z</time>
      </trkpt>
      <trkpt lat="46.61178" lon="5.32214">
        <ele>201.4</ele>
        <time>2022-04-22T12:12:22Z</time>
      </trkpt>
      <trkpt lat="46.6119" lon="5.32206">
        <ele>201.4</ele>
        <time>2022-04-22T12:12:24Z</time>
      </trkpt>
      <trkpt lat="46.61199" lon="5.32197">
        <ele>201.6</ele>
        <time>2022-04-22T12:12:26Z</time>
      </trkpt>
      <trkpt lat="46.61222" lon="5.32181">
        <ele>201.8</ele>
        <time>2022-04-22T12:12:30Z</time>
      </trkpt>
      <trkpt lat="46.61234" lon="5.32175">
        <ele>202</ele>
        <time>2022-04-22T12:12:32Z</time>
      </trkpt>
      <trkpt lat="46.61246" lon="5.32172">
        <ele>202.2</ele>
        <time>2022-04-22T12:12:34Z</time>
      </trkpt>
      <trkpt lat="46.61268" lon="5.32172">
        <ele>202.6</ele>
        <time>2022-04-22T12:12:37Z</time>
      </trkpt>
      <trkpt lat="46.61302" lon="5.32183">
        <ele>202.4</ele>
        <time>2022-04-22T12:12:42Z</time>
      </trkpt>
      <trkpt lat="46.61333" lon="5.32198">
        <ele>201</ele>
        <time>2022-04-22T12:12:46Z</time>
      </trkpt>
      <trkpt lat="46.61357" lon="5.32205">
        <ele>200.2</ele>
        <time>2022-04-22T12:12:49Z</time>
      </trkpt>
      <trkpt lat="46.61366" lon="5.32205">
        <ele>199.8</ele>
        <time>2022-04-22T12:12:50Z</time>
      </trkpt>
      <trkpt lat="46.61397" lon="5.32199">
        <ele>199</ele>
        <time>2022-04-22T12:12:54Z</time>
      </trkpt>
      <trkpt lat="46.61413" lon="5.32192">
        <ele>198.4</ele>
        <time>2022-04-22T12:12:56Z</time>
      </trkpt>
      <trkpt lat="46.61436" lon="5.32176">
        <ele>197.8</ele>
        <time>2022-04-22T12:12:59Z</time>
      </trkpt>
      <trkpt lat="46.61449" lon="5.32166">
        <ele>197.4</ele>
        <time>2022-04-22T12:13:01Z</time>
      </trkpt>
      <trkpt lat="46.61473" lon="5.32153">
        <ele>197.2</ele>
        <time>2022-04-22T12:13:04Z</time>
      </trkpt>
      <trkpt lat="46.61491" lon="5.3215">
        <ele>196.8</ele>
        <time>2022-04-22T12:13:06Z</time>
      </trkpt>
      <trkpt lat="46.61508" lon="5.32153">
        <ele>196.4</ele>
        <time>2022-04-22T12:13:08Z</time>
      </trkpt>
      <trkpt lat="46.61531" lon="5.32169">
        <ele>195.6</ele>
        <time>2022-04-22T12:13:11Z</time>
      </trkpt>
      <trkpt lat="46.61537" lon="5.32176">
        <ele>195.2</ele>
        <time>2022-04-22T12:13:12Z</time>
      </trkpt>
      <trkpt lat="46.61553" lon="5.32202">
        <ele>195</ele>
        <time>2022-04-22T12:13:15Z</time>
      </trkpt>
      <trkpt lat="46.61591" lon="5.32269">
        <ele>195.4</ele>
        <time>2022-04-22T12:13:23Z</time>
      </trkpt>
      <trkpt lat="46.61595" lon="5.3228">
        <ele>195.4</ele>
        <time>2022-04-22T12:13:24Z</time>
      </trkpt>
      <trkpt lat="46.61604" lon="5.32332">
        <ele>196</ele>
        <time>2022-04-22T12:13:29Z</time>
      </trkpt>
      <trkpt lat="46.61607" lon="5.3235">
        <ele>196.4</ele>
        <time>2022-04-22T12:13:31Z</time>
      </trkpt>
      <trkpt lat="46.61609" lon="5.32359">
        <ele>196.4</ele>
        <time>2022-04-22T12:13:32Z</time>
      </trkpt>
      <trkpt lat="46.61615" lon="5.32379">
        <ele>196.6</ele>
        <time>2022-04-22T12:13:34Z</time>
      </trkpt>
      <trkpt lat="46.61619" lon="5.32388">
        <ele>196.8</ele>
        <time>2022-04-22T12:13:35Z</time>
      </trkpt>
      <trkpt lat="46.61634" lon="5.32409">
        <ele>197.2</ele>
        <time>2022-04-22T12:13:38Z</time>
      </trkpt>
      <trkpt lat="46.61645" lon="5.3242">
        <ele>197.2</ele>
        <time>2022-04-22T12:13:40Z</time>
      </trkpt>
      <trkpt lat="46.61662" lon="5.32432">
        <ele>197.4</ele>
        <time>2022-04-22T12:13:43Z</time>
      </trkpt>
      <trkpt lat="46.61689" lon="5.32446">
        <ele>198.6</ele>
        <time>2022-04-22T12:13:48Z</time>
      </trkpt>
      <trkpt lat="46.61695" lon="5.32449">
        <ele>198.8</ele>
        <time>2022-04-22T12:13:49Z</time>
      </trkpt>
      <trkpt lat="46.61722" lon="5.32466">
        <ele>199.6</ele>
        <time>2022-04-22T12:13:54Z</time>
      </trkpt>
      <trkpt lat="46.61739" lon="5.32474">
        <ele>200.2</ele>
        <time>2022-04-22T12:13:57Z</time>
      </trkpt>
      <trkpt lat="46.61751" lon="5.32481">
        <ele>200.6</ele>
        <time>2022-04-22T12:13:59Z</time>
      </trkpt>
      <trkpt lat="46.61785" lon="5.32507">
        <ele>201.6</ele>
        <time>2022-04-22T12:14:06Z</time>
      </trkpt>
      <trkpt lat="46.61789" lon="5.3251">
        <ele>201.8</ele>
        <time>2022-04-22T12:14:07Z</time>
      </trkpt>
      <trkpt lat="46.61807" lon="5.32527">
        <ele>202.6</ele>
        <time>2022-04-22T12:14:11Z</time>
      </trkpt>
      <trkpt lat="46.61822" lon="5.32541">
        <ele>203.2</ele>
        <time>2022-04-22T12:14:14Z</time>
      </trkpt>
      <trkpt lat="46.61836" lon="5.32554">
        <ele>203.6</ele>
        <time>2022-04-22T12:14:17Z</time>
      </trkpt>
      <trkpt lat="46.61858" lon="5.32574">
        <ele>204.2</ele>
        <time>2022-04-22T12:14:22Z</time>
      </trkpt>
      <trkpt lat="46.61879" lon="5.32595">
        <ele>204.8</ele>
        <time>2022-04-22T12:14:26Z</time>
      </trkpt>
      <trkpt lat="46.61906" lon="5.32627">
        <ele>204.8</ele>
        <time>2022-04-22T12:14:32Z</time>
      </trkpt>
      <trkpt lat="46.61948" lon="5.32685">
        <ele>205</ele>
        <time>2022-04-22T12:14:41Z</time>
      </trkpt>
      <trkpt lat="46.61986" lon="5.32742">
        <ele>204.4</ele>
        <time>2022-04-22T12:14:49Z</time>
      </trkpt>
      <trkpt lat="46.61989" lon="5.32747">
        <ele>204.4</ele>
        <time>2022-04-22T12:14:50Z</time>
      </trkpt>
      <trkpt lat="46.62018" lon="5.32793">
        <ele>205</ele>
        <time>2022-04-22T12:14:57Z</time>
      </trkpt>
      <trkpt lat="46.62041" lon="5.32828">
        <ele>206</ele>
        <time>2022-04-22T12:15:03Z</time>
      </trkpt>
      <trkpt lat="46.62051" lon="5.32842">
        <ele>206.2</ele>
        <time>2022-04-22T12:15:05Z</time>
      </trkpt>
      <trkpt lat="46.62081" lon="5.32885">
        <ele>206.4</ele>
        <time>2022-04-22T12:15:12Z</time>
      </trkpt>
      <trkpt lat="46.62093" lon="5.32896">
        <ele>206.4</ele>
        <time>2022-04-22T12:15:14Z</time>
      </trkpt>
      <trkpt lat="46.62122" lon="5.32917">
        <ele>206.6</ele>
        <time>2022-04-22T12:15:19Z</time>
      </trkpt>
      <trkpt lat="46.62152" lon="5.32936">
        <ele>206.4</ele>
        <time>2022-04-22T12:15:24Z</time>
      </trkpt>
      <trkpt lat="46.62163" lon="5.32939">
        <ele>206.4</ele>
        <time>2022-04-22T12:15:26Z</time>
      </trkpt>
      <trkpt lat="46.62176" lon="5.32938">
        <ele>206.2</ele>
        <time>2022-04-22T12:15:28Z</time>
      </trkpt>
      <trkpt lat="46.62192" lon="5.3293">
        <ele>206.2</ele>
        <time>2022-04-22T12:15:30Z</time>
      </trkpt>
      <trkpt lat="46.6223" lon="5.32919">
        <ele>205.6</ele>
        <time>2022-04-22T12:15:35Z</time>
      </trkpt>
      <trkpt lat="46.62248" lon="5.32918">
        <ele>204.8</ele>
        <time>2022-04-22T12:15:37Z</time>
      </trkpt>
      <trkpt lat="46.62276" lon="5.32917">
        <ele>203.6</ele>
        <time>2022-04-22T12:15:40Z</time>
      </trkpt>
      <trkpt lat="46.62297" lon="5.32916">
        <ele>202.6</ele>
        <time>2022-04-22T12:15:42Z</time>
      </trkpt>
      <trkpt lat="46.62315" lon="5.32915">
        <ele>201</ele>
        <time>2022-04-22T12:15:44Z</time>
      </trkpt>
      <trkpt lat="46.62347" lon="5.32912">
        <ele>199.6</ele>
        <time>2022-04-22T12:15:47Z</time>
      </trkpt>
      <trkpt lat="46.62367" lon="5.3291">
        <ele>198.4</ele>
        <time>2022-04-22T12:15:49Z</time>
      </trkpt>
      <trkpt lat="46.6239" lon="5.32907">
        <ele>197.2</ele>
        <time>2022-04-22T12:15:51Z</time>
      </trkpt>
      <trkpt lat="46.62422" lon="5.32902">
        <ele>195.4</ele>
        <time>2022-04-22T12:15:54Z</time>
      </trkpt>
      <trkpt lat="46.62441" lon="5.329">
        <ele>194.4</ele>
        <time>2022-04-22T12:15:56Z</time>
      </trkpt>
      <trkpt lat="46.62451" lon="5.32898">
        <ele>194</ele>
        <time>2022-04-22T12:15:57Z</time>
      </trkpt>
      <trkpt lat="46.62493" lon="5.32891">
        <ele>192.8</ele>
        <time>2022-04-22T12:16:01Z</time>
      </trkpt>
      <trkpt lat="46.6252" lon="5.32886">
        <ele>192.2</ele>
        <time>2022-04-22T12:16:04Z</time>
      </trkpt>
      <trkpt lat="46.62548" lon="5.3288">
        <ele>191.8</ele>
        <time>2022-04-22T12:16:07Z</time>
      </trkpt>
      <trkpt lat="46.62565" lon="5.32876">
        <ele>191.6</ele>
        <time>2022-04-22T12:16:09Z</time>
      </trkpt>
      <trkpt lat="46.6259" lon="5.32875">
        <ele>191.6</ele>
        <time>2022-04-22T12:16:12Z</time>
      </trkpt>
      <trkpt lat="46.62605" lon="5.3288">
        <ele>191.4</ele>
        <time>2022-04-22T12:16:14Z</time>
      </trkpt>
      <trkpt lat="46.6262" lon="5.32897">
        <ele>191.6</ele>
        <time>2022-04-22T12:16:16Z</time>
      </trkpt>
      <trkpt lat="46.62629" lon="5.32925">
        <ele>191.8</ele>
        <time>2022-04-22T12:16:19Z</time>
      </trkpt>
      <trkpt lat="46.62646" lon="5.32966">
        <ele>192.6</ele>
        <time>2022-04-22T12:16:24Z</time>
      </trkpt>
      <trkpt lat="46.6265" lon="5.32974">
        <ele>192.8</ele>
        <time>2022-04-22T12:16:25Z</time>
      </trkpt>
      <trkpt lat="46.62654" lon="5.32979">
        <ele>193</ele>
        <time>2022-04-22T12:16:26Z</time>
      </trkpt>
      <trkpt lat="46.62661" lon="5.32989">
        <ele>193.4</ele>
        <time>2022-04-22T12:16:28Z</time>
      </trkpt>
      <trkpt lat="46.62665" lon="5.32993">
        <ele>193.4</ele>
        <time>2022-04-22T12:16:29Z</time>
      </trkpt>
      <trkpt lat="46.62676" lon="5.32999">
        <ele>194</ele>
        <time>2022-04-22T12:16:31Z</time>
      </trkpt>
      <trkpt lat="46.62685" lon="5.33">
        <ele>195.8</ele>
        <time>2022-04-22T12:16:33Z</time>
      </trkpt>
      <trkpt lat="46.6271" lon="5.32996">
        <ele>196.8</ele>
        <time>2022-04-22T12:16:38Z</time>
      </trkpt>
      <trkpt lat="46.62714" lon="5.32997">
        <ele>197.2</ele>
        <time>2022-04-22T12:16:39Z</time>
      </trkpt>
      <trkpt lat="46.62719" lon="5.32997">
        <ele>198</ele>
        <time>2022-04-22T12:16:40Z</time>
      </trkpt>
      <trkpt lat="46.62742" lon="5.33004">
        <ele>199</ele>
        <time>2022-04-22T12:16:45Z</time>
      </trkpt>
      <trkpt lat="46.62747" lon="5.33006">
        <ele>199.2</ele>
        <time>2022-04-22T12:16:46Z</time>
      </trkpt>
      <trkpt lat="46.62753" lon="5.33008">
        <ele>199.6</ele>
        <time>2022-04-22T12:16:47Z</time>
      </trkpt>
      <trkpt lat="46.62772" lon="5.33014">
        <ele>200.6</ele>
        <time>2022-04-22T12:16:51Z</time>
      </trkpt>
      <trkpt lat="46.62788" lon="5.33019">
        <ele>201</ele>
        <time>2022-04-22T12:16:54Z</time>
      </trkpt>
      <trkpt lat="46.62808" lon="5.33025">
        <ele>201.6</ele>
        <time>2022-04-22T12:16:58Z</time>
      </trkpt>
      <trkpt lat="46.62839" lon="5.33034">
        <ele>202.4</ele>
        <time>2022-04-22T12:17:04Z</time>
      </trkpt>
      <trkpt lat="46.62866" lon="5.33043">
        <ele>202.6</ele>
        <time>2022-04-22T12:17:09Z</time>
      </trkpt>
      <trkpt lat="46.62887" lon="5.33053">
        <ele>202.8</ele>
        <time>2022-04-22T12:17:13Z</time>
      </trkpt>
      <trkpt lat="46.62898" lon="5.33062">
        <ele>202.8</ele>
        <time>2022-04-22T12:17:15Z</time>
      </trkpt>
      <trkpt lat="46.6291" lon="5.33078">
        <ele>203.2</ele>
        <time>2022-04-22T12:17:18Z</time>
      </trkpt>
      <trkpt lat="46.62936" lon="5.33105">
        <ele>203.6</ele>
        <time>2022-04-22T12:17:24Z</time>
      </trkpt>
      <trkpt lat="46.62941" lon="5.33108">
        <ele>203.8</ele>
        <time>2022-04-22T12:17:25Z</time>
      </trkpt>
      <trkpt lat="46.62946" lon="5.3311">
        <ele>203.8</ele>
        <time>2022-04-22T12:17:26Z</time>
      </trkpt>
      <trkpt lat="46.62968" lon="5.33116">
        <ele>204.2</ele>
        <time>2022-04-22T12:17:30Z</time>
      </trkpt>
      <trkpt lat="46.62983" lon="5.3312">
        <ele>205</ele>
        <time>2022-04-22T12:17:33Z</time>
      </trkpt>
      <trkpt lat="46.63006" lon="5.33126">
        <ele>206.2</ele>
        <time>2022-04-22T12:17:38Z</time>
      </trkpt>
      <trkpt lat="46.6301" lon="5.33127">
        <ele>206.4</ele>
        <time>2022-04-22T12:17:39Z</time>
      </trkpt>
      <trkpt lat="46.6302" lon="5.33131">
        <ele>206.8</ele>
        <time>2022-04-22T12:17:41Z</time>
      </trkpt>
      <trkpt lat="46.63024" lon="5.33133">
        <ele>207.2</ele>
        <time>2022-04-22T12:17:42Z</time>
      </trkpt>
      <trkpt lat="46.63038" lon="5.3314">
        <ele>207.8</ele>
        <time>2022-04-22T12:17:45Z</time>
      </trkpt>
      <trkpt lat="46.63049" lon="5.33151">
        <ele>208.6</ele>
        <time>2022-04-22T12:17:48Z</time>
      </trkpt>
      <trkpt lat="46.63071" lon="5.33171">
        <ele>209.2</ele>
        <time>2022-04-22T12:17:53Z</time>
      </trkpt>
      <trkpt lat="46.63084" lon="5.33183">
        <ele>209.6</ele>
        <time>2022-04-22T12:17:56Z</time>
      </trkpt>
      <trkpt lat="46.631" lon="5.33201">
        <ele>209.8</ele>
        <time>2022-04-22T12:18:00Z</time>
      </trkpt>
      <trkpt lat="46.63103" lon="5.33208">
        <ele>209.8</ele>
        <time>2022-04-22T12:18:01Z</time>
      </trkpt>
      <trkpt lat="46.63106" lon="5.33216">
        <ele>210</ele>
        <time>2022-04-22T12:18:02Z</time>
      </trkpt>
      <trkpt lat="46.63107" lon="5.33232">
        <ele>210</ele>
        <time>2022-04-22T12:18:04Z</time>
      </trkpt>
      <trkpt lat="46.63108" lon="5.33241">
        <ele>210</ele>
        <time>2022-04-22T12:18:05Z</time>
      </trkpt>
      <trkpt lat="46.63116" lon="5.33274">
        <ele>210</ele>
        <time>2022-04-22T12:18:09Z</time>
      </trkpt>
      <trkpt lat="46.63133" lon="5.33335">
        <ele>210</ele>
        <time>2022-04-22T12:18:16Z</time>
      </trkpt>
      <trkpt lat="46.63136" lon="5.33343">
        <ele>210</ele>
        <time>2022-04-22T12:18:17Z</time>
      </trkpt>
      <trkpt lat="46.6315" lon="5.3339">
        <ele>209.2</ele>
        <time>2022-04-22T12:18:22Z</time>
      </trkpt>
      <trkpt lat="46.63153" lon="5.334">
        <ele>208.4</ele>
        <time>2022-04-22T12:18:23Z</time>
      </trkpt>
      <trkpt lat="46.63166" lon="5.33441">
        <ele>207.4</ele>
        <time>2022-04-22T12:18:27Z</time>
      </trkpt>
      <trkpt lat="46.6318" lon="5.33498">
        <ele>206.2</ele>
        <time>2022-04-22T12:18:32Z</time>
      </trkpt>
      <trkpt lat="46.63186" lon="5.33522">
        <ele>206</ele>
        <time>2022-04-22T12:18:34Z</time>
      </trkpt>
      <trkpt lat="46.63193" lon="5.33547">
        <ele>205</ele>
        <time>2022-04-22T12:18:36Z</time>
      </trkpt>
      <trkpt lat="46.63204" lon="5.33584">
        <ele>204</ele>
        <time>2022-04-22T12:18:39Z</time>
      </trkpt>
      <trkpt lat="46.63212" lon="5.3361">
        <ele>203.4</ele>
        <time>2022-04-22T12:18:41Z</time>
      </trkpt>
      <trkpt lat="46.63216" lon="5.33623">
        <ele>202.8</ele>
        <time>2022-04-22T12:18:42Z</time>
      </trkpt>
      <trkpt lat="46.63224" lon="5.33651">
        <ele>201.2</ele>
        <time>2022-04-22T12:18:44Z</time>
      </trkpt>
      <trkpt lat="46.63232" lon="5.33678">
        <ele>200</ele>
        <time>2022-04-22T12:18:46Z</time>
      </trkpt>
      <trkpt lat="46.63244" lon="5.33719">
        <ele>199.2</ele>
        <time>2022-04-22T12:18:49Z</time>
      </trkpt>
      <trkpt lat="46.63247" lon="5.33732">
        <ele>199</ele>
        <time>2022-04-22T12:18:50Z</time>
      </trkpt>
      <trkpt lat="46.63262" lon="5.33794">
        <ele>197.6</ele>
        <time>2022-04-22T12:18:55Z</time>
      </trkpt>
      <trkpt lat="46.63272" lon="5.33855">
        <ele>197</ele>
        <time>2022-04-22T12:19:00Z</time>
      </trkpt>
      <trkpt lat="46.63277" lon="5.3392">
        <ele>196.6</ele>
        <time>2022-04-22T12:19:05Z</time>
      </trkpt>
      <trkpt lat="46.63277" lon="5.33932">
        <ele>196.6</ele>
        <time>2022-04-22T12:19:06Z</time>
      </trkpt>
      <trkpt lat="46.6328" lon="5.33991">
        <ele>196.6</ele>
        <time>2022-04-22T12:19:11Z</time>
      </trkpt>
      <trkpt lat="46.63282" lon="5.34043">
        <ele>197.2</ele>
        <time>2022-04-22T12:19:16Z</time>
      </trkpt>
      <trkpt lat="46.63284" lon="5.34091">
        <ele>197.8</ele>
        <time>2022-04-22T12:19:21Z</time>
      </trkpt>
      <trkpt lat="46.63284" lon="5.341">
        <ele>197.8</ele>
        <time>2022-04-22T12:19:22Z</time>
      </trkpt>
      <trkpt lat="46.63287" lon="5.34152">
        <ele>198.8</ele>
        <time>2022-04-22T12:19:28Z</time>
      </trkpt>
      <trkpt lat="46.63287" lon="5.342">
        <ele>199.8</ele>
        <time>2022-04-22T12:19:34Z</time>
      </trkpt>
      <trkpt lat="46.63287" lon="5.34215">
        <ele>200.2</ele>
        <time>2022-04-22T12:19:36Z</time>
      </trkpt>
      <trkpt lat="46.63287" lon="5.34229">
        <ele>200.8</ele>
        <time>2022-04-22T12:19:38Z</time>
      </trkpt>
      <trkpt lat="46.63286" lon="5.34242">
        <ele>201.4</ele>
        <time>2022-04-22T12:19:40Z</time>
      </trkpt>
      <trkpt lat="46.63285" lon="5.34248">
        <ele>201.8</ele>
        <time>2022-04-22T12:19:41Z</time>
      </trkpt>
      <trkpt lat="46.63283" lon="5.34254">
        <ele>202.2</ele>
        <time>2022-04-22T12:19:42Z</time>
      </trkpt>
      <trkpt lat="46.63277" lon="5.3427">
        <ele>203.2</ele>
        <time>2022-04-22T12:19:45Z</time>
      </trkpt>
      <trkpt lat="46.63272" lon="5.34282">
        <ele>203.4</ele>
        <time>2022-04-22T12:19:47Z</time>
      </trkpt>
      <trkpt lat="46.63266" lon="5.34312">
        <ele>204</ele>
        <time>2022-04-22T12:19:51Z</time>
      </trkpt>
      <trkpt lat="46.63262" lon="5.3433">
        <ele>204.4</ele>
        <time>2022-04-22T12:19:53Z</time>
      </trkpt>
      <trkpt lat="46.63259" lon="5.34349">
        <ele>204.4</ele>
        <time>2022-04-22T12:19:55Z</time>
      </trkpt>
      <trkpt lat="46.63258" lon="5.34358">
        <ele>204.4</ele>
        <time>2022-04-22T12:19:56Z</time>
      </trkpt>
      <trkpt lat="46.63262" lon="5.3441">
        <ele>204.2</ele>
        <time>2022-04-22T12:20:01Z</time>
      </trkpt>
      <trkpt lat="46.63267" lon="5.34442">
        <ele>203.2</ele>
        <time>2022-04-22T12:20:04Z</time>
      </trkpt>
      <trkpt lat="46.63271" lon="5.34464">
        <ele>202.8</ele>
        <time>2022-04-22T12:20:06Z</time>
      </trkpt>
      <trkpt lat="46.63276" lon="5.34499">
        <ele>202</ele>
        <time>2022-04-22T12:20:09Z</time>
      </trkpt>
      <trkpt lat="46.63279" lon="5.34523">
        <ele>201.6</ele>
        <time>2022-04-22T12:20:11Z</time>
      </trkpt>
      <trkpt lat="46.63281" lon="5.34559">
        <ele>200.8</ele>
        <time>2022-04-22T12:20:14Z</time>
      </trkpt>
      <trkpt lat="46.63282" lon="5.34595">
        <ele>200.4</ele>
        <time>2022-04-22T12:20:17Z</time>
      </trkpt>
      <trkpt lat="46.63281" lon="5.3463">
        <ele>199.8</ele>
        <time>2022-04-22T12:20:20Z</time>
      </trkpt>
      <trkpt lat="46.63279" lon="5.34652">
        <ele>199.2</ele>
        <time>2022-04-22T12:20:22Z</time>
      </trkpt>
      <trkpt lat="46.6327" lon="5.34736">
        <ele>198.8</ele>
        <time>2022-04-22T12:20:30Z</time>
      </trkpt>
      <trkpt lat="46.63266" lon="5.34789">
        <ele>199.2</ele>
        <time>2022-04-22T12:20:35Z</time>
      </trkpt>
      <trkpt lat="46.63272" lon="5.34851">
        <ele>199.4</ele>
        <time>2022-04-22T12:20:41Z</time>
      </trkpt>
      <trkpt lat="46.63276" lon="5.34891">
        <ele>199.6</ele>
        <time>2022-04-22T12:20:45Z</time>
      </trkpt>
      <trkpt lat="46.63276" lon="5.34919">
        <ele>200.6</ele>
        <time>2022-04-22T12:20:48Z</time>
      </trkpt>
      <trkpt lat="46.63276" lon="5.34938">
        <ele>201</ele>
        <time>2022-04-22T12:20:50Z</time>
      </trkpt>
      <trkpt lat="46.63277" lon="5.34956">
        <ele>201.2</ele>
        <time>2022-04-22T12:20:52Z</time>
      </trkpt>
      <trkpt lat="46.63281" lon="5.34975">
        <ele>201.4</ele>
        <time>2022-04-22T12:20:54Z</time>
      </trkpt>
      <trkpt lat="46.63287" lon="5.34992">
        <ele>201.6</ele>
        <time>2022-04-22T12:20:56Z</time>
      </trkpt>
      <trkpt lat="46.63295" lon="5.35008">
        <ele>201.8</ele>
        <time>2022-04-22T12:20:58Z</time>
      </trkpt>
      <trkpt lat="46.63322" lon="5.35055">
        <ele>201.6</ele>
        <time>2022-04-22T12:21:04Z</time>
      </trkpt>
      <trkpt lat="46.63326" lon="5.35063">
        <ele>201.6</ele>
        <time>2022-04-22T12:21:05Z</time>
      </trkpt>
      <trkpt lat="46.63329" lon="5.35071">
        <ele>201.6</ele>
        <time>2022-04-22T12:21:06Z</time>
      </trkpt>
      <trkpt lat="46.63334" lon="5.3509">
        <ele>201.6</ele>
        <time>2022-04-22T12:21:08Z</time>
      </trkpt>
      <trkpt lat="46.63335" lon="5.351">
        <ele>201.4</ele>
        <time>2022-04-22T12:21:09Z</time>
      </trkpt>
      <trkpt lat="46.63339" lon="5.35177">
        <ele>201</ele>
        <time>2022-04-22T12:21:16Z</time>
      </trkpt>
      <trkpt lat="46.63341" lon="5.35249">
        <ele>200.2</ele>
        <time>2022-04-22T12:21:22Z</time>
      </trkpt>
      <trkpt lat="46.63342" lon="5.35283">
        <ele>199.8</ele>
        <time>2022-04-22T12:21:25Z</time>
      </trkpt>
      <trkpt lat="46.63343" lon="5.35338">
        <ele>199.6</ele>
        <time>2022-04-22T12:21:30Z</time>
      </trkpt>
      <trkpt lat="46.63344" lon="5.35359">
        <ele>199.6</ele>
        <time>2022-04-22T12:21:32Z</time>
      </trkpt>
      <trkpt lat="46.63349" lon="5.35387">
        <ele>200</ele>
        <time>2022-04-22T12:21:35Z</time>
      </trkpt>
      <trkpt lat="46.63367" lon="5.35449">
        <ele>200.8</ele>
        <time>2022-04-22T12:21:42Z</time>
      </trkpt>
      <trkpt lat="46.63375" lon="5.35482">
        <ele>201.6</ele>
        <time>2022-04-22T12:21:46Z</time>
      </trkpt>
      <trkpt lat="46.63378" lon="5.35488">
        <ele>201.8</ele>
        <time>2022-04-22T12:21:47Z</time>
      </trkpt>
      <trkpt lat="46.63383" lon="5.35493">
        <ele>202</ele>
        <time>2022-04-22T12:21:48Z</time>
      </trkpt>
      <trkpt lat="46.63394" lon="5.35497">
        <ele>202.2</ele>
        <time>2022-04-22T12:21:50Z</time>
      </trkpt>
      <trkpt lat="46.63422" lon="5.3549">
        <ele>202.8</ele>
        <time>2022-04-22T12:21:55Z</time>
      </trkpt>
      <trkpt lat="46.63433" lon="5.35491">
        <ele>203</ele>
        <time>2022-04-22T12:21:57Z</time>
      </trkpt>
      <trkpt lat="46.63444" lon="5.35497">
        <ele>203.2</ele>
        <time>2022-04-22T12:21:59Z</time>
      </trkpt>
      <trkpt lat="46.63478" lon="5.3553">
        <ele>204.4</ele>
        <time>2022-04-22T12:22:06Z</time>
      </trkpt>
      <trkpt lat="46.63511" lon="5.35559">
        <ele>205</ele>
        <time>2022-04-22T12:22:13Z</time>
      </trkpt>
      <trkpt lat="46.63516" lon="5.35562">
        <ele>205.2</ele>
        <time>2022-04-22T12:22:14Z</time>
      </trkpt>
      <trkpt lat="46.63525" lon="5.35567">
        <ele>205.4</ele>
        <time>2022-04-22T12:22:16Z</time>
      </trkpt>
      <trkpt lat="46.63535" lon="5.3557">
        <ele>205.8</ele>
        <time>2022-04-22T12:22:18Z</time>
      </trkpt>
      <trkpt lat="46.63555" lon="5.35575">
        <ele>206.4</ele>
        <time>2022-04-22T12:22:22Z</time>
      </trkpt>
      <trkpt lat="46.6357" lon="5.35581">
        <ele>207.2</ele>
        <time>2022-04-22T12:22:25Z</time>
      </trkpt>
      <trkpt lat="46.63579" lon="5.35584">
        <ele>207.6</ele>
        <time>2022-04-22T12:22:27Z</time>
      </trkpt>
      <trkpt lat="46.63603" lon="5.35592">
        <ele>209</ele>
        <time>2022-04-22T12:22:32Z</time>
      </trkpt>
      <trkpt lat="46.63612" lon="5.35594">
        <ele>209.4</ele>
        <time>2022-04-22T12:22:34Z</time>
      </trkpt>
      <trkpt lat="46.63626" lon="5.35599">
        <ele>210</ele>
        <time>2022-04-22T12:22:37Z</time>
      </trkpt>
      <trkpt lat="46.6365" lon="5.35608">
        <ele>211</ele>
        <time>2022-04-22T12:22:42Z</time>
      </trkpt>
      <trkpt lat="46.63655" lon="5.3561">
        <ele>211.2</ele>
        <time>2022-04-22T12:22:43Z</time>
      </trkpt>
      <trkpt lat="46.63684" lon="5.35622">
        <ele>212</ele>
        <time>2022-04-22T12:22:49Z</time>
      </trkpt>
      <trkpt lat="46.63698" lon="5.35627">
        <ele>212.6</ele>
        <time>2022-04-22T12:22:52Z</time>
      </trkpt>
      <trkpt lat="46.63718" lon="5.35633">
        <ele>213.2</ele>
        <time>2022-04-22T12:22:56Z</time>
      </trkpt>
      <trkpt lat="46.63738" lon="5.35636">
        <ele>213.4</ele>
        <time>2022-04-22T12:23:00Z</time>
      </trkpt>
      <trkpt lat="46.63789" lon="5.35635">
        <ele>213.6</ele>
        <time>2022-04-22T12:23:09Z</time>
      </trkpt>
      <trkpt lat="46.63845" lon="5.35634">
        <ele>213.6</ele>
        <time>2022-04-22T12:23:18Z</time>
      </trkpt>
      <trkpt lat="46.63906" lon="5.35633">
        <ele>212.8</ele>
        <time>2022-04-22T12:23:27Z</time>
      </trkpt>
      <trkpt lat="46.63913" lon="5.35632">
        <ele>212.8</ele>
        <time>2022-04-22T12:23:28Z</time>
      </trkpt>
      <trkpt lat="46.63968" lon="5.3563">
        <ele>212.4</ele>
        <time>2022-04-22T12:23:36Z</time>
      </trkpt>
      <trkpt lat="46.63982" lon="5.3563">
        <ele>212.2</ele>
        <time>2022-04-22T12:23:38Z</time>
      </trkpt>
      <trkpt lat="46.63989" lon="5.35629">
        <ele>212</ele>
        <time>2022-04-22T12:23:39Z</time>
      </trkpt>
      <trkpt lat="46.64038" lon="5.35622">
        <ele>211.6</ele>
        <time>2022-04-22T12:23:46Z</time>
      </trkpt>
      <trkpt lat="46.64052" lon="5.35622">
        <ele>211</ele>
        <time>2022-04-22T12:23:48Z</time>
      </trkpt>
      <trkpt lat="46.64074" lon="5.35628">
        <ele>210.6</ele>
        <time>2022-04-22T12:23:51Z</time>
      </trkpt>
      <trkpt lat="46.64116" lon="5.35647">
        <ele>209.8</ele>
        <time>2022-04-22T12:23:57Z</time>
      </trkpt>
      <trkpt lat="46.64131" lon="5.35653">
        <ele>209.8</ele>
        <time>2022-04-22T12:23:59Z</time>
      </trkpt>
      <trkpt lat="46.6419" lon="5.35673">
        <ele>209.4</ele>
        <time>2022-04-22T12:24:07Z</time>
      </trkpt>
      <trkpt lat="46.64204" lon="5.35681">
        <ele>209.4</ele>
        <time>2022-04-22T12:24:09Z</time>
      </trkpt>
      <trkpt lat="46.64218" lon="5.35692">
        <ele>209.2</ele>
        <time>2022-04-22T12:24:11Z</time>
      </trkpt>
      <trkpt lat="46.64244" lon="5.35717">
        <ele>208.8</ele>
        <time>2022-04-22T12:24:15Z</time>
      </trkpt>
      <trkpt lat="46.64251" lon="5.35722">
        <ele>208.8</ele>
        <time>2022-04-22T12:24:16Z</time>
      </trkpt>
      <trkpt lat="46.64281" lon="5.3573">
        <ele>208.4</ele>
        <time>2022-04-22T12:24:20Z</time>
      </trkpt>
      <trkpt lat="46.64329" lon="5.35732">
        <ele>207.8</ele>
        <time>2022-04-22T12:24:26Z</time>
      </trkpt>
      <trkpt lat="46.64337" lon="5.35734">
        <ele>207.4</ele>
        <time>2022-04-22T12:24:27Z</time>
      </trkpt>
      <trkpt lat="46.64344" lon="5.35738">
        <ele>207.2</ele>
        <time>2022-04-22T12:24:28Z</time>
      </trkpt>
      <trkpt lat="46.64363" lon="5.35752">
        <ele>206.8</ele>
        <time>2022-04-22T12:24:31Z</time>
      </trkpt>
      <trkpt lat="46.64391" lon="5.35762">
        <ele>206.8</ele>
        <time>2022-04-22T12:24:35Z</time>
      </trkpt>
      <trkpt lat="46.64397" lon="5.35765">
        <ele>206.6</ele>
        <time>2022-04-22T12:24:36Z</time>
      </trkpt>
      <trkpt lat="46.64402" lon="5.35771">
        <ele>206.6</ele>
        <time>2022-04-22T12:24:37Z</time>
      </trkpt>
      <trkpt lat="46.64404" lon="5.35778">
        <ele>206.6</ele>
        <time>2022-04-22T12:24:38Z</time>
      </trkpt>
      <trkpt lat="46.64404" lon="5.35785">
        <ele>206.6</ele>
        <time>2022-04-22T12:24:39Z</time>
      </trkpt>
      <trkpt lat="46.64402" lon="5.35793">
        <ele>206.6</ele>
        <time>2022-04-22T12:24:40Z</time>
      </trkpt>
      <trkpt lat="46.64397" lon="5.3582">
        <ele>206.6</ele>
        <time>2022-04-22T12:24:43Z</time>
      </trkpt>
      <trkpt lat="46.6439" lon="5.35876">
        <ele>206</ele>
        <time>2022-04-22T12:24:48Z</time>
      </trkpt>
      <trkpt lat="46.64387" lon="5.359">
        <ele>205.2</ele>
        <time>2022-04-22T12:24:50Z</time>
      </trkpt>
      <trkpt lat="46.64382" lon="5.35937">
        <ele>204.2</ele>
        <time>2022-04-22T12:24:53Z</time>
      </trkpt>
      <trkpt lat="46.64379" lon="5.35964">
        <ele>203.8</ele>
        <time>2022-04-22T12:24:55Z</time>
      </trkpt>
      <trkpt lat="46.64375" lon="5.35991">
        <ele>202.6</ele>
        <time>2022-04-22T12:24:57Z</time>
      </trkpt>
      <trkpt lat="46.64369" lon="5.36046">
        <ele>201.4</ele>
        <time>2022-04-22T12:25:01Z</time>
      </trkpt>
      <trkpt lat="46.64365" lon="5.36075">
        <ele>200.2</ele>
        <time>2022-04-22T12:25:03Z</time>
      </trkpt>
      <trkpt lat="46.64361" lon="5.36102">
        <ele>199</ele>
        <time>2022-04-22T12:25:05Z</time>
      </trkpt>
      <trkpt lat="46.64353" lon="5.36167">
        <ele>198</ele>
        <time>2022-04-22T12:25:10Z</time>
      </trkpt>
      <trkpt lat="46.64351" lon="5.3618">
        <ele>197.8</ele>
        <time>2022-04-22T12:25:11Z</time>
      </trkpt>
      <trkpt lat="46.64341" lon="5.36264">
        <ele>198</ele>
        <time>2022-04-22T12:25:18Z</time>
      </trkpt>
      <trkpt lat="46.6434" lon="5.36275">
        <ele>198</ele>
        <time>2022-04-22T12:25:19Z</time>
      </trkpt>
      <trkpt lat="46.64336" lon="5.36308">
        <ele>198.4</ele>
        <time>2022-04-22T12:25:22Z</time>
      </trkpt>
      <trkpt lat="46.64332" lon="5.36329">
        <ele>198.8</ele>
        <time>2022-04-22T12:25:24Z</time>
      </trkpt>
      <trkpt lat="46.64327" lon="5.36359">
        <ele>199.2</ele>
        <time>2022-04-22T12:25:27Z</time>
      </trkpt>
      <trkpt lat="46.64324" lon="5.36388">
        <ele>199.6</ele>
        <time>2022-04-22T12:25:30Z</time>
      </trkpt>
      <trkpt lat="46.6432" lon="5.36413">
        <ele>200.2</ele>
        <time>2022-04-22T12:25:33Z</time>
      </trkpt>
      <trkpt lat="46.64317" lon="5.36445">
        <ele>201.2</ele>
        <time>2022-04-22T12:25:37Z</time>
      </trkpt>
      <trkpt lat="46.64314" lon="5.36474">
        <ele>202.4</ele>
        <time>2022-04-22T12:25:41Z</time>
      </trkpt>
      <trkpt lat="46.64312" lon="5.36488">
        <ele>203</ele>
        <time>2022-04-22T12:25:43Z</time>
      </trkpt>
      <trkpt lat="46.64311" lon="5.36503">
        <ele>203.4</ele>
        <time>2022-04-22T12:25:45Z</time>
      </trkpt>
      <trkpt lat="46.64307" lon="5.36533">
        <ele>204.6</ele>
        <time>2022-04-22T12:25:49Z</time>
      </trkpt>
      <trkpt lat="46.64306" lon="5.36556">
        <ele>205.4</ele>
        <time>2022-04-22T12:25:52Z</time>
      </trkpt>
      <trkpt lat="46.64306" lon="5.36564">
        <ele>205.6</ele>
        <time>2022-04-22T12:25:53Z</time>
      </trkpt>
      <trkpt lat="46.64305" lon="5.36608">
        <ele>206.2</ele>
        <time>2022-04-22T12:25:58Z</time>
      </trkpt>
      <trkpt lat="46.64306" lon="5.36654">
        <ele>206.6</ele>
        <time>2022-04-22T12:26:02Z</time>
      </trkpt>
      <trkpt lat="46.64306" lon="5.36665">
        <ele>206.6</ele>
        <time>2022-04-22T12:26:04Z</time>
      </trkpt>
      <trkpt lat="46.64307" lon="5.36737">
        <ele>205.8</ele>
        <time>2022-04-22T12:26:09Z</time>
      </trkpt>
      <trkpt lat="46.64307" lon="5.36748">
        <ele>205.4</ele>
        <time>2022-04-22T12:26:10Z</time>
      </trkpt>
      <trkpt lat="46.64307" lon="5.36783">
        <ele>204</ele>
        <time>2022-04-22T12:26:13Z</time>
      </trkpt>
      <trkpt lat="46.64308" lon="5.36862">
        <ele>203.4</ele>
        <time>2022-04-22T12:26:20Z</time>
      </trkpt>
      <trkpt lat="46.64308" lon="5.36918">
        <ele>203.8</ele>
        <time>2022-04-22T12:26:26Z</time>
      </trkpt>
      <trkpt lat="46.64308" lon="5.36961">
        <ele>205.4</ele>
        <time>2022-04-22T12:26:31Z</time>
      </trkpt>
      <trkpt lat="46.64309" lon="5.36984">
        <ele>206.4</ele>
        <time>2022-04-22T12:26:34Z</time>
      </trkpt>
      <trkpt lat="46.64309" lon="5.36991">
        <ele>207</ele>
        <time>2022-04-22T12:26:35Z</time>
      </trkpt>
      <trkpt lat="46.64309" lon="5.37013">
        <ele>208</ele>
        <time>2022-04-22T12:26:38Z</time>
      </trkpt>
      <trkpt lat="46.6431" lon="5.3704">
        <ele>209</ele>
        <time>2022-04-22T12:26:42Z</time>
      </trkpt>
      <trkpt lat="46.64309" lon="5.3708">
        <ele>210.2</ele>
        <time>2022-04-22T12:26:47Z</time>
      </trkpt>
      <trkpt lat="46.6431" lon="5.37101">
        <ele>210.8</ele>
        <time>2022-04-22T12:26:49Z</time>
      </trkpt>
      <trkpt lat="46.64311" lon="5.37132">
        <ele>211.2</ele>
        <time>2022-04-22T12:26:52Z</time>
      </trkpt>
      <trkpt lat="46.64311" lon="5.37175">
        <ele>210.6</ele>
        <time>2022-04-22T12:26:56Z</time>
      </trkpt>
      <trkpt lat="46.64312" lon="5.37198">
        <ele>210</ele>
        <time>2022-04-22T12:26:58Z</time>
      </trkpt>
      <trkpt lat="46.64311" lon="5.37232">
        <ele>209.2</ele>
        <time>2022-04-22T12:27:01Z</time>
      </trkpt>
      <trkpt lat="46.64311" lon="5.37255">
        <ele>208.6</ele>
        <time>2022-04-22T12:27:03Z</time>
      </trkpt>
      <trkpt lat="46.64312" lon="5.37278">
        <ele>208.2</ele>
        <time>2022-04-22T12:27:05Z</time>
      </trkpt>
      <trkpt lat="46.64312" lon="5.3729">
        <ele>208</ele>
        <time>2022-04-22T12:27:06Z</time>
      </trkpt>
      <trkpt lat="46.64313" lon="5.37362">
        <ele>207.8</ele>
        <time>2022-04-22T12:27:12Z</time>
      </trkpt>
      <trkpt lat="46.64314" lon="5.37387">
        <ele>207</ele>
        <time>2022-04-22T12:27:14Z</time>
      </trkpt>
      <trkpt lat="46.64315" lon="5.37425">
        <ele>205.8</ele>
        <time>2022-04-22T12:27:17Z</time>
      </trkpt>
      <trkpt lat="46.64316" lon="5.37459">
        <ele>204.8</ele>
        <time>2022-04-22T12:27:20Z</time>
      </trkpt>
      <trkpt lat="46.64316" lon="5.37459">
        <ele>204.2</ele>
        <time>2022-04-22T12:27:21Z</time>
      </trkpt>
      <trkpt lat="46.64316" lon="5.37542">
        <ele>203.8</ele>
        <time>2022-04-22T12:27:27Z</time>
      </trkpt>
      <trkpt lat="46.64317" lon="5.37553">
        <ele>203.8</ele>
        <time>2022-04-22T12:27:28Z</time>
      </trkpt>
      <trkpt lat="46.64316" lon="5.37626">
        <ele>204.6</ele>
        <time>2022-04-22T12:27:35Z</time>
      </trkpt>
      <trkpt lat="46.64317" lon="5.37655">
        <ele>204.8</ele>
        <time>2022-04-22T12:27:38Z</time>
      </trkpt>
      <trkpt lat="46.64318" lon="5.37673">
        <ele>205</ele>
        <time>2022-04-22T12:27:40Z</time>
      </trkpt>
      <trkpt lat="46.64318" lon="5.37691">
        <ele>205.8</ele>
        <time>2022-04-22T12:27:42Z</time>
      </trkpt>
      <trkpt lat="46.64316" lon="5.37723">
        <ele>207</ele>
        <time>2022-04-22T12:27:47Z</time>
      </trkpt>
      <trkpt lat="46.64314" lon="5.37747">
        <ele>207.2</ele>
        <time>2022-04-22T12:27:49Z</time>
      </trkpt>
      <trkpt lat="46.64314" lon="5.37772">
        <ele>207.6</ele>
        <time>2022-04-22T12:27:52Z</time>
      </trkpt>
      <trkpt lat="46.64315" lon="5.37786">
        <ele>208.2</ele>
        <time>2022-04-22T12:27:54Z</time>
      </trkpt>
      <trkpt lat="46.64319" lon="5.37835">
        <ele>209.4</ele>
        <time>2022-04-22T12:28:00Z</time>
      </trkpt>
      <trkpt lat="46.64322" lon="5.37891">
        <ele>209.8</ele>
        <time>2022-04-22T12:28:06Z</time>
      </trkpt>
      <trkpt lat="46.64323" lon="5.37978">
        <ele>209.6</ele>
        <time>2022-04-22T12:28:15Z</time>
      </trkpt>
      <trkpt lat="46.64323" lon="5.37985">
        <ele>209.4</ele>
        <time>2022-04-22T12:28:16Z</time>
      </trkpt>
      <trkpt lat="46.64326" lon="5.38069">
        <ele>209.4</ele>
        <time>2022-04-22T12:28:25Z</time>
      </trkpt>
      <trkpt lat="46.64326" lon="5.38106">
        <ele>209.8</ele>
        <time>2022-04-22T12:28:29Z</time>
      </trkpt>
      <trkpt lat="46.64327" lon="5.38158">
        <ele>210.4</ele>
        <time>2022-04-22T12:28:36Z</time>
      </trkpt>
      <trkpt lat="46.64327" lon="5.38175">
        <ele>210.8</ele>
        <time>2022-04-22T12:28:37Z</time>
      </trkpt>
      <trkpt lat="46.64329" lon="5.38208">
        <ele>211.6</ele>
        <time>2022-04-22T12:28:41Z</time>
      </trkpt>
      <trkpt lat="46.64329" lon="5.38231">
        <ele>212.8</ele>
        <time>2022-04-22T12:28:44Z</time>
      </trkpt>
      <trkpt lat="46.64329" lon="5.38245">
        <ele>213.2</ele>
        <time>2022-04-22T12:28:46Z</time>
      </trkpt>
      <trkpt lat="46.6433" lon="5.38272">
        <ele>213.8</ele>
        <time>2022-04-22T12:28:50Z</time>
      </trkpt>
      <trkpt lat="46.64331" lon="5.383">
        <ele>215</ele>
        <time>2022-04-22T12:28:54Z</time>
      </trkpt>
      <trkpt lat="46.64331" lon="5.38352">
        <ele>216.2</ele>
        <time>2022-04-22T12:29:01Z</time>
      </trkpt>
      <trkpt lat="46.6433" lon="5.38375">
        <ele>216.4</ele>
        <time>2022-04-22T12:29:04Z</time>
      </trkpt>
      <trkpt lat="46.64329" lon="5.38391">
        <ele>216.8</ele>
        <time>2022-04-22T12:29:06Z</time>
      </trkpt>
      <trkpt lat="46.64326" lon="5.38417">
        <ele>216.8</ele>
        <time>2022-04-22T12:29:09Z</time>
      </trkpt>
      <trkpt lat="46.64332" lon="5.38431">
        <ele>216.8</ele>
        <time>2022-04-22T12:29:11Z</time>
      </trkpt>
      <trkpt lat="46.6434" lon="5.38437">
        <ele>216.6</ele>
        <time>2022-04-22T12:29:13Z</time>
      </trkpt>
      <trkpt lat="46.64344" lon="5.38435">
        <ele>216.2</ele>
        <time>2022-04-22T12:29:14Z</time>
      </trkpt>
      <trkpt lat="46.6436" lon="5.38426">
        <ele>215.8</ele>
        <time>2022-04-22T12:29:17Z</time>
      </trkpt>
      <trkpt lat="46.64365" lon="5.38422">
        <ele>215.8</ele>
        <time>2022-04-22T12:29:18Z</time>
      </trkpt>
      <trkpt lat="46.64376" lon="5.38414">
        <ele>215.8</ele>
        <time>2022-04-22T12:29:20Z</time>
      </trkpt>
      <trkpt lat="46.64393" lon="5.38398">
        <ele>216</ele>
        <time>2022-04-22T12:29:23Z</time>
      </trkpt>
      <trkpt lat="46.64425" lon="5.38358">
        <ele>216</ele>
        <time>2022-04-22T12:29:29Z</time>
      </trkpt>
      <trkpt lat="46.6443" lon="5.38353">
        <ele>216</ele>
        <time>2022-04-22T12:29:30Z</time>
      </trkpt>
      <trkpt lat="46.64443" lon="5.38345">
        <ele>215.6</ele>
        <time>2022-04-22T12:29:32Z</time>
      </trkpt>
      <trkpt lat="46.6445" lon="5.38343">
        <ele>215.4</ele>
        <time>2022-04-22T12:29:33Z</time>
      </trkpt>
      <trkpt lat="46.6449" lon="5.38332">
        <ele>215.4</ele>
        <time>2022-04-22T12:29:39Z</time>
      </trkpt>
      <trkpt lat="46.64501" lon="5.38323">
        <ele>215.6</ele>
        <time>2022-04-22T12:29:41Z</time>
      </trkpt>
      <trkpt lat="46.64514" lon="5.38299">
        <ele>215.2</ele>
        <time>2022-04-22T12:29:44Z</time>
      </trkpt>
      <trkpt lat="46.64516" lon="5.38289">
        <ele>215.2</ele>
        <time>2022-04-22T12:29:45Z</time>
      </trkpt>
      <trkpt lat="46.64528" lon="5.38225">
        <ele>214</ele>
        <time>2022-04-22T12:29:52Z</time>
      </trkpt>
      <trkpt lat="46.64532" lon="5.38203">
        <ele>213.8</ele>
        <time>2022-04-22T12:29:53Z</time>
      </trkpt>
      <trkpt lat="46.64545" lon="5.38176">
        <ele>213.4</ele>
        <time>2022-04-22T12:29:56Z</time>
      </trkpt>
      <trkpt lat="46.64554" lon="5.38164">
        <ele>213</ele>
        <time>2022-04-22T12:29:58Z</time>
      </trkpt>
      <trkpt lat="46.6456" lon="5.38162">
        <ele>213</ele>
        <time>2022-04-22T12:29:59Z</time>
      </trkpt>
      <trkpt lat="46.64567" lon="5.38161">
        <ele>213</ele>
        <time>2022-04-22T12:30:00Z</time>
      </trkpt>
      <trkpt lat="46.64588" lon="5.3816">
        <ele>213.4</ele>
        <time>2022-04-22T12:30:03Z</time>
      </trkpt>
      <trkpt lat="46.64622" lon="5.38159">
        <ele>214.2</ele>
        <time>2022-04-22T12:30:08Z</time>
      </trkpt>
      <trkpt lat="46.64636" lon="5.3816">
        <ele>214.8</ele>
        <time>2022-04-22T12:30:10Z</time>
      </trkpt>
      <trkpt lat="46.64658" lon="5.38164">
        <ele>215.2</ele>
        <time>2022-04-22T12:30:13Z</time>
      </trkpt>
      <trkpt lat="46.64673" lon="5.38169">
        <ele>215.4</ele>
        <time>2022-04-22T12:30:16Z</time>
      </trkpt>
      <trkpt lat="46.64728" lon="5.38187">
        <ele>215.2</ele>
        <time>2022-04-22T12:30:22Z</time>
      </trkpt>
      <trkpt lat="46.64752" lon="5.38194">
        <ele>214.2</ele>
        <time>2022-04-22T12:30:25Z</time>
      </trkpt>
      <trkpt lat="46.64777" lon="5.38201">
        <ele>213</ele>
        <time>2022-04-22T12:30:28Z</time>
      </trkpt>
      <trkpt lat="46.64793" lon="5.38206">
        <ele>212.6</ele>
        <time>2022-04-22T12:30:30Z</time>
      </trkpt>
      <trkpt lat="46.6481" lon="5.38211">
        <ele>212</ele>
        <time>2022-04-22T12:30:32Z</time>
      </trkpt>
      <trkpt lat="46.64845" lon="5.38221">
        <ele>211</ele>
        <time>2022-04-22T12:30:36Z</time>
      </trkpt>
      <trkpt lat="46.64854" lon="5.38224">
        <ele>210.8</ele>
        <time>2022-04-22T12:30:37Z</time>
      </trkpt>
      <trkpt lat="46.64889" lon="5.38242">
        <ele>209.4</ele>
        <time>2022-04-22T12:30:41Z</time>
      </trkpt>
      <trkpt lat="46.64914" lon="5.38261">
        <ele>208</ele>
        <time>2022-04-22T12:30:44Z</time>
      </trkpt>
      <trkpt lat="46.64942" lon="5.38283">
        <ele>206.8</ele>
        <time>2022-04-22T12:30:47Z</time>
      </trkpt>
      <trkpt lat="46.64979" lon="5.38312">
        <ele>205.4</ele>
        <time>2022-04-22T12:30:51Z</time>
      </trkpt>
      <trkpt lat="46.65006" lon="5.38333">
        <ele>204.4</ele>
        <time>2022-04-22T12:30:54Z</time>
      </trkpt>
      <trkpt lat="46.65042" lon="5.38359">
        <ele>203.2</ele>
        <time>2022-04-22T12:30:58Z</time>
      </trkpt>
      <trkpt lat="46.65082" lon="5.3839">
        <ele>202.6</ele>
        <time>2022-04-22T12:31:03Z</time>
      </trkpt>
      <trkpt lat="46.65112" lon="5.38413">
        <ele>202.2</ele>
        <time>2022-04-22T12:31:07Z</time>
      </trkpt>
      <trkpt lat="46.65132" lon="5.3843">
        <ele>202.4</ele>
        <time>2022-04-22T12:31:10Z</time>
      </trkpt>
      <trkpt lat="46.65172" lon="5.38462">
        <ele>203.2</ele>
        <time>2022-04-22T12:31:16Z</time>
      </trkpt>
      <trkpt lat="46.65184" lon="5.38472">
        <ele>203.4</ele>
        <time>2022-04-22T12:31:18Z</time>
      </trkpt>
      <trkpt lat="46.65214" lon="5.38492">
        <ele>204</ele>
        <time>2022-04-22T12:31:23Z</time>
      </trkpt>
      <trkpt lat="46.65228" lon="5.38497">
        <ele>204</ele>
        <time>2022-04-22T12:31:25Z</time>
      </trkpt>
      <trkpt lat="46.6525" lon="5.38499">
        <ele>204</ele>
        <time>2022-04-22T12:31:28Z</time>
      </trkpt>
      <trkpt lat="46.65296" lon="5.385">
        <ele>203.6</ele>
        <time>2022-04-22T12:31:34Z</time>
      </trkpt>
      <trkpt lat="46.65344" lon="5.38499">
        <ele>202.4</ele>
        <time>2022-04-22T12:31:40Z</time>
      </trkpt>
      <trkpt lat="46.65353" lon="5.38499">
        <ele>201.8</ele>
        <time>2022-04-22T12:31:41Z</time>
      </trkpt>
      <trkpt lat="46.654" lon="5.38503">
        <ele>201</ele>
        <time>2022-04-22T12:31:47Z</time>
      </trkpt>
      <trkpt lat="46.65408" lon="5.38505">
        <ele>200.8</ele>
        <time>2022-04-22T12:31:48Z</time>
      </trkpt>
      <trkpt lat="46.65416" lon="5.38509">
        <ele>200.8</ele>
        <time>2022-04-22T12:31:49Z</time>
      </trkpt>
      <trkpt lat="46.65436" lon="5.38526">
        <ele>200.8</ele>
        <time>2022-04-22T12:31:52Z</time>
      </trkpt>
      <trkpt lat="46.65466" lon="5.38558">
        <ele>200.6</ele>
        <time>2022-04-22T12:31:57Z</time>
      </trkpt>
      <trkpt lat="46.65478" lon="5.38571">
        <ele>200.6</ele>
        <time>2022-04-22T12:31:59Z</time>
      </trkpt>
      <trkpt lat="46.65489" lon="5.38583">
        <ele>200.6</ele>
        <time>2022-04-22T12:32:01Z</time>
      </trkpt>
      <trkpt lat="46.65502" lon="5.38588">
        <ele>200.8</ele>
        <time>2022-04-22T12:32:03Z</time>
      </trkpt>
      <trkpt lat="46.65529" lon="5.38582">
        <ele>201.2</ele>
        <time>2022-04-22T12:32:07Z</time>
      </trkpt>
      <trkpt lat="46.65587" lon="5.38569">
        <ele>201</ele>
        <time>2022-04-22T12:32:15Z</time>
      </trkpt>
      <trkpt lat="46.65602" lon="5.38571">
        <ele>201</ele>
        <time>2022-04-22T12:32:17Z</time>
      </trkpt>
      <trkpt lat="46.6561" lon="5.38574">
        <ele>201</ele>
        <time>2022-04-22T12:32:18Z</time>
      </trkpt>
      <trkpt lat="46.65617" lon="5.38578">
        <ele>201</ele>
        <time>2022-04-22T12:32:19Z</time>
      </trkpt>
      <trkpt lat="46.65636" lon="5.38595">
        <ele>201</ele>
        <time>2022-04-22T12:32:22Z</time>
      </trkpt>
      <trkpt lat="46.65655" lon="5.38612">
        <ele>201</ele>
        <time>2022-04-22T12:32:25Z</time>
      </trkpt>
      <trkpt lat="46.65669" lon="5.38617">
        <ele>200.8</ele>
        <time>2022-04-22T12:32:27Z</time>
      </trkpt>
      <trkpt lat="46.65682" lon="5.38611">
        <ele>200.8</ele>
        <time>2022-04-22T12:32:29Z</time>
      </trkpt>
      <trkpt lat="46.65693" lon="5.38598">
        <ele>200.6</ele>
        <time>2022-04-22T12:32:31Z</time>
      </trkpt>
      <trkpt lat="46.65701" lon="5.38582">
        <ele>200.6</ele>
        <time>2022-04-22T12:32:33Z</time>
      </trkpt>
      <trkpt lat="46.65717" lon="5.3855">
        <ele>200.6</ele>
        <time>2022-04-22T12:32:37Z</time>
      </trkpt>
      <trkpt lat="46.65721" lon="5.38543">
        <ele>200.6</ele>
        <time>2022-04-22T12:32:38Z</time>
      </trkpt>
      <trkpt lat="46.65741" lon="5.38506">
        <ele>200.8</ele>
        <time>2022-04-22T12:32:43Z</time>
      </trkpt>
      <trkpt lat="46.65745" lon="5.385">
        <ele>200.8</ele>
        <time>2022-04-22T12:32:44Z</time>
      </trkpt>
      <trkpt lat="46.6576" lon="5.3848">
        <ele>201</ele>
        <time>2022-04-22T12:32:47Z</time>
      </trkpt>
      <trkpt lat="46.65793" lon="5.3844">
        <ele>201.6</ele>
        <time>2022-04-22T12:32:54Z</time>
      </trkpt>
      <trkpt lat="46.65801" lon="5.3843">
        <ele>201.8</ele>
        <time>2022-04-22T12:32:56Z</time>
      </trkpt>
      <trkpt lat="46.65813" lon="5.38417">
        <ele>203.2</ele>
        <time>2022-04-22T12:32:59Z</time>
      </trkpt>
      <trkpt lat="46.65817" lon="5.38413">
        <ele>203.6</ele>
        <time>2022-04-22T12:33:00Z</time>
      </trkpt>
      <trkpt lat="46.65828" lon="5.384">
        <ele>204.2</ele>
        <time>2022-04-22T12:33:03Z</time>
      </trkpt>
      <trkpt lat="46.65836" lon="5.38393">
        <ele>205.2</ele>
        <time>2022-04-22T12:33:05Z</time>
      </trkpt>
      <trkpt lat="46.6584" lon="5.38392">
        <ele>205.8</ele>
        <time>2022-04-22T12:33:06Z</time>
      </trkpt>
      <trkpt lat="46.6585" lon="5.38392">
        <ele>206.4</ele>
        <time>2022-04-22T12:33:08Z</time>
      </trkpt>
      <trkpt lat="46.6586" lon="5.38395">
        <ele>206.8</ele>
        <time>2022-04-22T12:33:10Z</time>
      </trkpt>
      <trkpt lat="46.65864" lon="5.38396">
        <ele>207</ele>
        <time>2022-04-22T12:33:11Z</time>
      </trkpt>
      <trkpt lat="46.65879" lon="5.38398">
        <ele>208</ele>
        <time>2022-04-22T12:33:14Z</time>
      </trkpt>
      <trkpt lat="46.65898" lon="5.38402">
        <ele>209.2</ele>
        <time>2022-04-22T12:33:18Z</time>
      </trkpt>
      <trkpt lat="46.65913" lon="5.38404">
        <ele>209.8</ele>
        <time>2022-04-22T12:33:21Z</time>
      </trkpt>
      <trkpt lat="46.65933" lon="5.38406">
        <ele>210.4</ele>
        <time>2022-04-22T12:33:25Z</time>
      </trkpt>
      <trkpt lat="46.65962" lon="5.3841">
        <ele>211</ele>
        <time>2022-04-22T12:33:31Z</time>
      </trkpt>
      <trkpt lat="46.65986" lon="5.38416">
        <ele>211.2</ele>
        <time>2022-04-22T12:33:36Z</time>
      </trkpt>
      <trkpt lat="46.66" lon="5.38425">
        <ele>211.4</ele>
        <time>2022-04-22T12:33:39Z</time>
      </trkpt>
      <trkpt lat="46.66044" lon="5.38457">
        <ele>211.8</ele>
        <time>2022-04-22T12:33:48Z</time>
      </trkpt>
      <trkpt lat="46.66079" lon="5.38484">
        <ele>211.2</ele>
        <time>2022-04-22T12:33:54Z</time>
      </trkpt>
      <trkpt lat="46.66107" lon="5.38505">
        <ele>210.4</ele>
        <time>2022-04-22T12:33:58Z</time>
      </trkpt>
      <trkpt lat="46.66122" lon="5.38516">
        <ele>209.6</ele>
        <time>2022-04-22T12:34:00Z</time>
      </trkpt>
      <trkpt lat="46.6613" lon="5.3852">
        <ele>209.4</ele>
        <time>2022-04-22T12:34:01Z</time>
      </trkpt>
      <trkpt lat="46.66137" lon="5.38524">
        <ele>208.8</ele>
        <time>2022-04-22T12:34:02Z</time>
      </trkpt>
      <trkpt lat="46.66145" lon="5.38527">
        <ele>208.4</ele>
        <time>2022-04-22T12:34:03Z</time>
      </trkpt>
      <trkpt lat="46.66154" lon="5.38529">
        <ele>207.8</ele>
        <time>2022-04-22T12:34:04Z</time>
      </trkpt>
      <trkpt lat="46.66162" lon="5.38528">
        <ele>207.8</ele>
        <time>2022-04-22T12:34:05Z</time>
      </trkpt>
      <trkpt lat="46.6617" lon="5.38525">
        <ele>207.4</ele>
        <time>2022-04-22T12:34:06Z</time>
      </trkpt>
      <trkpt lat="46.66179" lon="5.38522">
        <ele>207.2</ele>
        <time>2022-04-22T12:34:07Z</time>
      </trkpt>
      <trkpt lat="46.66211" lon="5.38502">
        <ele>206.2</ele>
        <time>2022-04-22T12:34:11Z</time>
      </trkpt>
      <trkpt lat="46.66234" lon="5.38487">
        <ele>205.6</ele>
        <time>2022-04-22T12:34:14Z</time>
      </trkpt>
      <trkpt lat="46.6625" lon="5.38477">
        <ele>205.2</ele>
        <time>2022-04-22T12:34:16Z</time>
      </trkpt>
      <trkpt lat="46.66289" lon="5.38452">
        <ele>204</ele>
        <time>2022-04-22T12:34:21Z</time>
      </trkpt>
      <trkpt lat="46.66305" lon="5.38444">
        <ele>203.8</ele>
        <time>2022-04-22T12:34:23Z</time>
      </trkpt>
      <trkpt lat="46.66344" lon="5.38434">
        <ele>203.2</ele>
        <time>2022-04-22T12:34:28Z</time>
      </trkpt>
      <trkpt lat="46.6636" lon="5.38433">
        <ele>203</ele>
        <time>2022-04-22T12:34:30Z</time>
      </trkpt>
      <trkpt lat="46.66391" lon="5.38433">
        <ele>202.8</ele>
        <time>2022-04-22T12:34:34Z</time>
      </trkpt>
      <trkpt lat="46.6645" lon="5.38436">
        <ele>203.6</ele>
        <time>2022-04-22T12:34:42Z</time>
      </trkpt>
      <trkpt lat="46.66457" lon="5.38436">
        <ele>203.8</ele>
        <time>2022-04-22T12:34:43Z</time>
      </trkpt>
      <trkpt lat="46.66491" lon="5.38439">
        <ele>204</ele>
        <time>2022-04-22T12:34:48Z</time>
      </trkpt>
      <trkpt lat="46.66504" lon="5.38439">
        <ele>204.2</ele>
        <time>2022-04-22T12:34:50Z</time>
      </trkpt>
      <trkpt lat="46.66556" lon="5.38441">
        <ele>204.8</ele>
        <time>2022-04-22T12:34:58Z</time>
      </trkpt>
      <trkpt lat="46.66569" lon="5.38443">
        <ele>205</ele>
        <time>2022-04-22T12:35:00Z</time>
      </trkpt>
      <trkpt lat="46.66593" lon="5.38444">
        <ele>205.4</ele>
        <time>2022-04-22T12:35:04Z</time>
      </trkpt>
      <trkpt lat="46.66635" lon="5.38446">
        <ele>205.8</ele>
        <time>2022-04-22T12:35:11Z</time>
      </trkpt>
      <trkpt lat="46.66676" lon="5.38447">
        <ele>205.8</ele>
        <time>2022-04-22T12:35:19Z</time>
      </trkpt>
      <trkpt lat="46.66679" lon="5.38448">
        <ele>206.2</ele>
        <time>2022-04-22T12:35:22Z</time>
      </trkpt>
      <trkpt lat="46.66679" lon="5.38448">
        <ele>206</ele>
        <time>2022-04-22T12:35:23Z</time>
      </trkpt>
      <trkpt lat="46.66679" lon="5.38443">
        <ele>207.2</ele>
        <time>2022-04-22T12:35:38Z</time>
      </trkpt>
      <trkpt lat="46.6668" lon="5.38434">
        <ele>206.8</ele>
        <time>2022-04-22T12:35:40Z</time>
      </trkpt>
      <trkpt lat="46.6668" lon="5.38428">
        <ele>206.8</ele>
        <time>2022-04-22T12:35:41Z</time>
      </trkpt>
      <trkpt lat="46.66679" lon="5.38412">
        <ele>206.6</ele>
        <time>2022-04-22T12:35:43Z</time>
      </trkpt>
      <trkpt lat="46.66673" lon="5.38361">
        <ele>206</ele>
        <time>2022-04-22T12:35:49Z</time>
      </trkpt>
      <trkpt lat="46.66675" lon="5.38354">
        <ele>205.8</ele>
        <time>2022-04-22T12:35:50Z</time>
      </trkpt>
      <trkpt lat="46.66676" lon="5.38348">
        <ele>205.4</ele>
        <time>2022-04-22T12:35:51Z</time>
      </trkpt>
      <trkpt lat="46.66682" lon="5.38343">
        <ele>205</ele>
        <time>2022-04-22T12:35:53Z</time>
      </trkpt>
      <trkpt lat="46.66684" lon="5.38332">
        <ele>204.4</ele>
        <time>2022-04-22T12:35:57Z</time>
      </trkpt>
      <trkpt lat="46.66687" lon="5.38324">
        <ele>204</ele>
        <time>2022-04-22T12:35:59Z</time>
      </trkpt>
      <trkpt lat="46.66689" lon="5.3832">
        <ele>203.8</ele>
        <time>2022-04-22T12:36:00Z</time>
      </trkpt>
      <trkpt lat="46.66692" lon="5.38316">
        <ele>203.8</ele>
        <time>2022-04-22T12:36:01Z</time>
      </trkpt>
      <trkpt lat="46.66701" lon="5.3832">
        <ele>203.8</ele>
        <time>2022-04-22T12:36:02Z</time>
      </trkpt>
      <trkpt lat="46.6675" lon="5.38355">
        <ele>203.8</ele>
        <time>2022-04-22T12:36:05Z</time>
      </trkpt>
      <trkpt lat="46.66791" lon="5.38376">
        <ele>204</ele>
        <time>2022-04-22T12:36:09Z</time>
      </trkpt>
      <trkpt lat="46.66799" lon="5.38379">
        <ele>204.2</ele>
        <time>2022-04-22T12:36:10Z</time>
      </trkpt>
      <trkpt lat="46.66828" lon="5.38383">
        <ele>205</ele>
        <time>2022-04-22T12:36:14Z</time>
      </trkpt>
      <trkpt lat="46.66849" lon="5.38385">
        <ele>205.2</ele>
        <time>2022-04-22T12:36:17Z</time>
      </trkpt>
      <trkpt lat="46.66897" lon="5.38391">
        <ele>205.8</ele>
        <time>2022-04-22T12:36:24Z</time>
      </trkpt>
      <trkpt lat="46.66909" lon="5.38394">
        <ele>206</ele>
        <time>2022-04-22T12:36:26Z</time>
      </trkpt>
      <trkpt lat="46.66921" lon="5.3839">
        <ele>206.4</ele>
        <time>2022-04-22T12:36:28Z</time>
      </trkpt>
      <trkpt lat="46.66931" lon="5.38379">
        <ele>206.6</ele>
        <time>2022-04-22T12:36:30Z</time>
      </trkpt>
      <trkpt lat="46.66934" lon="5.38372">
        <ele>206.8</ele>
        <time>2022-04-22T12:36:31Z</time>
      </trkpt>
      <trkpt lat="46.66936" lon="5.38364">
        <ele>206.6</ele>
        <time>2022-04-22T12:36:32Z</time>
      </trkpt>
      <trkpt lat="46.66942" lon="5.38339">
        <ele>206.8</ele>
        <time>2022-04-22T12:36:35Z</time>
      </trkpt>
      <trkpt lat="46.66944" lon="5.38331">
        <ele>206.8</ele>
        <time>2022-04-22T12:36:36Z</time>
      </trkpt>
      <trkpt lat="46.66946" lon="5.38322">
        <ele>207</ele>
        <time>2022-04-22T12:36:37Z</time>
      </trkpt>
      <trkpt lat="46.66953" lon="5.38294">
        <ele>207</ele>
        <time>2022-04-22T12:36:40Z</time>
      </trkpt>
      <trkpt lat="46.66968" lon="5.3822">
        <ele>206.6</ele>
        <time>2022-04-22T12:36:47Z</time>
      </trkpt>
      <trkpt lat="46.66984" lon="5.38158">
        <ele>207</ele>
        <time>2022-04-22T12:36:54Z</time>
      </trkpt>
      <trkpt lat="46.66998" lon="5.38109">
        <ele>207.8</ele>
        <time>2022-04-22T12:37:00Z</time>
      </trkpt>
      <trkpt lat="46.67001" lon="5.38101">
        <ele>207.8</ele>
        <time>2022-04-22T12:37:01Z</time>
      </trkpt>
      <trkpt lat="46.67025" lon="5.38052">
        <ele>207.6</ele>
        <time>2022-04-22T12:37:07Z</time>
      </trkpt>
      <trkpt lat="46.67045" lon="5.38023">
        <ele>207.2</ele>
        <time>2022-04-22T12:37:11Z</time>
      </trkpt>
      <trkpt lat="46.67051" lon="5.38019">
        <ele>207.2</ele>
        <time>2022-04-22T12:37:12Z</time>
      </trkpt>
      <trkpt lat="46.67057" lon="5.38015">
        <ele>207.2</ele>
        <time>2022-04-22T12:37:13Z</time>
      </trkpt>
      <trkpt lat="46.67069" lon="5.38011">
        <ele>207</ele>
        <time>2022-04-22T12:37:15Z</time>
      </trkpt>
      <trkpt lat="46.67075" lon="5.38011">
        <ele>207</ele>
        <time>2022-04-22T12:37:16Z</time>
      </trkpt>
      <trkpt lat="46.67105" lon="5.38015">
        <ele>206.8</ele>
        <time>2022-04-22T12:37:21Z</time>
      </trkpt>
      <trkpt lat="46.67147" lon="5.38022">
        <ele>206.8</ele>
        <time>2022-04-22T12:37:27Z</time>
      </trkpt>
      <trkpt lat="46.67153" lon="5.3802">
        <ele>207</ele>
        <time>2022-04-22T12:37:28Z</time>
      </trkpt>
      <trkpt lat="46.67166" lon="5.38011">
        <ele>207.2</ele>
        <time>2022-04-22T12:37:30Z</time>
      </trkpt>
      <trkpt lat="46.67176" lon="5.37997">
        <ele>207.4</ele>
        <time>2022-04-22T12:37:32Z</time>
      </trkpt>
      <trkpt lat="46.67188" lon="5.37965">
        <ele>208</ele>
        <time>2022-04-22T12:37:36Z</time>
      </trkpt>
      <trkpt lat="46.67192" lon="5.37959">
        <ele>208.2</ele>
        <time>2022-04-22T12:37:37Z</time>
      </trkpt>
      <trkpt lat="46.67197" lon="5.37954">
        <ele>208.2</ele>
        <time>2022-04-22T12:37:38Z</time>
      </trkpt>
      <trkpt lat="46.67209" lon="5.37948">
        <ele>208.4</ele>
        <time>2022-04-22T12:37:40Z</time>
      </trkpt>
      <trkpt lat="46.67237" lon="5.37949">
        <ele>208.4</ele>
        <time>2022-04-22T12:37:44Z</time>
      </trkpt>
      <trkpt lat="46.67286" lon="5.37969">
        <ele>208.8</ele>
        <time>2022-04-22T12:37:51Z</time>
      </trkpt>
      <trkpt lat="46.67327" lon="5.37983">
        <ele>208.8</ele>
        <time>2022-04-22T12:37:57Z</time>
      </trkpt>
      <trkpt lat="46.6737" lon="5.37981">
        <ele>208.8</ele>
        <time>2022-04-22T12:38:03Z</time>
      </trkpt>
      <trkpt lat="46.67417" lon="5.3797">
        <ele>208.8</ele>
        <time>2022-04-22T12:38:10Z</time>
      </trkpt>
      <trkpt lat="46.67442" lon="5.37967">
        <ele>209</ele>
        <time>2022-04-22T12:38:14Z</time>
      </trkpt>
      <trkpt lat="46.67463" lon="5.37968">
        <ele>209.2</ele>
        <time>2022-04-22T12:38:17Z</time>
      </trkpt>
      <trkpt lat="46.67505" lon="5.37978">
        <ele>209.2</ele>
        <time>2022-04-22T12:38:23Z</time>
      </trkpt>
      <trkpt lat="46.67558" lon="5.37982">
        <ele>208.8</ele>
        <time>2022-04-22T12:38:31Z</time>
      </trkpt>
      <trkpt lat="46.67605" lon="5.37978">
        <ele>208.4</ele>
        <time>2022-04-22T12:38:38Z</time>
      </trkpt>
      <trkpt lat="46.6765" lon="5.37969">
        <ele>208.4</ele>
        <time>2022-04-22T12:38:45Z</time>
      </trkpt>
      <trkpt lat="46.6768" lon="5.37958">
        <ele>208.4</ele>
        <time>2022-04-22T12:38:50Z</time>
      </trkpt>
      <trkpt lat="46.67686" lon="5.37955">
        <ele>208.4</ele>
        <time>2022-04-22T12:38:51Z</time>
      </trkpt>
      <trkpt lat="46.6771" lon="5.37946">
        <ele>208.4</ele>
        <time>2022-04-22T12:38:55Z</time>
      </trkpt>
      <trkpt lat="46.67767" lon="5.37928">
        <ele>208.8</ele>
        <time>2022-04-22T12:39:04Z</time>
      </trkpt>
      <trkpt lat="46.67773" lon="5.37925">
        <ele>209</ele>
        <time>2022-04-22T12:39:05Z</time>
      </trkpt>
      <trkpt lat="46.67816" lon="5.37905">
        <ele>209.6</ele>
        <time>2022-04-22T12:39:12Z</time>
      </trkpt>
      <trkpt lat="46.67829" lon="5.379">
        <ele>209.6</ele>
        <time>2022-04-22T12:39:14Z</time>
      </trkpt>
      <trkpt lat="46.67855" lon="5.37891">
        <ele>209.8</ele>
        <time>2022-04-22T12:39:18Z</time>
      </trkpt>
      <trkpt lat="46.67904" lon="5.37869">
        <ele>209.8</ele>
        <time>2022-04-22T12:39:26Z</time>
      </trkpt>
      <trkpt lat="46.6791" lon="5.37866">
        <ele>210</ele>
        <time>2022-04-22T12:39:27Z</time>
      </trkpt>
      <trkpt lat="46.67958" lon="5.37846">
        <ele>211</ele>
        <time>2022-04-22T12:39:35Z</time>
      </trkpt>
      <trkpt lat="46.67981" lon="5.37838">
        <ele>211.6</ele>
        <time>2022-04-22T12:39:39Z</time>
      </trkpt>
      <trkpt lat="46.67985" lon="5.37835">
        <ele>211.8</ele>
        <time>2022-04-22T12:39:40Z</time>
      </trkpt>
      <trkpt lat="46.67991" lon="5.37833">
        <ele>212</ele>
        <time>2022-04-22T12:39:41Z</time>
      </trkpt>
      <trkpt lat="46.6802" lon="5.37824">
        <ele>213</ele>
        <time>2022-04-22T12:39:46Z</time>
      </trkpt>
      <trkpt lat="46.68025" lon="5.37821">
        <ele>213.2</ele>
        <time>2022-04-22T12:39:47Z</time>
      </trkpt>
      <trkpt lat="46.6803" lon="5.37818">
        <ele>213.4</ele>
        <time>2022-04-22T12:39:48Z</time>
      </trkpt>
      <trkpt lat="46.68039" lon="5.37814">
        <ele>213.8</ele>
        <time>2022-04-22T12:39:50Z</time>
      </trkpt>
      <trkpt lat="46.68043" lon="5.37811">
        <ele>214.2</ele>
        <time>2022-04-22T12:39:51Z</time>
      </trkpt>
      <trkpt lat="46.68066" lon="5.37801">
        <ele>215.2</ele>
        <time>2022-04-22T12:39:55Z</time>
      </trkpt>
      <trkpt lat="46.68071" lon="5.37799">
        <ele>215.4</ele>
        <time>2022-04-22T12:39:56Z</time>
      </trkpt>
      <trkpt lat="46.68076" lon="5.37797">
        <ele>215.6</ele>
        <time>2022-04-22T12:39:57Z</time>
      </trkpt>
      <trkpt lat="46.68083" lon="5.37792">
        <ele>215.8</ele>
        <time>2022-04-22T12:39:59Z</time>
      </trkpt>
      <trkpt lat="46.68127" lon="5.37776">
        <ele>216.4</ele>
        <time>2022-04-22T12:40:05Z</time>
      </trkpt>
      <trkpt lat="46.68164" lon="5.37759">
        <ele>216.6</ele>
        <time>2022-04-22T12:40:11Z</time>
      </trkpt>
      <trkpt lat="46.68183" lon="5.37751">
        <ele>216.4</ele>
        <time>2022-04-22T12:40:14Z</time>
      </trkpt>
      <trkpt lat="46.68197" lon="5.37748">
        <ele>216.2</ele>
        <time>2022-04-22T12:40:16Z</time>
      </trkpt>
      <trkpt lat="46.68246" lon="5.37729">
        <ele>216</ele>
        <time>2022-04-22T12:40:23Z</time>
      </trkpt>
      <trkpt lat="46.68303" lon="5.37704">
        <ele>215.8</ele>
        <time>2022-04-22T12:40:31Z</time>
      </trkpt>
      <trkpt lat="46.68342" lon="5.37689">
        <ele>215.2</ele>
        <time>2022-04-22T12:40:36Z</time>
      </trkpt>
      <trkpt lat="46.68351" lon="5.37687">
        <ele>215</ele>
        <time>2022-04-22T12:40:37Z</time>
      </trkpt>
      <trkpt lat="46.68396" lon="5.37671">
        <ele>214.8</ele>
        <time>2022-04-22T12:40:43Z</time>
      </trkpt>
      <trkpt lat="46.68438" lon="5.37653">
        <ele>214.8</ele>
        <time>2022-04-22T12:40:49Z</time>
      </trkpt>
      <trkpt lat="46.68451" lon="5.3765">
        <ele>215.2</ele>
        <time>2022-04-22T12:40:51Z</time>
      </trkpt>
      <trkpt lat="46.68464" lon="5.37646">
        <ele>215.8</ele>
        <time>2022-04-22T12:40:53Z</time>
      </trkpt>
      <trkpt lat="46.68478" lon="5.37642">
        <ele>216</ele>
        <time>2022-04-22T12:40:55Z</time>
      </trkpt>
      <trkpt lat="46.68491" lon="5.37636">
        <ele>216.2</ele>
        <time>2022-04-22T12:40:57Z</time>
      </trkpt>
      <trkpt lat="46.68504" lon="5.37629">
        <ele>216.4</ele>
        <time>2022-04-22T12:40:59Z</time>
      </trkpt>
      <trkpt lat="46.68518" lon="5.37623">
        <ele>216.4</ele>
        <time>2022-04-22T12:41:01Z</time>
      </trkpt>
      <trkpt lat="46.68541" lon="5.37615">
        <ele>216.2</ele>
        <time>2022-04-22T12:41:04Z</time>
      </trkpt>
      <trkpt lat="46.68576" lon="5.37599">
        <ele>215.4</ele>
        <time>2022-04-22T12:41:09Z</time>
      </trkpt>
      <trkpt lat="46.6861" lon="5.37586">
        <ele>215.2</ele>
        <time>2022-04-22T12:41:14Z</time>
      </trkpt>
      <trkpt lat="46.68616" lon="5.37584">
        <ele>215.2</ele>
        <time>2022-04-22T12:41:15Z</time>
      </trkpt>
      <trkpt lat="46.68644" lon="5.3757">
        <ele>216</ele>
        <time>2022-04-22T12:41:20Z</time>
      </trkpt>
      <trkpt lat="46.68656" lon="5.37564">
        <ele>216.4</ele>
        <time>2022-04-22T12:41:22Z</time>
      </trkpt>
      <trkpt lat="46.68674" lon="5.37556">
        <ele>216.8</ele>
        <time>2022-04-22T12:41:25Z</time>
      </trkpt>
      <trkpt lat="46.68704" lon="5.37542">
        <ele>217.2</ele>
        <time>2022-04-22T12:41:30Z</time>
      </trkpt>
      <trkpt lat="46.68723" lon="5.37534">
        <ele>217.2</ele>
        <time>2022-04-22T12:41:33Z</time>
      </trkpt>
      <trkpt lat="46.6874" lon="5.37525">
        <ele>217.2</ele>
        <time>2022-04-22T12:41:36Z</time>
      </trkpt>
      <trkpt lat="46.68752" lon="5.37519">
        <ele>217.2</ele>
        <time>2022-04-22T12:41:38Z</time>
      </trkpt>
      <trkpt lat="46.68766" lon="5.37515">
        <ele>217.2</ele>
        <time>2022-04-22T12:41:40Z</time>
      </trkpt>
      <trkpt lat="46.68777" lon="5.3751">
        <ele>217</ele>
        <time>2022-04-22T12:41:42Z</time>
      </trkpt>
      <trkpt lat="46.68821" lon="5.37493">
        <ele>216.6</ele>
        <time>2022-04-22T12:41:49Z</time>
      </trkpt>
      <trkpt lat="46.68853" lon="5.37484">
        <ele>216.8</ele>
        <time>2022-04-22T12:41:55Z</time>
      </trkpt>
      <trkpt lat="46.68857" lon="5.37484">
        <ele>216.8</ele>
        <time>2022-04-22T12:41:57Z</time>
      </trkpt>
      <trkpt lat="46.68857" lon="5.37484">
        <ele>216.8</ele>
        <time>2022-04-22T12:41:58Z</time>
      </trkpt>
      <trkpt lat="46.68857" lon="5.37484">
        <ele>216.8</ele>
        <time>2022-04-22T12:42:00Z</time>
      </trkpt>
      <trkpt lat="46.68863" lon="5.37485">
        <ele>216.8</ele>
        <time>2022-04-22T12:42:09Z</time>
      </trkpt>
      <trkpt lat="46.68866" lon="5.37485">
        <ele>216.8</ele>
        <time>2022-04-22T12:42:10Z</time>
      </trkpt>
      <trkpt lat="46.68878" lon="5.37486">
        <ele>216.6</ele>
        <time>2022-04-22T12:42:13Z</time>
      </trkpt>
      <trkpt lat="46.68883" lon="5.37487">
        <ele>216.6</ele>
        <time>2022-04-22T12:42:14Z</time>
      </trkpt>
      <trkpt lat="46.68914" lon="5.37498">
        <ele>216.2</ele>
        <time>2022-04-22T12:42:19Z</time>
      </trkpt>
      <trkpt lat="46.68945" lon="5.37506">
        <ele>215.8</ele>
        <time>2022-04-22T12:42:24Z</time>
      </trkpt>
      <trkpt lat="46.6895" lon="5.37508">
        <ele>215.8</ele>
        <time>2022-04-22T12:42:25Z</time>
      </trkpt>
      <trkpt lat="46.68961" lon="5.37516">
        <ele>216</ele>
        <time>2022-04-22T12:42:27Z</time>
      </trkpt>
      <trkpt lat="46.68964" lon="5.37522">
        <ele>216</ele>
        <time>2022-04-22T12:42:28Z</time>
      </trkpt>
      <trkpt lat="46.68981" lon="5.37567">
        <ele>216.4</ele>
        <time>2022-04-22T12:42:34Z</time>
      </trkpt>
      <trkpt lat="46.6899" lon="5.3759">
        <ele>216.4</ele>
        <time>2022-04-22T12:42:37Z</time>
      </trkpt>
      <trkpt lat="46.68998" lon="5.37601">
        <ele>216.4</ele>
        <time>2022-04-22T12:42:39Z</time>
      </trkpt>
      <trkpt lat="46.69009" lon="5.37607">
        <ele>216.2</ele>
        <time>2022-04-22T12:42:41Z</time>
      </trkpt>
      <trkpt lat="46.69021" lon="5.37612">
        <ele>216.2</ele>
        <time>2022-04-22T12:42:43Z</time>
      </trkpt>
      <trkpt lat="46.69031" lon="5.37624">
        <ele>216.2</ele>
        <time>2022-04-22T12:42:45Z</time>
      </trkpt>
      <trkpt lat="46.69034" lon="5.37632">
        <ele>216.2</ele>
        <time>2022-04-22T12:42:46Z</time>
      </trkpt>
      <trkpt lat="46.69036" lon="5.37641">
        <ele>216.2</ele>
        <time>2022-04-22T12:42:47Z</time>
      </trkpt>
      <trkpt lat="46.69037" lon="5.37661">
        <ele>216.2</ele>
        <time>2022-04-22T12:42:49Z</time>
      </trkpt>
      <trkpt lat="46.69037" lon="5.37672">
        <ele>216</ele>
        <time>2022-04-22T12:42:50Z</time>
      </trkpt>
      <trkpt lat="46.69033" lon="5.37729">
        <ele>215.2</ele>
        <time>2022-04-22T12:42:55Z</time>
      </trkpt>
      <trkpt lat="46.69032" lon="5.37741">
        <ele>214.6</ele>
        <time>2022-04-22T12:42:56Z</time>
      </trkpt>
      <trkpt lat="46.69031" lon="5.37782">
        <ele>213.6</ele>
        <time>2022-04-22T12:42:59Z</time>
      </trkpt>
      <trkpt lat="46.6903" lon="5.37797">
        <ele>213.2</ele>
        <time>2022-04-22T12:43:00Z</time>
      </trkpt>
      <trkpt lat="46.6903" lon="5.37812">
        <ele>212.4</ele>
        <time>2022-04-22T12:43:01Z</time>
      </trkpt>
      <trkpt lat="46.69028" lon="5.37844">
        <ele>210.8</ele>
        <time>2022-04-22T12:43:03Z</time>
      </trkpt>
      <trkpt lat="46.69025" lon="5.37877">
        <ele>209.4</ele>
        <time>2022-04-22T12:43:05Z</time>
      </trkpt>
      <trkpt lat="46.69021" lon="5.37892">
        <ele>208.2</ele>
        <time>2022-04-22T12:43:06Z</time>
      </trkpt>
      <trkpt lat="46.6901" lon="5.3792">
        <ele>206</ele>
        <time>2022-04-22T12:43:08Z</time>
      </trkpt>
      <trkpt lat="46.68998" lon="5.37944">
        <ele>204.4</ele>
        <time>2022-04-22T12:43:10Z</time>
      </trkpt>
      <trkpt lat="46.68987" lon="5.37967">
        <ele>203.4</ele>
        <time>2022-04-22T12:43:12Z</time>
      </trkpt>
      <trkpt lat="46.68981" lon="5.37978">
        <ele>203</ele>
        <time>2022-04-22T12:43:13Z</time>
      </trkpt>
      <trkpt lat="46.68971" lon="5.37999">
        <ele>202.6</ele>
        <time>2022-04-22T12:43:15Z</time>
      </trkpt>
      <trkpt lat="46.68965" lon="5.38021">
        <ele>202.2</ele>
        <time>2022-04-22T12:43:17Z</time>
      </trkpt>
      <trkpt lat="46.68964" lon="5.38043">
        <ele>201.8</ele>
        <time>2022-04-22T12:43:19Z</time>
      </trkpt>
      <trkpt lat="46.68966" lon="5.38065">
        <ele>201.6</ele>
        <time>2022-04-22T12:43:21Z</time>
      </trkpt>
      <trkpt lat="46.6898" lon="5.38137">
        <ele>202.4</ele>
        <time>2022-04-22T12:43:28Z</time>
      </trkpt>
      <trkpt lat="46.68986" lon="5.38179">
        <ele>203.2</ele>
        <time>2022-04-22T12:43:33Z</time>
      </trkpt>
      <trkpt lat="46.68988" lon="5.38187">
        <ele>203.6</ele>
        <time>2022-04-22T12:43:34Z</time>
      </trkpt>
      <trkpt lat="46.6899" lon="5.38202">
        <ele>204.6</ele>
        <time>2022-04-22T12:43:36Z</time>
      </trkpt>
      <trkpt lat="46.68996" lon="5.38236">
        <ele>206</ele>
        <time>2022-04-22T12:43:41Z</time>
      </trkpt>
      <trkpt lat="46.68999" lon="5.38249">
        <ele>207</ele>
        <time>2022-04-22T12:43:43Z</time>
      </trkpt>
      <trkpt lat="46.69004" lon="5.38274">
        <ele>208.6</ele>
        <time>2022-04-22T12:43:47Z</time>
      </trkpt>
      <trkpt lat="46.69009" lon="5.38299">
        <ele>209.6</ele>
        <time>2022-04-22T12:43:51Z</time>
      </trkpt>
      <trkpt lat="46.6901" lon="5.38304">
        <ele>209.8</ele>
        <time>2022-04-22T12:43:52Z</time>
      </trkpt>
      <trkpt lat="46.69015" lon="5.38328">
        <ele>211.2</ele>
        <time>2022-04-22T12:43:56Z</time>
      </trkpt>
      <trkpt lat="46.69019" lon="5.38346">
        <ele>211.8</ele>
        <time>2022-04-22T12:43:59Z</time>
      </trkpt>
      <trkpt lat="46.69021" lon="5.38358">
        <ele>212.4</ele>
        <time>2022-04-22T12:44:01Z</time>
      </trkpt>
      <trkpt lat="46.69028" lon="5.38398">
        <ele>213.4</ele>
        <time>2022-04-22T12:44:07Z</time>
      </trkpt>
      <trkpt lat="46.69029" lon="5.38405">
        <ele>213.4</ele>
        <time>2022-04-22T12:44:08Z</time>
      </trkpt>
      <trkpt lat="46.69035" lon="5.38437">
        <ele>214.6</ele>
        <time>2022-04-22T12:44:13Z</time>
      </trkpt>
      <trkpt lat="46.69039" lon="5.38463">
        <ele>215</ele>
        <time>2022-04-22T12:44:17Z</time>
      </trkpt>
      <trkpt lat="46.69043" lon="5.3849">
        <ele>215.6</ele>
        <time>2022-04-22T12:44:21Z</time>
      </trkpt>
      <trkpt lat="46.6905" lon="5.38516">
        <ele>216.4</ele>
        <time>2022-04-22T12:44:25Z</time>
      </trkpt>
      <trkpt lat="46.69054" lon="5.38529">
        <ele>216.6</ele>
        <time>2022-04-22T12:44:27Z</time>
      </trkpt>
      <trkpt lat="46.69074" lon="5.38585">
        <ele>217.4</ele>
        <time>2022-04-22T12:44:35Z</time>
      </trkpt>
      <trkpt lat="46.69088" lon="5.38639">
        <ele>217.4</ele>
        <time>2022-04-22T12:44:42Z</time>
      </trkpt>
      <trkpt lat="46.6909" lon="5.3869">
        <ele>217.6</ele>
        <time>2022-04-22T12:44:48Z</time>
      </trkpt>
      <trkpt lat="46.69088" lon="5.38716">
        <ele>217.6</ele>
        <time>2022-04-22T12:44:51Z</time>
      </trkpt>
      <trkpt lat="46.69082" lon="5.3875">
        <ele>217.8</ele>
        <time>2022-04-22T12:44:55Z</time>
      </trkpt>
      <trkpt lat="46.6906" lon="5.38824">
        <ele>217.8</ele>
        <time>2022-04-22T12:45:04Z</time>
      </trkpt>
      <trkpt lat="46.69036" lon="5.389">
        <ele>218.6</ele>
        <time>2022-04-22T12:45:13Z</time>
      </trkpt>
      <trkpt lat="46.69029" lon="5.38925">
        <ele>218.6</ele>
        <time>2022-04-22T12:45:16Z</time>
      </trkpt>
      <trkpt lat="46.69005" lon="5.39003">
        <ele>218.6</ele>
        <time>2022-04-22T12:45:25Z</time>
      </trkpt>
      <trkpt lat="46.68988" lon="5.39058">
        <ele>219</ele>
        <time>2022-04-22T12:45:31Z</time>
      </trkpt>
      <trkpt lat="46.68983" lon="5.39074">
        <ele>219</ele>
        <time>2022-04-22T12:45:33Z</time>
      </trkpt>
      <trkpt lat="46.6896" lon="5.39145">
        <ele>219.2</ele>
        <time>2022-04-22T12:45:41Z</time>
      </trkpt>
      <trkpt lat="46.68952" lon="5.39162">
        <ele>219</ele>
        <time>2022-04-22T12:45:43Z</time>
      </trkpt>
      <trkpt lat="46.68923" lon="5.39206">
        <ele>219</ele>
        <time>2022-04-22T12:45:49Z</time>
      </trkpt>
      <trkpt lat="46.68894" lon="5.39238">
        <ele>219</ele>
        <time>2022-04-22T12:45:54Z</time>
      </trkpt>
      <trkpt lat="46.68887" lon="5.39243">
        <ele>219</ele>
        <time>2022-04-22T12:45:55Z</time>
      </trkpt>
      <trkpt lat="46.68834" lon="5.39281">
        <ele>218.4</ele>
        <time>2022-04-22T12:46:03Z</time>
      </trkpt>
      <trkpt lat="46.68825" lon="5.39287">
        <ele>218.4</ele>
        <time>2022-04-22T12:46:04Z</time>
      </trkpt>
      <trkpt lat="46.68774" lon="5.39327">
        <ele>218</ele>
        <time>2022-04-22T12:46:12Z</time>
      </trkpt>
      <trkpt lat="46.68767" lon="5.39336">
        <ele>218</ele>
        <time>2022-04-22T12:46:13Z</time>
      </trkpt>
      <trkpt lat="46.68757" lon="5.39354">
        <ele>217.6</ele>
        <time>2022-04-22T12:46:15Z</time>
      </trkpt>
      <trkpt lat="46.68754" lon="5.39363">
        <ele>217.6</ele>
        <time>2022-04-22T12:46:16Z</time>
      </trkpt>
      <trkpt lat="46.68741" lon="5.3942">
        <ele>216.8</ele>
        <time>2022-04-22T12:46:21Z</time>
      </trkpt>
      <trkpt lat="46.68735" lon="5.39443">
        <ele>216.4</ele>
        <time>2022-04-22T12:46:23Z</time>
      </trkpt>
      <trkpt lat="46.68727" lon="5.39477">
        <ele>215.4</ele>
        <time>2022-04-22T12:46:26Z</time>
      </trkpt>
      <trkpt lat="46.68717" lon="5.39512">
        <ele>214.4</ele>
        <time>2022-04-22T12:46:29Z</time>
      </trkpt>
      <trkpt lat="46.68713" lon="5.39524">
        <ele>214</ele>
        <time>2022-04-22T12:46:30Z</time>
      </trkpt>
      <trkpt lat="46.68697" lon="5.39557">
        <ele>213</ele>
        <time>2022-04-22T12:46:33Z</time>
      </trkpt>
      <trkpt lat="46.6869" lon="5.39569">
        <ele>212.6</ele>
        <time>2022-04-22T12:46:34Z</time>
      </trkpt>
      <trkpt lat="46.68684" lon="5.39579">
        <ele>211.6</ele>
        <time>2022-04-22T12:46:35Z</time>
      </trkpt>
      <trkpt lat="46.68668" lon="5.39608">
        <ele>210.4</ele>
        <time>2022-04-22T12:46:38Z</time>
      </trkpt>
      <trkpt lat="46.68647" lon="5.39647">
        <ele>210</ele>
        <time>2022-04-22T12:46:42Z</time>
      </trkpt>
      <trkpt lat="46.68612" lon="5.39718">
        <ele>210</ele>
        <time>2022-04-22T12:46:49Z</time>
      </trkpt>
      <trkpt lat="46.68607" lon="5.39739">
        <ele>210</ele>
        <time>2022-04-22T12:46:51Z</time>
      </trkpt>
      <trkpt lat="46.68605" lon="5.3976">
        <ele>210</ele>
        <time>2022-04-22T12:46:53Z</time>
      </trkpt>
      <trkpt lat="46.68601" lon="5.39799">
        <ele>210.4</ele>
        <time>2022-04-22T12:46:57Z</time>
      </trkpt>
      <trkpt lat="46.68599" lon="5.39807">
        <ele>210.6</ele>
        <time>2022-04-22T12:46:58Z</time>
      </trkpt>
      <trkpt lat="46.68589" lon="5.39837">
        <ele>211.6</ele>
        <time>2022-04-22T12:47:02Z</time>
      </trkpt>
      <trkpt lat="46.68585" lon="5.39847">
        <ele>212.2</ele>
        <time>2022-04-22T12:47:04Z</time>
      </trkpt>
      <trkpt lat="46.68583" lon="5.39853">
        <ele>213.2</ele>
        <time>2022-04-22T12:47:05Z</time>
      </trkpt>
      <trkpt lat="46.6858" lon="5.3986">
        <ele>214</ele>
        <time>2022-04-22T12:47:08Z</time>
      </trkpt>
      <trkpt lat="46.6858" lon="5.3986">
        <ele>214.6</ele>
        <time>2022-04-22T12:47:09Z</time>
      </trkpt>
      <trkpt lat="46.6858" lon="5.3986">
        <ele>215.6</ele>
        <time>2022-04-22T12:47:11Z</time>
      </trkpt>
      <trkpt lat="46.68578" lon="5.39862">
        <ele>216</ele>
        <time>2022-04-22T12:47:50Z</time>
      </trkpt>
      <trkpt lat="46.68578" lon="5.39865">
        <ele>216</ele>
        <time>2022-04-22T12:47:51Z</time>
      </trkpt>
      <trkpt lat="46.68577" lon="5.39876">
        <ele>216</ele>
        <time>2022-04-22T12:47:55Z</time>
      </trkpt>
      <trkpt lat="46.68579" lon="5.3988">
        <ele>216</ele>
        <time>2022-04-22T12:47:56Z</time>
      </trkpt>
      <trkpt lat="46.68585" lon="5.39885">
        <ele>216.4</ele>
        <time>2022-04-22T12:47:58Z</time>
      </trkpt>
      <trkpt lat="46.68595" lon="5.39889">
        <ele>216.4</ele>
        <time>2022-04-22T12:48:00Z</time>
      </trkpt>
      <trkpt lat="46.68633" lon="5.39908">
        <ele>216.8</ele>
        <time>2022-04-22T12:48:07Z</time>
      </trkpt>
      <trkpt lat="46.68672" lon="5.39934">
        <ele>217</ele>
        <time>2022-04-22T12:48:13Z</time>
      </trkpt>
      <trkpt lat="46.68678" lon="5.3994">
        <ele>217</ele>
        <time>2022-04-22T12:48:14Z</time>
      </trkpt>
      <trkpt lat="46.687" lon="5.39969">
        <ele>217</ele>
        <time>2022-04-22T12:48:18Z</time>
      </trkpt>
      <trkpt lat="46.6871" lon="5.39983">
        <ele>217.2</ele>
        <time>2022-04-22T12:48:20Z</time>
      </trkpt>
      <trkpt lat="46.68741" lon="5.40031">
        <ele>217.6</ele>
        <time>2022-04-22T12:48:26Z</time>
      </trkpt>
      <trkpt lat="46.68772" lon="5.40079">
        <ele>217.6</ele>
        <time>2022-04-22T12:48:33Z</time>
      </trkpt>
      <trkpt lat="46.68794" lon="5.4011">
        <ele>218.2</ele>
        <time>2022-04-22T12:48:38Z</time>
      </trkpt>
      <trkpt lat="46.68803" lon="5.40121">
        <ele>218.4</ele>
        <time>2022-04-22T12:48:40Z</time>
      </trkpt>
      <trkpt lat="46.68841" lon="5.40156">
        <ele>219.2</ele>
        <time>2022-04-22T12:48:47Z</time>
      </trkpt>
      <trkpt lat="46.68847" lon="5.4016">
        <ele>219.4</ele>
        <time>2022-04-22T12:48:48Z</time>
      </trkpt>
      <trkpt lat="46.68858" lon="5.40169">
        <ele>219.4</ele>
        <time>2022-04-22T12:48:50Z</time>
      </trkpt>
      <trkpt lat="46.68885" lon="5.40182">
        <ele>219.6</ele>
        <time>2022-04-22T12:48:54Z</time>
      </trkpt>
      <trkpt lat="46.68936" lon="5.40202">
        <ele>218.8</ele>
        <time>2022-04-22T12:49:01Z</time>
      </trkpt>
      <trkpt lat="46.68942" lon="5.40207">
        <ele>218.8</ele>
        <time>2022-04-22T12:49:02Z</time>
      </trkpt>
      <trkpt lat="46.68952" lon="5.4022">
        <ele>218.6</ele>
        <time>2022-04-22T12:49:04Z</time>
      </trkpt>
      <trkpt lat="46.68955" lon="5.4023">
        <ele>218.6</ele>
        <time>2022-04-22T12:49:05Z</time>
      </trkpt>
      <trkpt lat="46.68956" lon="5.40242">
        <ele>218.4</ele>
        <time>2022-04-22T12:49:06Z</time>
      </trkpt>
      <trkpt lat="46.68956" lon="5.40266">
        <ele>218.4</ele>
        <time>2022-04-22T12:49:08Z</time>
      </trkpt>
      <trkpt lat="46.68956" lon="5.40279">
        <ele>218.2</ele>
        <time>2022-04-22T12:49:09Z</time>
      </trkpt>
      <trkpt lat="46.68961" lon="5.40328">
        <ele>217.6</ele>
        <time>2022-04-22T12:49:13Z</time>
      </trkpt>
      <trkpt lat="46.68974" lon="5.40406">
        <ele>217.2</ele>
        <time>2022-04-22T12:49:20Z</time>
      </trkpt>
      <trkpt lat="46.68992" lon="5.40453">
        <ele>217.4</ele>
        <time>2022-04-22T12:49:25Z</time>
      </trkpt>
      <trkpt lat="46.69023" lon="5.40518">
        <ele>218</ele>
        <time>2022-04-22T12:49:33Z</time>
      </trkpt>
      <trkpt lat="46.69055" lon="5.40583">
        <ele>219.2</ele>
        <time>2022-04-22T12:49:41Z</time>
      </trkpt>
      <trkpt lat="46.69062" lon="5.40598">
        <ele>219.6</ele>
        <time>2022-04-22T12:49:43Z</time>
      </trkpt>
      <trkpt lat="46.69097" lon="5.40666">
        <ele>219.8</ele>
        <time>2022-04-22T12:49:51Z</time>
      </trkpt>
      <trkpt lat="46.69101" lon="5.40673">
        <ele>219.8</ele>
        <time>2022-04-22T12:49:52Z</time>
      </trkpt>
      <trkpt lat="46.69133" lon="5.40739">
        <ele>220</ele>
        <time>2022-04-22T12:50:00Z</time>
      </trkpt>
      <trkpt lat="46.69137" lon="5.40746">
        <ele>220</ele>
        <time>2022-04-22T12:50:01Z</time>
      </trkpt>
      <trkpt lat="46.6917" lon="5.40812">
        <ele>220.4</ele>
        <time>2022-04-22T12:50:09Z</time>
      </trkpt>
      <trkpt lat="46.69175" lon="5.40822">
        <ele>220.4</ele>
        <time>2022-04-22T12:50:10Z</time>
      </trkpt>
      <trkpt lat="46.69188" lon="5.40846">
        <ele>220.6</ele>
        <time>2022-04-22T12:50:13Z</time>
      </trkpt>
      <trkpt lat="46.692" lon="5.40871">
        <ele>221</ele>
        <time>2022-04-22T12:50:16Z</time>
      </trkpt>
      <trkpt lat="46.69235" lon="5.40939">
        <ele>221</ele>
        <time>2022-04-22T12:50:24Z</time>
      </trkpt>
      <trkpt lat="46.69267" lon="5.41003">
        <ele>220.8</ele>
        <time>2022-04-22T12:50:31Z</time>
      </trkpt>
      <trkpt lat="46.69272" lon="5.41013">
        <ele>220.6</ele>
        <time>2022-04-22T12:50:32Z</time>
      </trkpt>
      <trkpt lat="46.69306" lon="5.41074">
        <ele>219.4</ele>
        <time>2022-04-22T12:50:38Z</time>
      </trkpt>
      <trkpt lat="46.69338" lon="5.41132">
        <ele>218</ele>
        <time>2022-04-22T12:50:43Z</time>
      </trkpt>
      <trkpt lat="46.69359" lon="5.41168">
        <ele>216.2</ele>
        <time>2022-04-22T12:50:46Z</time>
      </trkpt>
      <trkpt lat="46.69372" lon="5.41191">
        <ele>215</ele>
        <time>2022-04-22T12:50:48Z</time>
      </trkpt>
      <trkpt lat="46.69378" lon="5.41204">
        <ele>214.6</ele>
        <time>2022-04-22T12:50:49Z</time>
      </trkpt>
      <trkpt lat="46.69392" lon="5.4123">
        <ele>213.6</ele>
        <time>2022-04-22T12:50:51Z</time>
      </trkpt>
      <trkpt lat="46.69406" lon="5.41256">
        <ele>212.2</ele>
        <time>2022-04-22T12:50:53Z</time>
      </trkpt>
      <trkpt lat="46.69429" lon="5.41299">
        <ele>211</ele>
        <time>2022-04-22T12:50:56Z</time>
      </trkpt>
      <trkpt lat="46.69434" lon="5.41309">
        <ele>210.2</ele>
        <time>2022-04-22T12:50:57Z</time>
      </trkpt>
      <trkpt lat="46.69441" lon="5.41321">
        <ele>209.8</ele>
        <time>2022-04-22T12:50:58Z</time>
      </trkpt>
      <trkpt lat="46.69449" lon="5.41337">
        <ele>208.8</ele>
        <time>2022-04-22T12:50:59Z</time>
      </trkpt>
      <trkpt lat="46.69468" lon="5.41371">
        <ele>207.4</ele>
        <time>2022-04-22T12:51:02Z</time>
      </trkpt>
      <trkpt lat="46.69482" lon="5.41397">
        <ele>207.2</ele>
        <time>2022-04-22T12:51:04Z</time>
      </trkpt>
      <trkpt lat="46.69517" lon="5.41461">
        <ele>207</ele>
        <time>2022-04-22T12:51:10Z</time>
      </trkpt>
      <trkpt lat="46.69551" lon="5.41524">
        <ele>207</ele>
        <time>2022-04-22T12:51:16Z</time>
      </trkpt>
      <trkpt lat="46.69563" lon="5.41546">
        <ele>207</ele>
        <time>2022-04-22T12:51:18Z</time>
      </trkpt>
      <trkpt lat="46.69593" lon="5.41602">
        <ele>207.6</ele>
        <time>2022-04-22T12:51:24Z</time>
      </trkpt>
      <trkpt lat="46.69623" lon="5.41663">
        <ele>208.8</ele>
        <time>2022-04-22T12:51:31Z</time>
      </trkpt>
      <trkpt lat="46.69641" lon="5.41707">
        <ele>209.8</ele>
        <time>2022-04-22T12:51:36Z</time>
      </trkpt>
      <trkpt lat="46.69643" lon="5.41714">
        <ele>210</ele>
        <time>2022-04-22T12:51:37Z</time>
      </trkpt>
      <trkpt lat="46.69652" lon="5.41747">
        <ele>211.2</ele>
        <time>2022-04-22T12:51:41Z</time>
      </trkpt>
      <trkpt lat="46.69655" lon="5.41765">
        <ele>211.6</ele>
        <time>2022-04-22T12:51:43Z</time>
      </trkpt>
      <trkpt lat="46.69658" lon="5.41783">
        <ele>212.4</ele>
        <time>2022-04-22T12:51:45Z</time>
      </trkpt>
      <trkpt lat="46.69662" lon="5.41825">
        <ele>213.6</ele>
        <time>2022-04-22T12:51:50Z</time>
      </trkpt>
      <trkpt lat="46.69663" lon="5.41834">
        <ele>213.8</ele>
        <time>2022-04-22T12:51:51Z</time>
      </trkpt>
      <trkpt lat="46.69666" lon="5.4189">
        <ele>214.6</ele>
        <time>2022-04-22T12:51:57Z</time>
      </trkpt>
      <trkpt lat="46.69667" lon="5.419">
        <ele>214.8</ele>
        <time>2022-04-22T12:51:58Z</time>
      </trkpt>
      <trkpt lat="46.69674" lon="5.41982">
        <ele>215</ele>
        <time>2022-04-22T12:52:07Z</time>
      </trkpt>
      <trkpt lat="46.69683" lon="5.42055">
        <ele>215.2</ele>
        <time>2022-04-22T12:52:15Z</time>
      </trkpt>
      <trkpt lat="46.69697" lon="5.42116">
        <ele>215.2</ele>
        <time>2022-04-22T12:52:22Z</time>
      </trkpt>
      <trkpt lat="46.69701" lon="5.42126">
        <ele>215.4</ele>
        <time>2022-04-22T12:52:23Z</time>
      </trkpt>
      <trkpt lat="46.69715" lon="5.42153">
        <ele>215.6</ele>
        <time>2022-04-22T12:52:27Z</time>
      </trkpt>
      <trkpt lat="46.69745" lon="5.42188">
        <ele>216.4</ele>
        <time>2022-04-22T12:52:33Z</time>
      </trkpt>
      <trkpt lat="46.69767" lon="5.42202">
        <ele>216.8</ele>
        <time>2022-04-22T12:52:36Z</time>
      </trkpt>
      <trkpt lat="46.69781" lon="5.42208">
        <ele>216.8</ele>
        <time>2022-04-22T12:52:38Z</time>
      </trkpt>
      <trkpt lat="46.69827" lon="5.42226">
        <ele>217</ele>
        <time>2022-04-22T12:52:45Z</time>
      </trkpt>
      <trkpt lat="46.69865" lon="5.42238">
        <ele>216.6</ele>
        <time>2022-04-22T12:52:50Z</time>
      </trkpt>
      <trkpt lat="46.69879" lon="5.42241">
        <ele>216.4</ele>
        <time>2022-04-22T12:52:52Z</time>
      </trkpt>
      <trkpt lat="46.69925" lon="5.42243">
        <ele>215.6</ele>
        <time>2022-04-22T12:52:58Z</time>
      </trkpt>
      <trkpt lat="46.69933" lon="5.42244">
        <ele>215.4</ele>
        <time>2022-04-22T12:52:59Z</time>
      </trkpt>
      <trkpt lat="46.69973" lon="5.42245">
        <ele>214.6</ele>
        <time>2022-04-22T12:53:04Z</time>
      </trkpt>
      <trkpt lat="46.69995" lon="5.42246">
        <ele>213.8</ele>
        <time>2022-04-22T12:53:07Z</time>
      </trkpt>
      <trkpt lat="46.70013" lon="5.42247">
        <ele>213.4</ele>
        <time>2022-04-22T12:53:09Z</time>
      </trkpt>
      <trkpt lat="46.70048" lon="5.42249">
        <ele>212.6</ele>
        <time>2022-04-22T12:53:13Z</time>
      </trkpt>
      <trkpt lat="46.70064" lon="5.4225">
        <ele>212.4</ele>
        <time>2022-04-22T12:53:15Z</time>
      </trkpt>
      <trkpt lat="46.70106" lon="5.42251">
        <ele>212.2</ele>
        <time>2022-04-22T12:53:20Z</time>
      </trkpt>
      <trkpt lat="46.70166" lon="5.42253">
        <ele>212</ele>
        <time>2022-04-22T12:53:27Z</time>
      </trkpt>
      <trkpt lat="46.70219" lon="5.42253">
        <ele>211.2</ele>
        <time>2022-04-22T12:53:33Z</time>
      </trkpt>
      <trkpt lat="46.70226" lon="5.42254">
        <ele>211.2</ele>
        <time>2022-04-22T12:53:34Z</time>
      </trkpt>
      <trkpt lat="46.70279" lon="5.42257">
        <ele>210.2</ele>
        <time>2022-04-22T12:53:40Z</time>
      </trkpt>
      <trkpt lat="46.70286" lon="5.42257">
        <ele>210</ele>
        <time>2022-04-22T12:53:41Z</time>
      </trkpt>
      <trkpt lat="46.70343" lon="5.4226">
        <ele>209.4</ele>
        <time>2022-04-22T12:53:48Z</time>
      </trkpt>
      <trkpt lat="46.70383" lon="5.42264">
        <ele>209.2</ele>
        <time>2022-04-22T12:53:53Z</time>
      </trkpt>
      <trkpt lat="46.70396" lon="5.42267">
        <ele>209</ele>
        <time>2022-04-22T12:53:55Z</time>
      </trkpt>
      <trkpt lat="46.70424" lon="5.42286">
        <ele>209.4</ele>
        <time>2022-04-22T12:53:59Z</time>
      </trkpt>
      <trkpt lat="46.70452" lon="5.42319">
        <ele>209.4</ele>
        <time>2022-04-22T12:54:03Z</time>
      </trkpt>
      <trkpt lat="46.70491" lon="5.42378">
        <ele>208.6</ele>
        <time>2022-04-22T12:54:09Z</time>
      </trkpt>
      <trkpt lat="46.70496" lon="5.42386">
        <ele>208</ele>
        <time>2022-04-22T12:54:10Z</time>
      </trkpt>
      <trkpt lat="46.7051" lon="5.42407">
        <ele>207</ele>
        <time>2022-04-22T12:54:12Z</time>
      </trkpt>
      <trkpt lat="46.70542" lon="5.42457">
        <ele>205.8</ele>
        <time>2022-04-22T12:54:17Z</time>
      </trkpt>
      <trkpt lat="46.7055" lon="5.42469">
        <ele>205.6</ele>
        <time>2022-04-22T12:54:18Z</time>
      </trkpt>
      <trkpt lat="46.70589" lon="5.42528">
        <ele>205.2</ele>
        <time>2022-04-22T12:54:24Z</time>
      </trkpt>
      <trkpt lat="46.70608" lon="5.42555">
        <ele>205.2</ele>
        <time>2022-04-22T12:54:27Z</time>
      </trkpt>
      <trkpt lat="46.7065" lon="5.42617">
        <ele>205</ele>
        <time>2022-04-22T12:54:34Z</time>
      </trkpt>
      <trkpt lat="46.70669" lon="5.42646">
        <ele>205.2</ele>
        <time>2022-04-22T12:54:37Z</time>
      </trkpt>
      <trkpt lat="46.70709" lon="5.42707">
        <ele>205.2</ele>
        <time>2022-04-22T12:54:44Z</time>
      </trkpt>
      <trkpt lat="46.70742" lon="5.42756">
        <ele>205</ele>
        <time>2022-04-22T12:54:49Z</time>
      </trkpt>
      <trkpt lat="46.70754" lon="5.42774">
        <ele>204.8</ele>
        <time>2022-04-22T12:54:51Z</time>
      </trkpt>
      <trkpt lat="46.70792" lon="5.42831">
        <ele>204</ele>
        <time>2022-04-22T12:54:57Z</time>
      </trkpt>
      <trkpt lat="46.708" lon="5.42842">
        <ele>203.6</ele>
        <time>2022-04-22T12:54:58Z</time>
      </trkpt>
      <trkpt lat="46.70838" lon="5.42899">
        <ele>202.8</ele>
        <time>2022-04-22T12:55:04Z</time>
      </trkpt>
      <trkpt lat="46.70857" lon="5.42927">
        <ele>202.6</ele>
        <time>2022-04-22T12:55:07Z</time>
      </trkpt>
      <trkpt lat="46.70869" lon="5.42945">
        <ele>202.2</ele>
        <time>2022-04-22T12:55:09Z</time>
      </trkpt>
      <trkpt lat="46.70895" lon="5.42982">
        <ele>201.4</ele>
        <time>2022-04-22T12:55:13Z</time>
      </trkpt>
      <trkpt lat="46.7092" lon="5.43021">
        <ele>200.8</ele>
        <time>2022-04-22T12:55:17Z</time>
      </trkpt>
      <trkpt lat="46.70954" lon="5.43072">
        <ele>200.8</ele>
        <time>2022-04-22T12:55:23Z</time>
      </trkpt>
      <trkpt lat="46.70988" lon="5.43121">
        <ele>201.2</ele>
        <time>2022-04-22T12:55:29Z</time>
      </trkpt>
      <trkpt lat="46.71018" lon="5.43169">
        <ele>201.8</ele>
        <time>2022-04-22T12:55:35Z</time>
      </trkpt>
      <trkpt lat="46.71046" lon="5.43216">
        <ele>202.4</ele>
        <time>2022-04-22T12:55:41Z</time>
      </trkpt>
      <trkpt lat="46.71051" lon="5.43224">
        <ele>202.6</ele>
        <time>2022-04-22T12:55:42Z</time>
      </trkpt>
      <trkpt lat="46.71056" lon="5.43232">
        <ele>202.8</ele>
        <time>2022-04-22T12:55:43Z</time>
      </trkpt>
      <trkpt lat="46.71064" lon="5.43248">
        <ele>203.2</ele>
        <time>2022-04-22T12:55:45Z</time>
      </trkpt>
      <trkpt lat="46.71069" lon="5.43256">
        <ele>203.2</ele>
        <time>2022-04-22T12:55:46Z</time>
      </trkpt>
      <trkpt lat="46.71083" lon="5.4328">
        <ele>203.6</ele>
        <time>2022-04-22T12:55:49Z</time>
      </trkpt>
      <trkpt lat="46.71094" lon="5.43297">
        <ele>203.8</ele>
        <time>2022-04-22T12:55:51Z</time>
      </trkpt>
      <trkpt lat="46.71116" lon="5.43331">
        <ele>204</ele>
        <time>2022-04-22T12:55:55Z</time>
      </trkpt>
      <trkpt lat="46.71152" lon="5.43381">
        <ele>204.4</ele>
        <time>2022-04-22T12:56:01Z</time>
      </trkpt>
      <trkpt lat="46.71186" lon="5.43429">
        <ele>204.8</ele>
        <time>2022-04-22T12:56:07Z</time>
      </trkpt>
      <trkpt lat="46.71191" lon="5.43436">
        <ele>204.8</ele>
        <time>2022-04-22T12:56:08Z</time>
      </trkpt>
      <trkpt lat="46.71216" lon="5.43472">
        <ele>205.4</ele>
        <time>2022-04-22T12:56:13Z</time>
      </trkpt>
      <trkpt lat="46.71241" lon="5.43508">
        <ele>205.8</ele>
        <time>2022-04-22T12:56:18Z</time>
      </trkpt>
      <trkpt lat="46.71262" lon="5.43538">
        <ele>206.2</ele>
        <time>2022-04-22T12:56:22Z</time>
      </trkpt>
      <trkpt lat="46.713" lon="5.43596">
        <ele>206.6</ele>
        <time>2022-04-22T12:56:30Z</time>
      </trkpt>
      <trkpt lat="46.71304" lon="5.43603">
        <ele>206.6</ele>
        <time>2022-04-22T12:56:31Z</time>
      </trkpt>
      <trkpt lat="46.71341" lon="5.43661">
        <ele>206.2</ele>
        <time>2022-04-22T12:56:38Z</time>
      </trkpt>
      <trkpt lat="46.71378" lon="5.43716">
        <ele>205.8</ele>
        <time>2022-04-22T12:56:44Z</time>
      </trkpt>
      <trkpt lat="46.71418" lon="5.43776">
        <ele>205.6</ele>
        <time>2022-04-22T12:56:51Z</time>
      </trkpt>
      <trkpt lat="46.71451" lon="5.43824">
        <ele>205.4</ele>
        <time>2022-04-22T12:56:57Z</time>
      </trkpt>
      <trkpt lat="46.71494" lon="5.43883">
        <ele>205.6</ele>
        <time>2022-04-22T12:57:05Z</time>
      </trkpt>
      <trkpt lat="46.71534" lon="5.43943">
        <ele>206.6</ele>
        <time>2022-04-22T12:57:13Z</time>
      </trkpt>
      <trkpt lat="46.71539" lon="5.4395">
        <ele>207</ele>
        <time>2022-04-22T12:57:14Z</time>
      </trkpt>
      <trkpt lat="46.71578" lon="5.4401">
        <ele>208</ele>
        <time>2022-04-22T12:57:22Z</time>
      </trkpt>
      <trkpt lat="46.71583" lon="5.44017">
        <ele>208.4</ele>
        <time>2022-04-22T12:57:23Z</time>
      </trkpt>
      <trkpt lat="46.71601" lon="5.44045">
        <ele>209.2</ele>
        <time>2022-04-22T12:57:27Z</time>
      </trkpt>
      <trkpt lat="46.7162" lon="5.44074">
        <ele>209.4</ele>
        <time>2022-04-22T12:57:31Z</time>
      </trkpt>
      <trkpt lat="46.71625" lon="5.44083">
        <ele>209.6</ele>
        <time>2022-04-22T12:57:32Z</time>
      </trkpt>
      <trkpt lat="46.71656" lon="5.44132">
        <ele>209.4</ele>
        <time>2022-04-22T12:57:38Z</time>
      </trkpt>
      <trkpt lat="46.71692" lon="5.44187">
        <ele>208.2</ele>
        <time>2022-04-22T12:57:44Z</time>
      </trkpt>
      <trkpt lat="46.71699" lon="5.44199">
        <ele>208</ele>
        <time>2022-04-22T12:57:45Z</time>
      </trkpt>
      <trkpt lat="46.71724" lon="5.44236">
        <ele>206.6</ele>
        <time>2022-04-22T12:57:49Z</time>
      </trkpt>
      <trkpt lat="46.71747" lon="5.4427">
        <ele>205.6</ele>
        <time>2022-04-22T12:57:53Z</time>
      </trkpt>
      <trkpt lat="46.71754" lon="5.44281">
        <ele>205.6</ele>
        <time>2022-04-22T12:57:54Z</time>
      </trkpt>
      <trkpt lat="46.71778" lon="5.44312">
        <ele>205.2</ele>
        <time>2022-04-22T12:57:58Z</time>
      </trkpt>
      <trkpt lat="46.71792" lon="5.44324">
        <ele>205</ele>
        <time>2022-04-22T12:58:00Z</time>
      </trkpt>
      <trkpt lat="46.71808" lon="5.44333">
        <ele>204.6</ele>
        <time>2022-04-22T12:58:02Z</time>
      </trkpt>
      <trkpt lat="46.71825" lon="5.4434">
        <ele>204.2</ele>
        <time>2022-04-22T12:58:04Z</time>
      </trkpt>
      <trkpt lat="46.71843" lon="5.44346">
        <ele>203.2</ele>
        <time>2022-04-22T12:58:06Z</time>
      </trkpt>
      <trkpt lat="46.71868" lon="5.44354">
        <ele>202.2</ele>
        <time>2022-04-22T12:58:09Z</time>
      </trkpt>
      <trkpt lat="46.71894" lon="5.44364">
        <ele>202</ele>
        <time>2022-04-22T12:58:12Z</time>
      </trkpt>
      <trkpt lat="46.71952" lon="5.44383">
        <ele>202.6</ele>
        <time>2022-04-22T12:58:19Z</time>
      </trkpt>
      <trkpt lat="46.71968" lon="5.44388">
        <ele>202.8</ele>
        <time>2022-04-22T12:58:21Z</time>
      </trkpt>
      <trkpt lat="46.72023" lon="5.44407">
        <ele>203.2</ele>
        <time>2022-04-22T12:58:28Z</time>
      </trkpt>
      <trkpt lat="46.72031" lon="5.4441">
        <ele>203.2</ele>
        <time>2022-04-22T12:58:29Z</time>
      </trkpt>
      <trkpt lat="46.72085" lon="5.44428">
        <ele>203.2</ele>
        <time>2022-04-22T12:58:36Z</time>
      </trkpt>
      <trkpt lat="46.72109" lon="5.44437">
        <ele>203.2</ele>
        <time>2022-04-22T12:58:39Z</time>
      </trkpt>
      <trkpt lat="46.72163" lon="5.44456">
        <ele>203.2</ele>
        <time>2022-04-22T12:58:46Z</time>
      </trkpt>
      <trkpt lat="46.72178" lon="5.44461">
        <ele>202.8</ele>
        <time>2022-04-22T12:58:48Z</time>
      </trkpt>
      <trkpt lat="46.72231" lon="5.44479">
        <ele>202.6</ele>
        <time>2022-04-22T12:58:55Z</time>
      </trkpt>
      <trkpt lat="46.72276" lon="5.44487">
        <ele>202.8</ele>
        <time>2022-04-22T12:59:01Z</time>
      </trkpt>
      <trkpt lat="46.7233" lon="5.44484">
        <ele>203</ele>
        <time>2022-04-22T12:59:08Z</time>
      </trkpt>
      <trkpt lat="46.72345" lon="5.44484">
        <ele>203</ele>
        <time>2022-04-22T12:59:10Z</time>
      </trkpt>
      <trkpt lat="46.72404" lon="5.44479">
        <ele>203</ele>
        <time>2022-04-22T12:59:18Z</time>
      </trkpt>
      <trkpt lat="46.72435" lon="5.44476">
        <ele>203</ele>
        <time>2022-04-22T12:59:22Z</time>
      </trkpt>
      <trkpt lat="46.72458" lon="5.44473">
        <ele>203</ele>
        <time>2022-04-22T12:59:25Z</time>
      </trkpt>
      <trkpt lat="46.72471" lon="5.44467">
        <ele>202.8</ele>
        <time>2022-04-22T12:59:27Z</time>
      </trkpt>
      <trkpt lat="46.72517" lon="5.44426">
        <ele>202.6</ele>
        <time>2022-04-22T12:59:34Z</time>
      </trkpt>
      <trkpt lat="46.72553" lon="5.4439">
        <ele>202.6</ele>
        <time>2022-04-22T12:59:40Z</time>
      </trkpt>
      <trkpt lat="46.72561" lon="5.44387">
        <ele>202.6</ele>
        <time>2022-04-22T12:59:41Z</time>
      </trkpt>
      <trkpt lat="46.7257" lon="5.44385">
        <ele>202.6</ele>
        <time>2022-04-22T12:59:42Z</time>
      </trkpt>
      <trkpt lat="46.72585" lon="5.44387">
        <ele>202.6</ele>
        <time>2022-04-22T12:59:44Z</time>
      </trkpt>
      <trkpt lat="46.72598" lon="5.44395">
        <ele>202.4</ele>
        <time>2022-04-22T12:59:46Z</time>
      </trkpt>
      <trkpt lat="46.72613" lon="5.44408">
        <ele>202.4</ele>
        <time>2022-04-22T12:59:48Z</time>
      </trkpt>
      <trkpt lat="46.72646" lon="5.44451">
        <ele>202.6</ele>
        <time>2022-04-22T12:59:54Z</time>
      </trkpt>
      <trkpt lat="46.72675" lon="5.44506">
        <ele>202.6</ele>
        <time>2022-04-22T13:00:00Z</time>
      </trkpt>
      <trkpt lat="46.72708" lon="5.4458">
        <ele>203</ele>
        <time>2022-04-22T13:00:08Z</time>
      </trkpt>
      <trkpt lat="46.72744" lon="5.44651">
        <ele>203.2</ele>
        <time>2022-04-22T13:00:16Z</time>
      </trkpt>
      <trkpt lat="46.72749" lon="5.4466">
        <ele>203.2</ele>
        <time>2022-04-22T13:00:17Z</time>
      </trkpt>
      <trkpt lat="46.72789" lon="5.44725">
        <ele>203.6</ele>
        <time>2022-04-22T13:00:25Z</time>
      </trkpt>
      <trkpt lat="46.728" lon="5.4474">
        <ele>203.4</ele>
        <time>2022-04-22T13:00:27Z</time>
      </trkpt>
      <trkpt lat="46.72844" lon="5.44804">
        <ele>203.4</ele>
        <time>2022-04-22T13:00:35Z</time>
      </trkpt>
      <trkpt lat="46.72848" lon="5.44811">
        <ele>203.4</ele>
        <time>2022-04-22T13:00:36Z</time>
      </trkpt>
      <trkpt lat="46.72886" lon="5.44867">
        <ele>203.6</ele>
        <time>2022-04-22T13:00:43Z</time>
      </trkpt>
      <trkpt lat="46.72897" lon="5.44885">
        <ele>203.4</ele>
        <time>2022-04-22T13:00:45Z</time>
      </trkpt>
      <trkpt lat="46.72919" lon="5.44914">
        <ele>203.8</ele>
        <time>2022-04-22T13:00:49Z</time>
      </trkpt>
      <trkpt lat="46.72943" lon="5.4494">
        <ele>204</ele>
        <time>2022-04-22T13:00:53Z</time>
      </trkpt>
      <trkpt lat="46.72979" lon="5.44958">
        <ele>204</ele>
        <time>2022-04-22T13:00:58Z</time>
      </trkpt>
      <trkpt lat="46.73038" lon="5.44985">
        <ele>203.4</ele>
        <time>2022-04-22T13:01:06Z</time>
      </trkpt>
      <trkpt lat="46.73051" lon="5.44997">
        <ele>203.4</ele>
        <time>2022-04-22T13:01:08Z</time>
      </trkpt>
      <trkpt lat="46.73063" lon="5.45012">
        <ele>203.4</ele>
        <time>2022-04-22T13:01:10Z</time>
      </trkpt>
      <trkpt lat="46.73068" lon="5.45021">
        <ele>203.4</ele>
        <time>2022-04-22T13:01:11Z</time>
      </trkpt>
      <trkpt lat="46.73091" lon="5.45076">
        <ele>203.4</ele>
        <time>2022-04-22T13:01:17Z</time>
      </trkpt>
      <trkpt lat="46.73117" lon="5.45156">
        <ele>203.4</ele>
        <time>2022-04-22T13:01:25Z</time>
      </trkpt>
      <trkpt lat="46.73134" lon="5.45212">
        <ele>203.2</ele>
        <time>2022-04-22T13:01:31Z</time>
      </trkpt>
      <trkpt lat="46.73158" lon="5.45288">
        <ele>203.6</ele>
        <time>2022-04-22T13:01:39Z</time>
      </trkpt>
      <trkpt lat="46.73183" lon="5.4535">
        <ele>204.2</ele>
        <time>2022-04-22T13:01:46Z</time>
      </trkpt>
      <trkpt lat="46.73219" lon="5.45417">
        <ele>204.4</ele>
        <time>2022-04-22T13:01:54Z</time>
      </trkpt>
      <trkpt lat="46.73228" lon="5.45433">
        <ele>204.4</ele>
        <time>2022-04-22T13:01:56Z</time>
      </trkpt>
      <trkpt lat="46.73257" lon="5.45492">
        <ele>204.2</ele>
        <time>2022-04-22T13:02:03Z</time>
      </trkpt>
      <trkpt lat="46.7327" lon="5.45553">
        <ele>204</ele>
        <time>2022-04-22T13:02:09Z</time>
      </trkpt>
      <trkpt lat="46.73279" lon="5.45635">
        <ele>203.8</ele>
        <time>2022-04-22T13:02:17Z</time>
      </trkpt>
      <trkpt lat="46.7328" lon="5.45643">
        <ele>204</ele>
        <time>2022-04-22T13:02:18Z</time>
      </trkpt>
      <trkpt lat="46.73286" lon="5.45685">
        <ele>204</ele>
        <time>2022-04-22T13:02:22Z</time>
      </trkpt>
      <trkpt lat="46.73288" lon="5.45693">
        <ele>204.4</ele>
        <time>2022-04-22T13:02:23Z</time>
      </trkpt>
      <trkpt lat="46.73296" lon="5.45712">
        <ele>204.4</ele>
        <time>2022-04-22T13:02:25Z</time>
      </trkpt>
      <trkpt lat="46.73305" lon="5.45727">
        <ele>204.4</ele>
        <time>2022-04-22T13:02:27Z</time>
      </trkpt>
      <trkpt lat="46.73344" lon="5.4577">
        <ele>204.4</ele>
        <time>2022-04-22T13:02:34Z</time>
      </trkpt>
      <trkpt lat="46.73386" lon="5.45811">
        <ele>205</ele>
        <time>2022-04-22T13:02:41Z</time>
      </trkpt>
      <trkpt lat="46.73395" lon="5.45822">
        <ele>205.4</ele>
        <time>2022-04-22T13:02:43Z</time>
      </trkpt>
      <trkpt lat="46.73441" lon="5.45873">
        <ele>205.4</ele>
        <time>2022-04-22T13:02:51Z</time>
      </trkpt>
      <trkpt lat="46.73455" lon="5.45892">
        <ele>205.2</ele>
        <time>2022-04-22T13:02:54Z</time>
      </trkpt>
      <trkpt lat="46.73468" lon="5.45918">
        <ele>205.2</ele>
        <time>2022-04-22T13:02:57Z</time>
      </trkpt>
      <trkpt lat="46.73473" lon="5.45935">
        <ele>205</ele>
        <time>2022-04-22T13:02:59Z</time>
      </trkpt>
      <trkpt lat="46.73482" lon="5.4597">
        <ele>205.4</ele>
        <time>2022-04-22T13:03:03Z</time>
      </trkpt>
      <trkpt lat="46.73498" lon="5.46001">
        <ele>205.4</ele>
        <time>2022-04-22T13:03:07Z</time>
      </trkpt>
      <trkpt lat="46.73529" lon="5.4605">
        <ele>205.8</ele>
        <time>2022-04-22T13:03:14Z</time>
      </trkpt>
      <trkpt lat="46.73559" lon="5.46109">
        <ele>205.6</ele>
        <time>2022-04-22T13:03:22Z</time>
      </trkpt>
      <trkpt lat="46.73591" lon="5.46154">
        <ele>205.8</ele>
        <time>2022-04-22T13:03:29Z</time>
      </trkpt>
      <trkpt lat="46.73623" lon="5.46183">
        <ele>206</ele>
        <time>2022-04-22T13:03:35Z</time>
      </trkpt>
      <trkpt lat="46.73633" lon="5.46193">
        <ele>205.8</ele>
        <time>2022-04-22T13:03:37Z</time>
      </trkpt>
      <trkpt lat="46.73646" lon="5.46213">
        <ele>205.8</ele>
        <time>2022-04-22T13:03:40Z</time>
      </trkpt>
      <trkpt lat="46.7365" lon="5.46223">
        <ele>205.8</ele>
        <time>2022-04-22T13:03:41Z</time>
      </trkpt>
      <trkpt lat="46.73664" lon="5.46255">
        <ele>206</ele>
        <time>2022-04-22T13:03:45Z</time>
      </trkpt>
      <trkpt lat="46.73667" lon="5.46263">
        <ele>206.2</ele>
        <time>2022-04-22T13:03:46Z</time>
      </trkpt>
      <trkpt lat="46.73681" lon="5.46305">
        <ele>206.2</ele>
        <time>2022-04-22T13:03:51Z</time>
      </trkpt>
      <trkpt lat="46.73685" lon="5.46332">
        <ele>206.2</ele>
        <time>2022-04-22T13:03:54Z</time>
      </trkpt>
      <trkpt lat="46.73688" lon="5.46357">
        <ele>206.2</ele>
        <time>2022-04-22T13:03:57Z</time>
      </trkpt>
      <trkpt lat="46.73691" lon="5.46389">
        <ele>206.8</ele>
        <time>2022-04-22T13:04:01Z</time>
      </trkpt>
      <trkpt lat="46.73691" lon="5.46396">
        <ele>206.8</ele>
        <time>2022-04-22T13:04:02Z</time>
      </trkpt>
      <trkpt lat="46.73691" lon="5.46409">
        <ele>207</ele>
        <time>2022-04-22T13:04:04Z</time>
      </trkpt>
      <trkpt lat="46.73692" lon="5.46418">
        <ele>207.2</ele>
        <time>2022-04-22T13:04:06Z</time>
      </trkpt>
      <trkpt lat="46.73692" lon="5.46422">
        <ele>207.2</ele>
        <time>2022-04-22T13:04:07Z</time>
      </trkpt>
      <trkpt lat="46.73687" lon="5.46437">
        <ele>207.2</ele>
        <time>2022-04-22T13:04:11Z</time>
      </trkpt>
      <trkpt lat="46.73675" lon="5.46464">
        <ele>207.2</ele>
        <time>2022-04-22T13:04:15Z</time>
      </trkpt>
      <trkpt lat="46.73672" lon="5.46473">
        <ele>207.2</ele>
        <time>2022-04-22T13:04:16Z</time>
      </trkpt>
      <trkpt lat="46.7367" lon="5.46491">
        <ele>207</ele>
        <time>2022-04-22T13:04:18Z</time>
      </trkpt>
      <trkpt lat="46.73671" lon="5.46518">
        <ele>207</ele>
        <time>2022-04-22T13:04:21Z</time>
      </trkpt>
      <trkpt lat="46.7368" lon="5.46579">
        <ele>207</ele>
        <time>2022-04-22T13:04:27Z</time>
      </trkpt>
      <trkpt lat="46.73687" lon="5.4664">
        <ele>207.2</ele>
        <time>2022-04-22T13:04:33Z</time>
      </trkpt>
      <trkpt lat="46.73688" lon="5.46659">
        <ele>207.2</ele>
        <time>2022-04-22T13:04:35Z</time>
      </trkpt>
      <trkpt lat="46.73689" lon="5.46682">
        <ele>207.4</ele>
        <time>2022-04-22T13:04:37Z</time>
      </trkpt>
      <trkpt lat="46.73688" lon="5.46762">
        <ele>207.2</ele>
        <time>2022-04-22T13:04:45Z</time>
      </trkpt>
      <trkpt lat="46.73691" lon="5.46806">
        <ele>207.2</ele>
        <time>2022-04-22T13:04:49Z</time>
      </trkpt>
      <trkpt lat="46.73692" lon="5.46824">
        <ele>207.2</ele>
        <time>2022-04-22T13:04:51Z</time>
      </trkpt>
      <trkpt lat="46.73691" lon="5.46892">
        <ele>207.6</ele>
        <time>2022-04-22T13:04:58Z</time>
      </trkpt>
      <trkpt lat="46.7369" lon="5.46927">
        <ele>208.2</ele>
        <time>2022-04-22T13:05:02Z</time>
      </trkpt>
      <trkpt lat="46.73689" lon="5.46934">
        <ele>208.4</ele>
        <time>2022-04-22T13:05:03Z</time>
      </trkpt>
      <trkpt lat="46.73687" lon="5.46945">
        <ele>208.6</ele>
        <time>2022-04-22T13:05:04Z</time>
      </trkpt>
      <trkpt lat="46.73689" lon="5.46962">
        <ele>209</ele>
        <time>2022-04-22T13:05:06Z</time>
      </trkpt>
      <trkpt lat="46.73694" lon="5.46984">
        <ele>209</ele>
        <time>2022-04-22T13:05:08Z</time>
      </trkpt>
      <trkpt lat="46.73696" lon="5.47002">
        <ele>209.2</ele>
        <time>2022-04-22T13:05:10Z</time>
      </trkpt>
      <trkpt lat="46.73697" lon="5.47014">
        <ele>209.2</ele>
        <time>2022-04-22T13:05:11Z</time>
      </trkpt>
      <trkpt lat="46.73707" lon="5.47062">
        <ele>209.2</ele>
        <time>2022-04-22T13:05:16Z</time>
      </trkpt>
      <trkpt lat="46.73722" lon="5.47134">
        <ele>209.4</ele>
        <time>2022-04-22T13:05:23Z</time>
      </trkpt>
      <trkpt lat="46.73734" lon="5.47214">
        <ele>209</ele>
        <time>2022-04-22T13:05:31Z</time>
      </trkpt>
      <trkpt lat="46.73736" lon="5.47224">
        <ele>209</ele>
        <time>2022-04-22T13:05:32Z</time>
      </trkpt>
      <trkpt lat="46.73743" lon="5.47285">
        <ele>209.6</ele>
        <time>2022-04-22T13:05:38Z</time>
      </trkpt>
      <trkpt lat="46.73746" lon="5.47304">
        <ele>209.8</ele>
        <time>2022-04-22T13:05:40Z</time>
      </trkpt>
      <trkpt lat="46.73752" lon="5.47351">
        <ele>210.4</ele>
        <time>2022-04-22T13:05:45Z</time>
      </trkpt>
      <trkpt lat="46.73753" lon="5.47361">
        <ele>210.4</ele>
        <time>2022-04-22T13:05:46Z</time>
      </trkpt>
      <trkpt lat="46.73765" lon="5.47443">
        <ele>210.6</ele>
        <time>2022-04-22T13:05:54Z</time>
      </trkpt>
      <trkpt lat="46.73768" lon="5.47464">
        <ele>210.4</ele>
        <time>2022-04-22T13:05:56Z</time>
      </trkpt>
      <trkpt lat="46.73778" lon="5.47555">
        <ele>210.2</ele>
        <time>2022-04-22T13:06:04Z</time>
      </trkpt>
      <trkpt lat="46.73781" lon="5.47585">
        <ele>210.2</ele>
        <time>2022-04-22T13:06:07Z</time>
      </trkpt>
      <trkpt lat="46.73789" lon="5.47663">
        <ele>210.4</ele>
        <time>2022-04-22T13:06:14Z</time>
      </trkpt>
      <trkpt lat="46.73791" lon="5.47682">
        <ele>210.4</ele>
        <time>2022-04-22T13:06:16Z</time>
      </trkpt>
      <trkpt lat="46.73799" lon="5.47761">
        <ele>210.6</ele>
        <time>2022-04-22T13:06:23Z</time>
      </trkpt>
      <trkpt lat="46.738" lon="5.47781">
        <ele>210.6</ele>
        <time>2022-04-22T13:06:25Z</time>
      </trkpt>
      <trkpt lat="46.7381" lon="5.47859">
        <ele>210.8</ele>
        <time>2022-04-22T13:06:32Z</time>
      </trkpt>
      <trkpt lat="46.73811" lon="5.47869">
        <ele>210.6</ele>
        <time>2022-04-22T13:06:33Z</time>
      </trkpt>
      <trkpt lat="46.73828" lon="5.47952">
        <ele>210.8</ele>
        <time>2022-04-22T13:06:41Z</time>
      </trkpt>
      <trkpt lat="46.7383" lon="5.4796">
        <ele>210.8</ele>
        <time>2022-04-22T13:06:42Z</time>
      </trkpt>
      <trkpt lat="46.73848" lon="5.48006">
        <ele>211</ele>
        <time>2022-04-22T13:06:47Z</time>
      </trkpt>
      <trkpt lat="46.73874" lon="5.4806">
        <ele>211.2</ele>
        <time>2022-04-22T13:06:53Z</time>
      </trkpt>
      <trkpt lat="46.73902" lon="5.48119">
        <ele>211.2</ele>
        <time>2022-04-22T13:07:00Z</time>
      </trkpt>
      <trkpt lat="46.73931" lon="5.48193">
        <ele>211.8</ele>
        <time>2022-04-22T13:07:08Z</time>
      </trkpt>
      <trkpt lat="46.73944" lon="5.48234">
        <ele>212</ele>
        <time>2022-04-22T13:07:12Z</time>
      </trkpt>
      <trkpt lat="46.73957" lon="5.4826">
        <ele>212</ele>
        <time>2022-04-22T13:07:15Z</time>
      </trkpt>
      <trkpt lat="46.73983" lon="5.48294">
        <ele>212.2</ele>
        <time>2022-04-22T13:07:20Z</time>
      </trkpt>
      <trkpt lat="46.74025" lon="5.48336">
        <ele>212.4</ele>
        <time>2022-04-22T13:07:27Z</time>
      </trkpt>
      <trkpt lat="46.74058" lon="5.48378">
        <ele>212.6</ele>
        <time>2022-04-22T13:07:33Z</time>
      </trkpt>
      <trkpt lat="46.74098" lon="5.4844">
        <ele>212.2</ele>
        <time>2022-04-22T13:07:41Z</time>
      </trkpt>
      <trkpt lat="46.74119" lon="5.48475">
        <ele>212</ele>
        <time>2022-04-22T13:07:46Z</time>
      </trkpt>
      <trkpt lat="46.74125" lon="5.48484">
        <ele>212.2</ele>
        <time>2022-04-22T13:07:48Z</time>
      </trkpt>
      <trkpt lat="46.74128" lon="5.48486">
        <ele>212.4</ele>
        <time>2022-04-22T13:07:49Z</time>
      </trkpt>
      <trkpt lat="46.74132" lon="5.48487">
        <ele>212.4</ele>
        <time>2022-04-22T13:07:50Z</time>
      </trkpt>
      <trkpt lat="46.74143" lon="5.48487">
        <ele>212.4</ele>
        <time>2022-04-22T13:07:52Z</time>
      </trkpt>
      <trkpt lat="46.74155" lon="5.48488">
        <ele>212.6</ele>
        <time>2022-04-22T13:07:54Z</time>
      </trkpt>
      <trkpt lat="46.74166" lon="5.48493">
        <ele>212.6</ele>
        <time>2022-04-22T13:07:56Z</time>
      </trkpt>
      <trkpt lat="46.74177" lon="5.48503">
        <ele>212.4</ele>
        <time>2022-04-22T13:07:58Z</time>
      </trkpt>
      <trkpt lat="46.74185" lon="5.48518">
        <ele>212.4</ele>
        <time>2022-04-22T13:08:00Z</time>
      </trkpt>
      <trkpt lat="46.74195" lon="5.48555">
        <ele>212.4</ele>
        <time>2022-04-22T13:08:04Z</time>
      </trkpt>
      <trkpt lat="46.74208" lon="5.48617">
        <ele>212.2</ele>
        <time>2022-04-22T13:08:10Z</time>
      </trkpt>
      <trkpt lat="46.74211" lon="5.4867">
        <ele>212.2</ele>
        <time>2022-04-22T13:08:15Z</time>
      </trkpt>
      <trkpt lat="46.74213" lon="5.48738">
        <ele>212.2</ele>
        <time>2022-04-22T13:08:21Z</time>
      </trkpt>
      <trkpt lat="46.74223" lon="5.48791">
        <ele>212</ele>
        <time>2022-04-22T13:08:26Z</time>
      </trkpt>
      <trkpt lat="46.74248" lon="5.4887">
        <ele>212.2</ele>
        <time>2022-04-22T13:08:34Z</time>
      </trkpt>
      <trkpt lat="46.74277" lon="5.48945">
        <ele>212.6</ele>
        <time>2022-04-22T13:08:42Z</time>
      </trkpt>
      <trkpt lat="46.74282" lon="5.48954">
        <ele>212.6</ele>
        <time>2022-04-22T13:08:43Z</time>
      </trkpt>
      <trkpt lat="46.74297" lon="5.48979">
        <ele>212.8</ele>
        <time>2022-04-22T13:08:46Z</time>
      </trkpt>
      <trkpt lat="46.74302" lon="5.48987">
        <ele>213</ele>
        <time>2022-04-22T13:08:47Z</time>
      </trkpt>
      <trkpt lat="46.74335" lon="5.49048">
        <ele>213.2</ele>
        <time>2022-04-22T13:08:54Z</time>
      </trkpt>
      <trkpt lat="46.74338" lon="5.49058">
        <ele>213.2</ele>
        <time>2022-04-22T13:08:55Z</time>
      </trkpt>
      <trkpt lat="46.74365" lon="5.49136">
        <ele>213</ele>
        <time>2022-04-22T13:09:03Z</time>
      </trkpt>
      <trkpt lat="46.7439" lon="5.49203">
        <ele>213.4</ele>
        <time>2022-04-22T13:09:10Z</time>
      </trkpt>
      <trkpt lat="46.74418" lon="5.49275">
        <ele>213.6</ele>
        <time>2022-04-22T13:09:18Z</time>
      </trkpt>
      <trkpt lat="46.74419" lon="5.49282">
        <ele>213.6</ele>
        <time>2022-04-22T13:09:19Z</time>
      </trkpt>
      <trkpt lat="46.74422" lon="5.49303">
        <ele>213.6</ele>
        <time>2022-04-22T13:09:21Z</time>
      </trkpt>
      <trkpt lat="46.74422" lon="5.4931">
        <ele>213.8</ele>
        <time>2022-04-22T13:09:22Z</time>
      </trkpt>
      <trkpt lat="46.74421" lon="5.49321">
        <ele>213.8</ele>
        <time>2022-04-22T13:09:23Z</time>
      </trkpt>
      <trkpt lat="46.74416" lon="5.49358">
        <ele>214.2</ele>
        <time>2022-04-22T13:09:27Z</time>
      </trkpt>
      <trkpt lat="46.74415" lon="5.49366">
        <ele>214.2</ele>
        <time>2022-04-22T13:09:28Z</time>
      </trkpt>
      <trkpt lat="46.74414" lon="5.49384">
        <ele>214.2</ele>
        <time>2022-04-22T13:09:30Z</time>
      </trkpt>
      <trkpt lat="46.74417" lon="5.49413">
        <ele>214.4</ele>
        <time>2022-04-22T13:09:33Z</time>
      </trkpt>
      <trkpt lat="46.74421" lon="5.49428">
        <ele>214.4</ele>
        <time>2022-04-22T13:09:35Z</time>
      </trkpt>
      <trkpt lat="46.74428" lon="5.49446">
        <ele>214.4</ele>
        <time>2022-04-22T13:09:37Z</time>
      </trkpt>
      <trkpt lat="46.74452" lon="5.49489">
        <ele>214.8</ele>
        <time>2022-04-22T13:09:43Z</time>
      </trkpt>
      <trkpt lat="46.74456" lon="5.49495">
        <ele>215</ele>
        <time>2022-04-22T13:09:44Z</time>
      </trkpt>
      <trkpt lat="46.74468" lon="5.49513">
        <ele>215</ele>
        <time>2022-04-22T13:09:47Z</time>
      </trkpt>
      <trkpt lat="46.74474" lon="5.49524">
        <ele>215.2</ele>
        <time>2022-04-22T13:09:49Z</time>
      </trkpt>
      <trkpt lat="46.74477" lon="5.49529">
        <ele>215.2</ele>
        <time>2022-04-22T13:09:50Z</time>
      </trkpt>
      <trkpt lat="46.74478" lon="5.4954">
        <ele>215.2</ele>
        <time>2022-04-22T13:09:52Z</time>
      </trkpt>
      <trkpt lat="46.74477" lon="5.49547">
        <ele>215.4</ele>
        <time>2022-04-22T13:09:53Z</time>
      </trkpt>
      <trkpt lat="46.74473" lon="5.49568">
        <ele>215.4</ele>
        <time>2022-04-22T13:09:56Z</time>
      </trkpt>
      <trkpt lat="46.74458" lon="5.49616">
        <ele>215.4</ele>
        <time>2022-04-22T13:10:02Z</time>
      </trkpt>
      <trkpt lat="46.74453" lon="5.49632">
        <ele>215.4</ele>
        <time>2022-04-22T13:10:04Z</time>
      </trkpt>
      <trkpt lat="46.74446" lon="5.49644">
        <ele>215.6</ele>
        <time>2022-04-22T13:10:06Z</time>
      </trkpt>
      <trkpt lat="46.74442" lon="5.4965">
        <ele>215.6</ele>
        <time>2022-04-22T13:10:07Z</time>
      </trkpt>
      <trkpt lat="46.74433" lon="5.4966">
        <ele>215.6</ele>
        <time>2022-04-22T13:10:09Z</time>
      </trkpt>
      <trkpt lat="46.74427" lon="5.49665">
        <ele>215.6</ele>
        <time>2022-04-22T13:10:10Z</time>
      </trkpt>
      <trkpt lat="46.7441" lon="5.49678">
        <ele>215.6</ele>
        <time>2022-04-22T13:10:13Z</time>
      </trkpt>
      <trkpt lat="46.74393" lon="5.49685">
        <ele>215.6</ele>
        <time>2022-04-22T13:10:16Z</time>
      </trkpt>
      <trkpt lat="46.74381" lon="5.49689">
        <ele>215.6</ele>
        <time>2022-04-22T13:10:18Z</time>
      </trkpt>
      <trkpt lat="46.74361" lon="5.49693">
        <ele>215.8</ele>
        <time>2022-04-22T13:10:21Z</time>
      </trkpt>
      <trkpt lat="46.74354" lon="5.49695">
        <ele>216</ele>
        <time>2022-04-22T13:10:22Z</time>
      </trkpt>
      <trkpt lat="46.74319" lon="5.49698">
        <ele>216</ele>
        <time>2022-04-22T13:10:27Z</time>
      </trkpt>
      <trkpt lat="46.74281" lon="5.49699">
        <ele>215.4</ele>
        <time>2022-04-22T13:10:32Z</time>
      </trkpt>
      <trkpt lat="46.74252" lon="5.49701">
        <ele>215</ele>
        <time>2022-04-22T13:10:36Z</time>
      </trkpt>
      <trkpt lat="46.74246" lon="5.49702">
        <ele>214.8</ele>
        <time>2022-04-22T13:10:37Z</time>
      </trkpt>
      <trkpt lat="46.74238" lon="5.49703">
        <ele>214.8</ele>
        <time>2022-04-22T13:10:38Z</time>
      </trkpt>
      <trkpt lat="46.74196" lon="5.49714">
        <ele>214.8</ele>
        <time>2022-04-22T13:10:44Z</time>
      </trkpt>
      <trkpt lat="46.74162" lon="5.49746">
        <ele>215</ele>
        <time>2022-04-22T13:10:50Z</time>
      </trkpt>
      <trkpt lat="46.74137" lon="5.4978">
        <ele>214.8</ele>
        <time>2022-04-22T13:10:55Z</time>
      </trkpt>
      <trkpt lat="46.74115" lon="5.49817">
        <ele>214.8</ele>
        <time>2022-04-22T13:11:00Z</time>
      </trkpt>
      <trkpt lat="46.74077" lon="5.49879">
        <ele>214.6</ele>
        <time>2022-04-22T13:11:08Z</time>
      </trkpt>
      <trkpt lat="46.74058" lon="5.49907">
        <ele>214.4</ele>
        <time>2022-04-22T13:11:12Z</time>
      </trkpt>
      <trkpt lat="46.74053" lon="5.49911">
        <ele>214.4</ele>
        <time>2022-04-22T13:11:13Z</time>
      </trkpt>
      <trkpt lat="46.74042" lon="5.49921">
        <ele>214.4</ele>
        <time>2022-04-22T13:11:15Z</time>
      </trkpt>
      <trkpt lat="46.74036" lon="5.49937">
        <ele>214.4</ele>
        <time>2022-04-22T13:11:17Z</time>
      </trkpt>
      <trkpt lat="46.7404" lon="5.49952">
        <ele>214.6</ele>
        <time>2022-04-22T13:11:19Z</time>
      </trkpt>
      <trkpt lat="46.74049" lon="5.49965">
        <ele>214.8</ele>
        <time>2022-04-22T13:11:21Z</time>
      </trkpt>
      <trkpt lat="46.74053" lon="5.49982">
        <ele>215</ele>
        <time>2022-04-22T13:11:23Z</time>
      </trkpt>
      <trkpt lat="46.74052" lon="5.49998">
        <ele>215</ele>
        <time>2022-04-22T13:11:25Z</time>
      </trkpt>
      <trkpt lat="46.74049" lon="5.50008">
        <ele>215</ele>
        <time>2022-04-22T13:11:26Z</time>
      </trkpt>
      <trkpt lat="46.74029" lon="5.50053">
        <ele>214.8</ele>
        <time>2022-04-22T13:11:32Z</time>
      </trkpt>
      <trkpt lat="46.73993" lon="5.50121">
        <ele>215.4</ele>
        <time>2022-04-22T13:11:41Z</time>
      </trkpt>
      <trkpt lat="46.7399" lon="5.50127">
        <ele>215.4</ele>
        <time>2022-04-22T13:11:42Z</time>
      </trkpt>
      <trkpt lat="46.73965" lon="5.50175">
        <ele>216</ele>
        <time>2022-04-22T13:11:48Z</time>
      </trkpt>
      <trkpt lat="46.73949" lon="5.50203">
        <ele>216</ele>
        <time>2022-04-22T13:11:52Z</time>
      </trkpt>
      <trkpt lat="46.73914" lon="5.50272">
        <ele>216</ele>
        <time>2022-04-22T13:12:01Z</time>
      </trkpt>
      <trkpt lat="46.73882" lon="5.50344">
        <ele>216.6</ele>
        <time>2022-04-22T13:12:10Z</time>
      </trkpt>
      <trkpt lat="46.73879" lon="5.50352">
        <ele>216.6</ele>
        <time>2022-04-22T13:12:11Z</time>
      </trkpt>
      <trkpt lat="46.7387" lon="5.50376">
        <ele>217.2</ele>
        <time>2022-04-22T13:12:14Z</time>
      </trkpt>
      <trkpt lat="46.73852" lon="5.50424">
        <ele>217.8</ele>
        <time>2022-04-22T13:12:20Z</time>
      </trkpt>
      <trkpt lat="46.73843" lon="5.50447">
        <ele>218.2</ele>
        <time>2022-04-22T13:12:23Z</time>
      </trkpt>
      <trkpt lat="46.73837" lon="5.50461">
        <ele>218.4</ele>
        <time>2022-04-22T13:12:25Z</time>
      </trkpt>
      <trkpt lat="46.73833" lon="5.50474">
        <ele>218.6</ele>
        <time>2022-04-22T13:12:27Z</time>
      </trkpt>
      <trkpt lat="46.73822" lon="5.50503">
        <ele>219.4</ele>
        <time>2022-04-22T13:12:31Z</time>
      </trkpt>
      <trkpt lat="46.73817" lon="5.50516">
        <ele>219.8</ele>
        <time>2022-04-22T13:12:33Z</time>
      </trkpt>
      <trkpt lat="46.73808" lon="5.50541">
        <ele>220.6</ele>
        <time>2022-04-22T13:12:37Z</time>
      </trkpt>
      <trkpt lat="46.73802" lon="5.50559">
        <ele>221.6</ele>
        <time>2022-04-22T13:12:40Z</time>
      </trkpt>
      <trkpt lat="46.73796" lon="5.50578">
        <ele>222.8</ele>
        <time>2022-04-22T13:12:43Z</time>
      </trkpt>
      <trkpt lat="46.73788" lon="5.50603">
        <ele>224</ele>
        <time>2022-04-22T13:12:47Z</time>
      </trkpt>
      <trkpt lat="46.73781" lon="5.50621">
        <ele>224.8</ele>
        <time>2022-04-22T13:12:50Z</time>
      </trkpt>
      <trkpt lat="46.73778" lon="5.50633">
        <ele>225.2</ele>
        <time>2022-04-22T13:12:52Z</time>
      </trkpt>
      <trkpt lat="46.73769" lon="5.5066">
        <ele>226.4</ele>
        <time>2022-04-22T13:12:57Z</time>
      </trkpt>
      <trkpt lat="46.73766" lon="5.5067">
        <ele>227</ele>
        <time>2022-04-22T13:12:59Z</time>
      </trkpt>
      <trkpt lat="46.73764" lon="5.50675">
        <ele>227.2</ele>
        <time>2022-04-22T13:13:00Z</time>
      </trkpt>
      <trkpt lat="46.73762" lon="5.50681">
        <ele>227.6</ele>
        <time>2022-04-22T13:13:01Z</time>
      </trkpt>
      <trkpt lat="46.7376" lon="5.50686">
        <ele>228</ele>
        <time>2022-04-22T13:13:02Z</time>
      </trkpt>
      <trkpt lat="46.73754" lon="5.50699">
        <ele>228.6</ele>
        <time>2022-04-22T13:13:05Z</time>
      </trkpt>
      <trkpt lat="46.73747" lon="5.50713">
        <ele>229.8</ele>
        <time>2022-04-22T13:13:08Z</time>
      </trkpt>
      <trkpt lat="46.73735" lon="5.50733">
        <ele>230.8</ele>
        <time>2022-04-22T13:13:12Z</time>
      </trkpt>
      <trkpt lat="46.73732" lon="5.50738">
        <ele>231</ele>
        <time>2022-04-22T13:13:13Z</time>
      </trkpt>
      <trkpt lat="46.73717" lon="5.50764">
        <ele>232</ele>
        <time>2022-04-22T13:13:18Z</time>
      </trkpt>
      <trkpt lat="46.73705" lon="5.50787">
        <ele>232.6</ele>
        <time>2022-04-22T13:13:22Z</time>
      </trkpt>
      <trkpt lat="46.73695" lon="5.50805">
        <ele>233</ele>
        <time>2022-04-22T13:13:25Z</time>
      </trkpt>
      <trkpt lat="46.73674" lon="5.50844">
        <ele>233.2</ele>
        <time>2022-04-22T13:13:31Z</time>
      </trkpt>
      <trkpt lat="46.7367" lon="5.5085">
        <ele>233.2</ele>
        <time>2022-04-22T13:13:32Z</time>
      </trkpt>
      <trkpt lat="46.73661" lon="5.5086">
        <ele>233.4</ele>
        <time>2022-04-22T13:13:34Z</time>
      </trkpt>
      <trkpt lat="46.73652" lon="5.50867">
        <ele>233.6</ele>
        <time>2022-04-22T13:13:36Z</time>
      </trkpt>
      <trkpt lat="46.73624" lon="5.5088">
        <ele>234</ele>
        <time>2022-04-22T13:13:42Z</time>
      </trkpt>
      <trkpt lat="46.73619" lon="5.50883">
        <ele>234.6</ele>
        <time>2022-04-22T13:13:43Z</time>
      </trkpt>
      <trkpt lat="46.73615" lon="5.50886">
        <ele>234.8</ele>
        <time>2022-04-22T13:13:44Z</time>
      </trkpt>
      <trkpt lat="46.73611" lon="5.5089">
        <ele>235.2</ele>
        <time>2022-04-22T13:13:45Z</time>
      </trkpt>
      <trkpt lat="46.73607" lon="5.50894">
        <ele>235.6</ele>
        <time>2022-04-22T13:13:46Z</time>
      </trkpt>
      <trkpt lat="46.73601" lon="5.50905">
        <ele>236.2</ele>
        <time>2022-04-22T13:13:48Z</time>
      </trkpt>
      <trkpt lat="46.73597" lon="5.50918">
        <ele>236.4</ele>
        <time>2022-04-22T13:13:50Z</time>
      </trkpt>
      <trkpt lat="46.73595" lon="5.50924">
        <ele>236.6</ele>
        <time>2022-04-22T13:13:51Z</time>
      </trkpt>
      <trkpt lat="46.73591" lon="5.50946">
        <ele>237</ele>
        <time>2022-04-22T13:13:54Z</time>
      </trkpt>
      <trkpt lat="46.73586" lon="5.50979">
        <ele>237.6</ele>
        <time>2022-04-22T13:13:58Z</time>
      </trkpt>
      <trkpt lat="46.73582" lon="5.51003">
        <ele>238.2</ele>
        <time>2022-04-22T13:14:01Z</time>
      </trkpt>
      <trkpt lat="46.73576" lon="5.51036">
        <ele>238.6</ele>
        <time>2022-04-22T13:14:05Z</time>
      </trkpt>
      <trkpt lat="46.73573" lon="5.51044">
        <ele>238.6</ele>
        <time>2022-04-22T13:14:06Z</time>
      </trkpt>
      <trkpt lat="46.73566" lon="5.51058">
        <ele>238.8</ele>
        <time>2022-04-22T13:14:08Z</time>
      </trkpt>
      <trkpt lat="46.73544" lon="5.51084">
        <ele>239</ele>
        <time>2022-04-22T13:14:13Z</time>
      </trkpt>
      <trkpt lat="46.73536" lon="5.51091">
        <ele>239.4</ele>
        <time>2022-04-22T13:14:15Z</time>
      </trkpt>
      <trkpt lat="46.7353" lon="5.51099">
        <ele>239.8</ele>
        <time>2022-04-22T13:14:17Z</time>
      </trkpt>
      <trkpt lat="46.73527" lon="5.51103">
        <ele>240.6</ele>
        <time>2022-04-22T13:14:18Z</time>
      </trkpt>
      <trkpt lat="46.73522" lon="5.5111">
        <ele>241.2</ele>
        <time>2022-04-22T13:14:20Z</time>
      </trkpt>
      <trkpt lat="46.73514" lon="5.51127">
        <ele>242.6</ele>
        <time>2022-04-22T13:14:24Z</time>
      </trkpt>
      <trkpt lat="46.7351" lon="5.51141">
        <ele>244</ele>
        <time>2022-04-22T13:14:27Z</time>
      </trkpt>
      <trkpt lat="46.73507" lon="5.51155">
        <ele>245.2</ele>
        <time>2022-04-22T13:14:30Z</time>
      </trkpt>
      <trkpt lat="46.73504" lon="5.51165">
        <ele>246</ele>
        <time>2022-04-22T13:14:32Z</time>
      </trkpt>
      <trkpt lat="46.73503" lon="5.5117">
        <ele>246.6</ele>
        <time>2022-04-22T13:14:33Z</time>
      </trkpt>
      <trkpt lat="46.73498" lon="5.51185">
        <ele>247.8</ele>
        <time>2022-04-22T13:14:36Z</time>
      </trkpt>
      <trkpt lat="46.73492" lon="5.51206">
        <ele>249</ele>
        <time>2022-04-22T13:14:40Z</time>
      </trkpt>
      <trkpt lat="46.7349" lon="5.51211">
        <ele>249.2</ele>
        <time>2022-04-22T13:14:41Z</time>
      </trkpt>
      <trkpt lat="46.73482" lon="5.51238">
        <ele>250</ele>
        <time>2022-04-22T13:14:46Z</time>
      </trkpt>
      <trkpt lat="46.73476" lon="5.51256">
        <ele>250.6</ele>
        <time>2022-04-22T13:14:49Z</time>
      </trkpt>
      <trkpt lat="46.73474" lon="5.51262">
        <ele>250.8</ele>
        <time>2022-04-22T13:14:50Z</time>
      </trkpt>
      <trkpt lat="46.73461" lon="5.513">
        <ele>251</ele>
        <time>2022-04-22T13:14:55Z</time>
      </trkpt>
      <trkpt lat="46.73443" lon="5.51371">
        <ele>250</ele>
        <time>2022-04-22T13:15:02Z</time>
      </trkpt>
      <trkpt lat="46.7342" lon="5.51452">
        <ele>249.2</ele>
        <time>2022-04-22T13:15:10Z</time>
      </trkpt>
      <trkpt lat="46.73395" lon="5.51514">
        <ele>249</ele>
        <time>2022-04-22T13:15:17Z</time>
      </trkpt>
      <trkpt lat="46.73387" lon="5.51529">
        <ele>249</ele>
        <time>2022-04-22T13:15:19Z</time>
      </trkpt>
      <trkpt lat="46.73366" lon="5.51568">
        <ele>248.4</ele>
        <time>2022-04-22T13:15:24Z</time>
      </trkpt>
      <trkpt lat="46.73346" lon="5.51606">
        <ele>248</ele>
        <time>2022-04-22T13:15:29Z</time>
      </trkpt>
      <trkpt lat="46.73341" lon="5.51613">
        <ele>247.8</ele>
        <time>2022-04-22T13:15:30Z</time>
      </trkpt>
      <trkpt lat="46.73305" lon="5.51646">
        <ele>246.6</ele>
        <time>2022-04-22T13:15:35Z</time>
      </trkpt>
      <trkpt lat="46.73282" lon="5.51665">
        <ele>244.8</ele>
        <time>2022-04-22T13:15:38Z</time>
      </trkpt>
      <trkpt lat="46.73254" lon="5.51689">
        <ele>243.4</ele>
        <time>2022-04-22T13:15:42Z</time>
      </trkpt>
      <trkpt lat="46.7325" lon="5.51693">
        <ele>242.8</ele>
        <time>2022-04-22T13:15:43Z</time>
      </trkpt>
      <trkpt lat="46.7324" lon="5.51703">
        <ele>242.2</ele>
        <time>2022-04-22T13:15:45Z</time>
      </trkpt>
      <trkpt lat="46.73238" lon="5.5171">
        <ele>242.2</ele>
        <time>2022-04-22T13:15:46Z</time>
      </trkpt>
      <trkpt lat="46.73239" lon="5.51718">
        <ele>242</ele>
        <time>2022-04-22T13:15:47Z</time>
      </trkpt>
      <trkpt lat="46.73242" lon="5.51735">
        <ele>241.6</ele>
        <time>2022-04-22T13:15:49Z</time>
      </trkpt>
      <trkpt lat="46.73246" lon="5.51768">
        <ele>241.2</ele>
        <time>2022-04-22T13:15:52Z</time>
      </trkpt>
      <trkpt lat="46.7325" lon="5.51791">
        <ele>241</ele>
        <time>2022-04-22T13:15:54Z</time>
      </trkpt>
      <trkpt lat="46.73257" lon="5.51825">
        <ele>240.2</ele>
        <time>2022-04-22T13:15:57Z</time>
      </trkpt>
      <trkpt lat="46.73265" lon="5.51844">
        <ele>239.2</ele>
        <time>2022-04-22T13:15:59Z</time>
      </trkpt>
      <trkpt lat="46.73275" lon="5.51863">
        <ele>239</ele>
        <time>2022-04-22T13:16:01Z</time>
      </trkpt>
      <trkpt lat="46.7329" lon="5.51892">
        <ele>239</ele>
        <time>2022-04-22T13:16:04Z</time>
      </trkpt>
      <trkpt lat="46.73297" lon="5.51914">
        <ele>238.8</ele>
        <time>2022-04-22T13:16:06Z</time>
      </trkpt>
      <trkpt lat="46.73313" lon="5.51989">
        <ele>238.8</ele>
        <time>2022-04-22T13:16:13Z</time>
      </trkpt>
      <trkpt lat="46.73316" lon="5.52">
        <ele>238.8</ele>
        <time>2022-04-22T13:16:14Z</time>
      </trkpt>
      <trkpt lat="46.73329" lon="5.5206">
        <ele>239</ele>
        <time>2022-04-22T13:16:20Z</time>
      </trkpt>
      <trkpt lat="46.73333" lon="5.52098">
        <ele>239.6</ele>
        <time>2022-04-22T13:16:24Z</time>
      </trkpt>
      <trkpt lat="46.73333" lon="5.52114">
        <ele>240.2</ele>
        <time>2022-04-22T13:16:26Z</time>
      </trkpt>
      <trkpt lat="46.73333" lon="5.52133">
        <ele>240.8</ele>
        <time>2022-04-22T13:16:28Z</time>
      </trkpt>
      <trkpt lat="46.73332" lon="5.52141">
        <ele>241</ele>
        <time>2022-04-22T13:16:29Z</time>
      </trkpt>
      <trkpt lat="46.73329" lon="5.52158">
        <ele>241.4</ele>
        <time>2022-04-22T13:16:31Z</time>
      </trkpt>
      <trkpt lat="46.73328" lon="5.52176">
        <ele>241.8</ele>
        <time>2022-04-22T13:16:33Z</time>
      </trkpt>
      <trkpt lat="46.73329" lon="5.52185">
        <ele>241.8</ele>
        <time>2022-04-22T13:16:34Z</time>
      </trkpt>
      <trkpt lat="46.73331" lon="5.52194">
        <ele>242</ele>
        <time>2022-04-22T13:16:35Z</time>
      </trkpt>
      <trkpt lat="46.73336" lon="5.5221">
        <ele>242.2</ele>
        <time>2022-04-22T13:16:37Z</time>
      </trkpt>
      <trkpt lat="46.73341" lon="5.52217">
        <ele>242.2</ele>
        <time>2022-04-22T13:16:38Z</time>
      </trkpt>
      <trkpt lat="46.73376" lon="5.52267">
        <ele>242.2</ele>
        <time>2022-04-22T13:16:45Z</time>
      </trkpt>
      <trkpt lat="46.73391" lon="5.52289">
        <ele>242.2</ele>
        <time>2022-04-22T13:16:48Z</time>
      </trkpt>
      <trkpt lat="46.73399" lon="5.52305">
        <ele>242.2</ele>
        <time>2022-04-22T13:16:50Z</time>
      </trkpt>
      <trkpt lat="46.73431" lon="5.52367">
        <ele>242.6</ele>
        <time>2022-04-22T13:16:58Z</time>
      </trkpt>
      <trkpt lat="46.73453" lon="5.5243">
        <ele>242.6</ele>
        <time>2022-04-22T13:17:05Z</time>
      </trkpt>
      <trkpt lat="46.7346" lon="5.52471">
        <ele>242.4</ele>
        <time>2022-04-22T13:17:09Z</time>
      </trkpt>
      <trkpt lat="46.7346" lon="5.52482">
        <ele>242.2</ele>
        <time>2022-04-22T13:17:10Z</time>
      </trkpt>
      <trkpt lat="46.73459" lon="5.52492">
        <ele>242.2</ele>
        <time>2022-04-22T13:17:11Z</time>
      </trkpt>
      <trkpt lat="46.73454" lon="5.52512">
        <ele>242</ele>
        <time>2022-04-22T13:17:13Z</time>
      </trkpt>
      <trkpt lat="46.7345" lon="5.5252">
        <ele>242</ele>
        <time>2022-04-22T13:17:14Z</time>
      </trkpt>
      <trkpt lat="46.73445" lon="5.52526">
        <ele>242</ele>
        <time>2022-04-22T13:17:15Z</time>
      </trkpt>
      <trkpt lat="46.73434" lon="5.5253">
        <ele>242</ele>
        <time>2022-04-22T13:17:17Z</time>
      </trkpt>
      <trkpt lat="46.73423" lon="5.52524">
        <ele>242.2</ele>
        <time>2022-04-22T13:17:19Z</time>
      </trkpt>
      <trkpt lat="46.73418" lon="5.52518">
        <ele>242.2</ele>
        <time>2022-04-22T13:17:20Z</time>
      </trkpt>
      <trkpt lat="46.73385" lon="5.52476">
        <ele>242.8</ele>
        <time>2022-04-22T13:17:27Z</time>
      </trkpt>
      <trkpt lat="46.73359" lon="5.52443">
        <ele>243.6</ele>
        <time>2022-04-22T13:17:32Z</time>
      </trkpt>
      <trkpt lat="46.73345" lon="5.52425">
        <ele>244.2</ele>
        <time>2022-04-22T13:17:35Z</time>
      </trkpt>
      <trkpt lat="46.73336" lon="5.52413">
        <ele>244.6</ele>
        <time>2022-04-22T13:17:37Z</time>
      </trkpt>
      <trkpt lat="46.73321" lon="5.52396">
        <ele>245.8</ele>
        <time>2022-04-22T13:17:40Z</time>
      </trkpt>
      <trkpt lat="46.73316" lon="5.52392">
        <ele>246</ele>
        <time>2022-04-22T13:17:41Z</time>
      </trkpt>
      <trkpt lat="46.73295" lon="5.52377">
        <ele>246.4</ele>
        <time>2022-04-22T13:17:45Z</time>
      </trkpt>
      <trkpt lat="46.73279" lon="5.5237">
        <ele>246.8</ele>
        <time>2022-04-22T13:17:48Z</time>
      </trkpt>
      <trkpt lat="46.73273" lon="5.52368">
        <ele>246.8</ele>
        <time>2022-04-22T13:17:49Z</time>
      </trkpt>
      <trkpt lat="46.73235" lon="5.52356">
        <ele>247.4</ele>
        <time>2022-04-22T13:17:56Z</time>
      </trkpt>
      <trkpt lat="46.73226" lon="5.52351">
        <ele>247.6</ele>
        <time>2022-04-22T13:17:58Z</time>
      </trkpt>
      <trkpt lat="46.73206" lon="5.52337">
        <ele>248</ele>
        <time>2022-04-22T13:18:02Z</time>
      </trkpt>
      <trkpt lat="46.73187" lon="5.52324">
        <ele>249</ele>
        <time>2022-04-22T13:18:06Z</time>
      </trkpt>
      <trkpt lat="46.73172" lon="5.52317">
        <ele>249.4</ele>
        <time>2022-04-22T13:18:09Z</time>
      </trkpt>
      <trkpt lat="46.73161" lon="5.52315">
        <ele>249.6</ele>
        <time>2022-04-22T13:18:11Z</time>
      </trkpt>
      <trkpt lat="46.73151" lon="5.52314">
        <ele>250</ele>
        <time>2022-04-22T13:18:13Z</time>
      </trkpt>
      <trkpt lat="46.73139" lon="5.52314">
        <ele>250.2</ele>
        <time>2022-04-22T13:18:15Z</time>
      </trkpt>
      <trkpt lat="46.73102" lon="5.52323">
        <ele>251</ele>
        <time>2022-04-22T13:18:22Z</time>
      </trkpt>
      <trkpt lat="46.73097" lon="5.52325">
        <ele>251.4</ele>
        <time>2022-04-22T13:18:23Z</time>
      </trkpt>
      <trkpt lat="46.73077" lon="5.52332">
        <ele>252</ele>
        <time>2022-04-22T13:18:27Z</time>
      </trkpt>
      <trkpt lat="46.7304" lon="5.52342">
        <ele>253.2</ele>
        <time>2022-04-22T13:18:34Z</time>
      </trkpt>
      <trkpt lat="46.73035" lon="5.52344">
        <ele>253.6</ele>
        <time>2022-04-22T13:18:35Z</time>
      </trkpt>
      <trkpt lat="46.73014" lon="5.52351">
        <ele>254.2</ele>
        <time>2022-04-22T13:18:39Z</time>
      </trkpt>
      <trkpt lat="46.72982" lon="5.52362">
        <ele>254.8</ele>
        <time>2022-04-22T13:18:45Z</time>
      </trkpt>
      <trkpt lat="46.72971" lon="5.52365">
        <ele>255.2</ele>
        <time>2022-04-22T13:18:47Z</time>
      </trkpt>
      <trkpt lat="46.72944" lon="5.52374">
        <ele>256.4</ele>
        <time>2022-04-22T13:18:52Z</time>
      </trkpt>
      <trkpt lat="46.72918" lon="5.52383">
        <ele>257.6</ele>
        <time>2022-04-22T13:18:57Z</time>
      </trkpt>
      <trkpt lat="46.72895" lon="5.52391">
        <ele>258.6</ele>
        <time>2022-04-22T13:19:01Z</time>
      </trkpt>
      <trkpt lat="46.7287" lon="5.52398">
        <ele>259.2</ele>
        <time>2022-04-22T13:19:06Z</time>
      </trkpt>
      <trkpt lat="46.72843" lon="5.52407">
        <ele>259.8</ele>
        <time>2022-04-22T13:19:11Z</time>
      </trkpt>
      <trkpt lat="46.72823" lon="5.52414">
        <ele>260.6</ele>
        <time>2022-04-22T13:19:15Z</time>
      </trkpt>
      <trkpt lat="46.72818" lon="5.52415">
        <ele>261</ele>
        <time>2022-04-22T13:19:16Z</time>
      </trkpt>
      <trkpt lat="46.7278" lon="5.52428">
        <ele>262</ele>
        <time>2022-04-22T13:19:23Z</time>
      </trkpt>
      <trkpt lat="46.72758" lon="5.52432">
        <ele>262.8</ele>
        <time>2022-04-22T13:19:27Z</time>
      </trkpt>
      <trkpt lat="46.72741" lon="5.52432">
        <ele>263</ele>
        <time>2022-04-22T13:19:30Z</time>
      </trkpt>
      <trkpt lat="46.72713" lon="5.52427">
        <ele>263.8</ele>
        <time>2022-04-22T13:19:35Z</time>
      </trkpt>
      <trkpt lat="46.72703" lon="5.52423">
        <ele>264.2</ele>
        <time>2022-04-22T13:19:37Z</time>
      </trkpt>
      <trkpt lat="46.72683" lon="5.52409">
        <ele>265</ele>
        <time>2022-04-22T13:19:41Z</time>
      </trkpt>
      <trkpt lat="46.72673" lon="5.52403">
        <ele>265.2</ele>
        <time>2022-04-22T13:19:43Z</time>
      </trkpt>
      <trkpt lat="46.72651" lon="5.52385">
        <ele>266.6</ele>
        <time>2022-04-22T13:19:48Z</time>
      </trkpt>
      <trkpt lat="46.72646" lon="5.52381">
        <ele>266.6</ele>
        <time>2022-04-22T13:19:49Z</time>
      </trkpt>
      <trkpt lat="46.72632" lon="5.52372">
        <ele>267.8</ele>
        <time>2022-04-22T13:19:52Z</time>
      </trkpt>
      <trkpt lat="46.72622" lon="5.52366">
        <ele>268.8</ele>
        <time>2022-04-22T13:19:54Z</time>
      </trkpt>
      <trkpt lat="46.72612" lon="5.52362">
        <ele>269.2</ele>
        <time>2022-04-22T13:19:56Z</time>
      </trkpt>
      <trkpt lat="46.72585" lon="5.52357">
        <ele>269.8</ele>
        <time>2022-04-22T13:20:01Z</time>
      </trkpt>
      <trkpt lat="46.72568" lon="5.52358">
        <ele>270.2</ele>
        <time>2022-04-22T13:20:04Z</time>
      </trkpt>
      <trkpt lat="46.72528" lon="5.5236">
        <ele>270.8</ele>
        <time>2022-04-22T13:20:11Z</time>
      </trkpt>
      <trkpt lat="46.72516" lon="5.52361">
        <ele>271</ele>
        <time>2022-04-22T13:20:13Z</time>
      </trkpt>
      <trkpt lat="46.72477" lon="5.52363">
        <ele>271.6</ele>
        <time>2022-04-22T13:20:20Z</time>
      </trkpt>
      <trkpt lat="46.72467" lon="5.52364">
        <ele>272</ele>
        <time>2022-04-22T13:20:22Z</time>
      </trkpt>
      <trkpt lat="46.72456" lon="5.52365">
        <ele>272.4</ele>
        <time>2022-04-22T13:20:24Z</time>
      </trkpt>
      <trkpt lat="46.7244" lon="5.52369">
        <ele>272.8</ele>
        <time>2022-04-22T13:20:27Z</time>
      </trkpt>
      <trkpt lat="46.72417" lon="5.52375">
        <ele>273.2</ele>
        <time>2022-04-22T13:20:31Z</time>
      </trkpt>
      <trkpt lat="46.72379" lon="5.52383">
        <ele>274</ele>
        <time>2022-04-22T13:20:38Z</time>
      </trkpt>
      <trkpt lat="46.72368" lon="5.52386">
        <ele>274.4</ele>
        <time>2022-04-22T13:20:40Z</time>
      </trkpt>
      <trkpt lat="46.72321" lon="5.52401">
        <ele>275.6</ele>
        <time>2022-04-22T13:20:48Z</time>
      </trkpt>
      <trkpt lat="46.7228" lon="5.52408">
        <ele>276.4</ele>
        <time>2022-04-22T13:20:54Z</time>
      </trkpt>
      <trkpt lat="46.72245" lon="5.52404">
        <ele>276.2</ele>
        <time>2022-04-22T13:20:59Z</time>
      </trkpt>
      <trkpt lat="46.72202" lon="5.52396">
        <ele>276</ele>
        <time>2022-04-22T13:21:05Z</time>
      </trkpt>
      <trkpt lat="46.72188" lon="5.52393">
        <ele>275.8</ele>
        <time>2022-04-22T13:21:07Z</time>
      </trkpt>
      <trkpt lat="46.72173" lon="5.52394">
        <ele>275.4</ele>
        <time>2022-04-22T13:21:09Z</time>
      </trkpt>
      <trkpt lat="46.72153" lon="5.52397">
        <ele>275.2</ele>
        <time>2022-04-22T13:21:11Z</time>
      </trkpt>
      <trkpt lat="46.72136" lon="5.52402">
        <ele>275.2</ele>
        <time>2022-04-22T13:21:13Z</time>
      </trkpt>
      <trkpt lat="46.72119" lon="5.52407">
        <ele>274.4</ele>
        <time>2022-04-22T13:21:15Z</time>
      </trkpt>
      <trkpt lat="46.72097" lon="5.52411">
        <ele>273.2</ele>
        <time>2022-04-22T13:21:17Z</time>
      </trkpt>
      <trkpt lat="46.72079" lon="5.52415">
        <ele>272.2</ele>
        <time>2022-04-22T13:21:19Z</time>
      </trkpt>
      <trkpt lat="46.72067" lon="5.52416">
        <ele>272</ele>
        <time>2022-04-22T13:21:20Z</time>
      </trkpt>
      <trkpt lat="46.72026" lon="5.52421">
        <ele>270.6</ele>
        <time>2022-04-22T13:21:24Z</time>
      </trkpt>
      <trkpt lat="46.72017" lon="5.52423">
        <ele>270.4</ele>
        <time>2022-04-22T13:21:25Z</time>
      </trkpt>
      <trkpt lat="46.72006" lon="5.52428">
        <ele>269.6</ele>
        <time>2022-04-22T13:21:26Z</time>
      </trkpt>
      <trkpt lat="46.72001" lon="5.52432">
        <ele>268.2</ele>
        <time>2022-04-22T13:21:27Z</time>
      </trkpt>
      <trkpt lat="46.71987" lon="5.52448">
        <ele>266.8</ele>
        <time>2022-04-22T13:21:29Z</time>
      </trkpt>
      <trkpt lat="46.71981" lon="5.52453">
        <ele>266.4</ele>
        <time>2022-04-22T13:21:30Z</time>
      </trkpt>
      <trkpt lat="46.71976" lon="5.52458">
        <ele>265.6</ele>
        <time>2022-04-22T13:21:31Z</time>
      </trkpt>
      <trkpt lat="46.71972" lon="5.52463">
        <ele>265.2</ele>
        <time>2022-04-22T13:21:32Z</time>
      </trkpt>
      <trkpt lat="46.71964" lon="5.52478">
        <ele>264.4</ele>
        <time>2022-04-22T13:21:34Z</time>
      </trkpt>
      <trkpt lat="46.71953" lon="5.52506">
        <ele>263.4</ele>
        <time>2022-04-22T13:21:37Z</time>
      </trkpt>
      <trkpt lat="46.71947" lon="5.52517">
        <ele>262.8</ele>
        <time>2022-04-22T13:21:38Z</time>
      </trkpt>
      <trkpt lat="46.71942" lon="5.52526">
        <ele>262.6</ele>
        <time>2022-04-22T13:21:39Z</time>
      </trkpt>
      <trkpt lat="46.71936" lon="5.52535">
        <ele>262.2</ele>
        <time>2022-04-22T13:21:40Z</time>
      </trkpt>
      <trkpt lat="46.71919" lon="5.5256">
        <ele>260.8</ele>
        <time>2022-04-22T13:21:43Z</time>
      </trkpt>
      <trkpt lat="46.71909" lon="5.52574">
        <ele>260.4</ele>
        <time>2022-04-22T13:21:45Z</time>
      </trkpt>
      <trkpt lat="46.71878" lon="5.52631">
        <ele>260.2</ele>
        <time>2022-04-22T13:21:51Z</time>
      </trkpt>
      <trkpt lat="46.71854" lon="5.52701">
        <ele>260.6</ele>
        <time>2022-04-22T13:21:58Z</time>
      </trkpt>
      <trkpt lat="46.71836" lon="5.52773">
        <ele>261.2</ele>
        <time>2022-04-22T13:22:05Z</time>
      </trkpt>
      <trkpt lat="46.71833" lon="5.52804">
        <ele>261.4</ele>
        <time>2022-04-22T13:22:08Z</time>
      </trkpt>
      <trkpt lat="46.7183" lon="5.52824">
        <ele>261.4</ele>
        <time>2022-04-22T13:22:10Z</time>
      </trkpt>
      <trkpt lat="46.71821" lon="5.52866">
        <ele>261.8</ele>
        <time>2022-04-22T13:22:14Z</time>
      </trkpt>
      <trkpt lat="46.71819" lon="5.52876">
        <ele>261.8</ele>
        <time>2022-04-22T13:22:15Z</time>
      </trkpt>
      <trkpt lat="46.71806" lon="5.52947">
        <ele>263</ele>
        <time>2022-04-22T13:22:22Z</time>
      </trkpt>
      <trkpt lat="46.71804" lon="5.52957">
        <ele>263</ele>
        <time>2022-04-22T13:22:23Z</time>
      </trkpt>
      <trkpt lat="46.71797" lon="5.52993">
        <ele>264</ele>
        <time>2022-04-22T13:22:27Z</time>
      </trkpt>
      <trkpt lat="46.71793" lon="5.5301">
        <ele>264.6</ele>
        <time>2022-04-22T13:22:29Z</time>
      </trkpt>
      <trkpt lat="46.71789" lon="5.53037">
        <ele>265</ele>
        <time>2022-04-22T13:22:32Z</time>
      </trkpt>
      <trkpt lat="46.71781" lon="5.53075">
        <ele>266</ele>
        <time>2022-04-22T13:22:36Z</time>
      </trkpt>
      <trkpt lat="46.71765" lon="5.53151">
        <ele>267</ele>
        <time>2022-04-22T13:22:44Z</time>
      </trkpt>
      <trkpt lat="46.71762" lon="5.5316">
        <ele>267.2</ele>
        <time>2022-04-22T13:22:45Z</time>
      </trkpt>
      <trkpt lat="46.71748" lon="5.53203">
        <ele>267.2</ele>
        <time>2022-04-22T13:22:50Z</time>
      </trkpt>
      <trkpt lat="46.71745" lon="5.53211">
        <ele>267.4</ele>
        <time>2022-04-22T13:22:51Z</time>
      </trkpt>
      <trkpt lat="46.71725" lon="5.53271">
        <ele>268.2</ele>
        <time>2022-04-22T13:22:58Z</time>
      </trkpt>
      <trkpt lat="46.71722" lon="5.53279">
        <ele>268.4</ele>
        <time>2022-04-22T13:22:59Z</time>
      </trkpt>
      <trkpt lat="46.71707" lon="5.53325">
        <ele>269.2</ele>
        <time>2022-04-22T13:23:05Z</time>
      </trkpt>
      <trkpt lat="46.71702" lon="5.53343">
        <ele>269.6</ele>
        <time>2022-04-22T13:23:07Z</time>
      </trkpt>
      <trkpt lat="46.71696" lon="5.53365">
        <ele>270.2</ele>
        <time>2022-04-22T13:23:10Z</time>
      </trkpt>
      <trkpt lat="46.71685" lon="5.53406">
        <ele>270.6</ele>
        <time>2022-04-22T13:23:15Z</time>
      </trkpt>
      <trkpt lat="46.71682" lon="5.53415">
        <ele>270.6</ele>
        <time>2022-04-22T13:23:16Z</time>
      </trkpt>
      <trkpt lat="46.71669" lon="5.53443">
        <ele>271.4</ele>
        <time>2022-04-22T13:23:20Z</time>
      </trkpt>
      <trkpt lat="46.71665" lon="5.5345">
        <ele>271.6</ele>
        <time>2022-04-22T13:23:21Z</time>
      </trkpt>
      <trkpt lat="46.71647" lon="5.53471">
        <ele>272</ele>
        <time>2022-04-22T13:23:25Z</time>
      </trkpt>
      <trkpt lat="46.71642" lon="5.53475">
        <ele>272</ele>
        <time>2022-04-22T13:23:26Z</time>
      </trkpt>
      <trkpt lat="46.71626" lon="5.53485">
        <ele>272.4</ele>
        <time>2022-04-22T13:23:29Z</time>
      </trkpt>
      <trkpt lat="46.71616" lon="5.53492">
        <ele>272.6</ele>
        <time>2022-04-22T13:23:31Z</time>
      </trkpt>
      <trkpt lat="46.71594" lon="5.53506">
        <ele>273.6</ele>
        <time>2022-04-22T13:23:35Z</time>
      </trkpt>
      <trkpt lat="46.71572" lon="5.53518">
        <ele>274.2</ele>
        <time>2022-04-22T13:23:39Z</time>
      </trkpt>
      <trkpt lat="46.71551" lon="5.53532">
        <ele>274.8</ele>
        <time>2022-04-22T13:23:43Z</time>
      </trkpt>
      <trkpt lat="46.71538" lon="5.53543">
        <ele>275.2</ele>
        <time>2022-04-22T13:23:46Z</time>
      </trkpt>
      <trkpt lat="46.71507" lon="5.53578">
        <ele>275.8</ele>
        <time>2022-04-22T13:23:52Z</time>
      </trkpt>
      <trkpt lat="46.71502" lon="5.53583">
        <ele>275.8</ele>
        <time>2022-04-22T13:23:53Z</time>
      </trkpt>
      <trkpt lat="46.71469" lon="5.53618">
        <ele>276.8</ele>
        <time>2022-04-22T13:24:00Z</time>
      </trkpt>
      <trkpt lat="46.71439" lon="5.53655">
        <ele>277.8</ele>
        <time>2022-04-22T13:24:07Z</time>
      </trkpt>
      <trkpt lat="46.71435" lon="5.5366">
        <ele>278</ele>
        <time>2022-04-22T13:24:08Z</time>
      </trkpt>
      <trkpt lat="46.71411" lon="5.53675">
        <ele>278.8</ele>
        <time>2022-04-22T13:24:13Z</time>
      </trkpt>
      <trkpt lat="46.71405" lon="5.53677">
        <ele>279</ele>
        <time>2022-04-22T13:24:14Z</time>
      </trkpt>
      <trkpt lat="46.714" lon="5.53679">
        <ele>279</ele>
        <time>2022-04-22T13:24:15Z</time>
      </trkpt>
      <trkpt lat="46.71375" lon="5.53686">
        <ele>280</ele>
        <time>2022-04-22T13:24:20Z</time>
      </trkpt>
      <trkpt lat="46.7137" lon="5.53687">
        <ele>280.2</ele>
        <time>2022-04-22T13:24:21Z</time>
      </trkpt>
      <trkpt lat="46.7136" lon="5.53689">
        <ele>280.6</ele>
        <time>2022-04-22T13:24:23Z</time>
      </trkpt>
      <trkpt lat="46.71344" lon="5.53691">
        <ele>281.2</ele>
        <time>2022-04-22T13:24:26Z</time>
      </trkpt>
      <trkpt lat="46.71339" lon="5.53692">
        <ele>281.2</ele>
        <time>2022-04-22T13:24:27Z</time>
      </trkpt>
      <trkpt lat="46.71324" lon="5.53695">
        <ele>282</ele>
        <time>2022-04-22T13:24:30Z</time>
      </trkpt>
      <trkpt lat="46.71313" lon="5.53697">
        <ele>282.2</ele>
        <time>2022-04-22T13:24:32Z</time>
      </trkpt>
      <trkpt lat="46.71286" lon="5.53704">
        <ele>283.2</ele>
        <time>2022-04-22T13:24:37Z</time>
      </trkpt>
      <trkpt lat="46.71276" lon="5.53707">
        <ele>283.8</ele>
        <time>2022-04-22T13:24:39Z</time>
      </trkpt>
      <trkpt lat="46.7126" lon="5.53715">
        <ele>284.4</ele>
        <time>2022-04-22T13:24:42Z</time>
      </trkpt>
      <trkpt lat="46.71247" lon="5.53724">
        <ele>285</ele>
        <time>2022-04-22T13:24:45Z</time>
      </trkpt>
      <trkpt lat="46.71237" lon="5.53723">
        <ele>285.2</ele>
        <time>2022-04-22T13:24:48Z</time>
      </trkpt>
      <trkpt lat="46.71231" lon="5.53714">
        <ele>285.4</ele>
        <time>2022-04-22T13:24:50Z</time>
      </trkpt>
      <trkpt lat="46.71226" lon="5.53704">
        <ele>285.8</ele>
        <time>2022-04-22T13:24:52Z</time>
      </trkpt>
      <trkpt lat="46.71221" lon="5.53695">
        <ele>286.6</ele>
        <time>2022-04-22T13:24:54Z</time>
      </trkpt>
      <trkpt lat="46.71209" lon="5.53674">
        <ele>287.8</ele>
        <time>2022-04-22T13:24:58Z</time>
      </trkpt>
      <trkpt lat="46.71204" lon="5.53666">
        <ele>288.4</ele>
        <time>2022-04-22T13:25:00Z</time>
      </trkpt>
      <trkpt lat="46.71193" lon="5.53653">
        <ele>288.8</ele>
        <time>2022-04-22T13:25:03Z</time>
      </trkpt>
      <trkpt lat="46.71187" lon="5.53645">
        <ele>290.2</ele>
        <time>2022-04-22T13:25:05Z</time>
      </trkpt>
      <trkpt lat="46.7117" lon="5.53628">
        <ele>290.8</ele>
        <time>2022-04-22T13:25:09Z</time>
      </trkpt>
      <trkpt lat="46.71161" lon="5.5362">
        <ele>291.2</ele>
        <time>2022-04-22T13:25:11Z</time>
      </trkpt>
      <trkpt lat="46.71144" lon="5.53605">
        <ele>291.6</ele>
        <time>2022-04-22T13:25:14Z</time>
      </trkpt>
      <trkpt lat="46.71114" lon="5.53568">
        <ele>291.4</ele>
        <time>2022-04-22T13:25:19Z</time>
      </trkpt>
      <trkpt lat="46.71096" lon="5.53542">
        <ele>290</ele>
        <time>2022-04-22T13:25:22Z</time>
      </trkpt>
      <trkpt lat="46.7108" lon="5.53514">
        <ele>289</ele>
        <time>2022-04-22T13:25:25Z</time>
      </trkpt>
      <trkpt lat="46.71065" lon="5.53487">
        <ele>287.8</ele>
        <time>2022-04-22T13:25:28Z</time>
      </trkpt>
      <trkpt lat="46.71053" lon="5.53464">
        <ele>286.2</ele>
        <time>2022-04-22T13:25:30Z</time>
      </trkpt>
      <trkpt lat="46.71048" lon="5.53453">
        <ele>285.8</ele>
        <time>2022-04-22T13:25:31Z</time>
      </trkpt>
      <trkpt lat="46.71043" lon="5.53443">
        <ele>285</ele>
        <time>2022-04-22T13:25:32Z</time>
      </trkpt>
      <trkpt lat="46.7103" lon="5.53417">
        <ele>283.8</ele>
        <time>2022-04-22T13:25:34Z</time>
      </trkpt>
      <trkpt lat="46.7101" lon="5.53381">
        <ele>282.4</ele>
        <time>2022-04-22T13:25:37Z</time>
      </trkpt>
      <trkpt lat="46.70995" lon="5.53357">
        <ele>281.2</ele>
        <time>2022-04-22T13:25:39Z</time>
      </trkpt>
      <trkpt lat="46.70979" lon="5.53332">
        <ele>280.2</ele>
        <time>2022-04-22T13:25:41Z</time>
      </trkpt>
      <trkpt lat="46.70964" lon="5.53305">
        <ele>278.2</ele>
        <time>2022-04-22T13:25:43Z</time>
      </trkpt>
      <trkpt lat="46.70954" lon="5.53277">
        <ele>276.8</ele>
        <time>2022-04-22T13:25:45Z</time>
      </trkpt>
      <trkpt lat="46.70948" lon="5.53261">
        <ele>275.8</ele>
        <time>2022-04-22T13:25:46Z</time>
      </trkpt>
      <trkpt lat="46.70941" lon="5.53242">
        <ele>275.4</ele>
        <time>2022-04-22T13:25:47Z</time>
      </trkpt>
      <trkpt lat="46.70935" lon="5.53226">
        <ele>274.4</ele>
        <time>2022-04-22T13:25:48Z</time>
      </trkpt>
      <trkpt lat="46.70924" lon="5.53197">
        <ele>273</ele>
        <time>2022-04-22T13:25:50Z</time>
      </trkpt>
      <trkpt lat="46.70905" lon="5.53147">
        <ele>271</ele>
        <time>2022-04-22T13:25:53Z</time>
      </trkpt>
      <trkpt lat="46.70901" lon="5.53134">
        <ele>270.4</ele>
        <time>2022-04-22T13:25:54Z</time>
      </trkpt>
      <trkpt lat="46.70895" lon="5.53118">
        <ele>269.4</ele>
        <time>2022-04-22T13:25:55Z</time>
      </trkpt>
      <trkpt lat="46.70885" lon="5.53083">
        <ele>267.2</ele>
        <time>2022-04-22T13:25:57Z</time>
      </trkpt>
      <trkpt lat="46.70876" lon="5.53056">
        <ele>266.4</ele>
        <time>2022-04-22T13:25:59Z</time>
      </trkpt>
      <trkpt lat="46.70859" lon="5.53007">
        <ele>265.2</ele>
        <time>2022-04-22T13:26:02Z</time>
      </trkpt>
      <trkpt lat="46.7085" lon="5.52981">
        <ele>264</ele>
        <time>2022-04-22T13:26:04Z</time>
      </trkpt>
      <trkpt lat="46.7084" lon="5.52951">
        <ele>263.2</ele>
        <time>2022-04-22T13:26:06Z</time>
      </trkpt>
      <trkpt lat="46.70836" lon="5.52933">
        <ele>262.6</ele>
        <time>2022-04-22T13:26:07Z</time>
      </trkpt>
      <trkpt lat="46.7083" lon="5.52893">
        <ele>262</ele>
        <time>2022-04-22T13:26:10Z</time>
      </trkpt>
      <trkpt lat="46.70826" lon="5.52876">
        <ele>261.8</ele>
        <time>2022-04-22T13:26:11Z</time>
      </trkpt>
      <trkpt lat="46.70814" lon="5.52839">
        <ele>261.8</ele>
        <time>2022-04-22T13:26:14Z</time>
      </trkpt>
      <trkpt lat="46.7079" lon="5.52789">
        <ele>261.6</ele>
        <time>2022-04-22T13:26:19Z</time>
      </trkpt>
      <trkpt lat="46.70783" lon="5.52778">
        <ele>261.6</ele>
        <time>2022-04-22T13:26:20Z</time>
      </trkpt>
      <trkpt lat="46.70777" lon="5.52772">
        <ele>261.6</ele>
        <time>2022-04-22T13:26:21Z</time>
      </trkpt>
      <trkpt lat="46.70769" lon="5.52765">
        <ele>261.4</ele>
        <time>2022-04-22T13:26:22Z</time>
      </trkpt>
      <trkpt lat="46.70731" lon="5.52734">
        <ele>260.6</ele>
        <time>2022-04-22T13:26:27Z</time>
      </trkpt>
      <trkpt lat="46.70723" lon="5.52722">
        <ele>260.4</ele>
        <time>2022-04-22T13:26:29Z</time>
      </trkpt>
      <trkpt lat="46.70722" lon="5.52714">
        <ele>260.4</ele>
        <time>2022-04-22T13:26:30Z</time>
      </trkpt>
      <trkpt lat="46.70722" lon="5.52706">
        <ele>260.4</ele>
        <time>2022-04-22T13:26:31Z</time>
      </trkpt>
      <trkpt lat="46.70724" lon="5.52701">
        <ele>260.4</ele>
        <time>2022-04-22T13:26:32Z</time>
      </trkpt>
      <trkpt lat="46.70728" lon="5.52695">
        <ele>260.4</ele>
        <time>2022-04-22T13:26:33Z</time>
      </trkpt>
      <trkpt lat="46.70748" lon="5.52669">
        <ele>260.6</ele>
        <time>2022-04-22T13:26:38Z</time>
      </trkpt>
      <trkpt lat="46.70772" lon="5.52643">
        <ele>261.8</ele>
        <time>2022-04-22T13:26:44Z</time>
      </trkpt>
      <trkpt lat="46.70776" lon="5.52638">
        <ele>261.8</ele>
        <time>2022-04-22T13:26:45Z</time>
      </trkpt>
      <trkpt lat="46.70782" lon="5.5263">
        <ele>262.6</ele>
        <time>2022-04-22T13:26:47Z</time>
      </trkpt>
      <trkpt lat="46.70789" lon="5.5262">
        <ele>262.8</ele>
        <time>2022-04-22T13:26:49Z</time>
      </trkpt>
      <trkpt lat="46.708" lon="5.52609">
        <ele>264</ele>
        <time>2022-04-22T13:26:52Z</time>
      </trkpt>
      <trkpt lat="46.70805" lon="5.52602">
        <ele>265.2</ele>
        <time>2022-04-22T13:26:54Z</time>
      </trkpt>
      <trkpt lat="46.70808" lon="5.52598">
        <ele>265.8</ele>
        <time>2022-04-22T13:26:55Z</time>
      </trkpt>
      <trkpt lat="46.70811" lon="5.52595">
        <ele>266</ele>
        <time>2022-04-22T13:26:56Z</time>
      </trkpt>
      <trkpt lat="46.70825" lon="5.52579">
        <ele>267.8</ele>
        <time>2022-04-22T13:27:01Z</time>
      </trkpt>
      <trkpt lat="46.70831" lon="5.52574">
        <ele>268.6</ele>
        <time>2022-04-22T13:27:03Z</time>
      </trkpt>
      <trkpt lat="46.70834" lon="5.52571">
        <ele>269</ele>
        <time>2022-04-22T13:27:04Z</time>
      </trkpt>
      <trkpt lat="46.70845" lon="5.52561">
        <ele>270</ele>
        <time>2022-04-22T13:27:08Z</time>
      </trkpt>
      <trkpt lat="46.70847" lon="5.52557">
        <ele>270.6</ele>
        <time>2022-04-22T13:27:09Z</time>
      </trkpt>
      <trkpt lat="46.70853" lon="5.52552">
        <ele>271.4</ele>
        <time>2022-04-22T13:27:11Z</time>
      </trkpt>
      <trkpt lat="46.70861" lon="5.5255">
        <ele>271.8</ele>
        <time>2022-04-22T13:27:13Z</time>
      </trkpt>
      <trkpt lat="46.7088" lon="5.52547">
        <ele>272.4</ele>
        <time>2022-04-22T13:27:18Z</time>
      </trkpt>
      <trkpt lat="46.70888" lon="5.52545">
        <ele>273</ele>
        <time>2022-04-22T13:27:20Z</time>
      </trkpt>
      <trkpt lat="46.70899" lon="5.52541">
        <ele>273.6</ele>
        <time>2022-04-22T13:27:23Z</time>
      </trkpt>
      <trkpt lat="46.70921" lon="5.52533">
        <ele>274.4</ele>
        <time>2022-04-22T13:27:28Z</time>
      </trkpt>
      <trkpt lat="46.70925" lon="5.52531">
        <ele>274.8</ele>
        <time>2022-04-22T13:27:29Z</time>
      </trkpt>
      <trkpt lat="46.70952" lon="5.5251">
        <ele>275.6</ele>
        <time>2022-04-22T13:27:36Z</time>
      </trkpt>
      <trkpt lat="46.70959" lon="5.52503">
        <ele>276</ele>
        <time>2022-04-22T13:27:38Z</time>
      </trkpt>
      <trkpt lat="46.70972" lon="5.52485">
        <ele>276.4</ele>
        <time>2022-04-22T13:27:42Z</time>
      </trkpt>
      <trkpt lat="46.70975" lon="5.52481">
        <ele>276.4</ele>
        <time>2022-04-22T13:27:43Z</time>
      </trkpt>
      <trkpt lat="46.70981" lon="5.52467">
        <ele>277.2</ele>
        <time>2022-04-22T13:27:46Z</time>
      </trkpt>
      <trkpt lat="46.70983" lon="5.52461">
        <ele>277.6</ele>
        <time>2022-04-22T13:27:47Z</time>
      </trkpt>
      <trkpt lat="46.70985" lon="5.52451">
        <ele>278.2</ele>
        <time>2022-04-22T13:27:49Z</time>
      </trkpt>
      <trkpt lat="46.70988" lon="5.52437">
        <ele>279.2</ele>
        <time>2022-04-22T13:27:52Z</time>
      </trkpt>
      <trkpt lat="46.70993" lon="5.52413">
        <ele>280.4</ele>
        <time>2022-04-22T13:27:56Z</time>
      </trkpt>
      <trkpt lat="46.70998" lon="5.52396">
        <ele>281.2</ele>
        <time>2022-04-22T13:27:59Z</time>
      </trkpt>
      <trkpt lat="46.71002" lon="5.52385">
        <ele>281.4</ele>
        <time>2022-04-22T13:28:01Z</time>
      </trkpt>
      <trkpt lat="46.71008" lon="5.52373">
        <ele>281.4</ele>
        <time>2022-04-22T13:28:03Z</time>
      </trkpt>
      <trkpt lat="46.71014" lon="5.52362">
        <ele>281.8</ele>
        <time>2022-04-22T13:28:05Z</time>
      </trkpt>
      <trkpt lat="46.7102" lon="5.5235">
        <ele>282</ele>
        <time>2022-04-22T13:28:07Z</time>
      </trkpt>
      <trkpt lat="46.71032" lon="5.52329">
        <ele>282</ele>
        <time>2022-04-22T13:28:11Z</time>
      </trkpt>
      <trkpt lat="46.71053" lon="5.52309">
        <ele>282.2</ele>
        <time>2022-04-22T13:28:16Z</time>
      </trkpt>
      <trkpt lat="46.71059" lon="5.52306">
        <ele>282.2</ele>
        <time>2022-04-22T13:28:17Z</time>
      </trkpt>
      <trkpt lat="46.71081" lon="5.52287">
        <ele>282.2</ele>
        <time>2022-04-22T13:28:21Z</time>
      </trkpt>
      <trkpt lat="46.711" lon="5.52267">
        <ele>282</ele>
        <time>2022-04-22T13:28:24Z</time>
      </trkpt>
      <trkpt lat="46.71112" lon="5.52249">
        <ele>281.6</ele>
        <time>2022-04-22T13:28:26Z</time>
      </trkpt>
      <trkpt lat="46.71121" lon="5.52226">
        <ele>280.8</ele>
        <time>2022-04-22T13:28:28Z</time>
      </trkpt>
      <trkpt lat="46.71124" lon="5.52214">
        <ele>280.2</ele>
        <time>2022-04-22T13:28:29Z</time>
      </trkpt>
      <trkpt lat="46.71129" lon="5.52181">
        <ele>278.8</ele>
        <time>2022-04-22T13:28:31Z</time>
      </trkpt>
      <trkpt lat="46.71129" lon="5.52164">
        <ele>278.2</ele>
        <time>2022-04-22T13:28:32Z</time>
      </trkpt>
      <trkpt lat="46.71128" lon="5.52151">
        <ele>277</ele>
        <time>2022-04-22T13:28:33Z</time>
      </trkpt>
      <trkpt lat="46.71126" lon="5.52134">
        <ele>275.8</ele>
        <time>2022-04-22T13:28:34Z</time>
      </trkpt>
      <trkpt lat="46.71122" lon="5.52118">
        <ele>275.2</ele>
        <time>2022-04-22T13:28:35Z</time>
      </trkpt>
      <trkpt lat="46.71117" lon="5.52102">
        <ele>274.2</ele>
        <time>2022-04-22T13:28:36Z</time>
      </trkpt>
      <trkpt lat="46.71102" lon="5.52072">
        <ele>272.8</ele>
        <time>2022-04-22T13:28:38Z</time>
      </trkpt>
      <trkpt lat="46.71089" lon="5.52047">
        <ele>271</ele>
        <time>2022-04-22T13:28:40Z</time>
      </trkpt>
      <trkpt lat="46.71067" lon="5.5201">
        <ele>269.2</ele>
        <time>2022-04-22T13:28:43Z</time>
      </trkpt>
      <trkpt lat="46.71054" lon="5.51985">
        <ele>268.2</ele>
        <time>2022-04-22T13:28:45Z</time>
      </trkpt>
      <trkpt lat="46.71048" lon="5.51971">
        <ele>267.8</ele>
        <time>2022-04-22T13:28:46Z</time>
      </trkpt>
      <trkpt lat="46.71043" lon="5.51957">
        <ele>267.2</ele>
        <time>2022-04-22T13:28:47Z</time>
      </trkpt>
      <trkpt lat="46.71036" lon="5.51928">
        <ele>266.4</ele>
        <time>2022-04-22T13:28:49Z</time>
      </trkpt>
      <trkpt lat="46.71026" lon="5.51862">
        <ele>265.6</ele>
        <time>2022-04-22T13:28:54Z</time>
      </trkpt>
      <trkpt lat="46.71014" lon="5.5182">
        <ele>266.6</ele>
        <time>2022-04-22T13:28:58Z</time>
      </trkpt>
      <trkpt lat="46.71003" lon="5.51796">
        <ele>267.8</ele>
        <time>2022-04-22T13:29:01Z</time>
      </trkpt>
      <trkpt lat="46.70998" lon="5.51787">
        <ele>268</ele>
        <time>2022-04-22T13:29:02Z</time>
      </trkpt>
      <trkpt lat="46.70993" lon="5.51781">
        <ele>268.4</ele>
        <time>2022-04-22T13:29:03Z</time>
      </trkpt>
      <trkpt lat="46.70983" lon="5.51769">
        <ele>269</ele>
        <time>2022-04-22T13:29:05Z</time>
      </trkpt>
      <trkpt lat="46.70969" lon="5.51753">
        <ele>270</ele>
        <time>2022-04-22T13:29:08Z</time>
      </trkpt>
      <trkpt lat="46.70964" lon="5.51748">
        <ele>270.4</ele>
        <time>2022-04-22T13:29:09Z</time>
      </trkpt>
      <trkpt lat="46.70949" lon="5.51735">
        <ele>271.4</ele>
        <time>2022-04-22T13:29:12Z</time>
      </trkpt>
      <trkpt lat="46.70936" lon="5.51722">
        <ele>273</ele>
        <time>2022-04-22T13:29:15Z</time>
      </trkpt>
      <trkpt lat="46.70918" lon="5.51704">
        <ele>274</ele>
        <time>2022-04-22T13:29:19Z</time>
      </trkpt>
      <trkpt lat="46.70905" lon="5.51689">
        <ele>275.2</ele>
        <time>2022-04-22T13:29:22Z</time>
      </trkpt>
      <trkpt lat="46.70891" lon="5.51673">
        <ele>276.4</ele>
        <time>2022-04-22T13:29:25Z</time>
      </trkpt>
      <trkpt lat="46.70872" lon="5.51646">
        <ele>277.4</ele>
        <time>2022-04-22T13:29:30Z</time>
      </trkpt>
      <trkpt lat="46.70859" lon="5.51631">
        <ele>278.6</ele>
        <time>2022-04-22T13:29:33Z</time>
      </trkpt>
      <trkpt lat="46.70852" lon="5.51621">
        <ele>279.6</ele>
        <time>2022-04-22T13:29:35Z</time>
      </trkpt>
      <trkpt lat="46.70837" lon="5.51604">
        <ele>281</ele>
        <time>2022-04-22T13:29:39Z</time>
      </trkpt>
      <trkpt lat="46.70832" lon="5.51599">
        <ele>281.4</ele>
        <time>2022-04-22T13:29:40Z</time>
      </trkpt>
      <trkpt lat="46.70821" lon="5.51587">
        <ele>282.2</ele>
        <time>2022-04-22T13:29:43Z</time>
      </trkpt>
      <trkpt lat="46.7081" lon="5.51575">
        <ele>283</ele>
        <time>2022-04-22T13:29:46Z</time>
      </trkpt>
      <trkpt lat="46.70807" lon="5.5157">
        <ele>283.2</ele>
        <time>2022-04-22T13:29:47Z</time>
      </trkpt>
      <trkpt lat="46.7079" lon="5.51543">
        <ele>283.4</ele>
        <time>2022-04-22T13:29:52Z</time>
      </trkpt>
      <trkpt lat="46.70788" lon="5.51537">
        <ele>283.4</ele>
        <time>2022-04-22T13:29:53Z</time>
      </trkpt>
      <trkpt lat="46.70784" lon="5.51523">
        <ele>283.4</ele>
        <time>2022-04-22T13:29:55Z</time>
      </trkpt>
      <trkpt lat="46.70782" lon="5.51502">
        <ele>283.4</ele>
        <time>2022-04-22T13:29:58Z</time>
      </trkpt>
      <trkpt lat="46.70781" lon="5.51483">
        <ele>284</ele>
        <time>2022-04-22T13:30:01Z</time>
      </trkpt>
      <trkpt lat="46.70781" lon="5.51476">
        <ele>284.2</ele>
        <time>2022-04-22T13:30:02Z</time>
      </trkpt>
      <trkpt lat="46.7078" lon="5.5147">
        <ele>284.4</ele>
        <time>2022-04-22T13:30:03Z</time>
      </trkpt>
      <trkpt lat="46.70774" lon="5.51424">
        <ele>285</ele>
        <time>2022-04-22T13:30:09Z</time>
      </trkpt>
      <trkpt lat="46.7077" lon="5.51371">
        <ele>285</ele>
        <time>2022-04-22T13:30:14Z</time>
      </trkpt>
      <trkpt lat="46.7077" lon="5.51359">
        <ele>284.6</ele>
        <time>2022-04-22T13:30:15Z</time>
      </trkpt>
      <trkpt lat="46.70775" lon="5.51335">
        <ele>284.2</ele>
        <time>2022-04-22T13:30:17Z</time>
      </trkpt>
      <trkpt lat="46.70793" lon="5.51305">
        <ele>283</ele>
        <time>2022-04-22T13:30:20Z</time>
      </trkpt>
      <trkpt lat="46.70807" lon="5.51287">
        <ele>281.6</ele>
        <time>2022-04-22T13:30:22Z</time>
      </trkpt>
      <trkpt lat="46.70822" lon="5.51268">
        <ele>280</ele>
        <time>2022-04-22T13:30:24Z</time>
      </trkpt>
      <trkpt lat="46.70845" lon="5.51239">
        <ele>279</ele>
        <time>2022-04-22T13:30:27Z</time>
      </trkpt>
      <trkpt lat="46.7085" lon="5.51227">
        <ele>277.6</ele>
        <time>2022-04-22T13:30:28Z</time>
      </trkpt>
      <trkpt lat="46.70859" lon="5.51199">
        <ele>275.8</ele>
        <time>2022-04-22T13:30:30Z</time>
      </trkpt>
      <trkpt lat="46.70864" lon="5.51171">
        <ele>274.6</ele>
        <time>2022-04-22T13:30:32Z</time>
      </trkpt>
      <trkpt lat="46.70864" lon="5.51128">
        <ele>273.2</ele>
        <time>2022-04-22T13:30:35Z</time>
      </trkpt>
      <trkpt lat="46.70864" lon="5.51115">
        <ele>273.2</ele>
        <time>2022-04-22T13:30:36Z</time>
      </trkpt>
      <trkpt lat="46.70858" lon="5.51053">
        <ele>272.6</ele>
        <time>2022-04-22T13:30:41Z</time>
      </trkpt>
      <trkpt lat="46.70856" lon="5.51041">
        <ele>272.6</ele>
        <time>2022-04-22T13:30:42Z</time>
      </trkpt>
      <trkpt lat="46.70848" lon="5.51019">
        <ele>272.8</ele>
        <time>2022-04-22T13:30:44Z</time>
      </trkpt>
      <trkpt lat="46.70816" lon="5.50965">
        <ele>272.4</ele>
        <time>2022-04-22T13:30:49Z</time>
      </trkpt>
      <trkpt lat="46.7081" lon="5.50952">
        <ele>272.4</ele>
        <time>2022-04-22T13:30:50Z</time>
      </trkpt>
      <trkpt lat="46.70797" lon="5.50925">
        <ele>271.2</ele>
        <time>2022-04-22T13:30:52Z</time>
      </trkpt>
      <trkpt lat="46.70791" lon="5.50911">
        <ele>270.4</ele>
        <time>2022-04-22T13:30:53Z</time>
      </trkpt>
      <trkpt lat="46.70786" lon="5.50896">
        <ele>269.8</ele>
        <time>2022-04-22T13:30:54Z</time>
      </trkpt>
      <trkpt lat="46.70783" lon="5.50879">
        <ele>269</ele>
        <time>2022-04-22T13:30:55Z</time>
      </trkpt>
      <trkpt lat="46.70781" lon="5.50861">
        <ele>267.6</ele>
        <time>2022-04-22T13:30:56Z</time>
      </trkpt>
      <trkpt lat="46.70781" lon="5.50844">
        <ele>266.8</ele>
        <time>2022-04-22T13:30:57Z</time>
      </trkpt>
      <trkpt lat="46.7078" lon="5.50826">
        <ele>265.4</ele>
        <time>2022-04-22T13:30:58Z</time>
      </trkpt>
      <trkpt lat="46.7078" lon="5.5079">
        <ele>262.8</ele>
        <time>2022-04-22T13:31:00Z</time>
      </trkpt>
      <trkpt lat="46.70779" lon="5.50772">
        <ele>262.4</ele>
        <time>2022-04-22T13:31:01Z</time>
      </trkpt>
      <trkpt lat="46.70779" lon="5.50755">
        <ele>260.8</ele>
        <time>2022-04-22T13:31:02Z</time>
      </trkpt>
      <trkpt lat="46.7078" lon="5.50739">
        <ele>259.6</ele>
        <time>2022-04-22T13:31:03Z</time>
      </trkpt>
      <trkpt lat="46.70782" lon="5.50723">
        <ele>259.2</ele>
        <time>2022-04-22T13:31:04Z</time>
      </trkpt>
      <trkpt lat="46.70787" lon="5.50707">
        <ele>258.2</ele>
        <time>2022-04-22T13:31:05Z</time>
      </trkpt>
      <trkpt lat="46.70799" lon="5.50677">
        <ele>256.4</ele>
        <time>2022-04-22T13:31:07Z</time>
      </trkpt>
      <trkpt lat="46.70813" lon="5.50648">
        <ele>254.4</ele>
        <time>2022-04-22T13:31:09Z</time>
      </trkpt>
      <trkpt lat="46.70818" lon="5.50633">
        <ele>253.6</ele>
        <time>2022-04-22T13:31:10Z</time>
      </trkpt>
      <trkpt lat="46.70822" lon="5.50617">
        <ele>252.6</ele>
        <time>2022-04-22T13:31:11Z</time>
      </trkpt>
      <trkpt lat="46.70822" lon="5.50598">
        <ele>251</ele>
        <time>2022-04-22T13:31:12Z</time>
      </trkpt>
      <trkpt lat="46.70819" lon="5.50583">
        <ele>250</ele>
        <time>2022-04-22T13:31:13Z</time>
      </trkpt>
      <trkpt lat="46.70813" lon="5.50561">
        <ele>248.6</ele>
        <time>2022-04-22T13:31:14Z</time>
      </trkpt>
      <trkpt lat="46.70804" lon="5.50529">
        <ele>246.6</ele>
        <time>2022-04-22T13:31:16Z</time>
      </trkpt>
      <trkpt lat="46.70802" lon="5.50512">
        <ele>245.2</ele>
        <time>2022-04-22T13:31:17Z</time>
      </trkpt>
      <trkpt lat="46.70803" lon="5.50495">
        <ele>244.8</ele>
        <time>2022-04-22T13:31:18Z</time>
      </trkpt>
      <trkpt lat="46.70805" lon="5.50477">
        <ele>243.4</ele>
        <time>2022-04-22T13:31:19Z</time>
      </trkpt>
      <trkpt lat="46.70809" lon="5.5044">
        <ele>241.6</ele>
        <time>2022-04-22T13:31:21Z</time>
      </trkpt>
      <trkpt lat="46.70812" lon="5.50402">
        <ele>240</ele>
        <time>2022-04-22T13:31:23Z</time>
      </trkpt>
      <trkpt lat="46.7081" lon="5.50383">
        <ele>239</ele>
        <time>2022-04-22T13:31:24Z</time>
      </trkpt>
      <trkpt lat="46.70807" lon="5.50364">
        <ele>237.4</ele>
        <time>2022-04-22T13:31:25Z</time>
      </trkpt>
      <trkpt lat="46.708" lon="5.50347">
        <ele>235.6</ele>
        <time>2022-04-22T13:31:26Z</time>
      </trkpt>
      <trkpt lat="46.70786" lon="5.50319">
        <ele>233.6</ele>
        <time>2022-04-22T13:31:28Z</time>
      </trkpt>
      <trkpt lat="46.70768" lon="5.5029">
        <ele>231.4</ele>
        <time>2022-04-22T13:31:30Z</time>
      </trkpt>
      <trkpt lat="46.70751" lon="5.50265">
        <ele>228.8</ele>
        <time>2022-04-22T13:31:32Z</time>
      </trkpt>
      <trkpt lat="46.70742" lon="5.50253">
        <ele>227.8</ele>
        <time>2022-04-22T13:31:33Z</time>
      </trkpt>
      <trkpt lat="46.70721" lon="5.50216">
        <ele>226.6</ele>
        <time>2022-04-22T13:31:36Z</time>
      </trkpt>
      <trkpt lat="46.70716" lon="5.50203">
        <ele>226.4</ele>
        <time>2022-04-22T13:31:37Z</time>
      </trkpt>
      <trkpt lat="46.70711" lon="5.50189">
        <ele>226.4</ele>
        <time>2022-04-22T13:31:38Z</time>
      </trkpt>
      <trkpt lat="46.70707" lon="5.50161">
        <ele>226</ele>
        <time>2022-04-22T13:31:40Z</time>
      </trkpt>
      <trkpt lat="46.70702" lon="5.50074">
        <ele>226.2</ele>
        <time>2022-04-22T13:31:47Z</time>
      </trkpt>
      <trkpt lat="46.70696" lon="5.50012">
        <ele>228</ele>
        <time>2022-04-22T13:31:53Z</time>
      </trkpt>
      <trkpt lat="46.70695" lon="5.5">
        <ele>228.2</ele>
        <time>2022-04-22T13:31:54Z</time>
      </trkpt>
      <trkpt lat="46.7069" lon="5.49972">
        <ele>229</ele>
        <time>2022-04-22T13:31:57Z</time>
      </trkpt>
      <trkpt lat="46.70688" lon="5.49961">
        <ele>229.2</ele>
        <time>2022-04-22T13:31:58Z</time>
      </trkpt>
      <trkpt lat="46.70683" lon="5.49942">
        <ele>229.2</ele>
        <time>2022-04-22T13:32:00Z</time>
      </trkpt>
      <trkpt lat="46.70669" lon="5.49876">
        <ele>229.6</ele>
        <time>2022-04-22T13:32:07Z</time>
      </trkpt>
      <trkpt lat="46.70662" lon="5.49839">
        <ele>230</ele>
        <time>2022-04-22T13:32:11Z</time>
      </trkpt>
      <trkpt lat="46.70656" lon="5.49811">
        <ele>230.2</ele>
        <time>2022-04-22T13:32:14Z</time>
      </trkpt>
      <trkpt lat="46.70655" lon="5.49802">
        <ele>230.2</ele>
        <time>2022-04-22T13:32:15Z</time>
      </trkpt>
      <trkpt lat="46.70651" lon="5.49775">
        <ele>231</ele>
        <time>2022-04-22T13:32:18Z</time>
      </trkpt>
      <trkpt lat="46.70649" lon="5.49763">
        <ele>231</ele>
        <time>2022-04-22T13:32:19Z</time>
      </trkpt>
      <trkpt lat="46.70635" lon="5.49705">
        <ele>231.4</ele>
        <time>2022-04-22T13:32:24Z</time>
      </trkpt>
      <trkpt lat="46.70624" lon="5.4966">
        <ele>231</ele>
        <time>2022-04-22T13:32:28Z</time>
      </trkpt>
      <trkpt lat="46.7062" lon="5.49638">
        <ele>230</ele>
        <time>2022-04-22T13:32:30Z</time>
      </trkpt>
      <trkpt lat="46.70618" lon="5.49628">
        <ele>229.8</ele>
        <time>2022-04-22T13:32:31Z</time>
      </trkpt>
      <trkpt lat="46.70602" lon="5.49553">
        <ele>229.6</ele>
        <time>2022-04-22T13:32:38Z</time>
      </trkpt>
      <trkpt lat="46.70597" lon="5.49531">
        <ele>229.6</ele>
        <time>2022-04-22T13:32:40Z</time>
      </trkpt>
      <trkpt lat="46.70588" lon="5.4949">
        <ele>228.8</ele>
        <time>2022-04-22T13:32:44Z</time>
      </trkpt>
      <trkpt lat="46.70582" lon="5.49461">
        <ele>229.6</ele>
        <time>2022-04-22T13:32:47Z</time>
      </trkpt>
      <trkpt lat="46.70575" lon="5.49428">
        <ele>229.8</ele>
        <time>2022-04-22T13:32:51Z</time>
      </trkpt>
      <trkpt lat="46.70573" lon="5.49418">
        <ele>230</ele>
        <time>2022-04-22T13:32:52Z</time>
      </trkpt>
      <trkpt lat="46.70565" lon="5.4938">
        <ele>230.8</ele>
        <time>2022-04-22T13:32:57Z</time>
      </trkpt>
      <trkpt lat="46.70563" lon="5.49373">
        <ele>231.4</ele>
        <time>2022-04-22T13:32:58Z</time>
      </trkpt>
      <trkpt lat="46.70557" lon="5.4935">
        <ele>232</ele>
        <time>2022-04-22T13:33:01Z</time>
      </trkpt>
      <trkpt lat="46.70554" lon="5.49333">
        <ele>232.4</ele>
        <time>2022-04-22T13:33:03Z</time>
      </trkpt>
      <trkpt lat="46.70545" lon="5.49282">
        <ele>232.4</ele>
        <time>2022-04-22T13:33:08Z</time>
      </trkpt>
      <trkpt lat="46.70533" lon="5.49228">
        <ele>231.6</ele>
        <time>2022-04-22T13:33:13Z</time>
      </trkpt>
      <trkpt lat="46.7052" lon="5.49167">
        <ele>231</ele>
        <time>2022-04-22T13:33:18Z</time>
      </trkpt>
      <trkpt lat="46.70517" lon="5.49153">
        <ele>230.6</ele>
        <time>2022-04-22T13:33:19Z</time>
      </trkpt>
      <trkpt lat="46.70512" lon="5.49124">
        <ele>229.8</ele>
        <time>2022-04-22T13:33:22Z</time>
      </trkpt>
      <trkpt lat="46.70505" lon="5.49091">
        <ele>229.4</ele>
        <time>2022-04-22T13:33:25Z</time>
      </trkpt>
      <trkpt lat="46.70494" lon="5.49034">
        <ele>229.6</ele>
        <time>2022-04-22T13:33:31Z</time>
      </trkpt>
      <trkpt lat="46.7048" lon="5.4897">
        <ele>230.4</ele>
        <time>2022-04-22T13:33:37Z</time>
      </trkpt>
      <trkpt lat="46.70465" lon="5.48901">
        <ele>230.4</ele>
        <time>2022-04-22T13:33:44Z</time>
      </trkpt>
      <trkpt lat="46.70455" lon="5.48857">
        <ele>231</ele>
        <time>2022-04-22T13:33:49Z</time>
      </trkpt>
      <trkpt lat="46.7044" lon="5.48786">
        <ele>232</ele>
        <time>2022-04-22T13:33:56Z</time>
      </trkpt>
      <trkpt lat="46.70425" lon="5.48721">
        <ele>232.6</ele>
        <time>2022-04-22T13:34:03Z</time>
      </trkpt>
      <trkpt lat="46.7042" lon="5.48699">
        <ele>233.4</ele>
        <time>2022-04-22T13:34:06Z</time>
      </trkpt>
      <trkpt lat="46.70419" lon="5.48692">
        <ele>233.6</ele>
        <time>2022-04-22T13:34:07Z</time>
      </trkpt>
      <trkpt lat="46.70416" lon="5.48677">
        <ele>234.4</ele>
        <time>2022-04-22T13:34:09Z</time>
      </trkpt>
      <trkpt lat="46.7041" lon="5.48645">
        <ele>235.2</ele>
        <time>2022-04-22T13:34:13Z</time>
      </trkpt>
      <trkpt lat="46.70407" lon="5.48627">
        <ele>235.4</ele>
        <time>2022-04-22T13:34:15Z</time>
      </trkpt>
      <trkpt lat="46.70403" lon="5.48611">
        <ele>235.4</ele>
        <time>2022-04-22T13:34:17Z</time>
      </trkpt>
      <trkpt lat="46.704" lon="5.48593">
        <ele>235.6</ele>
        <time>2022-04-22T13:34:19Z</time>
      </trkpt>
      <trkpt lat="46.70396" lon="5.48574">
        <ele>235.6</ele>
        <time>2022-04-22T13:34:21Z</time>
      </trkpt>
      <trkpt lat="46.70392" lon="5.48548">
        <ele>235.6</ele>
        <time>2022-04-22T13:34:24Z</time>
      </trkpt>
      <trkpt lat="46.70389" lon="5.48539">
        <ele>235.6</ele>
        <time>2022-04-22T13:34:25Z</time>
      </trkpt>
      <trkpt lat="46.70382" lon="5.48509">
        <ele>236</ele>
        <time>2022-04-22T13:34:28Z</time>
      </trkpt>
      <trkpt lat="46.70379" lon="5.48491">
        <ele>236</ele>
        <time>2022-04-22T13:34:30Z</time>
      </trkpt>
      <trkpt lat="46.7037" lon="5.48452">
        <ele>235.2</ele>
        <time>2022-04-22T13:34:34Z</time>
      </trkpt>
      <trkpt lat="46.70364" lon="5.48424">
        <ele>234.8</ele>
        <time>2022-04-22T13:34:37Z</time>
      </trkpt>
      <trkpt lat="46.70363" lon="5.48418">
        <ele>234.8</ele>
        <time>2022-04-22T13:34:38Z</time>
      </trkpt>
      <trkpt lat="46.70359" lon="5.48394">
        <ele>234.6</ele>
        <time>2022-04-22T13:34:41Z</time>
      </trkpt>
      <trkpt lat="46.70352" lon="5.48384">
        <ele>234.8</ele>
        <time>2022-04-22T13:34:43Z</time>
      </trkpt>
      <trkpt lat="46.70341" lon="5.48383">
        <ele>234.8</ele>
        <time>2022-04-22T13:34:45Z</time>
      </trkpt>
      <trkpt lat="46.70334" lon="5.48385">
        <ele>235</ele>
        <time>2022-04-22T13:34:46Z</time>
      </trkpt>
      <trkpt lat="46.70328" lon="5.48388">
        <ele>235</ele>
        <time>2022-04-22T13:34:47Z</time>
      </trkpt>
      <trkpt lat="46.70307" lon="5.48401">
        <ele>235.4</ele>
        <time>2022-04-22T13:34:50Z</time>
      </trkpt>
      <trkpt lat="46.70256" lon="5.48432">
        <ele>235.4</ele>
        <time>2022-04-22T13:34:57Z</time>
      </trkpt>
      <trkpt lat="46.70241" lon="5.4844">
        <ele>235.4</ele>
        <time>2022-04-22T13:34:59Z</time>
      </trkpt>
      <trkpt lat="46.70186" lon="5.48474">
        <ele>235.6</ele>
        <time>2022-04-22T13:35:07Z</time>
      </trkpt>
      <trkpt lat="46.7018" lon="5.48477">
        <ele>235.8</ele>
        <time>2022-04-22T13:35:08Z</time>
      </trkpt>
      <trkpt lat="46.70165" lon="5.48487">
        <ele>236.4</ele>
        <time>2022-04-22T13:35:10Z</time>
      </trkpt>
      <trkpt lat="46.70122" lon="5.48517">
        <ele>237</ele>
        <time>2022-04-22T13:35:16Z</time>
      </trkpt>
      <trkpt lat="46.70075" lon="5.48562">
        <ele>236.6</ele>
        <time>2022-04-22T13:35:23Z</time>
      </trkpt>
      <trkpt lat="46.7007" lon="5.48568">
        <ele>236.6</ele>
        <time>2022-04-22T13:35:24Z</time>
      </trkpt>
      <trkpt lat="46.70045" lon="5.48595">
        <ele>236.6</ele>
        <time>2022-04-22T13:35:28Z</time>
      </trkpt>
      <trkpt lat="46.70038" lon="5.48599">
        <ele>236.6</ele>
        <time>2022-04-22T13:35:29Z</time>
      </trkpt>
      <trkpt lat="46.7003" lon="5.486">
        <ele>236.6</ele>
        <time>2022-04-22T13:35:30Z</time>
      </trkpt>
      <trkpt lat="46.70016" lon="5.48595">
        <ele>236.4</ele>
        <time>2022-04-22T13:35:32Z</time>
      </trkpt>
      <trkpt lat="46.69993" lon="5.48566">
        <ele>236.2</ele>
        <time>2022-04-22T13:35:36Z</time>
      </trkpt>
      <trkpt lat="46.69956" lon="5.48507">
        <ele>235.8</ele>
        <time>2022-04-22T13:35:43Z</time>
      </trkpt>
      <trkpt lat="46.69945" lon="5.4849">
        <ele>235.8</ele>
        <time>2022-04-22T13:35:45Z</time>
      </trkpt>
      <trkpt lat="46.69904" lon="5.48428">
        <ele>235.4</ele>
        <time>2022-04-22T13:35:52Z</time>
      </trkpt>
      <trkpt lat="46.69899" lon="5.4842">
        <ele>235.4</ele>
        <time>2022-04-22T13:35:53Z</time>
      </trkpt>
      <trkpt lat="46.6988" lon="5.48391">
        <ele>235</ele>
        <time>2022-04-22T13:35:56Z</time>
      </trkpt>
      <trkpt lat="46.69852" lon="5.48346">
        <ele>233.8</ele>
        <time>2022-04-22T13:36:01Z</time>
      </trkpt>
      <trkpt lat="46.69815" lon="5.48289">
        <ele>233.4</ele>
        <time>2022-04-22T13:36:08Z</time>
      </trkpt>
      <trkpt lat="46.69774" lon="5.48223">
        <ele>234.2</ele>
        <time>2022-04-22T13:36:16Z</time>
      </trkpt>
      <trkpt lat="46.69735" lon="5.48165">
        <ele>233.6</ele>
        <time>2022-04-22T13:36:23Z</time>
      </trkpt>
      <trkpt lat="46.69712" lon="5.48131">
        <ele>233.2</ele>
        <time>2022-04-22T13:36:27Z</time>
      </trkpt>
      <trkpt lat="46.69679" lon="5.48079">
        <ele>233</ele>
        <time>2022-04-22T13:36:33Z</time>
      </trkpt>
      <trkpt lat="46.69657" lon="5.48044">
        <ele>232.6</ele>
        <time>2022-04-22T13:36:37Z</time>
      </trkpt>
      <trkpt lat="46.69636" lon="5.4801">
        <ele>232.4</ele>
        <time>2022-04-22T13:36:41Z</time>
      </trkpt>
      <trkpt lat="46.69599" lon="5.4795">
        <ele>231.8</ele>
        <time>2022-04-22T13:36:48Z</time>
      </trkpt>
      <trkpt lat="46.69589" lon="5.47935">
        <ele>231.6</ele>
        <time>2022-04-22T13:36:50Z</time>
      </trkpt>
      <trkpt lat="46.69559" lon="5.47897">
        <ele>231.2</ele>
        <time>2022-04-22T13:36:55Z</time>
      </trkpt>
      <trkpt lat="46.69552" lon="5.47892">
        <ele>231</ele>
        <time>2022-04-22T13:36:56Z</time>
      </trkpt>
      <trkpt lat="46.69544" lon="5.47888">
        <ele>231</ele>
        <time>2022-04-22T13:36:57Z</time>
      </trkpt>
      <trkpt lat="46.69518" lon="5.47879">
        <ele>230.6</ele>
        <time>2022-04-22T13:37:00Z</time>
      </trkpt>
      <trkpt lat="46.69509" lon="5.47876">
        <ele>230.4</ele>
        <time>2022-04-22T13:37:01Z</time>
      </trkpt>
      <trkpt lat="46.69482" lon="5.4787">
        <ele>229.2</ele>
        <time>2022-04-22T13:37:04Z</time>
      </trkpt>
      <trkpt lat="46.69472" lon="5.4787">
        <ele>228.8</ele>
        <time>2022-04-22T13:37:05Z</time>
      </trkpt>
      <trkpt lat="46.69454" lon="5.47872">
        <ele>228</ele>
        <time>2022-04-22T13:37:07Z</time>
      </trkpt>
      <trkpt lat="46.69419" lon="5.47879">
        <ele>227.2</ele>
        <time>2022-04-22T13:37:11Z</time>
      </trkpt>
      <trkpt lat="46.69371" lon="5.47884">
        <ele>227.2</ele>
        <time>2022-04-22T13:37:17Z</time>
      </trkpt>
      <trkpt lat="46.6933" lon="5.47887">
        <ele>227.8</ele>
        <time>2022-04-22T13:37:22Z</time>
      </trkpt>
      <trkpt lat="46.69313" lon="5.47891">
        <ele>227.8</ele>
        <time>2022-04-22T13:37:24Z</time>
      </trkpt>
      <trkpt lat="46.69299" lon="5.47899">
        <ele>227.8</ele>
        <time>2022-04-22T13:37:26Z</time>
      </trkpt>
      <trkpt lat="46.6927" lon="5.47929">
        <ele>228</ele>
        <time>2022-04-22T13:37:31Z</time>
      </trkpt>
      <trkpt lat="46.69253" lon="5.47946">
        <ele>228.2</ele>
        <time>2022-04-22T13:37:34Z</time>
      </trkpt>
      <trkpt lat="46.69242" lon="5.47951">
        <ele>228.6</ele>
        <time>2022-04-22T13:37:36Z</time>
      </trkpt>
      <trkpt lat="46.69236" lon="5.4795">
        <ele>229</ele>
        <time>2022-04-22T13:37:37Z</time>
      </trkpt>
      <trkpt lat="46.69229" lon="5.47946">
        <ele>229</ele>
        <time>2022-04-22T13:37:38Z</time>
      </trkpt>
      <trkpt lat="46.69225" lon="5.47943">
        <ele>229.2</ele>
        <time>2022-04-22T13:37:39Z</time>
      </trkpt>
      <trkpt lat="46.6922" lon="5.47936">
        <ele>229.2</ele>
        <time>2022-04-22T13:37:40Z</time>
      </trkpt>
      <trkpt lat="46.69204" lon="5.4791">
        <ele>230.2</ele>
        <time>2022-04-22T13:37:44Z</time>
      </trkpt>
      <trkpt lat="46.69179" lon="5.47871">
        <ele>231.4</ele>
        <time>2022-04-22T13:37:50Z</time>
      </trkpt>
      <trkpt lat="46.69151" lon="5.47824">
        <ele>232.4</ele>
        <time>2022-04-22T13:37:57Z</time>
      </trkpt>
      <trkpt lat="46.69147" lon="5.47817">
        <ele>232.6</ele>
        <time>2022-04-22T13:37:58Z</time>
      </trkpt>
      <trkpt lat="46.69108" lon="5.47755">
        <ele>232.8</ele>
        <time>2022-04-22T13:38:07Z</time>
      </trkpt>
      <trkpt lat="46.69104" lon="5.47748">
        <ele>232.8</ele>
        <time>2022-04-22T13:38:08Z</time>
      </trkpt>
      <trkpt lat="46.69065" lon="5.47685">
        <ele>232.8</ele>
        <time>2022-04-22T13:38:17Z</time>
      </trkpt>
      <trkpt lat="46.69047" lon="5.47657">
        <ele>232.8</ele>
        <time>2022-04-22T13:38:21Z</time>
      </trkpt>
      <trkpt lat="46.69016" lon="5.47609">
        <ele>232.4</ele>
        <time>2022-04-22T13:38:28Z</time>
      </trkpt>
      <trkpt lat="46.69012" lon="5.47601">
        <ele>232.4</ele>
        <time>2022-04-22T13:38:29Z</time>
      </trkpt>
      <trkpt lat="46.68981" lon="5.47552">
        <ele>232.4</ele>
        <time>2022-04-22T13:38:36Z</time>
      </trkpt>
      <trkpt lat="46.68949" lon="5.47501">
        <ele>232.6</ele>
        <time>2022-04-22T13:38:43Z</time>
      </trkpt>
      <trkpt lat="46.68912" lon="5.47442">
        <ele>232.4</ele>
        <time>2022-04-22T13:38:51Z</time>
      </trkpt>
      <trkpt lat="46.68903" lon="5.47428">
        <ele>232.6</ele>
        <time>2022-04-22T13:38:53Z</time>
      </trkpt>
      <trkpt lat="46.68873" lon="5.47391">
        <ele>232</ele>
        <time>2022-04-22T13:38:58Z</time>
      </trkpt>
      <trkpt lat="46.68859" lon="5.47377">
        <ele>231.4</ele>
        <time>2022-04-22T13:39:00Z</time>
      </trkpt>
      <trkpt lat="46.6885" lon="5.4737">
        <ele>231</ele>
        <time>2022-04-22T13:39:01Z</time>
      </trkpt>
      <trkpt lat="46.68834" lon="5.4736">
        <ele>230.2</ele>
        <time>2022-04-22T13:39:03Z</time>
      </trkpt>
      <trkpt lat="46.68789" lon="5.47348">
        <ele>229.6</ele>
        <time>2022-04-22T13:39:08Z</time>
      </trkpt>
      <trkpt lat="46.6878" lon="5.47346">
        <ele>229</ele>
        <time>2022-04-22T13:39:09Z</time>
      </trkpt>
      <trkpt lat="46.68763" lon="5.47345">
        <ele>227.8</ele>
        <time>2022-04-22T13:39:11Z</time>
      </trkpt>
      <trkpt lat="46.68746" lon="5.47342">
        <ele>227.4</ele>
        <time>2022-04-22T13:39:13Z</time>
      </trkpt>
      <trkpt lat="46.68739" lon="5.47338">
        <ele>227.2</ele>
        <time>2022-04-22T13:39:14Z</time>
      </trkpt>
      <trkpt lat="46.68731" lon="5.47334">
        <ele>227.2</ele>
        <time>2022-04-22T13:39:15Z</time>
      </trkpt>
      <trkpt lat="46.6872" lon="5.4732">
        <ele>227.2</ele>
        <time>2022-04-22T13:39:17Z</time>
      </trkpt>
      <trkpt lat="46.68689" lon="5.47262">
        <ele>228.2</ele>
        <time>2022-04-22T13:39:24Z</time>
      </trkpt>
      <trkpt lat="46.68675" lon="5.47235">
        <ele>229</ele>
        <time>2022-04-22T13:39:27Z</time>
      </trkpt>
      <trkpt lat="46.68654" lon="5.47196">
        <ele>229.8</ele>
        <time>2022-04-22T13:39:32Z</time>
      </trkpt>
      <trkpt lat="46.68646" lon="5.47181">
        <ele>230</ele>
        <time>2022-04-22T13:39:34Z</time>
      </trkpt>
      <trkpt lat="46.68617" lon="5.47127">
        <ele>231</ele>
        <time>2022-04-22T13:39:41Z</time>
      </trkpt>
      <trkpt lat="46.686" lon="5.47097">
        <ele>231.2</ele>
        <time>2022-04-22T13:39:45Z</time>
      </trkpt>
      <trkpt lat="46.68572" lon="5.47046">
        <ele>231</ele>
        <time>2022-04-22T13:39:52Z</time>
      </trkpt>
      <trkpt lat="46.68537" lon="5.46984">
        <ele>230.6</ele>
        <time>2022-04-22T13:40:00Z</time>
      </trkpt>
      <trkpt lat="46.68528" lon="5.46968">
        <ele>230.4</ele>
        <time>2022-04-22T13:40:02Z</time>
      </trkpt>
      <trkpt lat="46.68507" lon="5.46931">
        <ele>230</ele>
        <time>2022-04-22T13:40:06Z</time>
      </trkpt>
      <trkpt lat="46.68487" lon="5.46896">
        <ele>229.2</ele>
        <time>2022-04-22T13:40:10Z</time>
      </trkpt>
      <trkpt lat="46.68477" lon="5.46878">
        <ele>229</ele>
        <time>2022-04-22T13:40:12Z</time>
      </trkpt>
      <trkpt lat="46.68441" lon="5.46816">
        <ele>227.8</ele>
        <time>2022-04-22T13:40:19Z</time>
      </trkpt>
      <trkpt lat="46.68402" lon="5.46753">
        <ele>226.4</ele>
        <time>2022-04-22T13:40:26Z</time>
      </trkpt>
      <trkpt lat="46.68378" lon="5.46715">
        <ele>225.2</ele>
        <time>2022-04-22T13:40:30Z</time>
      </trkpt>
      <trkpt lat="46.68359" lon="5.46688">
        <ele>224.2</ele>
        <time>2022-04-22T13:40:33Z</time>
      </trkpt>
      <trkpt lat="46.68333" lon="5.46657">
        <ele>223.8</ele>
        <time>2022-04-22T13:40:37Z</time>
      </trkpt>
      <trkpt lat="46.68296" lon="5.46623">
        <ele>224.6</ele>
        <time>2022-04-22T13:40:43Z</time>
      </trkpt>
      <trkpt lat="46.68274" lon="5.46605">
        <ele>225.4</ele>
        <time>2022-04-22T13:40:47Z</time>
      </trkpt>
      <trkpt lat="46.68269" lon="5.46601">
        <ele>225.6</ele>
        <time>2022-04-22T13:40:48Z</time>
      </trkpt>
      <trkpt lat="46.68253" lon="5.46589">
        <ele>226.4</ele>
        <time>2022-04-22T13:40:51Z</time>
      </trkpt>
      <trkpt lat="46.68233" lon="5.46572">
        <ele>227.4</ele>
        <time>2022-04-22T13:40:55Z</time>
      </trkpt>
      <trkpt lat="46.68218" lon="5.46559">
        <ele>228.6</ele>
        <time>2022-04-22T13:40:58Z</time>
      </trkpt>
      <trkpt lat="46.68191" lon="5.46538">
        <ele>229.4</ele>
        <time>2022-04-22T13:41:03Z</time>
      </trkpt>
      <trkpt lat="46.6818" lon="5.46531">
        <ele>229.8</ele>
        <time>2022-04-22T13:41:05Z</time>
      </trkpt>
      <trkpt lat="46.68135" lon="5.46504">
        <ele>230.4</ele>
        <time>2022-04-22T13:41:13Z</time>
      </trkpt>
      <trkpt lat="46.68087" lon="5.46482">
        <ele>230.8</ele>
        <time>2022-04-22T13:41:21Z</time>
      </trkpt>
      <trkpt lat="46.68033" lon="5.46455">
        <ele>231.4</ele>
        <time>2022-04-22T13:41:30Z</time>
      </trkpt>
      <trkpt lat="46.68027" lon="5.46453">
        <ele>231.2</ele>
        <time>2022-04-22T13:41:31Z</time>
      </trkpt>
      <trkpt lat="46.67972" lon="5.46426">
        <ele>231.6</ele>
        <time>2022-04-22T13:41:40Z</time>
      </trkpt>
      <trkpt lat="46.67913" lon="5.46397">
        <ele>231.6</ele>
        <time>2022-04-22T13:41:49Z</time>
      </trkpt>
      <trkpt lat="46.67858" lon="5.46369">
        <ele>231.8</ele>
        <time>2022-04-22T13:41:57Z</time>
      </trkpt>
      <trkpt lat="46.67851" lon="5.46365">
        <ele>231.8</ele>
        <time>2022-04-22T13:41:58Z</time>
      </trkpt>
      <trkpt lat="46.67794" lon="5.46337">
        <ele>231</ele>
        <time>2022-04-22T13:42:06Z</time>
      </trkpt>
      <trkpt lat="46.67788" lon="5.46335">
        <ele>231</ele>
        <time>2022-04-22T13:42:07Z</time>
      </trkpt>
      <trkpt lat="46.67731" lon="5.46306">
        <ele>231</ele>
        <time>2022-04-22T13:42:15Z</time>
      </trkpt>
      <trkpt lat="46.67718" lon="5.463">
        <ele>231.2</ele>
        <time>2022-04-22T13:42:17Z</time>
      </trkpt>
      <trkpt lat="46.67666" lon="5.46275">
        <ele>231</ele>
        <time>2022-04-22T13:42:24Z</time>
      </trkpt>
      <trkpt lat="46.67659" lon="5.46272">
        <ele>231</ele>
        <time>2022-04-22T13:42:25Z</time>
      </trkpt>
      <trkpt lat="46.67607" lon="5.46246">
        <ele>230.6</ele>
        <time>2022-04-22T13:42:32Z</time>
      </trkpt>
      <trkpt lat="46.676" lon="5.46243">
        <ele>230.4</ele>
        <time>2022-04-22T13:42:33Z</time>
      </trkpt>
      <trkpt lat="46.67578" lon="5.46232">
        <ele>230.4</ele>
        <time>2022-04-22T13:42:36Z</time>
      </trkpt>
      <trkpt lat="46.67522" lon="5.46205">
        <ele>230.6</ele>
        <time>2022-04-22T13:42:44Z</time>
      </trkpt>
      <trkpt lat="46.67515" lon="5.46201">
        <ele>230.6</ele>
        <time>2022-04-22T13:42:45Z</time>
      </trkpt>
      <trkpt lat="46.67458" lon="5.46173">
        <ele>230.6</ele>
        <time>2022-04-22T13:42:53Z</time>
      </trkpt>
      <trkpt lat="46.67429" lon="5.4616">
        <ele>231</ele>
        <time>2022-04-22T13:42:57Z</time>
      </trkpt>
      <trkpt lat="46.67372" lon="5.46133">
        <ele>231</ele>
        <time>2022-04-22T13:43:05Z</time>
      </trkpt>
      <trkpt lat="46.67365" lon="5.46129">
        <ele>231</ele>
        <time>2022-04-22T13:43:06Z</time>
      </trkpt>
      <trkpt lat="46.67322" lon="5.46108">
        <ele>230.4</ele>
        <time>2022-04-22T13:43:12Z</time>
      </trkpt>
      <trkpt lat="46.67266" lon="5.4608">
        <ele>230.2</ele>
        <time>2022-04-22T13:43:20Z</time>
      </trkpt>
      <trkpt lat="46.6726" lon="5.46076">
        <ele>230</ele>
        <time>2022-04-22T13:43:21Z</time>
      </trkpt>
      <trkpt lat="46.67247" lon="5.46069">
        <ele>230</ele>
        <time>2022-04-22T13:43:23Z</time>
      </trkpt>
      <trkpt lat="46.67229" lon="5.46059">
        <ele>229.8</ele>
        <time>2022-04-22T13:43:26Z</time>
      </trkpt>
      <trkpt lat="46.67211" lon="5.46052">
        <ele>229.8</ele>
        <time>2022-04-22T13:43:29Z</time>
      </trkpt>
      <trkpt lat="46.672" lon="5.46045">
        <ele>229.8</ele>
        <time>2022-04-22T13:43:31Z</time>
      </trkpt>
      <trkpt lat="46.67182" lon="5.46035">
        <ele>229.8</ele>
        <time>2022-04-22T13:43:35Z</time>
      </trkpt>
      <trkpt lat="46.67179" lon="5.46035">
        <ele>229.8</ele>
        <time>2022-04-22T13:43:36Z</time>
      </trkpt>
      <trkpt lat="46.67177" lon="5.46035">
        <ele>230.2</ele>
        <time>2022-04-22T13:43:39Z</time>
      </trkpt>
      <trkpt lat="46.67177" lon="5.46035">
        <ele>230.2</ele>
        <time>2022-04-22T13:43:40Z</time>
      </trkpt>
      <trkpt lat="46.67174" lon="5.46033">
        <ele>230.4</ele>
        <time>2022-04-22T13:44:10Z</time>
      </trkpt>
      <trkpt lat="46.67172" lon="5.4603">
        <ele>230.4</ele>
        <time>2022-04-22T13:44:12Z</time>
      </trkpt>
      <trkpt lat="46.67172" lon="5.46029">
        <ele>230.4</ele>
        <time>2022-04-22T13:44:13Z</time>
      </trkpt>
      <trkpt lat="46.67171" lon="5.46028">
        <ele>230.4</ele>
        <time>2022-04-22T13:44:14Z</time>
      </trkpt>
      <trkpt lat="46.67164" lon="5.46032">
        <ele>230.4</ele>
        <time>2022-04-22T13:44:16Z</time>
      </trkpt>
      <trkpt lat="46.67159" lon="5.46035">
        <ele>230.4</ele>
        <time>2022-04-22T13:44:17Z</time>
      </trkpt>
      <trkpt lat="46.67147" lon="5.46038">
        <ele>230.4</ele>
        <time>2022-04-22T13:44:19Z</time>
      </trkpt>
      <trkpt lat="46.67114" lon="5.46043">
        <ele>230.2</ele>
        <time>2022-04-22T13:44:24Z</time>
      </trkpt>
      <trkpt lat="46.67106" lon="5.46044">
        <ele>230</ele>
        <time>2022-04-22T13:44:25Z</time>
      </trkpt>
      <trkpt lat="46.67063" lon="5.46046">
        <ele>229.8</ele>
        <time>2022-04-22T13:44:31Z</time>
      </trkpt>
      <trkpt lat="46.67048" lon="5.46045">
        <ele>229.8</ele>
        <time>2022-04-22T13:44:33Z</time>
      </trkpt>
      <trkpt lat="46.67034" lon="5.46038">
        <ele>229.6</ele>
        <time>2022-04-22T13:44:35Z</time>
      </trkpt>
      <trkpt lat="46.66985" lon="5.46006">
        <ele>229.2</ele>
        <time>2022-04-22T13:44:42Z</time>
      </trkpt>
      <trkpt lat="46.66931" lon="5.45976">
        <ele>229.4</ele>
        <time>2022-04-22T13:44:50Z</time>
      </trkpt>
      <trkpt lat="46.66905" lon="5.45957">
        <ele>229</ele>
        <time>2022-04-22T13:44:54Z</time>
      </trkpt>
      <trkpt lat="46.669" lon="5.45952">
        <ele>229</ele>
        <time>2022-04-22T13:44:55Z</time>
      </trkpt>
      <trkpt lat="46.66894" lon="5.45943">
        <ele>229</ele>
        <time>2022-04-22T13:44:56Z</time>
      </trkpt>
      <trkpt lat="46.6687" lon="5.45894">
        <ele>228.4</ele>
        <time>2022-04-22T13:45:02Z</time>
      </trkpt>
      <trkpt lat="46.66835" lon="5.45827">
        <ele>228.6</ele>
        <time>2022-04-22T13:45:10Z</time>
      </trkpt>
      <trkpt lat="46.66824" lon="5.45811">
        <ele>228.8</ele>
        <time>2022-04-22T13:45:12Z</time>
      </trkpt>
      <trkpt lat="46.66813" lon="5.458">
        <ele>228.8</ele>
        <time>2022-04-22T13:45:14Z</time>
      </trkpt>
      <trkpt lat="46.66807" lon="5.45795">
        <ele>228.6</ele>
        <time>2022-04-22T13:45:15Z</time>
      </trkpt>
      <trkpt lat="46.66798" lon="5.45792">
        <ele>228.6</ele>
        <time>2022-04-22T13:45:16Z</time>
      </trkpt>
      <trkpt lat="46.66783" lon="5.45792">
        <ele>228.6</ele>
        <time>2022-04-22T13:45:18Z</time>
      </trkpt>
      <trkpt lat="46.66725" lon="5.45808">
        <ele>228.2</ele>
        <time>2022-04-22T13:45:26Z</time>
      </trkpt>
      <trkpt lat="46.66703" lon="5.45814">
        <ele>227.8</ele>
        <time>2022-04-22T13:45:29Z</time>
      </trkpt>
      <trkpt lat="46.66644" lon="5.45836">
        <ele>227.6</ele>
        <time>2022-04-22T13:45:37Z</time>
      </trkpt>
      <trkpt lat="46.66614" lon="5.45856">
        <ele>226.4</ele>
        <time>2022-04-22T13:45:41Z</time>
      </trkpt>
      <trkpt lat="46.66589" lon="5.45873">
        <ele>225.8</ele>
        <time>2022-04-22T13:45:44Z</time>
      </trkpt>
      <trkpt lat="46.66576" lon="5.45882">
        <ele>225.2</ele>
        <time>2022-04-22T13:45:46Z</time>
      </trkpt>
      <trkpt lat="46.66539" lon="5.45906">
        <ele>224.2</ele>
        <time>2022-04-22T13:45:51Z</time>
      </trkpt>
      <trkpt lat="46.66531" lon="5.45912">
        <ele>224.2</ele>
        <time>2022-04-22T13:45:52Z</time>
      </trkpt>
      <trkpt lat="46.66501" lon="5.45934">
        <ele>223.6</ele>
        <time>2022-04-22T13:45:57Z</time>
      </trkpt>
      <trkpt lat="46.66497" lon="5.45946">
        <ele>223.4</ele>
        <time>2022-04-22T13:45:59Z</time>
      </trkpt>
      <trkpt lat="46.66497" lon="5.45956">
        <ele>223.2</ele>
        <time>2022-04-22T13:46:00Z</time>
      </trkpt>
      <trkpt lat="46.66499" lon="5.45963">
        <ele>223.2</ele>
        <time>2022-04-22T13:46:01Z</time>
      </trkpt>
      <trkpt lat="46.665" lon="5.45974">
        <ele>223</ele>
        <time>2022-04-22T13:46:02Z</time>
      </trkpt>
      <trkpt lat="46.66503" lon="5.45991">
        <ele>223.2</ele>
        <time>2022-04-22T13:46:04Z</time>
      </trkpt>
      <trkpt lat="46.66504" lon="5.46003">
        <ele>223.2</ele>
        <time>2022-04-22T13:46:05Z</time>
      </trkpt>
      <trkpt lat="46.66506" lon="5.46031">
        <ele>223.4</ele>
        <time>2022-04-22T13:46:08Z</time>
      </trkpt>
      <trkpt lat="46.66507" lon="5.46043">
        <ele>223.6</ele>
        <time>2022-04-22T13:46:09Z</time>
      </trkpt>
      <trkpt lat="46.66509" lon="5.4608">
        <ele>224.2</ele>
        <time>2022-04-22T13:46:13Z</time>
      </trkpt>
      <trkpt lat="46.66511" lon="5.46101">
        <ele>224.6</ele>
        <time>2022-04-22T13:46:15Z</time>
      </trkpt>
      <trkpt lat="46.66511" lon="5.46129">
        <ele>225.4</ele>
        <time>2022-04-22T13:46:18Z</time>
      </trkpt>
      <trkpt lat="46.66511" lon="5.46147">
        <ele>225.6</ele>
        <time>2022-04-22T13:46:20Z</time>
      </trkpt>
      <trkpt lat="46.66511" lon="5.46155">
        <ele>225.8</ele>
        <time>2022-04-22T13:46:21Z</time>
      </trkpt>
      <trkpt lat="46.66508" lon="5.46192">
        <ele>226.6</ele>
        <time>2022-04-22T13:46:25Z</time>
      </trkpt>
      <trkpt lat="46.66507" lon="5.46206">
        <ele>226.8</ele>
        <time>2022-04-22T13:46:27Z</time>
      </trkpt>
      <trkpt lat="46.66507" lon="5.46214">
        <ele>227</ele>
        <time>2022-04-22T13:46:28Z</time>
      </trkpt>
      <trkpt lat="46.66503" lon="5.46227">
        <ele>227.2</ele>
        <time>2022-04-22T13:46:30Z</time>
      </trkpt>
      <trkpt lat="46.665" lon="5.46236">
        <ele>227.6</ele>
        <time>2022-04-22T13:46:31Z</time>
      </trkpt>
      <trkpt lat="46.66493" lon="5.4625">
        <ele>228</ele>
        <time>2022-04-22T13:46:33Z</time>
      </trkpt>
      <trkpt lat="46.6649" lon="5.46267">
        <ele>228</ele>
        <time>2022-04-22T13:46:35Z</time>
      </trkpt>
      <trkpt lat="46.66486" lon="5.46309">
        <ele>227.4</ele>
        <time>2022-04-22T13:46:39Z</time>
      </trkpt>
      <trkpt lat="46.66484" lon="5.46322">
        <ele>227.2</ele>
        <time>2022-04-22T13:46:40Z</time>
      </trkpt>
      <trkpt lat="46.6648" lon="5.4633">
        <ele>227</ele>
        <time>2022-04-22T13:46:41Z</time>
      </trkpt>
      <trkpt lat="46.66468" lon="5.46343">
        <ele>226.2</ele>
        <time>2022-04-22T13:46:43Z</time>
      </trkpt>
      <trkpt lat="46.66451" lon="5.46348">
        <ele>225.4</ele>
        <time>2022-04-22T13:46:45Z</time>
      </trkpt>
      <trkpt lat="46.66443" lon="5.46348">
        <ele>224.4</ele>
        <time>2022-04-22T13:46:46Z</time>
      </trkpt>
      <trkpt lat="46.66418" lon="5.46345">
        <ele>223</ele>
        <time>2022-04-22T13:46:49Z</time>
      </trkpt>
      <trkpt lat="46.6641" lon="5.46346">
        <ele>222.8</ele>
        <time>2022-04-22T13:46:50Z</time>
      </trkpt>
      <trkpt lat="46.66402" lon="5.4635">
        <ele>222.8</ele>
        <time>2022-04-22T13:46:51Z</time>
      </trkpt>
      <trkpt lat="46.66396" lon="5.46355">
        <ele>222.4</ele>
        <time>2022-04-22T13:46:52Z</time>
      </trkpt>
      <trkpt lat="46.66388" lon="5.46364">
        <ele>222</ele>
        <time>2022-04-22T13:46:53Z</time>
      </trkpt>
      <trkpt lat="46.66382" lon="5.46372">
        <ele>221.4</ele>
        <time>2022-04-22T13:46:54Z</time>
      </trkpt>
      <trkpt lat="46.66374" lon="5.46383">
        <ele>220.8</ele>
        <time>2022-04-22T13:46:55Z</time>
      </trkpt>
      <trkpt lat="46.66349" lon="5.46409">
        <ele>220</ele>
        <time>2022-04-22T13:46:58Z</time>
      </trkpt>
      <trkpt lat="46.6634" lon="5.46417">
        <ele>219.2</ele>
        <time>2022-04-22T13:46:59Z</time>
      </trkpt>
      <trkpt lat="46.66312" lon="5.46442">
        <ele>217.6</ele>
        <time>2022-04-22T13:47:02Z</time>
      </trkpt>
      <trkpt lat="46.66305" lon="5.4645">
        <ele>217</ele>
        <time>2022-04-22T13:47:03Z</time>
      </trkpt>
      <trkpt lat="46.66297" lon="5.46464">
        <ele>216.2</ele>
        <time>2022-04-22T13:47:04Z</time>
      </trkpt>
      <trkpt lat="46.66294" lon="5.46475">
        <ele>215.8</ele>
        <time>2022-04-22T13:47:05Z</time>
      </trkpt>
      <trkpt lat="46.66292" lon="5.46489">
        <ele>215.2</ele>
        <time>2022-04-22T13:47:06Z</time>
      </trkpt>
      <trkpt lat="46.6629" lon="5.46506">
        <ele>215</ele>
        <time>2022-04-22T13:47:07Z</time>
      </trkpt>
      <trkpt lat="46.66288" lon="5.46519">
        <ele>214.6</ele>
        <time>2022-04-22T13:47:08Z</time>
      </trkpt>
      <trkpt lat="46.66279" lon="5.46538">
        <ele>214.2</ele>
        <time>2022-04-22T13:47:10Z</time>
      </trkpt>
      <trkpt lat="46.6627" lon="5.46547">
        <ele>213.8</ele>
        <time>2022-04-22T13:47:11Z</time>
      </trkpt>
      <trkpt lat="46.66264" lon="5.46549">
        <ele>213.6</ele>
        <time>2022-04-22T13:47:12Z</time>
      </trkpt>
      <trkpt lat="46.66246" lon="5.46553">
        <ele>213.4</ele>
        <time>2022-04-22T13:47:14Z</time>
      </trkpt>
      <trkpt lat="46.66193" lon="5.46566">
        <ele>214</ele>
        <time>2022-04-22T13:47:20Z</time>
      </trkpt>
      <trkpt lat="46.66149" lon="5.46574">
        <ele>214</ele>
        <time>2022-04-22T13:47:25Z</time>
      </trkpt>
      <trkpt lat="46.66141" lon="5.46574">
        <ele>214</ele>
        <time>2022-04-22T13:47:26Z</time>
      </trkpt>
      <trkpt lat="46.66116" lon="5.46572">
        <ele>213.8</ele>
        <time>2022-04-22T13:47:29Z</time>
      </trkpt>
      <trkpt lat="46.66103" lon="5.4658">
        <ele>213.8</ele>
        <time>2022-04-22T13:47:31Z</time>
      </trkpt>
      <trkpt lat="46.66099" lon="5.46588">
        <ele>213.6</ele>
        <time>2022-04-22T13:47:32Z</time>
      </trkpt>
      <trkpt lat="46.66096" lon="5.466">
        <ele>213.4</ele>
        <time>2022-04-22T13:47:33Z</time>
      </trkpt>
      <trkpt lat="46.66093" lon="5.46624">
        <ele>213.2</ele>
        <time>2022-04-22T13:47:35Z</time>
      </trkpt>
      <trkpt lat="46.66089" lon="5.46709">
        <ele>213</ele>
        <time>2022-04-22T13:47:42Z</time>
      </trkpt>
      <trkpt lat="46.66089" lon="5.4678">
        <ele>213.4</ele>
        <time>2022-04-22T13:47:48Z</time>
      </trkpt>
      <trkpt lat="46.66087" lon="5.46802">
        <ele>213.4</ele>
        <time>2022-04-22T13:47:50Z</time>
      </trkpt>
      <trkpt lat="46.66082" lon="5.46823">
        <ele>213.6</ele>
        <time>2022-04-22T13:47:52Z</time>
      </trkpt>
      <trkpt lat="46.66068" lon="5.46865">
        <ele>214</ele>
        <time>2022-04-22T13:47:56Z</time>
      </trkpt>
      <trkpt lat="46.66067" lon="5.46908">
        <ele>214.4</ele>
        <time>2022-04-22T13:48:00Z</time>
      </trkpt>
      <trkpt lat="46.66069" lon="5.46951">
        <ele>214.6</ele>
        <time>2022-04-22T13:48:04Z</time>
      </trkpt>
      <trkpt lat="46.6607" lon="5.46962">
        <ele>214.8</ele>
        <time>2022-04-22T13:48:05Z</time>
      </trkpt>
      <trkpt lat="46.6607" lon="5.46973">
        <ele>214.8</ele>
        <time>2022-04-22T13:48:06Z</time>
      </trkpt>
      <trkpt lat="46.6607" lon="5.46983">
        <ele>214.8</ele>
        <time>2022-04-22T13:48:07Z</time>
      </trkpt>
      <trkpt lat="46.66067" lon="5.47004">
        <ele>215</ele>
        <time>2022-04-22T13:48:09Z</time>
      </trkpt>
      <trkpt lat="46.66058" lon="5.47021">
        <ele>215</ele>
        <time>2022-04-22T13:48:11Z</time>
      </trkpt>
      <trkpt lat="46.66053" lon="5.47028">
        <ele>215</ele>
        <time>2022-04-22T13:48:12Z</time>
      </trkpt>
      <trkpt lat="46.66046" lon="5.47033">
        <ele>215</ele>
        <time>2022-04-22T13:48:13Z</time>
      </trkpt>
      <trkpt lat="46.66025" lon="5.47046">
        <ele>215</ele>
        <time>2022-04-22T13:48:16Z</time>
      </trkpt>
      <trkpt lat="46.65977" lon="5.47082">
        <ele>215.6</ele>
        <time>2022-04-22T13:48:23Z</time>
      </trkpt>
      <trkpt lat="46.65936" lon="5.4713">
        <ele>215.8</ele>
        <time>2022-04-22T13:48:30Z</time>
      </trkpt>
      <trkpt lat="46.65905" lon="5.47189">
        <ele>215.8</ele>
        <time>2022-04-22T13:48:37Z</time>
      </trkpt>
      <trkpt lat="46.65893" lon="5.47215">
        <ele>216</ele>
        <time>2022-04-22T13:48:40Z</time>
      </trkpt>
      <trkpt lat="46.65878" lon="5.47251">
        <ele>216</ele>
        <time>2022-04-22T13:48:44Z</time>
      </trkpt>
      <trkpt lat="46.65852" lon="5.47322">
        <ele>215.8</ele>
        <time>2022-04-22T13:48:52Z</time>
      </trkpt>
      <trkpt lat="46.65833" lon="5.47377">
        <ele>216</ele>
        <time>2022-04-22T13:48:58Z</time>
      </trkpt>
      <trkpt lat="46.65804" lon="5.47455">
        <ele>216.6</ele>
        <time>2022-04-22T13:49:07Z</time>
      </trkpt>
      <trkpt lat="46.6579" lon="5.47499">
        <ele>217.2</ele>
        <time>2022-04-22T13:49:12Z</time>
      </trkpt>
      <trkpt lat="46.65785" lon="5.47517">
        <ele>217.6</ele>
        <time>2022-04-22T13:49:14Z</time>
      </trkpt>
      <trkpt lat="46.65773" lon="5.47583">
        <ele>218.2</ele>
        <time>2022-04-22T13:49:21Z</time>
      </trkpt>
      <trkpt lat="46.65771" lon="5.47593">
        <ele>218.2</ele>
        <time>2022-04-22T13:49:22Z</time>
      </trkpt>
      <trkpt lat="46.6576" lon="5.47671">
        <ele>218.6</ele>
        <time>2022-04-22T13:49:30Z</time>
      </trkpt>
      <trkpt lat="46.65758" lon="5.47681">
        <ele>218.6</ele>
        <time>2022-04-22T13:49:31Z</time>
      </trkpt>
      <trkpt lat="46.65754" lon="5.47735">
        <ele>219</ele>
        <time>2022-04-22T13:49:37Z</time>
      </trkpt>
      <trkpt lat="46.65752" lon="5.47815">
        <ele>219</ele>
        <time>2022-04-22T13:49:45Z</time>
      </trkpt>
      <trkpt lat="46.6575" lon="5.47837">
        <ele>219</ele>
        <time>2022-04-22T13:49:47Z</time>
      </trkpt>
      <trkpt lat="46.65745" lon="5.47854">
        <ele>219</ele>
        <time>2022-04-22T13:49:49Z</time>
      </trkpt>
      <trkpt lat="46.65719" lon="5.47916">
        <ele>219</ele>
        <time>2022-04-22T13:49:56Z</time>
      </trkpt>
      <trkpt lat="46.65708" lon="5.4794">
        <ele>219.4</ele>
        <time>2022-04-22T13:49:59Z</time>
      </trkpt>
      <trkpt lat="46.65701" lon="5.47958">
        <ele>219.6</ele>
        <time>2022-04-22T13:50:01Z</time>
      </trkpt>
      <trkpt lat="46.65698" lon="5.47967">
        <ele>219.6</ele>
        <time>2022-04-22T13:50:02Z</time>
      </trkpt>
      <trkpt lat="46.65684" lon="5.48036">
        <ele>219.8</ele>
        <time>2022-04-22T13:50:09Z</time>
      </trkpt>
      <trkpt lat="46.65675" lon="5.48093">
        <ele>220.4</ele>
        <time>2022-04-22T13:50:15Z</time>
      </trkpt>
      <trkpt lat="46.65671" lon="5.48112">
        <ele>220.6</ele>
        <time>2022-04-22T13:50:17Z</time>
      </trkpt>
      <trkpt lat="46.65665" lon="5.48128">
        <ele>220.8</ele>
        <time>2022-04-22T13:50:19Z</time>
      </trkpt>
      <trkpt lat="46.65659" lon="5.48134">
        <ele>220.8</ele>
        <time>2022-04-22T13:50:20Z</time>
      </trkpt>
      <trkpt lat="46.65653" lon="5.48137">
        <ele>220.8</ele>
        <time>2022-04-22T13:50:21Z</time>
      </trkpt>
      <trkpt lat="46.65639" lon="5.48136">
        <ele>220.8</ele>
        <time>2022-04-22T13:50:23Z</time>
      </trkpt>
      <trkpt lat="46.65607" lon="5.48117">
        <ele>221.2</ele>
        <time>2022-04-22T13:50:28Z</time>
      </trkpt>
      <trkpt lat="46.65586" lon="5.48108">
        <ele>221.2</ele>
        <time>2022-04-22T13:50:31Z</time>
      </trkpt>
      <trkpt lat="46.65579" lon="5.48109">
        <ele>221</ele>
        <time>2022-04-22T13:50:32Z</time>
      </trkpt>
      <trkpt lat="46.65572" lon="5.48113">
        <ele>221</ele>
        <time>2022-04-22T13:50:33Z</time>
      </trkpt>
      <trkpt lat="46.65567" lon="5.48121">
        <ele>221</ele>
        <time>2022-04-22T13:50:34Z</time>
      </trkpt>
      <trkpt lat="46.65564" lon="5.48131">
        <ele>221</ele>
        <time>2022-04-22T13:50:35Z</time>
      </trkpt>
      <trkpt lat="46.65559" lon="5.48152">
        <ele>221</ele>
        <time>2022-04-22T13:50:37Z</time>
      </trkpt>
      <trkpt lat="46.65548" lon="5.48226">
        <ele>221.2</ele>
        <time>2022-04-22T13:50:45Z</time>
      </trkpt>
      <trkpt lat="46.65541" lon="5.48287">
        <ele>221.4</ele>
        <time>2022-04-22T13:50:51Z</time>
      </trkpt>
      <trkpt lat="46.65541" lon="5.48296">
        <ele>221.4</ele>
        <time>2022-04-22T13:50:52Z</time>
      </trkpt>
      <trkpt lat="46.65548" lon="5.48342">
        <ele>222.2</ele>
        <time>2022-04-22T13:50:57Z</time>
      </trkpt>
      <trkpt lat="46.65552" lon="5.48361">
        <ele>222.4</ele>
        <time>2022-04-22T13:50:59Z</time>
      </trkpt>
      <trkpt lat="46.65568" lon="5.48426">
        <ele>223.2</ele>
        <time>2022-04-22T13:51:06Z</time>
      </trkpt>
      <trkpt lat="46.65575" lon="5.48473">
        <ele>223.4</ele>
        <time>2022-04-22T13:51:11Z</time>
      </trkpt>
      <trkpt lat="46.65575" lon="5.48482">
        <ele>223.6</ele>
        <time>2022-04-22T13:51:12Z</time>
      </trkpt>
      <trkpt lat="46.65579" lon="5.4852">
        <ele>223.6</ele>
        <time>2022-04-22T13:51:16Z</time>
      </trkpt>
      <trkpt lat="46.6558" lon="5.48548">
        <ele>223.8</ele>
        <time>2022-04-22T13:51:19Z</time>
      </trkpt>
      <trkpt lat="46.65577" lon="5.48567">
        <ele>223.8</ele>
        <time>2022-04-22T13:51:21Z</time>
      </trkpt>
      <trkpt lat="46.65572" lon="5.48583">
        <ele>223.8</ele>
        <time>2022-04-22T13:51:23Z</time>
      </trkpt>
      <trkpt lat="46.65563" lon="5.48595">
        <ele>224</ele>
        <time>2022-04-22T13:51:25Z</time>
      </trkpt>
      <trkpt lat="46.65556" lon="5.48609">
        <ele>224.2</ele>
        <time>2022-04-22T13:51:27Z</time>
      </trkpt>
      <trkpt lat="46.6555" lon="5.48624">
        <ele>224.6</ele>
        <time>2022-04-22T13:51:29Z</time>
      </trkpt>
      <trkpt lat="46.65548" lon="5.48632">
        <ele>224.8</ele>
        <time>2022-04-22T13:51:30Z</time>
      </trkpt>
      <trkpt lat="46.65542" lon="5.48668">
        <ele>225</ele>
        <time>2022-04-22T13:51:34Z</time>
      </trkpt>
      <trkpt lat="46.6554" lon="5.48676">
        <ele>225.2</ele>
        <time>2022-04-22T13:51:35Z</time>
      </trkpt>
      <trkpt lat="46.65534" lon="5.48691">
        <ele>225.2</ele>
        <time>2022-04-22T13:51:37Z</time>
      </trkpt>
      <trkpt lat="46.6553" lon="5.48695">
        <ele>225.4</ele>
        <time>2022-04-22T13:51:38Z</time>
      </trkpt>
      <trkpt lat="46.65525" lon="5.48699">
        <ele>225.4</ele>
        <time>2022-04-22T13:51:39Z</time>
      </trkpt>
      <trkpt lat="46.65514" lon="5.48702">
        <ele>225.4</ele>
        <time>2022-04-22T13:51:41Z</time>
      </trkpt>
      <trkpt lat="46.65508" lon="5.48703">
        <ele>225.4</ele>
        <time>2022-04-22T13:51:42Z</time>
      </trkpt>
      <trkpt lat="46.65468" lon="5.48709">
        <ele>225.6</ele>
        <time>2022-04-22T13:51:49Z</time>
      </trkpt>
      <trkpt lat="46.65439" lon="5.48707">
        <ele>226.2</ele>
        <time>2022-04-22T13:51:54Z</time>
      </trkpt>
      <trkpt lat="46.65433" lon="5.48705">
        <ele>226.8</ele>
        <time>2022-04-22T13:51:55Z</time>
      </trkpt>
      <trkpt lat="46.65414" lon="5.48694">
        <ele>227.4</ele>
        <time>2022-04-22T13:51:59Z</time>
      </trkpt>
      <trkpt lat="46.6541" lon="5.48691">
        <ele>227.4</ele>
        <time>2022-04-22T13:52:00Z</time>
      </trkpt>
      <trkpt lat="46.65406" lon="5.48688">
        <ele>227.8</ele>
        <time>2022-04-22T13:52:01Z</time>
      </trkpt>
      <trkpt lat="46.65395" lon="5.48679">
        <ele>229</ele>
        <time>2022-04-22T13:52:04Z</time>
      </trkpt>
      <trkpt lat="46.65391" lon="5.48676">
        <ele>229.2</ele>
        <time>2022-04-22T13:52:05Z</time>
      </trkpt>
      <trkpt lat="46.6538" lon="5.48668">
        <ele>230.2</ele>
        <time>2022-04-22T13:52:08Z</time>
      </trkpt>
      <trkpt lat="46.65368" lon="5.48661">
        <ele>231.4</ele>
        <time>2022-04-22T13:52:11Z</time>
      </trkpt>
      <trkpt lat="46.65364" lon="5.4866">
        <ele>231.6</ele>
        <time>2022-04-22T13:52:12Z</time>
      </trkpt>
      <trkpt lat="46.65352" lon="5.48655">
        <ele>232.6</ele>
        <time>2022-04-22T13:52:15Z</time>
      </trkpt>
      <trkpt lat="46.65332" lon="5.48649">
        <ele>234</ele>
        <time>2022-04-22T13:52:20Z</time>
      </trkpt>
      <trkpt lat="46.65323" lon="5.48648">
        <ele>234.4</ele>
        <time>2022-04-22T13:52:22Z</time>
      </trkpt>
      <trkpt lat="46.65319" lon="5.48647">
        <ele>234.8</ele>
        <time>2022-04-22T13:52:23Z</time>
      </trkpt>
      <trkpt lat="46.65314" lon="5.48647">
        <ele>235.2</ele>
        <time>2022-04-22T13:52:24Z</time>
      </trkpt>
      <trkpt lat="46.6531" lon="5.48647">
        <ele>235.6</ele>
        <time>2022-04-22T13:52:25Z</time>
      </trkpt>
      <trkpt lat="46.65301" lon="5.48646">
        <ele>236</ele>
        <time>2022-04-22T13:52:27Z</time>
      </trkpt>
      <trkpt lat="46.65296" lon="5.48645">
        <ele>236.4</ele>
        <time>2022-04-22T13:52:28Z</time>
      </trkpt>
      <trkpt lat="46.65291" lon="5.48643">
        <ele>236.6</ele>
        <time>2022-04-22T13:52:29Z</time>
      </trkpt>
      <trkpt lat="46.65273" lon="5.48632">
        <ele>237.2</ele>
        <time>2022-04-22T13:52:33Z</time>
      </trkpt>
      <trkpt lat="46.65268" lon="5.4863">
        <ele>237.4</ele>
        <time>2022-04-22T13:52:34Z</time>
      </trkpt>
      <trkpt lat="46.65253" lon="5.48622">
        <ele>237.6</ele>
        <time>2022-04-22T13:52:37Z</time>
      </trkpt>
      <trkpt lat="46.65243" lon="5.48615">
        <ele>237.6</ele>
        <time>2022-04-22T13:52:39Z</time>
      </trkpt>
      <trkpt lat="46.65209" lon="5.48592">
        <ele>238</ele>
        <time>2022-04-22T13:52:46Z</time>
      </trkpt>
      <trkpt lat="46.6519" lon="5.48584">
        <ele>238.4</ele>
        <time>2022-04-22T13:52:49Z</time>
      </trkpt>
      <trkpt lat="46.65166" lon="5.48575">
        <ele>238.6</ele>
        <time>2022-04-22T13:52:53Z</time>
      </trkpt>
      <trkpt lat="46.6513" lon="5.48556">
        <ele>238.6</ele>
        <time>2022-04-22T13:52:59Z</time>
      </trkpt>
      <trkpt lat="46.65078" lon="5.48527">
        <ele>238</ele>
        <time>2022-04-22T13:53:07Z</time>
      </trkpt>
      <trkpt lat="46.65025" lon="5.48491">
        <ele>238</ele>
        <time>2022-04-22T13:53:16Z</time>
      </trkpt>
      <trkpt lat="46.65014" lon="5.48484">
        <ele>238</ele>
        <time>2022-04-22T13:53:18Z</time>
      </trkpt>
      <trkpt lat="46.64964" lon="5.48445">
        <ele>239.2</ele>
        <time>2022-04-22T13:53:27Z</time>
      </trkpt>
      <trkpt lat="46.64948" lon="5.48431">
        <ele>239.4</ele>
        <time>2022-04-22T13:53:30Z</time>
      </trkpt>
      <trkpt lat="46.649" lon="5.48386">
        <ele>239.4</ele>
        <time>2022-04-22T13:53:39Z</time>
      </trkpt>
      <trkpt lat="46.64894" lon="5.48381">
        <ele>239.4</ele>
        <time>2022-04-22T13:53:40Z</time>
      </trkpt>
      <trkpt lat="46.64843" lon="5.48342">
        <ele>239.8</ele>
        <time>2022-04-22T13:53:49Z</time>
      </trkpt>
      <trkpt lat="46.64837" lon="5.48338">
        <ele>239.8</ele>
        <time>2022-04-22T13:53:50Z</time>
      </trkpt>
      <trkpt lat="46.64795" lon="5.48306">
        <ele>240.4</ele>
        <time>2022-04-22T13:53:58Z</time>
      </trkpt>
      <trkpt lat="46.64779" lon="5.48295">
        <ele>240.4</ele>
        <time>2022-04-22T13:54:01Z</time>
      </trkpt>
      <trkpt lat="46.64741" lon="5.48266">
        <ele>240.2</ele>
        <time>2022-04-22T13:54:08Z</time>
      </trkpt>
      <trkpt lat="46.64707" lon="5.4824">
        <ele>239.6</ele>
        <time>2022-04-22T13:54:14Z</time>
      </trkpt>
      <trkpt lat="46.647" lon="5.48236">
        <ele>239.6</ele>
        <time>2022-04-22T13:54:15Z</time>
      </trkpt>
      <trkpt lat="46.64694" lon="5.48233">
        <ele>239.6</ele>
        <time>2022-04-22T13:54:16Z</time>
      </trkpt>
      <trkpt lat="46.64687" lon="5.48223">
        <ele>239.4</ele>
        <time>2022-04-22T13:54:18Z</time>
      </trkpt>
      <trkpt lat="46.64683" lon="5.48205">
        <ele>239</ele>
        <time>2022-04-22T13:54:20Z</time>
      </trkpt>
      <trkpt lat="46.6468" lon="5.48185">
        <ele>238.6</ele>
        <time>2022-04-22T13:54:22Z</time>
      </trkpt>
      <trkpt lat="46.64678" lon="5.48173">
        <ele>238.4</ele>
        <time>2022-04-22T13:54:23Z</time>
      </trkpt>
      <trkpt lat="46.64676" lon="5.48161">
        <ele>238</ele>
        <time>2022-04-22T13:54:24Z</time>
      </trkpt>
      <trkpt lat="46.64672" lon="5.48137">
        <ele>237.6</ele>
        <time>2022-04-22T13:54:26Z</time>
      </trkpt>
      <trkpt lat="46.64668" lon="5.48112">
        <ele>237.2</ele>
        <time>2022-04-22T13:54:28Z</time>
      </trkpt>
      <trkpt lat="46.64662" lon="5.48074">
        <ele>236.2</ele>
        <time>2022-04-22T13:54:31Z</time>
      </trkpt>
      <trkpt lat="46.6466" lon="5.48062">
        <ele>236</ele>
        <time>2022-04-22T13:54:32Z</time>
      </trkpt>
      <trkpt lat="46.6465" lon="5.47997">
        <ele>234.8</ele>
        <time>2022-04-22T13:54:37Z</time>
      </trkpt>
      <trkpt lat="46.64648" lon="5.47985">
        <ele>234.6</ele>
        <time>2022-04-22T13:54:38Z</time>
      </trkpt>
      <trkpt lat="46.64635" lon="5.47901">
        <ele>234.4</ele>
        <time>2022-04-22T13:54:45Z</time>
      </trkpt>
      <trkpt lat="46.64627" lon="5.47865">
        <ele>234.2</ele>
        <time>2022-04-22T13:54:48Z</time>
      </trkpt>
      <trkpt lat="46.64617" lon="5.47832">
        <ele>233.8</ele>
        <time>2022-04-22T13:54:51Z</time>
      </trkpt>
      <trkpt lat="46.64606" lon="5.478">
        <ele>233.4</ele>
        <time>2022-04-22T13:54:54Z</time>
      </trkpt>
      <trkpt lat="46.64581" lon="5.47727">
        <ele>232.6</ele>
        <time>2022-04-22T13:55:01Z</time>
      </trkpt>
      <trkpt lat="46.64566" lon="5.47685">
        <ele>232.6</ele>
        <time>2022-04-22T13:55:05Z</time>
      </trkpt>
      <trkpt lat="46.64541" lon="5.47615">
        <ele>232.6</ele>
        <time>2022-04-22T13:55:12Z</time>
      </trkpt>
      <trkpt lat="46.64515" lon="5.47539">
        <ele>232.4</ele>
        <time>2022-04-22T13:55:19Z</time>
      </trkpt>
      <trkpt lat="46.64508" lon="5.47517">
        <ele>231.6</ele>
        <time>2022-04-22T13:55:21Z</time>
      </trkpt>
      <trkpt lat="46.64489" lon="5.47459">
        <ele>230.4</ele>
        <time>2022-04-22T13:55:26Z</time>
      </trkpt>
      <trkpt lat="46.64485" lon="5.47449">
        <ele>230</ele>
        <time>2022-04-22T13:55:27Z</time>
      </trkpt>
      <trkpt lat="46.64472" lon="5.47417">
        <ele>229.2</ele>
        <time>2022-04-22T13:55:30Z</time>
      </trkpt>
      <trkpt lat="46.64454" lon="5.47362">
        <ele>228.6</ele>
        <time>2022-04-22T13:55:35Z</time>
      </trkpt>
      <trkpt lat="46.64439" lon="5.47319">
        <ele>228.2</ele>
        <time>2022-04-22T13:55:39Z</time>
      </trkpt>
      <trkpt lat="46.64428" lon="5.47288">
        <ele>228.2</ele>
        <time>2022-04-22T13:55:42Z</time>
      </trkpt>
      <trkpt lat="46.64402" lon="5.47212">
        <ele>228.6</ele>
        <time>2022-04-22T13:55:50Z</time>
      </trkpt>
      <trkpt lat="46.64399" lon="5.47202">
        <ele>228.8</ele>
        <time>2022-04-22T13:55:51Z</time>
      </trkpt>
      <trkpt lat="46.6438" lon="5.47142">
        <ele>228.8</ele>
        <time>2022-04-22T13:55:57Z</time>
      </trkpt>
      <trkpt lat="46.64364" lon="5.47087">
        <ele>228</ele>
        <time>2022-04-22T13:56:03Z</time>
      </trkpt>
      <trkpt lat="46.64358" lon="5.47072">
        <ele>228</ele>
        <time>2022-04-22T13:56:05Z</time>
      </trkpt>
      <trkpt lat="46.64353" lon="5.47068">
        <ele>228</ele>
        <time>2022-04-22T13:56:06Z</time>
      </trkpt>
      <trkpt lat="46.64346" lon="5.47073">
        <ele>228</ele>
        <time>2022-04-22T13:56:08Z</time>
      </trkpt>
      <trkpt lat="46.64345" lon="5.47086">
        <ele>228.2</ele>
        <time>2022-04-22T13:56:10Z</time>
      </trkpt>
      <trkpt lat="46.64343" lon="5.47096">
        <ele>228.2</ele>
        <time>2022-04-22T13:56:11Z</time>
      </trkpt>
      <trkpt lat="46.6434" lon="5.47114">
        <ele>228.4</ele>
        <time>2022-04-22T13:56:13Z</time>
      </trkpt>
      <trkpt lat="46.64338" lon="5.47132">
        <ele>228.4</ele>
        <time>2022-04-22T13:56:15Z</time>
      </trkpt>
      <trkpt lat="46.64336" lon="5.47151">
        <ele>228.8</ele>
        <time>2022-04-22T13:56:17Z</time>
      </trkpt>
      <trkpt lat="46.6433" lon="5.47169">
        <ele>228.8</ele>
        <time>2022-04-22T13:56:19Z</time>
      </trkpt>
      <trkpt lat="46.64307" lon="5.47211">
        <ele>228.6</ele>
        <time>2022-04-22T13:56:24Z</time>
      </trkpt>
      <trkpt lat="46.64273" lon="5.47266">
        <ele>226.8</ele>
        <time>2022-04-22T13:56:30Z</time>
      </trkpt>
      <trkpt lat="46.64261" lon="5.47285">
        <ele>225.8</ele>
        <time>2022-04-22T13:56:32Z</time>
      </trkpt>
      <trkpt lat="46.6424" lon="5.47313">
        <ele>224.6</ele>
        <time>2022-04-22T13:56:35Z</time>
      </trkpt>
      <trkpt lat="46.64225" lon="5.47332">
        <ele>223.8</ele>
        <time>2022-04-22T13:56:37Z</time>
      </trkpt>
      <trkpt lat="46.64209" lon="5.47348">
        <ele>222.8</ele>
        <time>2022-04-22T13:56:39Z</time>
      </trkpt>
      <trkpt lat="46.64188" lon="5.47372">
        <ele>221.8</ele>
        <time>2022-04-22T13:56:42Z</time>
      </trkpt>
      <trkpt lat="46.64182" lon="5.4738">
        <ele>221.6</ele>
        <time>2022-04-22T13:56:43Z</time>
      </trkpt>
      <trkpt lat="46.64149" lon="5.47417">
        <ele>221.2</ele>
        <time>2022-04-22T13:56:48Z</time>
      </trkpt>
      <trkpt lat="46.64118" lon="5.47449">
        <ele>221.4</ele>
        <time>2022-04-22T13:56:53Z</time>
      </trkpt>
      <trkpt lat="46.64106" lon="5.47458">
        <ele>221.8</ele>
        <time>2022-04-22T13:56:55Z</time>
      </trkpt>
      <trkpt lat="46.64094" lon="5.47462">
        <ele>222.6</ele>
        <time>2022-04-22T13:56:57Z</time>
      </trkpt>
      <trkpt lat="46.64088" lon="5.47464">
        <ele>223.2</ele>
        <time>2022-04-22T13:56:58Z</time>
      </trkpt>
      <trkpt lat="46.64065" lon="5.47465">
        <ele>224.2</ele>
        <time>2022-04-22T13:57:02Z</time>
      </trkpt>
      <trkpt lat="46.64044" lon="5.47463">
        <ele>225.2</ele>
        <time>2022-04-22T13:57:06Z</time>
      </trkpt>
      <trkpt lat="46.6403" lon="5.47463">
        <ele>226.4</ele>
        <time>2022-04-22T13:57:09Z</time>
      </trkpt>
      <trkpt lat="46.64018" lon="5.47462">
        <ele>227.4</ele>
        <time>2022-04-22T13:57:12Z</time>
      </trkpt>
      <trkpt lat="46.64001" lon="5.47462">
        <ele>228.2</ele>
        <time>2022-04-22T13:57:16Z</time>
      </trkpt>
      <trkpt lat="46.63997" lon="5.47463">
        <ele>228.6</ele>
        <time>2022-04-22T13:57:17Z</time>
      </trkpt>
      <trkpt lat="46.63985" lon="5.47465">
        <ele>230</ele>
        <time>2022-04-22T13:57:20Z</time>
      </trkpt>
      <trkpt lat="46.63977" lon="5.47469">
        <ele>230.4</ele>
        <time>2022-04-22T13:57:22Z</time>
      </trkpt>
      <trkpt lat="46.63974" lon="5.47472">
        <ele>230.8</ele>
        <time>2022-04-22T13:57:23Z</time>
      </trkpt>
      <trkpt lat="46.63971" lon="5.47477">
        <ele>231</ele>
        <time>2022-04-22T13:57:24Z</time>
      </trkpt>
      <trkpt lat="46.63963" lon="5.47496">
        <ele>232.2</ele>
        <time>2022-04-22T13:57:28Z</time>
      </trkpt>
      <trkpt lat="46.63957" lon="5.47515">
        <ele>233.2</ele>
        <time>2022-04-22T13:57:32Z</time>
      </trkpt>
      <trkpt lat="46.63951" lon="5.47533">
        <ele>234.2</ele>
        <time>2022-04-22T13:57:36Z</time>
      </trkpt>
      <trkpt lat="46.63949" lon="5.47538">
        <ele>234.4</ele>
        <time>2022-04-22T13:57:37Z</time>
      </trkpt>
      <trkpt lat="46.63941" lon="5.4756">
        <ele>235.6</ele>
        <time>2022-04-22T13:57:42Z</time>
      </trkpt>
      <trkpt lat="46.63935" lon="5.47578">
        <ele>236.4</ele>
        <time>2022-04-22T13:57:46Z</time>
      </trkpt>
      <trkpt lat="46.6393" lon="5.47594">
        <ele>236.8</ele>
        <time>2022-04-22T13:57:49Z</time>
      </trkpt>
      <trkpt lat="46.63922" lon="5.47619">
        <ele>237.8</ele>
        <time>2022-04-22T13:57:54Z</time>
      </trkpt>
      <trkpt lat="46.63919" lon="5.47628">
        <ele>238.4</ele>
        <time>2022-04-22T13:57:56Z</time>
      </trkpt>
      <trkpt lat="46.63913" lon="5.47652">
        <ele>239</ele>
        <time>2022-04-22T13:58:00Z</time>
      </trkpt>
      <trkpt lat="46.63909" lon="5.47663">
        <ele>239.4</ele>
        <time>2022-04-22T13:58:02Z</time>
      </trkpt>
      <trkpt lat="46.63906" lon="5.47674">
        <ele>239.8</ele>
        <time>2022-04-22T13:58:04Z</time>
      </trkpt>
      <trkpt lat="46.63905" lon="5.4768">
        <ele>240</ele>
        <time>2022-04-22T13:58:05Z</time>
      </trkpt>
      <trkpt lat="46.63899" lon="5.47716">
        <ele>241.2</ele>
        <time>2022-04-22T13:58:11Z</time>
      </trkpt>
      <trkpt lat="46.63897" lon="5.47728">
        <ele>241.4</ele>
        <time>2022-04-22T13:58:13Z</time>
      </trkpt>
      <trkpt lat="46.63895" lon="5.4774">
        <ele>241.8</ele>
        <time>2022-04-22T13:58:15Z</time>
      </trkpt>
      <trkpt lat="46.63894" lon="5.47752">
        <ele>242</ele>
        <time>2022-04-22T13:58:17Z</time>
      </trkpt>
      <trkpt lat="46.63894" lon="5.47758">
        <ele>242.4</ele>
        <time>2022-04-22T13:58:18Z</time>
      </trkpt>
      <trkpt lat="46.63893" lon="5.47766">
        <ele>242.6</ele>
        <time>2022-04-22T13:58:19Z</time>
      </trkpt>
      <trkpt lat="46.63888" lon="5.478">
        <ele>243.4</ele>
        <time>2022-04-22T13:58:24Z</time>
      </trkpt>
      <trkpt lat="46.63887" lon="5.47808">
        <ele>243.6</ele>
        <time>2022-04-22T13:58:25Z</time>
      </trkpt>
      <trkpt lat="46.63882" lon="5.47841">
        <ele>244.2</ele>
        <time>2022-04-22T13:58:29Z</time>
      </trkpt>
      <trkpt lat="46.63874" lon="5.47894">
        <ele>244.6</ele>
        <time>2022-04-22T13:58:35Z</time>
      </trkpt>
      <trkpt lat="46.63863" lon="5.47974">
        <ele>244.2</ele>
        <time>2022-04-22T13:58:43Z</time>
      </trkpt>
      <trkpt lat="46.63851" lon="5.48057">
        <ele>243.4</ele>
        <time>2022-04-22T13:58:51Z</time>
      </trkpt>
      <trkpt lat="46.63848" lon="5.48079">
        <ele>243.4</ele>
        <time>2022-04-22T13:58:53Z</time>
      </trkpt>
      <trkpt lat="46.63841" lon="5.48125">
        <ele>242.6</ele>
        <time>2022-04-22T13:58:57Z</time>
      </trkpt>
      <trkpt lat="46.63836" lon="5.4816">
        <ele>242</ele>
        <time>2022-04-22T13:59:00Z</time>
      </trkpt>
      <trkpt lat="46.63832" lon="5.48184">
        <ele>241.6</ele>
        <time>2022-04-22T13:59:02Z</time>
      </trkpt>
      <trkpt lat="46.63824" lon="5.48242">
        <ele>240.6</ele>
        <time>2022-04-22T13:59:07Z</time>
      </trkpt>
      <trkpt lat="46.63821" lon="5.48265">
        <ele>240</ele>
        <time>2022-04-22T13:59:09Z</time>
      </trkpt>
      <trkpt lat="46.6382" lon="5.48287">
        <ele>239.4</ele>
        <time>2022-04-22T13:59:11Z</time>
      </trkpt>
      <trkpt lat="46.63823" lon="5.48311">
        <ele>239</ele>
        <time>2022-04-22T13:59:13Z</time>
      </trkpt>
      <trkpt lat="46.63836" lon="5.48372">
        <ele>237.8</ele>
        <time>2022-04-22T13:59:18Z</time>
      </trkpt>
      <trkpt lat="46.63839" lon="5.48384">
        <ele>237.4</ele>
        <time>2022-04-22T13:59:19Z</time>
      </trkpt>
      <trkpt lat="46.63841" lon="5.48396">
        <ele>236.8</ele>
        <time>2022-04-22T13:59:20Z</time>
      </trkpt>
      <trkpt lat="46.63843" lon="5.48409">
        <ele>236</ele>
        <time>2022-04-22T13:59:21Z</time>
      </trkpt>
      <trkpt lat="46.63846" lon="5.48434">
        <ele>235.8</ele>
        <time>2022-04-22T13:59:23Z</time>
      </trkpt>
      <trkpt lat="46.63851" lon="5.48459">
        <ele>234.8</ele>
        <time>2022-04-22T13:59:25Z</time>
      </trkpt>
      <trkpt lat="46.63861" lon="5.48518">
        <ele>234.2</ele>
        <time>2022-04-22T13:59:30Z</time>
      </trkpt>
      <trkpt lat="46.63869" lon="5.48536">
        <ele>234.2</ele>
        <time>2022-04-22T13:59:32Z</time>
      </trkpt>
      <trkpt lat="46.63873" lon="5.4854">
        <ele>234.2</ele>
        <time>2022-04-22T13:59:33Z</time>
      </trkpt>
      <trkpt lat="46.63881" lon="5.48545">
        <ele>234.2</ele>
        <time>2022-04-22T13:59:34Z</time>
      </trkpt>
      <trkpt lat="46.63903" lon="5.48552">
        <ele>234.8</ele>
        <time>2022-04-22T13:59:37Z</time>
      </trkpt>
      <trkpt lat="46.63946" lon="5.48565">
        <ele>235.4</ele>
        <time>2022-04-22T13:59:43Z</time>
      </trkpt>
      <trkpt lat="46.63953" lon="5.4857">
        <ele>235.8</ele>
        <time>2022-04-22T13:59:44Z</time>
      </trkpt>
      <trkpt lat="46.63957" lon="5.48575">
        <ele>236</ele>
        <time>2022-04-22T13:59:45Z</time>
      </trkpt>
      <trkpt lat="46.63962" lon="5.48583">
        <ele>236</ele>
        <time>2022-04-22T13:59:46Z</time>
      </trkpt>
      <trkpt lat="46.63966" lon="5.48594">
        <ele>236</ele>
        <time>2022-04-22T13:59:47Z</time>
      </trkpt>
      <trkpt lat="46.63965" lon="5.48623">
        <ele>236.6</ele>
        <time>2022-04-22T13:59:50Z</time>
      </trkpt>
      <trkpt lat="46.63965" lon="5.48669">
        <ele>237.4</ele>
        <time>2022-04-22T13:59:55Z</time>
      </trkpt>
      <trkpt lat="46.63965" lon="5.48678">
        <ele>237.4</ele>
        <time>2022-04-22T13:59:56Z</time>
      </trkpt>
      <trkpt lat="46.63964" lon="5.48712">
        <ele>238.4</ele>
        <time>2022-04-22T14:00:00Z</time>
      </trkpt>
      <trkpt lat="46.63965" lon="5.48727">
        <ele>239.2</ele>
        <time>2022-04-22T14:00:02Z</time>
      </trkpt>
      <trkpt lat="46.63965" lon="5.48735">
        <ele>239.4</ele>
        <time>2022-04-22T14:00:03Z</time>
      </trkpt>
      <trkpt lat="46.63966" lon="5.48757">
        <ele>240.6</ele>
        <time>2022-04-22T14:00:06Z</time>
      </trkpt>
      <trkpt lat="46.63966" lon="5.4878">
        <ele>241.6</ele>
        <time>2022-04-22T14:00:09Z</time>
      </trkpt>
      <trkpt lat="46.63966" lon="5.48809">
        <ele>242.6</ele>
        <time>2022-04-22T14:00:13Z</time>
      </trkpt>
      <trkpt lat="46.63966" lon="5.48851">
        <ele>243.8</ele>
        <time>2022-04-22T14:00:19Z</time>
      </trkpt>
      <trkpt lat="46.63966" lon="5.48887">
        <ele>245</ele>
        <time>2022-04-22T14:00:24Z</time>
      </trkpt>
      <trkpt lat="46.63965" lon="5.48901">
        <ele>245.2</ele>
        <time>2022-04-22T14:00:26Z</time>
      </trkpt>
      <trkpt lat="46.63965" lon="5.48931">
        <ele>246.2</ele>
        <time>2022-04-22T14:00:30Z</time>
      </trkpt>
      <trkpt lat="46.63964" lon="5.4896">
        <ele>247</ele>
        <time>2022-04-22T14:00:34Z</time>
      </trkpt>
      <trkpt lat="46.63963" lon="5.49032">
        <ele>248.2</ele>
        <time>2022-04-22T14:00:43Z</time>
      </trkpt>
      <trkpt lat="46.63963" lon="5.49047">
        <ele>248.4</ele>
        <time>2022-04-22T14:00:45Z</time>
      </trkpt>
      <trkpt lat="46.63963" lon="5.49093">
        <ele>249.4</ele>
        <time>2022-04-22T14:00:51Z</time>
      </trkpt>
      <trkpt lat="46.63966" lon="5.49136">
        <ele>250.8</ele>
        <time>2022-04-22T14:00:57Z</time>
      </trkpt>
      <trkpt lat="46.63976" lon="5.49174">
        <ele>251.8</ele>
        <time>2022-04-22T14:01:03Z</time>
      </trkpt>
      <trkpt lat="46.63978" lon="5.4918">
        <ele>252.4</ele>
        <time>2022-04-22T14:01:04Z</time>
      </trkpt>
      <trkpt lat="46.63981" lon="5.4919">
        <ele>253</ele>
        <time>2022-04-22T14:01:06Z</time>
      </trkpt>
      <trkpt lat="46.63987" lon="5.49207">
        <ele>254.2</ele>
        <time>2022-04-22T14:01:09Z</time>
      </trkpt>
      <trkpt lat="46.63997" lon="5.49236">
        <ele>255.2</ele>
        <time>2022-04-22T14:01:14Z</time>
      </trkpt>
      <trkpt lat="46.63999" lon="5.49241">
        <ele>255.4</ele>
        <time>2022-04-22T14:01:15Z</time>
      </trkpt>
      <trkpt lat="46.64001" lon="5.49247">
        <ele>255.6</ele>
        <time>2022-04-22T14:01:16Z</time>
      </trkpt>
      <trkpt lat="46.64008" lon="5.49271">
        <ele>256.2</ele>
        <time>2022-04-22T14:01:20Z</time>
      </trkpt>
      <trkpt lat="46.64013" lon="5.49288">
        <ele>257</ele>
        <time>2022-04-22T14:01:23Z</time>
      </trkpt>
      <trkpt lat="46.64018" lon="5.49301">
        <ele>257.2</ele>
        <time>2022-04-22T14:01:25Z</time>
      </trkpt>
      <trkpt lat="46.64028" lon="5.49323">
        <ele>257.6</ele>
        <time>2022-04-22T14:01:29Z</time>
      </trkpt>
      <trkpt lat="46.64035" lon="5.49333">
        <ele>257.8</ele>
        <time>2022-04-22T14:01:31Z</time>
      </trkpt>
      <trkpt lat="46.64046" lon="5.49351">
        <ele>258.2</ele>
        <time>2022-04-22T14:01:34Z</time>
      </trkpt>
      <trkpt lat="46.64054" lon="5.49362">
        <ele>258.4</ele>
        <time>2022-04-22T14:01:36Z</time>
      </trkpt>
      <trkpt lat="46.64076" lon="5.49396">
        <ele>258.4</ele>
        <time>2022-04-22T14:01:41Z</time>
      </trkpt>
      <trkpt lat="46.64089" lon="5.49415">
        <ele>258</ele>
        <time>2022-04-22T14:01:44Z</time>
      </trkpt>
      <trkpt lat="46.64104" lon="5.49439">
        <ele>257.6</ele>
        <time>2022-04-22T14:01:47Z</time>
      </trkpt>
      <trkpt lat="46.6412" lon="5.4946">
        <ele>257</ele>
        <time>2022-04-22T14:01:50Z</time>
      </trkpt>
      <trkpt lat="46.6414" lon="5.49486">
        <ele>256.2</ele>
        <time>2022-04-22T14:01:54Z</time>
      </trkpt>
      <trkpt lat="46.64146" lon="5.49494">
        <ele>255.6</ele>
        <time>2022-04-22T14:01:55Z</time>
      </trkpt>
      <trkpt lat="46.64165" lon="5.49518">
        <ele>255</ele>
        <time>2022-04-22T14:01:59Z</time>
      </trkpt>
      <trkpt lat="46.64175" lon="5.49532">
        <ele>255</ele>
        <time>2022-04-22T14:02:01Z</time>
      </trkpt>
      <trkpt lat="46.64181" lon="5.49551">
        <ele>254.8</ele>
        <time>2022-04-22T14:02:03Z</time>
      </trkpt>
      <trkpt lat="46.64182" lon="5.49561">
        <ele>254.8</ele>
        <time>2022-04-22T14:02:04Z</time>
      </trkpt>
      <trkpt lat="46.64182" lon="5.4957">
        <ele>254.8</ele>
        <time>2022-04-22T14:02:05Z</time>
      </trkpt>
      <trkpt lat="46.64181" lon="5.49583">
        <ele>254.6</ele>
        <time>2022-04-22T14:02:06Z</time>
      </trkpt>
      <trkpt lat="46.64179" lon="5.49605">
        <ele>254.6</ele>
        <time>2022-04-22T14:02:08Z</time>
      </trkpt>
      <trkpt lat="46.64179" lon="5.49651">
        <ele>254.6</ele>
        <time>2022-04-22T14:02:12Z</time>
      </trkpt>
      <trkpt lat="46.64177" lon="5.49673">
        <ele>254.6</ele>
        <time>2022-04-22T14:02:14Z</time>
      </trkpt>
      <trkpt lat="46.64173" lon="5.49684">
        <ele>254.8</ele>
        <time>2022-04-22T14:02:15Z</time>
      </trkpt>
      <trkpt lat="46.64169" lon="5.49693">
        <ele>254.8</ele>
        <time>2022-04-22T14:02:16Z</time>
      </trkpt>
      <trkpt lat="46.64153" lon="5.49715">
        <ele>254.8</ele>
        <time>2022-04-22T14:02:19Z</time>
      </trkpt>
      <trkpt lat="46.64124" lon="5.49751">
        <ele>255.8</ele>
        <time>2022-04-22T14:02:25Z</time>
      </trkpt>
      <trkpt lat="46.6412" lon="5.49757">
        <ele>256</ele>
        <time>2022-04-22T14:02:26Z</time>
      </trkpt>
      <trkpt lat="46.64109" lon="5.49776">
        <ele>257.2</ele>
        <time>2022-04-22T14:02:29Z</time>
      </trkpt>
      <trkpt lat="46.64098" lon="5.49797">
        <ele>257.6</ele>
        <time>2022-04-22T14:02:32Z</time>
      </trkpt>
      <trkpt lat="46.64074" lon="5.49848">
        <ele>258.2</ele>
        <time>2022-04-22T14:02:39Z</time>
      </trkpt>
      <trkpt lat="46.64065" lon="5.4987">
        <ele>258.4</ele>
        <time>2022-04-22T14:02:42Z</time>
      </trkpt>
      <trkpt lat="46.64046" lon="5.49928">
        <ele>259.2</ele>
        <time>2022-04-22T14:02:50Z</time>
      </trkpt>
      <trkpt lat="46.64044" lon="5.49935">
        <ele>259.2</ele>
        <time>2022-04-22T14:02:51Z</time>
      </trkpt>
      <trkpt lat="46.64031" lon="5.49974">
        <ele>260.4</ele>
        <time>2022-04-22T14:02:57Z</time>
      </trkpt>
      <trkpt lat="46.64026" lon="5.49984">
        <ele>260.6</ele>
        <time>2022-04-22T14:02:59Z</time>
      </trkpt>
      <trkpt lat="46.64024" lon="5.4999">
        <ele>260.8</ele>
        <time>2022-04-22T14:03:00Z</time>
      </trkpt>
      <trkpt lat="46.64016" lon="5.50006">
        <ele>261.4</ele>
        <time>2022-04-22T14:03:04Z</time>
      </trkpt>
      <trkpt lat="46.64013" lon="5.50008">
        <ele>261.6</ele>
        <time>2022-04-22T14:03:05Z</time>
      </trkpt>
      <trkpt lat="46.64006" lon="5.50007">
        <ele>261.8</ele>
        <time>2022-04-22T14:03:07Z</time>
      </trkpt>
      <trkpt lat="46.64002" lon="5.50006">
        <ele>261.8</ele>
        <time>2022-04-22T14:03:08Z</time>
      </trkpt>
      <trkpt lat="46.63998" lon="5.50008">
        <ele>261.8</ele>
        <time>2022-04-22T14:03:09Z</time>
      </trkpt>
      <trkpt lat="46.63991" lon="5.50018">
        <ele>261.8</ele>
        <time>2022-04-22T14:03:11Z</time>
      </trkpt>
      <trkpt lat="46.63971" lon="5.50071">
        <ele>262</ele>
        <time>2022-04-22T14:03:19Z</time>
      </trkpt>
      <trkpt lat="46.63959" lon="5.50099">
        <ele>262.6</ele>
        <time>2022-04-22T14:03:23Z</time>
      </trkpt>
      <trkpt lat="46.63951" lon="5.5012">
        <ele>263.2</ele>
        <time>2022-04-22T14:03:26Z</time>
      </trkpt>
      <trkpt lat="46.63942" lon="5.50141">
        <ele>263.8</ele>
        <time>2022-04-22T14:03:29Z</time>
      </trkpt>
      <trkpt lat="46.63927" lon="5.50171">
        <ele>264.2</ele>
        <time>2022-04-22T14:03:34Z</time>
      </trkpt>
      <trkpt lat="46.63912" lon="5.50201">
        <ele>265</ele>
        <time>2022-04-22T14:03:39Z</time>
      </trkpt>
      <trkpt lat="46.63908" lon="5.50206">
        <ele>265</ele>
        <time>2022-04-22T14:03:40Z</time>
      </trkpt>
      <trkpt lat="46.63895" lon="5.50228">
        <ele>265.6</ele>
        <time>2022-04-22T14:03:44Z</time>
      </trkpt>
      <trkpt lat="46.63887" lon="5.50243">
        <ele>265.8</ele>
        <time>2022-04-22T14:03:47Z</time>
      </trkpt>
      <trkpt lat="46.63884" lon="5.50247">
        <ele>266</ele>
        <time>2022-04-22T14:03:48Z</time>
      </trkpt>
      <trkpt lat="46.63866" lon="5.50276">
        <ele>267.2</ele>
        <time>2022-04-22T14:03:54Z</time>
      </trkpt>
      <trkpt lat="46.63863" lon="5.50281">
        <ele>267.4</ele>
        <time>2022-04-22T14:03:55Z</time>
      </trkpt>
      <trkpt lat="46.63856" lon="5.50288">
        <ele>267.8</ele>
        <time>2022-04-22T14:03:57Z</time>
      </trkpt>
      <trkpt lat="46.63849" lon="5.50286">
        <ele>268.2</ele>
        <time>2022-04-22T14:03:59Z</time>
      </trkpt>
      <trkpt lat="46.63841" lon="5.50281">
        <ele>268.6</ele>
        <time>2022-04-22T14:04:01Z</time>
      </trkpt>
      <trkpt lat="46.63832" lon="5.50277">
        <ele>268.8</ele>
        <time>2022-04-22T14:04:03Z</time>
      </trkpt>
      <trkpt lat="46.63828" lon="5.50275">
        <ele>269</ele>
        <time>2022-04-22T14:04:04Z</time>
      </trkpt>
      <trkpt lat="46.63819" lon="5.50272">
        <ele>269.2</ele>
        <time>2022-04-22T14:04:06Z</time>
      </trkpt>
      <trkpt lat="46.63788" lon="5.50259">
        <ele>270.2</ele>
        <time>2022-04-22T14:04:13Z</time>
      </trkpt>
      <trkpt lat="46.63783" lon="5.50257">
        <ele>270.4</ele>
        <time>2022-04-22T14:04:14Z</time>
      </trkpt>
      <trkpt lat="46.63761" lon="5.50251">
        <ele>271</ele>
        <time>2022-04-22T14:04:19Z</time>
      </trkpt>
      <trkpt lat="46.63751" lon="5.50248">
        <ele>271.4</ele>
        <time>2022-04-22T14:04:21Z</time>
      </trkpt>
      <trkpt lat="46.63723" lon="5.50236">
        <ele>272.4</ele>
        <time>2022-04-22T14:04:27Z</time>
      </trkpt>
      <trkpt lat="46.63703" lon="5.5023">
        <ele>272.8</ele>
        <time>2022-04-22T14:04:31Z</time>
      </trkpt>
      <trkpt lat="46.63698" lon="5.50229">
        <ele>272.8</ele>
        <time>2022-04-22T14:04:32Z</time>
      </trkpt>
      <trkpt lat="46.63688" lon="5.50231">
        <ele>273</ele>
        <time>2022-04-22T14:04:34Z</time>
      </trkpt>
      <trkpt lat="46.63675" lon="5.50238">
        <ele>273.2</ele>
        <time>2022-04-22T14:04:37Z</time>
      </trkpt>
      <trkpt lat="46.63668" lon="5.50245">
        <ele>273.4</ele>
        <time>2022-04-22T14:04:39Z</time>
      </trkpt>
      <trkpt lat="46.63662" lon="5.50257">
        <ele>273.6</ele>
        <time>2022-04-22T14:04:41Z</time>
      </trkpt>
      <trkpt lat="46.6366" lon="5.50261">
        <ele>273.6</ele>
        <time>2022-04-22T14:04:42Z</time>
      </trkpt>
      <trkpt lat="46.63658" lon="5.50263">
        <ele>274</ele>
        <time>2022-04-22T14:04:43Z</time>
      </trkpt>
      <trkpt lat="46.63654" lon="5.50264">
        <ele>274.4</ele>
        <time>2022-04-22T14:04:45Z</time>
      </trkpt>
      <trkpt lat="46.63653" lon="5.50265">
        <ele>274.4</ele>
        <time>2022-04-22T14:04:46Z</time>
      </trkpt>
      <trkpt lat="46.63653" lon="5.50268">
        <ele>274.6</ele>
        <time>2022-04-22T14:04:47Z</time>
      </trkpt>
      <trkpt lat="46.63653" lon="5.5027">
        <ele>274.8</ele>
        <time>2022-04-22T14:04:48Z</time>
      </trkpt>
      <trkpt lat="46.63655" lon="5.50268">
        <ele>275</ele>
        <time>2022-04-22T14:04:51Z</time>
      </trkpt>
      <trkpt lat="46.63656" lon="5.50267">
        <ele>275.2</ele>
        <time>2022-04-22T14:04:52Z</time>
      </trkpt>
      <trkpt lat="46.63656" lon="5.50266">
        <ele>275.2</ele>
        <time>2022-04-22T14:04:55Z</time>
      </trkpt>
      <trkpt lat="46.63656" lon="5.50259">
        <ele>274.8</ele>
        <time>2022-04-22T14:05:40Z</time>
      </trkpt>
      <trkpt lat="46.63657" lon="5.50249">
        <ele>274.6</ele>
        <time>2022-04-22T14:05:42Z</time>
      </trkpt>
      <trkpt lat="46.63656" lon="5.50225">
        <ele>274.2</ele>
        <time>2022-04-22T14:05:46Z</time>
      </trkpt>
      <trkpt lat="46.63655" lon="5.50212">
        <ele>274</ele>
        <time>2022-04-22T14:05:48Z</time>
      </trkpt>
      <trkpt lat="46.63655" lon="5.50206">
        <ele>273.6</ele>
        <time>2022-04-22T14:05:49Z</time>
      </trkpt>
      <trkpt lat="46.63654" lon="5.502">
        <ele>273.2</ele>
        <time>2022-04-22T14:05:50Z</time>
      </trkpt>
      <trkpt lat="46.63654" lon="5.50195">
        <ele>273</ele>
        <time>2022-04-22T14:05:51Z</time>
      </trkpt>
      <trkpt lat="46.63653" lon="5.50191">
        <ele>272.6</ele>
        <time>2022-04-22T14:05:53Z</time>
      </trkpt>
      <trkpt lat="46.63652" lon="5.50191">
        <ele>272.2</ele>
        <time>2022-04-22T14:05:54Z</time>
      </trkpt>
      <trkpt lat="46.63652" lon="5.50191">
        <ele>272.2</ele>
        <time>2022-04-22T14:05:55Z</time>
      </trkpt>
      <trkpt lat="46.63651" lon="5.50177">
        <ele>270.8</ele>
        <time>2022-04-22T14:06:49Z</time>
      </trkpt>
      <trkpt lat="46.63651" lon="5.50168">
        <ele>270.8</ele>
        <time>2022-04-22T14:06:50Z</time>
      </trkpt>
      <trkpt lat="46.63645" lon="5.50128">
        <ele>270.6</ele>
        <time>2022-04-22T14:06:54Z</time>
      </trkpt>
      <trkpt lat="46.63639" lon="5.50106">
        <ele>270</ele>
        <time>2022-04-22T14:06:56Z</time>
      </trkpt>
      <trkpt lat="46.6363" lon="5.50087">
        <ele>269.6</ele>
        <time>2022-04-22T14:06:58Z</time>
      </trkpt>
      <trkpt lat="46.63611" lon="5.50065">
        <ele>268</ele>
        <time>2022-04-22T14:07:01Z</time>
      </trkpt>
      <trkpt lat="46.63605" lon="5.50059">
        <ele>267.6</ele>
        <time>2022-04-22T14:07:02Z</time>
      </trkpt>
      <trkpt lat="46.63584" lon="5.5004">
        <ele>266.8</ele>
        <time>2022-04-22T14:07:05Z</time>
      </trkpt>
      <trkpt lat="46.63551" lon="5.50006">
        <ele>265.8</ele>
        <time>2022-04-22T14:07:10Z</time>
      </trkpt>
      <trkpt lat="46.63545" lon="5.49997">
        <ele>265.6</ele>
        <time>2022-04-22T14:07:11Z</time>
      </trkpt>
      <trkpt lat="46.63536" lon="5.49976">
        <ele>265</ele>
        <time>2022-04-22T14:07:13Z</time>
      </trkpt>
      <trkpt lat="46.63535" lon="5.49965">
        <ele>264.8</ele>
        <time>2022-04-22T14:07:14Z</time>
      </trkpt>
      <trkpt lat="46.63534" lon="5.49953">
        <ele>264.4</ele>
        <time>2022-04-22T14:07:15Z</time>
      </trkpt>
      <trkpt lat="46.63531" lon="5.49904">
        <ele>263.8</ele>
        <time>2022-04-22T14:07:19Z</time>
      </trkpt>
      <trkpt lat="46.6353" lon="5.49892">
        <ele>263.6</ele>
        <time>2022-04-22T14:07:20Z</time>
      </trkpt>
      <trkpt lat="46.63526" lon="5.49809">
        <ele>262.6</ele>
        <time>2022-04-22T14:07:27Z</time>
      </trkpt>
      <trkpt lat="46.63516" lon="5.49724">
        <ele>261.6</ele>
        <time>2022-04-22T14:07:34Z</time>
      </trkpt>
      <trkpt lat="46.63499" lon="5.49663">
        <ele>260.6</ele>
        <time>2022-04-22T14:07:39Z</time>
      </trkpt>
      <trkpt lat="46.63495" lon="5.49651">
        <ele>260.2</ele>
        <time>2022-04-22T14:07:40Z</time>
      </trkpt>
      <trkpt lat="46.63484" lon="5.49613">
        <ele>259.4</ele>
        <time>2022-04-22T14:07:43Z</time>
      </trkpt>
      <trkpt lat="46.63476" lon="5.49588">
        <ele>258</ele>
        <time>2022-04-22T14:07:45Z</time>
      </trkpt>
      <trkpt lat="46.63469" lon="5.49564">
        <ele>257.4</ele>
        <time>2022-04-22T14:07:47Z</time>
      </trkpt>
      <trkpt lat="46.63448" lon="5.49512">
        <ele>257</ele>
        <time>2022-04-22T14:07:52Z</time>
      </trkpt>
      <trkpt lat="46.63444" lon="5.49503">
        <ele>257</ele>
        <time>2022-04-22T14:07:53Z</time>
      </trkpt>
      <trkpt lat="46.63421" lon="5.49473">
        <ele>257</ele>
        <time>2022-04-22T14:07:57Z</time>
      </trkpt>
      <trkpt lat="46.63379" lon="5.49428">
        <ele>256.8</ele>
        <time>2022-04-22T14:08:03Z</time>
      </trkpt>
      <trkpt lat="46.63364" lon="5.49414">
        <ele>255.2</ele>
        <time>2022-04-22T14:08:05Z</time>
      </trkpt>
      <trkpt lat="46.63336" lon="5.49387">
        <ele>254.2</ele>
        <time>2022-04-22T14:08:09Z</time>
      </trkpt>
      <trkpt lat="46.63329" lon="5.4938">
        <ele>254</ele>
        <time>2022-04-22T14:08:10Z</time>
      </trkpt>
      <trkpt lat="46.63289" lon="5.49345">
        <ele>254.6</ele>
        <time>2022-04-22T14:08:16Z</time>
      </trkpt>
      <trkpt lat="46.63267" lon="5.49325">
        <ele>255.2</ele>
        <time>2022-04-22T14:08:20Z</time>
      </trkpt>
      <trkpt lat="46.63256" lon="5.49317">
        <ele>256</ele>
        <time>2022-04-22T14:08:22Z</time>
      </trkpt>
      <trkpt lat="46.63244" lon="5.49311">
        <ele>256.8</ele>
        <time>2022-04-22T14:08:24Z</time>
      </trkpt>
      <trkpt lat="46.63227" lon="5.49305">
        <ele>257.8</ele>
        <time>2022-04-22T14:08:27Z</time>
      </trkpt>
      <trkpt lat="46.63221" lon="5.49303">
        <ele>258.2</ele>
        <time>2022-04-22T14:08:28Z</time>
      </trkpt>
      <trkpt lat="46.63199" lon="5.49297">
        <ele>259.2</ele>
        <time>2022-04-22T14:08:32Z</time>
      </trkpt>
      <trkpt lat="46.63188" lon="5.49296">
        <ele>259.8</ele>
        <time>2022-04-22T14:08:34Z</time>
      </trkpt>
      <trkpt lat="46.63182" lon="5.49296">
        <ele>260.2</ele>
        <time>2022-04-22T14:08:35Z</time>
      </trkpt>
      <trkpt lat="46.63161" lon="5.49303">
        <ele>260.6</ele>
        <time>2022-04-22T14:08:39Z</time>
      </trkpt>
      <trkpt lat="46.63151" lon="5.4931">
        <ele>260.8</ele>
        <time>2022-04-22T14:08:41Z</time>
      </trkpt>
      <trkpt lat="46.63124" lon="5.49343">
        <ele>261.4</ele>
        <time>2022-04-22T14:08:47Z</time>
      </trkpt>
      <trkpt lat="46.63116" lon="5.49353">
        <ele>261.8</ele>
        <time>2022-04-22T14:08:49Z</time>
      </trkpt>
      <trkpt lat="46.63103" lon="5.49367">
        <ele>262</ele>
        <time>2022-04-22T14:08:52Z</time>
      </trkpt>
      <trkpt lat="46.63093" lon="5.49375">
        <ele>262.4</ele>
        <time>2022-04-22T14:08:54Z</time>
      </trkpt>
      <trkpt lat="46.63088" lon="5.49378">
        <ele>262.4</ele>
        <time>2022-04-22T14:08:55Z</time>
      </trkpt>
      <trkpt lat="46.63048" lon="5.49396">
        <ele>263.6</ele>
        <time>2022-04-22T14:09:03Z</time>
      </trkpt>
      <trkpt lat="46.63034" lon="5.49404">
        <ele>264.2</ele>
        <time>2022-04-22T14:09:06Z</time>
      </trkpt>
      <trkpt lat="46.63019" lon="5.49412">
        <ele>264.6</ele>
        <time>2022-04-22T14:09:09Z</time>
      </trkpt>
      <trkpt lat="46.62991" lon="5.49427">
        <ele>265.8</ele>
        <time>2022-04-22T14:09:15Z</time>
      </trkpt>
      <trkpt lat="46.62983" lon="5.49432">
        <ele>266.2</ele>
        <time>2022-04-22T14:09:17Z</time>
      </trkpt>
      <trkpt lat="46.62969" lon="5.49445">
        <ele>267</ele>
        <time>2022-04-22T14:09:21Z</time>
      </trkpt>
      <trkpt lat="46.6295" lon="5.49459">
        <ele>268.2</ele>
        <time>2022-04-22T14:09:26Z</time>
      </trkpt>
      <trkpt lat="46.62939" lon="5.49464">
        <ele>269</ele>
        <time>2022-04-22T14:09:29Z</time>
      </trkpt>
      <trkpt lat="46.62936" lon="5.49464">
        <ele>269.4</ele>
        <time>2022-04-22T14:09:30Z</time>
      </trkpt>
      <trkpt lat="46.62934" lon="5.49461">
        <ele>269.4</ele>
        <time>2022-04-22T14:09:31Z</time>
      </trkpt>
      <trkpt lat="46.62932" lon="5.49456">
        <ele>269.8</ele>
        <time>2022-04-22T14:09:32Z</time>
      </trkpt>
      <trkpt lat="46.6293" lon="5.4945">
        <ele>270</ele>
        <time>2022-04-22T14:09:33Z</time>
      </trkpt>
      <trkpt lat="46.62924" lon="5.49438">
        <ele>270.4</ele>
        <time>2022-04-22T14:09:35Z</time>
      </trkpt>
      <trkpt lat="46.6292" lon="5.49433">
        <ele>270.4</ele>
        <time>2022-04-22T14:09:36Z</time>
      </trkpt>
      <trkpt lat="46.62908" lon="5.49415">
        <ele>270.6</ele>
        <time>2022-04-22T14:09:39Z</time>
      </trkpt>
      <trkpt lat="46.62897" lon="5.49407">
        <ele>270.6</ele>
        <time>2022-04-22T14:09:41Z</time>
      </trkpt>
      <trkpt lat="46.62869" lon="5.49397">
        <ele>269.8</ele>
        <time>2022-04-22T14:09:46Z</time>
      </trkpt>
      <trkpt lat="46.62864" lon="5.49396">
        <ele>269.6</ele>
        <time>2022-04-22T14:09:47Z</time>
      </trkpt>
      <trkpt lat="46.62858" lon="5.49395">
        <ele>269.4</ele>
        <time>2022-04-22T14:09:48Z</time>
      </trkpt>
      <trkpt lat="46.62835" lon="5.49393">
        <ele>269</ele>
        <time>2022-04-22T14:09:52Z</time>
      </trkpt>
      <trkpt lat="46.62798" lon="5.49385">
        <ele>268.6</ele>
        <time>2022-04-22T14:09:58Z</time>
      </trkpt>
      <trkpt lat="46.62771" lon="5.49377">
        <ele>268</ele>
        <time>2022-04-22T14:10:02Z</time>
      </trkpt>
      <trkpt lat="46.62756" lon="5.49375">
        <ele>267.4</ele>
        <time>2022-04-22T14:10:04Z</time>
      </trkpt>
      <trkpt lat="46.62734" lon="5.49373">
        <ele>266.8</ele>
        <time>2022-04-22T14:10:07Z</time>
      </trkpt>
      <trkpt lat="46.62711" lon="5.49374">
        <ele>266.4</ele>
        <time>2022-04-22T14:10:10Z</time>
      </trkpt>
      <trkpt lat="46.62676" lon="5.49386">
        <ele>265.8</ele>
        <time>2022-04-22T14:10:15Z</time>
      </trkpt>
      <trkpt lat="46.6267" lon="5.49389">
        <ele>265.8</ele>
        <time>2022-04-22T14:10:16Z</time>
      </trkpt>
      <trkpt lat="46.62615" lon="5.49421">
        <ele>265.2</ele>
        <time>2022-04-22T14:10:24Z</time>
      </trkpt>
      <trkpt lat="46.62607" lon="5.49425">
        <ele>265.2</ele>
        <time>2022-04-22T14:10:25Z</time>
      </trkpt>
      <trkpt lat="46.62587" lon="5.49437">
        <ele>264.6</ele>
        <time>2022-04-22T14:10:28Z</time>
      </trkpt>
      <trkpt lat="46.62571" lon="5.49446">
        <ele>264.2</ele>
        <time>2022-04-22T14:10:31Z</time>
      </trkpt>
      <trkpt lat="46.62567" lon="5.49448">
        <ele>263.8</ele>
        <time>2022-04-22T14:10:32Z</time>
      </trkpt>
      <trkpt lat="46.62564" lon="5.49448">
        <ele>263.4</ele>
        <time>2022-04-22T14:10:34Z</time>
      </trkpt>
      <trkpt lat="46.62563" lon="5.49448">
        <ele>263</ele>
        <time>2022-04-22T14:10:37Z</time>
      </trkpt>
      <trkpt lat="46.62559" lon="5.49448">
        <ele>262.8</ele>
        <time>2022-04-22T14:10:40Z</time>
      </trkpt>
      <trkpt lat="46.62554" lon="5.49452">
        <ele>262.8</ele>
        <time>2022-04-22T14:10:42Z</time>
      </trkpt>
      <trkpt lat="46.62549" lon="5.49462">
        <ele>262.6</ele>
        <time>2022-04-22T14:10:44Z</time>
      </trkpt>
      <trkpt lat="46.62534" lon="5.49489">
        <ele>262.6</ele>
        <time>2022-04-22T14:10:48Z</time>
      </trkpt>
      <trkpt lat="46.62522" lon="5.49509">
        <ele>262.2</ele>
        <time>2022-04-22T14:10:51Z</time>
      </trkpt>
      <trkpt lat="46.625" lon="5.49541">
        <ele>262</ele>
        <time>2022-04-22T14:10:56Z</time>
      </trkpt>
      <trkpt lat="46.62486" lon="5.49558">
        <ele>262</ele>
        <time>2022-04-22T14:10:59Z</time>
      </trkpt>
      <trkpt lat="46.62478" lon="5.49571">
        <ele>262</ele>
        <time>2022-04-22T14:11:01Z</time>
      </trkpt>
      <trkpt lat="46.62467" lon="5.49611">
        <ele>262</ele>
        <time>2022-04-22T14:11:06Z</time>
      </trkpt>
      <trkpt lat="46.62462" lon="5.49632">
        <ele>262.8</ele>
        <time>2022-04-22T14:11:09Z</time>
      </trkpt>
      <trkpt lat="46.62455" lon="5.49647">
        <ele>263</ele>
        <time>2022-04-22T14:11:11Z</time>
      </trkpt>
      <trkpt lat="46.62451" lon="5.49654">
        <ele>263.6</ele>
        <time>2022-04-22T14:11:12Z</time>
      </trkpt>
      <trkpt lat="46.62444" lon="5.49664">
        <ele>264.2</ele>
        <time>2022-04-22T14:11:14Z</time>
      </trkpt>
      <trkpt lat="46.62436" lon="5.49672">
        <ele>264.6</ele>
        <time>2022-04-22T14:11:16Z</time>
      </trkpt>
      <trkpt lat="46.62432" lon="5.49674">
        <ele>264.8</ele>
        <time>2022-04-22T14:11:17Z</time>
      </trkpt>
      <trkpt lat="46.62428" lon="5.49675">
        <ele>265</ele>
        <time>2022-04-22T14:11:18Z</time>
      </trkpt>
      <trkpt lat="46.62412" lon="5.49674">
        <ele>265.4</ele>
        <time>2022-04-22T14:11:21Z</time>
      </trkpt>
      <trkpt lat="46.62402" lon="5.49673">
        <ele>265.8</ele>
        <time>2022-04-22T14:11:23Z</time>
      </trkpt>
      <trkpt lat="46.62374" lon="5.49669">
        <ele>266.4</ele>
        <time>2022-04-22T14:11:29Z</time>
      </trkpt>
      <trkpt lat="46.62365" lon="5.49664">
        <ele>266.8</ele>
        <time>2022-04-22T14:11:31Z</time>
      </trkpt>
      <trkpt lat="46.62361" lon="5.49661">
        <ele>267</ele>
        <time>2022-04-22T14:11:32Z</time>
      </trkpt>
      <trkpt lat="46.62356" lon="5.49659">
        <ele>267.2</ele>
        <time>2022-04-22T14:11:33Z</time>
      </trkpt>
      <trkpt lat="46.62352" lon="5.49657">
        <ele>267.2</ele>
        <time>2022-04-22T14:11:34Z</time>
      </trkpt>
      <trkpt lat="46.62347" lon="5.49656">
        <ele>267.6</ele>
        <time>2022-04-22T14:11:35Z</time>
      </trkpt>
      <trkpt lat="46.6234" lon="5.49658">
        <ele>268</ele>
        <time>2022-04-22T14:11:37Z</time>
      </trkpt>
      <trkpt lat="46.62335" lon="5.4966">
        <ele>268.2</ele>
        <time>2022-04-22T14:11:38Z</time>
      </trkpt>
      <trkpt lat="46.6233" lon="5.49662">
        <ele>268.4</ele>
        <time>2022-04-22T14:11:39Z</time>
      </trkpt>
      <trkpt lat="46.62322" lon="5.49661">
        <ele>268.8</ele>
        <time>2022-04-22T14:11:41Z</time>
      </trkpt>
      <trkpt lat="46.62318" lon="5.4966">
        <ele>269</ele>
        <time>2022-04-22T14:11:42Z</time>
      </trkpt>
      <trkpt lat="46.62313" lon="5.49656">
        <ele>269</ele>
        <time>2022-04-22T14:11:43Z</time>
      </trkpt>
      <trkpt lat="46.62309" lon="5.49653">
        <ele>269.2</ele>
        <time>2022-04-22T14:11:44Z</time>
      </trkpt>
      <trkpt lat="46.62305" lon="5.49649">
        <ele>269.2</ele>
        <time>2022-04-22T14:11:45Z</time>
      </trkpt>
      <trkpt lat="46.62299" lon="5.49638">
        <ele>269.2</ele>
        <time>2022-04-22T14:11:47Z</time>
      </trkpt>
      <trkpt lat="46.62293" lon="5.49624">
        <ele>269.2</ele>
        <time>2022-04-22T14:11:49Z</time>
      </trkpt>
      <trkpt lat="46.62292" lon="5.49609">
        <ele>269</ele>
        <time>2022-04-22T14:11:51Z</time>
      </trkpt>
      <trkpt lat="46.62295" lon="5.49568">
        <ele>268</ele>
        <time>2022-04-22T14:11:55Z</time>
      </trkpt>
      <trkpt lat="46.62299" lon="5.49545">
        <ele>267.6</ele>
        <time>2022-04-22T14:11:57Z</time>
      </trkpt>
      <trkpt lat="46.623" lon="5.49537">
        <ele>267.4</ele>
        <time>2022-04-22T14:11:58Z</time>
      </trkpt>
      <trkpt lat="46.62301" lon="5.49517">
        <ele>267</ele>
        <time>2022-04-22T14:12:00Z</time>
      </trkpt>
      <trkpt lat="46.623" lon="5.49458">
        <ele>266.8</ele>
        <time>2022-04-22T14:12:06Z</time>
      </trkpt>
      <trkpt lat="46.62301" lon="5.49418">
        <ele>267</ele>
        <time>2022-04-22T14:12:10Z</time>
      </trkpt>
      <trkpt lat="46.62303" lon="5.49398">
        <ele>267</ele>
        <time>2022-04-22T14:12:12Z</time>
      </trkpt>
      <trkpt lat="46.62318" lon="5.49329">
        <ele>265.4</ele>
        <time>2022-04-22T14:12:18Z</time>
      </trkpt>
      <trkpt lat="46.62335" lon="5.49255">
        <ele>264.4</ele>
        <time>2022-04-22T14:12:25Z</time>
      </trkpt>
      <trkpt lat="46.62336" lon="5.49245">
        <ele>264.4</ele>
        <time>2022-04-22T14:12:26Z</time>
      </trkpt>
      <trkpt lat="46.62337" lon="5.49235">
        <ele>264.4</ele>
        <time>2022-04-22T14:12:27Z</time>
      </trkpt>
      <trkpt lat="46.62335" lon="5.49216">
        <ele>264.4</ele>
        <time>2022-04-22T14:12:29Z</time>
      </trkpt>
      <trkpt lat="46.62333" lon="5.49207">
        <ele>264.4</ele>
        <time>2022-04-22T14:12:30Z</time>
      </trkpt>
      <trkpt lat="46.62327" lon="5.49188">
        <ele>264.4</ele>
        <time>2022-04-22T14:12:32Z</time>
      </trkpt>
      <trkpt lat="46.62323" lon="5.49168">
        <ele>264.4</ele>
        <time>2022-04-22T14:12:34Z</time>
      </trkpt>
      <trkpt lat="46.6232" lon="5.49155">
        <ele>264.4</ele>
        <time>2022-04-22T14:12:35Z</time>
      </trkpt>
      <trkpt lat="46.62311" lon="5.49135">
        <ele>264.2</ele>
        <time>2022-04-22T14:12:37Z</time>
      </trkpt>
      <trkpt lat="46.62278" lon="5.49084">
        <ele>263.6</ele>
        <time>2022-04-22T14:12:43Z</time>
      </trkpt>
      <trkpt lat="46.62272" lon="5.49074">
        <ele>263.4</ele>
        <time>2022-04-22T14:12:44Z</time>
      </trkpt>
      <trkpt lat="46.62254" lon="5.49044">
        <ele>262.2</ele>
        <time>2022-04-22T14:12:47Z</time>
      </trkpt>
      <trkpt lat="46.62248" lon="5.49035">
        <ele>261.8</ele>
        <time>2022-04-22T14:12:48Z</time>
      </trkpt>
      <trkpt lat="46.62233" lon="5.49015">
        <ele>260.8</ele>
        <time>2022-04-22T14:12:50Z</time>
      </trkpt>
      <trkpt lat="46.62211" lon="5.48987">
        <ele>259.4</ele>
        <time>2022-04-22T14:12:53Z</time>
      </trkpt>
      <trkpt lat="46.62197" lon="5.48968">
        <ele>258.4</ele>
        <time>2022-04-22T14:12:55Z</time>
      </trkpt>
      <trkpt lat="46.62182" lon="5.48947">
        <ele>257.2</ele>
        <time>2022-04-22T14:12:57Z</time>
      </trkpt>
      <trkpt lat="46.62158" lon="5.48919">
        <ele>255.4</ele>
        <time>2022-04-22T14:13:00Z</time>
      </trkpt>
      <trkpt lat="46.62138" lon="5.48899">
        <ele>254</ele>
        <time>2022-04-22T14:13:02Z</time>
      </trkpt>
      <trkpt lat="46.62117" lon="5.48882">
        <ele>252.6</ele>
        <time>2022-04-22T14:13:04Z</time>
      </trkpt>
      <trkpt lat="46.62106" lon="5.48873">
        <ele>252.4</ele>
        <time>2022-04-22T14:13:05Z</time>
      </trkpt>
      <trkpt lat="46.62095" lon="5.48866">
        <ele>250.4</ele>
        <time>2022-04-22T14:13:06Z</time>
      </trkpt>
      <trkpt lat="46.62085" lon="5.48859">
        <ele>248.8</ele>
        <time>2022-04-22T14:13:07Z</time>
      </trkpt>
      <trkpt lat="46.62064" lon="5.48844">
        <ele>247.2</ele>
        <time>2022-04-22T14:13:09Z</time>
      </trkpt>
      <trkpt lat="46.62042" lon="5.48828">
        <ele>245.8</ele>
        <time>2022-04-22T14:13:11Z</time>
      </trkpt>
      <trkpt lat="46.62033" lon="5.48819">
        <ele>245.4</ele>
        <time>2022-04-22T14:13:12Z</time>
      </trkpt>
      <trkpt lat="46.62025" lon="5.48812">
        <ele>244.6</ele>
        <time>2022-04-22T14:13:13Z</time>
      </trkpt>
      <trkpt lat="46.61995" lon="5.4878">
        <ele>243.4</ele>
        <time>2022-04-22T14:13:16Z</time>
      </trkpt>
      <trkpt lat="46.6198" lon="5.48763">
        <ele>242.8</ele>
        <time>2022-04-22T14:13:18Z</time>
      </trkpt>
      <trkpt lat="46.61971" lon="5.4875">
        <ele>242.4</ele>
        <time>2022-04-22T14:13:19Z</time>
      </trkpt>
      <trkpt lat="46.61944" lon="5.4871">
        <ele>241.4</ele>
        <time>2022-04-22T14:13:23Z</time>
      </trkpt>
      <trkpt lat="46.61938" lon="5.48701">
        <ele>241.2</ele>
        <time>2022-04-22T14:13:24Z</time>
      </trkpt>
      <trkpt lat="46.61906" lon="5.48648">
        <ele>241.8</ele>
        <time>2022-04-22T14:13:30Z</time>
      </trkpt>
      <trkpt lat="46.61896" lon="5.48631">
        <ele>242.6</ele>
        <time>2022-04-22T14:13:32Z</time>
      </trkpt>
      <trkpt lat="46.61886" lon="5.48617">
        <ele>243.4</ele>
        <time>2022-04-22T14:13:34Z</time>
      </trkpt>
      <trkpt lat="46.61877" lon="5.48604">
        <ele>243.8</ele>
        <time>2022-04-22T14:13:36Z</time>
      </trkpt>
      <trkpt lat="46.61862" lon="5.48582">
        <ele>245</ele>
        <time>2022-04-22T14:13:40Z</time>
      </trkpt>
      <trkpt lat="46.61853" lon="5.4857">
        <ele>246.2</ele>
        <time>2022-04-22T14:13:42Z</time>
      </trkpt>
      <trkpt lat="46.61841" lon="5.48554">
        <ele>247.4</ele>
        <time>2022-04-22T14:13:45Z</time>
      </trkpt>
      <trkpt lat="46.61838" lon="5.48551">
        <ele>248.2</ele>
        <time>2022-04-22T14:13:46Z</time>
      </trkpt>
      <trkpt lat="46.6183" lon="5.48542">
        <ele>248.8</ele>
        <time>2022-04-22T14:13:48Z</time>
      </trkpt>
      <trkpt lat="46.61814" lon="5.48522">
        <ele>250</ele>
        <time>2022-04-22T14:13:52Z</time>
      </trkpt>
      <trkpt lat="46.61804" lon="5.48511">
        <ele>250.2</ele>
        <time>2022-04-22T14:13:54Z</time>
      </trkpt>
      <trkpt lat="46.61779" lon="5.48477">
        <ele>250.6</ele>
        <time>2022-04-22T14:14:00Z</time>
      </trkpt>
      <trkpt lat="46.61745" lon="5.48435">
        <ele>248.8</ele>
        <time>2022-04-22T14:14:06Z</time>
      </trkpt>
      <trkpt lat="46.61738" lon="5.48429">
        <ele>248.4</ele>
        <time>2022-04-22T14:14:07Z</time>
      </trkpt>
      <trkpt lat="46.61718" lon="5.4841">
        <ele>247.6</ele>
        <time>2022-04-22T14:14:10Z</time>
      </trkpt>
      <trkpt lat="46.61696" lon="5.48391">
        <ele>246.4</ele>
        <time>2022-04-22T14:14:13Z</time>
      </trkpt>
      <trkpt lat="46.61689" lon="5.48385">
        <ele>245.8</ele>
        <time>2022-04-22T14:14:14Z</time>
      </trkpt>
      <trkpt lat="46.61675" lon="5.48372">
        <ele>245.2</ele>
        <time>2022-04-22T14:14:16Z</time>
      </trkpt>
      <trkpt lat="46.61662" lon="5.4836">
        <ele>243.8</ele>
        <time>2022-04-22T14:14:18Z</time>
      </trkpt>
      <trkpt lat="46.61642" lon="5.48342">
        <ele>243.2</ele>
        <time>2022-04-22T14:14:21Z</time>
      </trkpt>
      <trkpt lat="46.61629" lon="5.4833">
        <ele>242.8</ele>
        <time>2022-04-22T14:14:23Z</time>
      </trkpt>
      <trkpt lat="46.61578" lon="5.48283">
        <ele>242.4</ele>
        <time>2022-04-22T14:14:31Z</time>
      </trkpt>
      <trkpt lat="46.6153" lon="5.48237">
        <ele>241.8</ele>
        <time>2022-04-22T14:14:38Z</time>
      </trkpt>
      <trkpt lat="46.61525" lon="5.48232">
        <ele>241.6</ele>
        <time>2022-04-22T14:14:39Z</time>
      </trkpt>
      <trkpt lat="46.61481" lon="5.48198">
        <ele>241</ele>
        <time>2022-04-22T14:14:45Z</time>
      </trkpt>
      <trkpt lat="46.61471" lon="5.48196">
        <ele>240.6</ele>
        <time>2022-04-22T14:14:46Z</time>
      </trkpt>
      <trkpt lat="46.61448" lon="5.48197">
        <ele>240</ele>
        <time>2022-04-22T14:14:49Z</time>
      </trkpt>
      <trkpt lat="46.61415" lon="5.48194">
        <ele>239.6</ele>
        <time>2022-04-22T14:14:53Z</time>
      </trkpt>
      <trkpt lat="46.61401" lon="5.48191">
        <ele>239.6</ele>
        <time>2022-04-22T14:14:55Z</time>
      </trkpt>
      <trkpt lat="46.61359" lon="5.48174">
        <ele>239.8</ele>
        <time>2022-04-22T14:15:01Z</time>
      </trkpt>
      <trkpt lat="46.61303" lon="5.48152">
        <ele>240</ele>
        <time>2022-04-22T14:15:09Z</time>
      </trkpt>
      <trkpt lat="46.61295" lon="5.4815">
        <ele>240</ele>
        <time>2022-04-22T14:15:10Z</time>
      </trkpt>
      <trkpt lat="46.61244" lon="5.48142">
        <ele>240.6</ele>
        <time>2022-04-22T14:15:17Z</time>
      </trkpt>
      <trkpt lat="46.61206" lon="5.48128">
        <ele>240.8</ele>
        <time>2022-04-22T14:15:22Z</time>
      </trkpt>
      <trkpt lat="46.61161" lon="5.48099">
        <ele>239.6</ele>
        <time>2022-04-22T14:15:28Z</time>
      </trkpt>
      <trkpt lat="46.61109" lon="5.48081">
        <ele>238.2</ele>
        <time>2022-04-22T14:15:34Z</time>
      </trkpt>
      <trkpt lat="46.61068" lon="5.48058">
        <ele>237.4</ele>
        <time>2022-04-22T14:15:39Z</time>
      </trkpt>
      <trkpt lat="46.6106" lon="5.48052">
        <ele>237</ele>
        <time>2022-04-22T14:15:40Z</time>
      </trkpt>
      <trkpt lat="46.61037" lon="5.48037">
        <ele>236.8</ele>
        <time>2022-04-22T14:15:43Z</time>
      </trkpt>
      <trkpt lat="46.61007" lon="5.48021">
        <ele>236.4</ele>
        <time>2022-04-22T14:15:47Z</time>
      </trkpt>
      <trkpt lat="46.60972" lon="5.48002">
        <ele>236.4</ele>
        <time>2022-04-22T14:15:52Z</time>
      </trkpt>
      <trkpt lat="46.60925" lon="5.47982">
        <ele>236.8</ele>
        <time>2022-04-22T14:15:59Z</time>
      </trkpt>
      <trkpt lat="46.60867" lon="5.47968">
        <ele>238</ele>
        <time>2022-04-22T14:16:08Z</time>
      </trkpt>
      <trkpt lat="46.60854" lon="5.47964">
        <ele>238.2</ele>
        <time>2022-04-22T14:16:10Z</time>
      </trkpt>
      <trkpt lat="46.60811" lon="5.47953">
        <ele>239.4</ele>
        <time>2022-04-22T14:16:17Z</time>
      </trkpt>
      <trkpt lat="46.60806" lon="5.4795">
        <ele>239.4</ele>
        <time>2022-04-22T14:16:18Z</time>
      </trkpt>
      <trkpt lat="46.6076" lon="5.47923">
        <ele>239.2</ele>
        <time>2022-04-22T14:16:26Z</time>
      </trkpt>
      <trkpt lat="46.60726" lon="5.479">
        <ele>240.2</ele>
        <time>2022-04-22T14:16:32Z</time>
      </trkpt>
      <trkpt lat="46.60721" lon="5.47895">
        <ele>240.4</ele>
        <time>2022-04-22T14:16:33Z</time>
      </trkpt>
      <trkpt lat="46.60711" lon="5.47887">
        <ele>240.8</ele>
        <time>2022-04-22T14:16:35Z</time>
      </trkpt>
      <trkpt lat="46.60693" lon="5.47879">
        <ele>241.2</ele>
        <time>2022-04-22T14:16:38Z</time>
      </trkpt>
      <trkpt lat="46.60687" lon="5.47878">
        <ele>241.4</ele>
        <time>2022-04-22T14:16:39Z</time>
      </trkpt>
      <trkpt lat="46.60681" lon="5.47878">
        <ele>241.6</ele>
        <time>2022-04-22T14:16:40Z</time>
      </trkpt>
      <trkpt lat="46.60671" lon="5.4788">
        <ele>242</ele>
        <time>2022-04-22T14:16:42Z</time>
      </trkpt>
      <trkpt lat="46.60654" lon="5.47882">
        <ele>242.6</ele>
        <time>2022-04-22T14:16:45Z</time>
      </trkpt>
      <trkpt lat="46.60644" lon="5.47883">
        <ele>242.8</ele>
        <time>2022-04-22T14:16:47Z</time>
      </trkpt>
      <trkpt lat="46.60616" lon="5.47878">
        <ele>243.8</ele>
        <time>2022-04-22T14:16:52Z</time>
      </trkpt>
      <trkpt lat="46.60598" lon="5.47875">
        <ele>244.2</ele>
        <time>2022-04-22T14:16:55Z</time>
      </trkpt>
      <trkpt lat="46.60586" lon="5.47873">
        <ele>245</ele>
        <time>2022-04-22T14:16:57Z</time>
      </trkpt>
      <trkpt lat="46.60547" lon="5.47865">
        <ele>245.6</ele>
        <time>2022-04-22T14:17:04Z</time>
      </trkpt>
      <trkpt lat="46.60516" lon="5.47858">
        <ele>246.2</ele>
        <time>2022-04-22T14:17:10Z</time>
      </trkpt>
      <trkpt lat="46.60495" lon="5.47856">
        <ele>247</ele>
        <time>2022-04-22T14:17:14Z</time>
      </trkpt>
      <trkpt lat="46.6049" lon="5.47857">
        <ele>247.2</ele>
        <time>2022-04-22T14:17:15Z</time>
      </trkpt>
      <trkpt lat="46.60469" lon="5.47867">
        <ele>248.2</ele>
        <time>2022-04-22T14:17:19Z</time>
      </trkpt>
      <trkpt lat="46.60438" lon="5.47894">
        <ele>249.2</ele>
        <time>2022-04-22T14:17:26Z</time>
      </trkpt>
      <trkpt lat="46.60435" lon="5.47897">
        <ele>249.4</ele>
        <time>2022-04-22T14:17:27Z</time>
      </trkpt>
      <trkpt lat="46.60418" lon="5.47914">
        <ele>250.4</ele>
        <time>2022-04-22T14:17:31Z</time>
      </trkpt>
      <trkpt lat="46.60412" lon="5.47918">
        <ele>250.6</ele>
        <time>2022-04-22T14:17:32Z</time>
      </trkpt>
      <trkpt lat="46.60408" lon="5.47921">
        <ele>251</ele>
        <time>2022-04-22T14:17:33Z</time>
      </trkpt>
      <trkpt lat="46.60399" lon="5.47929">
        <ele>251.6</ele>
        <time>2022-04-22T14:17:35Z</time>
      </trkpt>
      <trkpt lat="46.60371" lon="5.47955">
        <ele>252.4</ele>
        <time>2022-04-22T14:17:41Z</time>
      </trkpt>
      <trkpt lat="46.60359" lon="5.47977">
        <ele>252.6</ele>
        <time>2022-04-22T14:17:44Z</time>
      </trkpt>
      <trkpt lat="46.60354" lon="5.4799">
        <ele>252.6</ele>
        <time>2022-04-22T14:17:46Z</time>
      </trkpt>
      <trkpt lat="46.6035" lon="5.47997">
        <ele>252.6</ele>
        <time>2022-04-22T14:17:47Z</time>
      </trkpt>
      <trkpt lat="46.60342" lon="5.48009">
        <ele>252.6</ele>
        <time>2022-04-22T14:17:49Z</time>
      </trkpt>
      <trkpt lat="46.60337" lon="5.48014">
        <ele>252.8</ele>
        <time>2022-04-22T14:17:50Z</time>
      </trkpt>
      <trkpt lat="46.60332" lon="5.48019">
        <ele>252.8</ele>
        <time>2022-04-22T14:17:51Z</time>
      </trkpt>
      <trkpt lat="46.60321" lon="5.48024">
        <ele>252.8</ele>
        <time>2022-04-22T14:17:53Z</time>
      </trkpt>
      <trkpt lat="46.60315" lon="5.48025">
        <ele>252.8</ele>
        <time>2022-04-22T14:17:54Z</time>
      </trkpt>
      <trkpt lat="46.60295" lon="5.48025">
        <ele>252.8</ele>
        <time>2022-04-22T14:17:57Z</time>
      </trkpt>
      <trkpt lat="46.60269" lon="5.48029">
        <ele>252.4</ele>
        <time>2022-04-22T14:18:01Z</time>
      </trkpt>
      <trkpt lat="46.60256" lon="5.48033">
        <ele>252.2</ele>
        <time>2022-04-22T14:18:03Z</time>
      </trkpt>
      <trkpt lat="46.60238" lon="5.48042">
        <ele>251.8</ele>
        <time>2022-04-22T14:18:06Z</time>
      </trkpt>
      <trkpt lat="46.6022" lon="5.48049">
        <ele>251.6</ele>
        <time>2022-04-22T14:18:09Z</time>
      </trkpt>
      <trkpt lat="46.60213" lon="5.4805">
        <ele>251.2</ele>
        <time>2022-04-22T14:18:10Z</time>
      </trkpt>
      <trkpt lat="46.60199" lon="5.4805">
        <ele>251</ele>
        <time>2022-04-22T14:18:12Z</time>
      </trkpt>
      <trkpt lat="46.60179" lon="5.48052">
        <ele>250.2</ele>
        <time>2022-04-22T14:18:15Z</time>
      </trkpt>
      <trkpt lat="46.60166" lon="5.48052">
        <ele>250</ele>
        <time>2022-04-22T14:18:17Z</time>
      </trkpt>
      <trkpt lat="46.60153" lon="5.48053">
        <ele>249.2</ele>
        <time>2022-04-22T14:18:19Z</time>
      </trkpt>
      <trkpt lat="46.60141" lon="5.48059">
        <ele>248.4</ele>
        <time>2022-04-22T14:18:21Z</time>
      </trkpt>
      <trkpt lat="46.60135" lon="5.48063">
        <ele>248</ele>
        <time>2022-04-22T14:18:22Z</time>
      </trkpt>
      <trkpt lat="46.60113" lon="5.48071">
        <ele>247.4</ele>
        <time>2022-04-22T14:18:25Z</time>
      </trkpt>
      <trkpt lat="46.60106" lon="5.48072">
        <ele>246.8</ele>
        <time>2022-04-22T14:18:26Z</time>
      </trkpt>
      <trkpt lat="46.60092" lon="5.48071">
        <ele>245.6</ele>
        <time>2022-04-22T14:18:28Z</time>
      </trkpt>
      <trkpt lat="46.6008" lon="5.48068">
        <ele>244.2</ele>
        <time>2022-04-22T14:18:30Z</time>
      </trkpt>
      <trkpt lat="46.6007" lon="5.48058">
        <ele>243.2</ele>
        <time>2022-04-22T14:18:32Z</time>
      </trkpt>
      <trkpt lat="46.60064" lon="5.48054">
        <ele>242.6</ele>
        <time>2022-04-22T14:18:33Z</time>
      </trkpt>
      <trkpt lat="46.60058" lon="5.48048">
        <ele>242.4</ele>
        <time>2022-04-22T14:18:34Z</time>
      </trkpt>
      <trkpt lat="46.60052" lon="5.48045">
        <ele>242</ele>
        <time>2022-04-22T14:18:35Z</time>
      </trkpt>
      <trkpt lat="46.60043" lon="5.48042">
        <ele>241.6</ele>
        <time>2022-04-22T14:18:36Z</time>
      </trkpt>
      <trkpt lat="46.60037" lon="5.48041">
        <ele>241</ele>
        <time>2022-04-22T14:18:37Z</time>
      </trkpt>
      <trkpt lat="46.60031" lon="5.48039">
        <ele>240.4</ele>
        <time>2022-04-22T14:18:38Z</time>
      </trkpt>
      <trkpt lat="46.60025" lon="5.48037">
        <ele>240.2</ele>
        <time>2022-04-22T14:18:39Z</time>
      </trkpt>
      <trkpt lat="46.6002" lon="5.48032">
        <ele>239.4</ele>
        <time>2022-04-22T14:18:40Z</time>
      </trkpt>
      <trkpt lat="46.60016" lon="5.48024">
        <ele>239</ele>
        <time>2022-04-22T14:18:41Z</time>
      </trkpt>
      <trkpt lat="46.60012" lon="5.48013">
        <ele>238.4</ele>
        <time>2022-04-22T14:18:42Z</time>
      </trkpt>
      <trkpt lat="46.60006" lon="5.47992">
        <ele>237.6</ele>
        <time>2022-04-22T14:18:44Z</time>
      </trkpt>
      <trkpt lat="46.60005" lon="5.47982">
        <ele>236.6</ele>
        <time>2022-04-22T14:18:45Z</time>
      </trkpt>
      <trkpt lat="46.60005" lon="5.47972">
        <ele>236.2</ele>
        <time>2022-04-22T14:18:46Z</time>
      </trkpt>
      <trkpt lat="46.60006" lon="5.4796">
        <ele>235.6</ele>
        <time>2022-04-22T14:18:47Z</time>
      </trkpt>
      <trkpt lat="46.60008" lon="5.47948">
        <ele>235.4</ele>
        <time>2022-04-22T14:18:48Z</time>
      </trkpt>
      <trkpt lat="46.60017" lon="5.4793">
        <ele>235</ele>
        <time>2022-04-22T14:18:50Z</time>
      </trkpt>
      <trkpt lat="46.60024" lon="5.4792">
        <ele>234.4</ele>
        <time>2022-04-22T14:18:51Z</time>
      </trkpt>
      <trkpt lat="46.60048" lon="5.47892">
        <ele>233.8</ele>
        <time>2022-04-22T14:18:55Z</time>
      </trkpt>
      <trkpt lat="46.60054" lon="5.47886">
        <ele>233.8</ele>
        <time>2022-04-22T14:18:56Z</time>
      </trkpt>
      <trkpt lat="46.6006" lon="5.47871">
        <ele>233.8</ele>
        <time>2022-04-22T14:18:58Z</time>
      </trkpt>
      <trkpt lat="46.60064" lon="5.47857">
        <ele>234.4</ele>
        <time>2022-04-22T14:19:00Z</time>
      </trkpt>
      <trkpt lat="46.60065" lon="5.47848">
        <ele>234.6</ele>
        <time>2022-04-22T14:19:01Z</time>
      </trkpt>
      <trkpt lat="46.60069" lon="5.47803">
        <ele>234.8</ele>
        <time>2022-04-22T14:19:05Z</time>
      </trkpt>
      <trkpt lat="46.60071" lon="5.47794">
        <ele>234.8</ele>
        <time>2022-04-22T14:19:06Z</time>
      </trkpt>
      <trkpt lat="46.60075" lon="5.47779">
        <ele>234.6</ele>
        <time>2022-04-22T14:19:07Z</time>
      </trkpt>
      <trkpt lat="46.60084" lon="5.47757">
        <ele>234.2</ele>
        <time>2022-04-22T14:19:09Z</time>
      </trkpt>
      <trkpt lat="46.60096" lon="5.47739">
        <ele>233.2</ele>
        <time>2022-04-22T14:19:11Z</time>
      </trkpt>
      <trkpt lat="46.60118" lon="5.47706">
        <ele>231.8</ele>
        <time>2022-04-22T14:19:14Z</time>
      </trkpt>
      <trkpt lat="46.60124" lon="5.47699">
        <ele>231.2</ele>
        <time>2022-04-22T14:19:15Z</time>
      </trkpt>
      <trkpt lat="46.60141" lon="5.4768">
        <ele>230.4</ele>
        <time>2022-04-22T14:19:17Z</time>
      </trkpt>
      <trkpt lat="46.60172" lon="5.47652">
        <ele>229</ele>
        <time>2022-04-22T14:19:21Z</time>
      </trkpt>
      <trkpt lat="46.60207" lon="5.47634">
        <ele>228.2</ele>
        <time>2022-04-22T14:19:25Z</time>
      </trkpt>
      <trkpt lat="46.60238" lon="5.47628">
        <ele>228</ele>
        <time>2022-04-22T14:19:29Z</time>
      </trkpt>
      <trkpt lat="46.60246" lon="5.47626">
        <ele>228</ele>
        <time>2022-04-22T14:19:30Z</time>
      </trkpt>
      <trkpt lat="46.60261" lon="5.47617">
        <ele>227.8</ele>
        <time>2022-04-22T14:19:32Z</time>
      </trkpt>
      <trkpt lat="46.60267" lon="5.47611">
        <ele>227.8</ele>
        <time>2022-04-22T14:19:33Z</time>
      </trkpt>
      <trkpt lat="46.60273" lon="5.47603">
        <ele>227.8</ele>
        <time>2022-04-22T14:19:34Z</time>
      </trkpt>
      <trkpt lat="46.60281" lon="5.47584">
        <ele>228</ele>
        <time>2022-04-22T14:19:36Z</time>
      </trkpt>
      <trkpt lat="46.6029" lon="5.4753">
        <ele>228.2</ele>
        <time>2022-04-22T14:19:41Z</time>
      </trkpt>
      <trkpt lat="46.60292" lon="5.47444">
        <ele>228.2</ele>
        <time>2022-04-22T14:19:48Z</time>
      </trkpt>
      <trkpt lat="46.60291" lon="5.47421">
        <ele>228</ele>
        <time>2022-04-22T14:19:50Z</time>
      </trkpt>
      <trkpt lat="46.60291" lon="5.47395">
        <ele>226.4</ele>
        <time>2022-04-22T14:19:52Z</time>
      </trkpt>
      <trkpt lat="46.60291" lon="5.47383">
        <ele>226.2</ele>
        <time>2022-04-22T14:19:53Z</time>
      </trkpt>
      <trkpt lat="46.60294" lon="5.47357">
        <ele>225.6</ele>
        <time>2022-04-22T14:19:55Z</time>
      </trkpt>
      <trkpt lat="46.60296" lon="5.47345">
        <ele>225.2</ele>
        <time>2022-04-22T14:19:56Z</time>
      </trkpt>
      <trkpt lat="46.60313" lon="5.47285">
        <ele>224.2</ele>
        <time>2022-04-22T14:20:01Z</time>
      </trkpt>
      <trkpt lat="46.60324" lon="5.47244">
        <ele>223.6</ele>
        <time>2022-04-22T14:20:04Z</time>
      </trkpt>
      <trkpt lat="46.60329" lon="5.4722">
        <ele>223</ele>
        <time>2022-04-22T14:20:06Z</time>
      </trkpt>
      <trkpt lat="46.60333" lon="5.47192">
        <ele>222</ele>
        <time>2022-04-22T14:20:08Z</time>
      </trkpt>
      <trkpt lat="46.60338" lon="5.47166">
        <ele>221.2</ele>
        <time>2022-04-22T14:20:10Z</time>
      </trkpt>
      <trkpt lat="46.60342" lon="5.47139">
        <ele>220.8</ele>
        <time>2022-04-22T14:20:12Z</time>
      </trkpt>
      <trkpt lat="46.60354" lon="5.47072">
        <ele>219.6</ele>
        <time>2022-04-22T14:20:17Z</time>
      </trkpt>
      <trkpt lat="46.60361" lon="5.4703">
        <ele>218.4</ele>
        <time>2022-04-22T14:20:20Z</time>
      </trkpt>
      <trkpt lat="46.60374" lon="5.4698">
        <ele>217.4</ele>
        <time>2022-04-22T14:20:24Z</time>
      </trkpt>
      <trkpt lat="46.60396" lon="5.46903">
        <ele>216.8</ele>
        <time>2022-04-22T14:20:30Z</time>
      </trkpt>
      <trkpt lat="46.604" lon="5.4689">
        <ele>216.8</ele>
        <time>2022-04-22T14:20:31Z</time>
      </trkpt>
      <trkpt lat="46.60413" lon="5.46843">
        <ele>216.2</ele>
        <time>2022-04-22T14:20:35Z</time>
      </trkpt>
      <trkpt lat="46.60416" lon="5.46833">
        <ele>216</ele>
        <time>2022-04-22T14:20:36Z</time>
      </trkpt>
      <trkpt lat="46.60422" lon="5.46808">
        <ele>215.2</ele>
        <time>2022-04-22T14:20:38Z</time>
      </trkpt>
      <trkpt lat="46.60426" lon="5.46774">
        <ele>215</ele>
        <time>2022-04-22T14:20:41Z</time>
      </trkpt>
      <trkpt lat="46.60427" lon="5.46732">
        <ele>214.4</ele>
        <time>2022-04-22T14:20:45Z</time>
      </trkpt>
      <trkpt lat="46.60427" lon="5.46721">
        <ele>214.4</ele>
        <time>2022-04-22T14:20:46Z</time>
      </trkpt>
      <trkpt lat="46.60429" lon="5.46711">
        <ele>214.2</ele>
        <time>2022-04-22T14:20:47Z</time>
      </trkpt>
      <trkpt lat="46.60434" lon="5.46689">
        <ele>213.8</ele>
        <time>2022-04-22T14:20:50Z</time>
      </trkpt>
      <trkpt lat="46.60437" lon="5.46684">
        <ele>213.8</ele>
        <time>2022-04-22T14:20:51Z</time>
      </trkpt>
      <trkpt lat="46.60439" lon="5.46679">
        <ele>214</ele>
        <time>2022-04-22T14:20:54Z</time>
      </trkpt>
      <trkpt lat="46.60439" lon="5.46679">
        <ele>214.2</ele>
        <time>2022-04-22T14:20:56Z</time>
      </trkpt>
      <trkpt lat="46.60443" lon="5.46673">
        <ele>214.4</ele>
        <time>2022-04-22T14:21:22Z</time>
      </trkpt>
      <trkpt lat="46.60445" lon="5.46669">
        <ele>214.4</ele>
        <time>2022-04-22T14:21:23Z</time>
      </trkpt>
      <trkpt lat="46.60449" lon="5.46658">
        <ele>214.4</ele>
        <time>2022-04-22T14:21:25Z</time>
      </trkpt>
      <trkpt lat="46.60457" lon="5.46642">
        <ele>214.4</ele>
        <time>2022-04-22T14:21:27Z</time>
      </trkpt>
      <trkpt lat="46.6048" lon="5.46594">
        <ele>213</ele>
        <time>2022-04-22T14:21:33Z</time>
      </trkpt>
      <trkpt lat="46.60485" lon="5.46584">
        <ele>212.8</ele>
        <time>2022-04-22T14:21:34Z</time>
      </trkpt>
      <trkpt lat="46.60501" lon="5.46553">
        <ele>212</ele>
        <time>2022-04-22T14:21:38Z</time>
      </trkpt>
      <trkpt lat="46.60519" lon="5.46524">
        <ele>211.8</ele>
        <time>2022-04-22T14:21:42Z</time>
      </trkpt>
      <trkpt lat="46.60543" lon="5.465">
        <ele>211.8</ele>
        <time>2022-04-22T14:21:46Z</time>
      </trkpt>
      <trkpt lat="46.6055" lon="5.46497">
        <ele>212</ele>
        <time>2022-04-22T14:21:47Z</time>
      </trkpt>
      <trkpt lat="46.60588" lon="5.46476">
        <ele>212</ele>
        <time>2022-04-22T14:21:53Z</time>
      </trkpt>
      <trkpt lat="46.60609" lon="5.4645">
        <ele>212.2</ele>
        <time>2022-04-22T14:21:57Z</time>
      </trkpt>
      <trkpt lat="46.60637" lon="5.46396">
        <ele>212.6</ele>
        <time>2022-04-22T14:22:04Z</time>
      </trkpt>
      <trkpt lat="46.60665" lon="5.46354">
        <ele>213.2</ele>
        <time>2022-04-22T14:22:10Z</time>
      </trkpt>
      <trkpt lat="46.60701" lon="5.4632">
        <ele>214.4</ele>
        <time>2022-04-22T14:22:17Z</time>
      </trkpt>
      <trkpt lat="46.60707" lon="5.46315">
        <ele>214.4</ele>
        <time>2022-04-22T14:22:18Z</time>
      </trkpt>
      <trkpt lat="46.60716" lon="5.46305">
        <ele>214.8</ele>
        <time>2022-04-22T14:22:20Z</time>
      </trkpt>
      <trkpt lat="46.60728" lon="5.4629">
        <ele>215.4</ele>
        <time>2022-04-22T14:22:23Z</time>
      </trkpt>
      <trkpt lat="46.60747" lon="5.46264">
        <ele>216.6</ele>
        <time>2022-04-22T14:22:28Z</time>
      </trkpt>
      <trkpt lat="46.60758" lon="5.46251">
        <ele>217.2</ele>
        <time>2022-04-22T14:22:31Z</time>
      </trkpt>
      <trkpt lat="46.60762" lon="5.46246">
        <ele>217.6</ele>
        <time>2022-04-22T14:22:32Z</time>
      </trkpt>
      <trkpt lat="46.60778" lon="5.46227">
        <ele>218.6</ele>
        <time>2022-04-22T14:22:36Z</time>
      </trkpt>
      <trkpt lat="46.6079" lon="5.46215">
        <ele>219.4</ele>
        <time>2022-04-22T14:22:39Z</time>
      </trkpt>
      <trkpt lat="46.60798" lon="5.46207">
        <ele>219.8</ele>
        <time>2022-04-22T14:22:41Z</time>
      </trkpt>
      <trkpt lat="46.60815" lon="5.46189">
        <ele>220.6</ele>
        <time>2022-04-22T14:22:45Z</time>
      </trkpt>
      <trkpt lat="46.60819" lon="5.46185">
        <ele>221</ele>
        <time>2022-04-22T14:22:46Z</time>
      </trkpt>
      <trkpt lat="46.60837" lon="5.46164">
        <ele>221.8</ele>
        <time>2022-04-22T14:22:51Z</time>
      </trkpt>
      <trkpt lat="46.60849" lon="5.46147">
        <ele>222.6</ele>
        <time>2022-04-22T14:22:54Z</time>
      </trkpt>
      <trkpt lat="46.6086" lon="5.46133">
        <ele>223</ele>
        <time>2022-04-22T14:22:57Z</time>
      </trkpt>
      <trkpt lat="46.60879" lon="5.46106">
        <ele>224.2</ele>
        <time>2022-04-22T14:23:02Z</time>
      </trkpt>
      <trkpt lat="46.60887" lon="5.46095">
        <ele>224.6</ele>
        <time>2022-04-22T14:23:04Z</time>
      </trkpt>
      <trkpt lat="46.60905" lon="5.46068">
        <ele>225.4</ele>
        <time>2022-04-22T14:23:09Z</time>
      </trkpt>
      <trkpt lat="46.60923" lon="5.4604">
        <ele>226.2</ele>
        <time>2022-04-22T14:23:14Z</time>
      </trkpt>
      <trkpt lat="46.60927" lon="5.46032">
        <ele>226.4</ele>
        <time>2022-04-22T14:23:15Z</time>
      </trkpt>
      <trkpt lat="46.60935" lon="5.46011">
        <ele>226.6</ele>
        <time>2022-04-22T14:23:18Z</time>
      </trkpt>
      <trkpt lat="46.60937" lon="5.46005">
        <ele>226.8</ele>
        <time>2022-04-22T14:23:19Z</time>
      </trkpt>
      <trkpt lat="46.60946" lon="5.45948">
        <ele>227</ele>
        <time>2022-04-22T14:23:26Z</time>
      </trkpt>
      <trkpt lat="46.60948" lon="5.45934">
        <ele>227.6</ele>
        <time>2022-04-22T14:23:28Z</time>
      </trkpt>
      <trkpt lat="46.60957" lon="5.4588">
        <ele>228.2</ele>
        <time>2022-04-22T14:23:35Z</time>
      </trkpt>
      <trkpt lat="46.60975" lon="5.45816">
        <ele>228.6</ele>
        <time>2022-04-22T14:23:43Z</time>
      </trkpt>
      <trkpt lat="46.60995" lon="5.4574">
        <ele>228.2</ele>
        <time>2022-04-22T14:23:52Z</time>
      </trkpt>
      <trkpt lat="46.61015" lon="5.45657">
        <ele>228.2</ele>
        <time>2022-04-22T14:24:01Z</time>
      </trkpt>
      <trkpt lat="46.61029" lon="5.45597">
        <ele>228.2</ele>
        <time>2022-04-22T14:24:07Z</time>
      </trkpt>
      <trkpt lat="46.6104" lon="5.45518">
        <ele>227.8</ele>
        <time>2022-04-22T14:24:14Z</time>
      </trkpt>
      <trkpt lat="46.6104" lon="5.45495">
        <ele>227.6</ele>
        <time>2022-04-22T14:24:16Z</time>
      </trkpt>
      <trkpt lat="46.61042" lon="5.45453">
        <ele>227.4</ele>
        <time>2022-04-22T14:24:20Z</time>
      </trkpt>
      <trkpt lat="46.6105" lon="5.45372">
        <ele>227.4</ele>
        <time>2022-04-22T14:24:27Z</time>
      </trkpt>
      <trkpt lat="46.61052" lon="5.45352">
        <ele>227.4</ele>
        <time>2022-04-22T14:24:29Z</time>
      </trkpt>
      <trkpt lat="46.61066" lon="5.4528">
        <ele>226.6</ele>
        <time>2022-04-22T14:24:35Z</time>
      </trkpt>
      <trkpt lat="46.61069" lon="5.45269">
        <ele>226.6</ele>
        <time>2022-04-22T14:24:36Z</time>
      </trkpt>
      <trkpt lat="46.61088" lon="5.45197">
        <ele>225.8</ele>
        <time>2022-04-22T14:24:43Z</time>
      </trkpt>
      <trkpt lat="46.61099" lon="5.4513">
        <ele>225.6</ele>
        <time>2022-04-22T14:24:49Z</time>
      </trkpt>
      <trkpt lat="46.611" lon="5.45119">
        <ele>225.4</ele>
        <time>2022-04-22T14:24:50Z</time>
      </trkpt>
      <trkpt lat="46.61108" lon="5.45035">
        <ele>225</ele>
        <time>2022-04-22T14:24:57Z</time>
      </trkpt>
      <trkpt lat="46.61109" lon="5.45022">
        <ele>224.8</ele>
        <time>2022-04-22T14:24:58Z</time>
      </trkpt>
      <trkpt lat="46.61115" lon="5.44986">
        <ele>224.4</ele>
        <time>2022-04-22T14:25:01Z</time>
      </trkpt>
      <trkpt lat="46.61119" lon="5.44974">
        <ele>224.2</ele>
        <time>2022-04-22T14:25:02Z</time>
      </trkpt>
      <trkpt lat="46.61123" lon="5.44963">
        <ele>224</ele>
        <time>2022-04-22T14:25:03Z</time>
      </trkpt>
      <trkpt lat="46.61127" lon="5.44955">
        <ele>223.8</ele>
        <time>2022-04-22T14:25:04Z</time>
      </trkpt>
      <trkpt lat="46.61141" lon="5.44936">
        <ele>223.2</ele>
        <time>2022-04-22T14:25:06Z</time>
      </trkpt>
      <trkpt lat="46.61148" lon="5.44929">
        <ele>223</ele>
        <time>2022-04-22T14:25:07Z</time>
      </trkpt>
      <trkpt lat="46.61198" lon="5.44883">
        <ele>222.4</ele>
        <time>2022-04-22T14:25:14Z</time>
      </trkpt>
      <trkpt lat="46.61204" lon="5.44875">
        <ele>222.4</ele>
        <time>2022-04-22T14:25:15Z</time>
      </trkpt>
      <trkpt lat="46.61214" lon="5.44857">
        <ele>222.4</ele>
        <time>2022-04-22T14:25:17Z</time>
      </trkpt>
      <trkpt lat="46.61218" lon="5.44848">
        <ele>222</ele>
        <time>2022-04-22T14:25:18Z</time>
      </trkpt>
      <trkpt lat="46.61223" lon="5.44836">
        <ele>221.8</ele>
        <time>2022-04-22T14:25:19Z</time>
      </trkpt>
      <trkpt lat="46.61238" lon="5.4478">
        <ele>221</ele>
        <time>2022-04-22T14:25:24Z</time>
      </trkpt>
      <trkpt lat="46.6124" lon="5.44768">
        <ele>220.8</ele>
        <time>2022-04-22T14:25:25Z</time>
      </trkpt>
      <trkpt lat="46.61243" lon="5.44727">
        <ele>220</ele>
        <time>2022-04-22T14:25:28Z</time>
      </trkpt>
      <trkpt lat="46.61245" lon="5.44713">
        <ele>219.8</ele>
        <time>2022-04-22T14:25:29Z</time>
      </trkpt>
      <trkpt lat="46.61251" lon="5.4467">
        <ele>218.8</ele>
        <time>2022-04-22T14:25:32Z</time>
      </trkpt>
      <trkpt lat="46.6126" lon="5.44629">
        <ele>217.8</ele>
        <time>2022-04-22T14:25:35Z</time>
      </trkpt>
      <trkpt lat="46.61264" lon="5.44611">
        <ele>216.6</ele>
        <time>2022-04-22T14:25:36Z</time>
      </trkpt>
      <trkpt lat="46.61271" lon="5.44581">
        <ele>215.4</ele>
        <time>2022-04-22T14:25:38Z</time>
      </trkpt>
      <trkpt lat="46.61277" lon="5.44555">
        <ele>214.4</ele>
        <time>2022-04-22T14:25:40Z</time>
      </trkpt>
      <trkpt lat="46.61284" lon="5.44522">
        <ele>213.2</ele>
        <time>2022-04-22T14:25:42Z</time>
      </trkpt>
      <trkpt lat="46.6129" lon="5.44496">
        <ele>212</ele>
        <time>2022-04-22T14:25:44Z</time>
      </trkpt>
      <trkpt lat="46.61302" lon="5.44437">
        <ele>210.8</ele>
        <time>2022-04-22T14:25:48Z</time>
      </trkpt>
      <trkpt lat="46.61308" lon="5.44407">
        <ele>209.8</ele>
        <time>2022-04-22T14:25:50Z</time>
      </trkpt>
      <trkpt lat="46.6132" lon="5.44339">
        <ele>208.4</ele>
        <time>2022-04-22T14:25:55Z</time>
      </trkpt>
      <trkpt lat="46.61323" lon="5.44315">
        <ele>208.2</ele>
        <time>2022-04-22T14:25:57Z</time>
      </trkpt>
      <trkpt lat="46.61333" lon="5.44232">
        <ele>207.4</ele>
        <time>2022-04-22T14:26:03Z</time>
      </trkpt>
      <trkpt lat="46.61336" lon="5.4422">
        <ele>207.4</ele>
        <time>2022-04-22T14:26:04Z</time>
      </trkpt>
      <trkpt lat="46.61349" lon="5.44188">
        <ele>207.2</ele>
        <time>2022-04-22T14:26:07Z</time>
      </trkpt>
      <trkpt lat="46.6138" lon="5.44119">
        <ele>207.6</ele>
        <time>2022-04-22T14:26:14Z</time>
      </trkpt>
      <trkpt lat="46.6139" lon="5.44065">
        <ele>208</ele>
        <time>2022-04-22T14:26:19Z</time>
      </trkpt>
      <trkpt lat="46.61391" lon="5.43995">
        <ele>207.8</ele>
        <time>2022-04-22T14:26:25Z</time>
      </trkpt>
      <trkpt lat="46.61383" lon="5.43939">
        <ele>208.2</ele>
        <time>2022-04-22T14:26:30Z</time>
      </trkpt>
      <trkpt lat="46.61381" lon="5.43919">
        <ele>208.4</ele>
        <time>2022-04-22T14:26:32Z</time>
      </trkpt>
      <trkpt lat="46.61372" lon="5.43864">
        <ele>207.8</ele>
        <time>2022-04-22T14:26:37Z</time>
      </trkpt>
      <trkpt lat="46.61366" lon="5.43839">
        <ele>207.2</ele>
        <time>2022-04-22T14:26:39Z</time>
      </trkpt>
      <trkpt lat="46.61358" lon="5.43792">
        <ele>206.6</ele>
        <time>2022-04-22T14:26:43Z</time>
      </trkpt>
      <trkpt lat="46.61354" lon="5.43755">
        <ele>206</ele>
        <time>2022-04-22T14:26:46Z</time>
      </trkpt>
      <trkpt lat="46.61352" lon="5.43715">
        <ele>205.4</ele>
        <time>2022-04-22T14:26:49Z</time>
      </trkpt>
      <trkpt lat="46.61352" lon="5.43682">
        <ele>204.8</ele>
        <time>2022-04-22T14:26:52Z</time>
      </trkpt>
      <trkpt lat="46.61351" lon="5.43622">
        <ele>204.6</ele>
        <time>2022-04-22T14:26:57Z</time>
      </trkpt>
      <trkpt lat="46.61355" lon="5.43559">
        <ele>204.2</ele>
        <time>2022-04-22T14:27:03Z</time>
      </trkpt>
      <trkpt lat="46.61356" lon="5.43545">
        <ele>204</ele>
        <time>2022-04-22T14:27:04Z</time>
      </trkpt>
      <trkpt lat="46.61359" lon="5.4348">
        <ele>203.8</ele>
        <time>2022-04-22T14:27:10Z</time>
      </trkpt>
      <trkpt lat="46.61359" lon="5.4347">
        <ele>203.8</ele>
        <time>2022-04-22T14:27:11Z</time>
      </trkpt>
      <trkpt lat="46.61354" lon="5.43395">
        <ele>204.2</ele>
        <time>2022-04-22T14:27:18Z</time>
      </trkpt>
      <trkpt lat="46.61354" lon="5.43383">
        <ele>204</ele>
        <time>2022-04-22T14:27:19Z</time>
      </trkpt>
      <trkpt lat="46.61356" lon="5.43363">
        <ele>204</ele>
        <time>2022-04-22T14:27:21Z</time>
      </trkpt>
      <trkpt lat="46.61358" lon="5.4335">
        <ele>204</ele>
        <time>2022-04-22T14:27:22Z</time>
      </trkpt>
      <trkpt lat="46.61376" lon="5.43304">
        <ele>203.2</ele>
        <time>2022-04-22T14:27:27Z</time>
      </trkpt>
      <trkpt lat="46.61413" lon="5.43235">
        <ele>203</ele>
        <time>2022-04-22T14:27:35Z</time>
      </trkpt>
      <trkpt lat="46.61424" lon="5.43217">
        <ele>203.2</ele>
        <time>2022-04-22T14:27:37Z</time>
      </trkpt>
      <trkpt lat="46.61428" lon="5.43197">
        <ele>203.2</ele>
        <time>2022-04-22T14:27:39Z</time>
      </trkpt>
      <trkpt lat="46.61425" lon="5.43177">
        <ele>203.2</ele>
        <time>2022-04-22T14:27:41Z</time>
      </trkpt>
      <trkpt lat="46.61406" lon="5.43131">
        <ele>203.6</ele>
        <time>2022-04-22T14:27:46Z</time>
      </trkpt>
      <trkpt lat="46.61389" lon="5.431">
        <ele>204</ele>
        <time>2022-04-22T14:27:50Z</time>
      </trkpt>
      <trkpt lat="46.61379" lon="5.43089">
        <ele>204.2</ele>
        <time>2022-04-22T14:27:52Z</time>
      </trkpt>
      <trkpt lat="46.61357" lon="5.43068">
        <ele>205</ele>
        <time>2022-04-22T14:27:56Z</time>
      </trkpt>
      <trkpt lat="46.61348" lon="5.43057">
        <ele>205.6</ele>
        <time>2022-04-22T14:27:58Z</time>
      </trkpt>
      <trkpt lat="46.61339" lon="5.43037">
        <ele>206</ele>
        <time>2022-04-22T14:28:01Z</time>
      </trkpt>
      <trkpt lat="46.61338" lon="5.43027">
        <ele>205.8</ele>
        <time>2022-04-22T14:28:02Z</time>
      </trkpt>
      <trkpt lat="46.61339" lon="5.43017">
        <ele>205.8</ele>
        <time>2022-04-22T14:28:03Z</time>
      </trkpt>
      <trkpt lat="46.61342" lon="5.43006">
        <ele>205.4</ele>
        <time>2022-04-22T14:28:04Z</time>
      </trkpt>
      <trkpt lat="46.61346" lon="5.42999">
        <ele>205.4</ele>
        <time>2022-04-22T14:28:05Z</time>
      </trkpt>
      <trkpt lat="46.6136" lon="5.42981">
        <ele>205</ele>
        <time>2022-04-22T14:28:07Z</time>
      </trkpt>
      <trkpt lat="46.61387" lon="5.42948">
        <ele>203.6</ele>
        <time>2022-04-22T14:28:11Z</time>
      </trkpt>
      <trkpt lat="46.61395" lon="5.42936">
        <ele>203.4</ele>
        <time>2022-04-22T14:28:12Z</time>
      </trkpt>
      <trkpt lat="46.614" lon="5.42928">
        <ele>202.6</ele>
        <time>2022-04-22T14:28:13Z</time>
      </trkpt>
      <trkpt lat="46.61429" lon="5.42888">
        <ele>200.6</ele>
        <time>2022-04-22T14:28:17Z</time>
      </trkpt>
      <trkpt lat="46.61435" lon="5.42881">
        <ele>200</ele>
        <time>2022-04-22T14:28:18Z</time>
      </trkpt>
      <trkpt lat="46.61458" lon="5.42857">
        <ele>199.6</ele>
        <time>2022-04-22T14:28:21Z</time>
      </trkpt>
      <trkpt lat="46.61488" lon="5.42831">
        <ele>199.4</ele>
        <time>2022-04-22T14:28:25Z</time>
      </trkpt>
      <trkpt lat="46.61539" lon="5.42792">
        <ele>199.6</ele>
        <time>2022-04-22T14:28:32Z</time>
      </trkpt>
      <trkpt lat="46.61547" lon="5.42786">
        <ele>199.6</ele>
        <time>2022-04-22T14:28:33Z</time>
      </trkpt>
      <trkpt lat="46.61593" lon="5.42745">
        <ele>200</ele>
        <time>2022-04-22T14:28:40Z</time>
      </trkpt>
      <trkpt lat="46.61601" lon="5.42738">
        <ele>200.2</ele>
        <time>2022-04-22T14:28:41Z</time>
      </trkpt>
      <trkpt lat="46.6164" lon="5.42707">
        <ele>200.6</ele>
        <time>2022-04-22T14:28:47Z</time>
      </trkpt>
      <trkpt lat="46.61645" lon="5.42702">
        <ele>200.8</ele>
        <time>2022-04-22T14:28:48Z</time>
      </trkpt>
      <trkpt lat="46.61661" lon="5.42688">
        <ele>201</ele>
        <time>2022-04-22T14:28:51Z</time>
      </trkpt>
      <trkpt lat="46.61667" lon="5.42684">
        <ele>201.4</ele>
        <time>2022-04-22T14:28:52Z</time>
      </trkpt>
      <trkpt lat="46.61673" lon="5.4268">
        <ele>201.4</ele>
        <time>2022-04-22T14:28:53Z</time>
      </trkpt>
      <trkpt lat="46.61678" lon="5.42675">
        <ele>201.8</ele>
        <time>2022-04-22T14:28:54Z</time>
      </trkpt>
      <trkpt lat="46.61689" lon="5.42667">
        <ele>202</ele>
        <time>2022-04-22T14:28:56Z</time>
      </trkpt>
      <trkpt lat="46.61705" lon="5.42663">
        <ele>202.8</ele>
        <time>2022-04-22T14:28:59Z</time>
      </trkpt>
      <trkpt lat="46.6171" lon="5.42662">
        <ele>202.8</ele>
        <time>2022-04-22T14:29:00Z</time>
      </trkpt>
      <trkpt lat="46.61721" lon="5.42662">
        <ele>204.2</ele>
        <time>2022-04-22T14:29:02Z</time>
      </trkpt>
      <trkpt lat="46.61736" lon="5.42663">
        <ele>204.8</ele>
        <time>2022-04-22T14:29:05Z</time>
      </trkpt>
      <trkpt lat="46.6174" lon="5.42661">
        <ele>205.2</ele>
        <time>2022-04-22T14:29:06Z</time>
      </trkpt>
      <trkpt lat="46.61743" lon="5.42657">
        <ele>205.4</ele>
        <time>2022-04-22T14:29:07Z</time>
      </trkpt>
      <trkpt lat="46.61744" lon="5.42652">
        <ele>205.6</ele>
        <time>2022-04-22T14:29:08Z</time>
      </trkpt>
      <trkpt lat="46.61741" lon="5.4264">
        <ele>205.8</ele>
        <time>2022-04-22T14:29:10Z</time>
      </trkpt>
      <trkpt lat="46.61739" lon="5.42634">
        <ele>206.4</ele>
        <time>2022-04-22T14:29:11Z</time>
      </trkpt>
      <trkpt lat="46.61736" lon="5.42625">
        <ele>206.6</ele>
        <time>2022-04-22T14:29:12Z</time>
      </trkpt>
      <trkpt lat="46.61722" lon="5.42604">
        <ele>207</ele>
        <time>2022-04-22T14:29:15Z</time>
      </trkpt>
      <trkpt lat="46.61716" lon="5.42598">
        <ele>207</ele>
        <time>2022-04-22T14:29:16Z</time>
      </trkpt>
      <trkpt lat="46.61671" lon="5.42554">
        <ele>206</ele>
        <time>2022-04-22T14:29:23Z</time>
      </trkpt>
      <trkpt lat="46.61647" lon="5.42537">
        <ele>205.4</ele>
        <time>2022-04-22T14:29:26Z</time>
      </trkpt>
      <trkpt lat="46.61631" lon="5.42526">
        <ele>205</ele>
        <time>2022-04-22T14:29:28Z</time>
      </trkpt>
      <trkpt lat="46.61623" lon="5.42519">
        <ele>204.2</ele>
        <time>2022-04-22T14:29:29Z</time>
      </trkpt>
      <trkpt lat="46.61615" lon="5.42512">
        <ele>204</ele>
        <time>2022-04-22T14:29:30Z</time>
      </trkpt>
      <trkpt lat="46.61609" lon="5.42502">
        <ele>203.2</ele>
        <time>2022-04-22T14:29:31Z</time>
      </trkpt>
      <trkpt lat="46.61603" lon="5.42491">
        <ele>202.8</ele>
        <time>2022-04-22T14:29:32Z</time>
      </trkpt>
      <trkpt lat="46.61598" lon="5.42479">
        <ele>202</ele>
        <time>2022-04-22T14:29:33Z</time>
      </trkpt>
      <trkpt lat="46.61589" lon="5.42453">
        <ele>201.4</ele>
        <time>2022-04-22T14:29:35Z</time>
      </trkpt>
      <trkpt lat="46.61584" lon="5.4244">
        <ele>201</ele>
        <time>2022-04-22T14:29:36Z</time>
      </trkpt>
      <trkpt lat="46.61576" lon="5.42414">
        <ele>200</ele>
        <time>2022-04-22T14:29:38Z</time>
      </trkpt>
      <trkpt lat="46.61574" lon="5.424">
        <ele>199.8</ele>
        <time>2022-04-22T14:29:39Z</time>
      </trkpt>
      <trkpt lat="46.61565" lon="5.4232">
        <ele>198.8</ele>
        <time>2022-04-22T14:29:45Z</time>
      </trkpt>
      <trkpt lat="46.61552" lon="5.42236">
        <ele>198</ele>
        <time>2022-04-22T14:29:52Z</time>
      </trkpt>
      <trkpt lat="46.61538" lon="5.42181">
        <ele>198</ele>
        <time>2022-04-22T14:29:57Z</time>
      </trkpt>
      <trkpt lat="46.61513" lon="5.421">
        <ele>197.8</ele>
        <time>2022-04-22T14:30:05Z</time>
      </trkpt>
      <trkpt lat="46.61504" lon="5.42082">
        <ele>198</ele>
        <time>2022-04-22T14:30:07Z</time>
      </trkpt>
      <trkpt lat="46.61494" lon="5.42066">
        <ele>198</ele>
        <time>2022-04-22T14:30:09Z</time>
      </trkpt>
      <trkpt lat="46.61471" lon="5.42034">
        <ele>198.2</ele>
        <time>2022-04-22T14:30:13Z</time>
      </trkpt>
      <trkpt lat="46.61462" lon="5.42016">
        <ele>198.2</ele>
        <time>2022-04-22T14:30:15Z</time>
      </trkpt>
      <trkpt lat="46.61429" lon="5.41941">
        <ele>198</ele>
        <time>2022-04-22T14:30:23Z</time>
      </trkpt>
      <trkpt lat="46.6142" lon="5.41924">
        <ele>198</ele>
        <time>2022-04-22T14:30:25Z</time>
      </trkpt>
      <trkpt lat="46.61402" lon="5.41889">
        <ele>198.4</ele>
        <time>2022-04-22T14:30:29Z</time>
      </trkpt>
      <trkpt lat="46.61391" lon="5.41875">
        <ele>198.6</ele>
        <time>2022-04-22T14:30:31Z</time>
      </trkpt>
      <trkpt lat="46.61343" lon="5.41819">
        <ele>198.8</ele>
        <time>2022-04-22T14:30:39Z</time>
      </trkpt>
      <trkpt lat="46.6131" lon="5.41772">
        <ele>198</ele>
        <time>2022-04-22T14:30:45Z</time>
      </trkpt>
      <trkpt lat="46.61288" lon="5.41741">
        <ele>197.6</ele>
        <time>2022-04-22T14:30:49Z</time>
      </trkpt>
      <trkpt lat="46.61266" lon="5.41708">
        <ele>197.4</ele>
        <time>2022-04-22T14:30:53Z</time>
      </trkpt>
      <trkpt lat="46.61233" lon="5.41645">
        <ele>197.4</ele>
        <time>2022-04-22T14:31:00Z</time>
      </trkpt>
      <trkpt lat="46.61201" lon="5.41581">
        <ele>197.4</ele>
        <time>2022-04-22T14:31:07Z</time>
      </trkpt>
      <trkpt lat="46.61196" lon="5.41572">
        <ele>197.6</ele>
        <time>2022-04-22T14:31:08Z</time>
      </trkpt>
      <trkpt lat="46.61158" lon="5.41514">
        <ele>197.6</ele>
        <time>2022-04-22T14:31:15Z</time>
      </trkpt>
      <trkpt lat="46.61148" lon="5.41496">
        <ele>197.4</ele>
        <time>2022-04-22T14:31:17Z</time>
      </trkpt>
      <trkpt lat="46.61127" lon="5.41435">
        <ele>197.2</ele>
        <time>2022-04-22T14:31:23Z</time>
      </trkpt>
      <trkpt lat="46.61118" lon="5.41369">
        <ele>197</ele>
        <time>2022-04-22T14:31:29Z</time>
      </trkpt>
      <trkpt lat="46.61116" lon="5.41336">
        <ele>197</ele>
        <time>2022-04-22T14:31:32Z</time>
      </trkpt>
      <trkpt lat="46.61111" lon="5.41315">
        <ele>196.8</ele>
        <time>2022-04-22T14:31:34Z</time>
      </trkpt>
      <trkpt lat="46.61095" lon="5.41278">
        <ele>196.8</ele>
        <time>2022-04-22T14:31:38Z</time>
      </trkpt>
      <trkpt lat="46.61071" lon="5.41236">
        <ele>196.6</ele>
        <time>2022-04-22T14:31:43Z</time>
      </trkpt>
      <trkpt lat="46.61066" lon="5.41219">
        <ele>196.6</ele>
        <time>2022-04-22T14:31:45Z</time>
      </trkpt>
      <trkpt lat="46.6105" lon="5.41162">
        <ele>196.8</ele>
        <time>2022-04-22T14:31:51Z</time>
      </trkpt>
      <trkpt lat="46.61039" lon="5.41152">
        <ele>196.8</ele>
        <time>2022-04-22T14:31:53Z</time>
      </trkpt>
      <trkpt lat="46.61033" lon="5.4115">
        <ele>197</ele>
        <time>2022-04-22T14:31:54Z</time>
      </trkpt>
      <trkpt lat="46.61021" lon="5.41153">
        <ele>197</ele>
        <time>2022-04-22T14:31:56Z</time>
      </trkpt>
      <trkpt lat="46.61" lon="5.41165">
        <ele>197</ele>
        <time>2022-04-22T14:31:59Z</time>
      </trkpt>
      <trkpt lat="46.60961" lon="5.41201">
        <ele>197.2</ele>
        <time>2022-04-22T14:32:05Z</time>
      </trkpt>
      <trkpt lat="46.6092" lon="5.41244">
        <ele>197.6</ele>
        <time>2022-04-22T14:32:12Z</time>
      </trkpt>
      <trkpt lat="46.6088" lon="5.41292">
        <ele>198.6</ele>
        <time>2022-04-22T14:32:20Z</time>
      </trkpt>
      <trkpt lat="46.60875" lon="5.41298">
        <ele>198.8</ele>
        <time>2022-04-22T14:32:21Z</time>
      </trkpt>
      <trkpt lat="46.60851" lon="5.41327">
        <ele>199.6</ele>
        <time>2022-04-22T14:32:26Z</time>
      </trkpt>
      <trkpt lat="46.60845" lon="5.4133">
        <ele>199.6</ele>
        <time>2022-04-22T14:32:27Z</time>
      </trkpt>
      <trkpt lat="46.60839" lon="5.41332">
        <ele>199.8</ele>
        <time>2022-04-22T14:32:28Z</time>
      </trkpt>
      <trkpt lat="46.60826" lon="5.4133">
        <ele>199.8</ele>
        <time>2022-04-22T14:32:30Z</time>
      </trkpt>
      <trkpt lat="46.60815" lon="5.41324">
        <ele>200</ele>
        <time>2022-04-22T14:32:32Z</time>
      </trkpt>
      <trkpt lat="46.60805" lon="5.41315">
        <ele>200.2</ele>
        <time>2022-04-22T14:32:34Z</time>
      </trkpt>
      <trkpt lat="46.60796" lon="5.41306">
        <ele>200.2</ele>
        <time>2022-04-22T14:32:36Z</time>
      </trkpt>
      <trkpt lat="46.60785" lon="5.41293">
        <ele>200.8</ele>
        <time>2022-04-22T14:32:39Z</time>
      </trkpt>
      <trkpt lat="46.60774" lon="5.4128">
        <ele>202.2</ele>
        <time>2022-04-22T14:32:42Z</time>
      </trkpt>
      <trkpt lat="46.60761" lon="5.41266">
        <ele>203.4</ele>
        <time>2022-04-22T14:32:45Z</time>
      </trkpt>
      <trkpt lat="46.60757" lon="5.41262">
        <ele>203.6</ele>
        <time>2022-04-22T14:32:46Z</time>
      </trkpt>
      <trkpt lat="46.60734" lon="5.41236">
        <ele>204.2</ele>
        <time>2022-04-22T14:32:51Z</time>
      </trkpt>
      <trkpt lat="46.60709" lon="5.41204">
        <ele>204</ele>
        <time>2022-04-22T14:32:56Z</time>
      </trkpt>
      <trkpt lat="46.60692" lon="5.41187">
        <ele>204</ele>
        <time>2022-04-22T14:32:59Z</time>
      </trkpt>
      <trkpt lat="46.60681" lon="5.4118">
        <ele>204</ele>
        <time>2022-04-22T14:33:01Z</time>
      </trkpt>
      <trkpt lat="46.60628" lon="5.41161">
        <ele>204</ele>
        <time>2022-04-22T14:33:09Z</time>
      </trkpt>
      <trkpt lat="46.60593" lon="5.4115">
        <ele>204.2</ele>
        <time>2022-04-22T14:33:15Z</time>
      </trkpt>
      <trkpt lat="46.60582" lon="5.41148">
        <ele>204.6</ele>
        <time>2022-04-22T14:33:17Z</time>
      </trkpt>
      <trkpt lat="46.60561" lon="5.41144">
        <ele>205.8</ele>
        <time>2022-04-22T14:33:21Z</time>
      </trkpt>
      <trkpt lat="46.60549" lon="5.41142">
        <ele>206.4</ele>
        <time>2022-04-22T14:33:23Z</time>
      </trkpt>
      <trkpt lat="46.60527" lon="5.41139">
        <ele>206.8</ele>
        <time>2022-04-22T14:33:27Z</time>
      </trkpt>
      <trkpt lat="46.60511" lon="5.41139">
        <ele>207.2</ele>
        <time>2022-04-22T14:33:30Z</time>
      </trkpt>
      <trkpt lat="46.60495" lon="5.41138">
        <ele>207.8</ele>
        <time>2022-04-22T14:33:33Z</time>
      </trkpt>
      <trkpt lat="46.60469" lon="5.41135">
        <ele>209</ele>
        <time>2022-04-22T14:33:38Z</time>
      </trkpt>
      <trkpt lat="46.60448" lon="5.41125">
        <ele>209.6</ele>
        <time>2022-04-22T14:33:42Z</time>
      </trkpt>
      <trkpt lat="46.60439" lon="5.41116">
        <ele>210</ele>
        <time>2022-04-22T14:33:44Z</time>
      </trkpt>
      <trkpt lat="46.60435" lon="5.41111">
        <ele>210</ele>
        <time>2022-04-22T14:33:45Z</time>
      </trkpt>
      <trkpt lat="46.60432" lon="5.41105">
        <ele>210.2</ele>
        <time>2022-04-22T14:33:46Z</time>
      </trkpt>
      <trkpt lat="46.60426" lon="5.41091">
        <ele>210.4</ele>
        <time>2022-04-22T14:33:48Z</time>
      </trkpt>
      <trkpt lat="46.60412" lon="5.41055">
        <ele>211</ele>
        <time>2022-04-22T14:33:53Z</time>
      </trkpt>
      <trkpt lat="46.60408" lon="5.41048">
        <ele>211.2</ele>
        <time>2022-04-22T14:33:54Z</time>
      </trkpt>
      <trkpt lat="46.60404" lon="5.41041">
        <ele>211.2</ele>
        <time>2022-04-22T14:33:55Z</time>
      </trkpt>
      <trkpt lat="46.60394" lon="5.41027">
        <ele>211.2</ele>
        <time>2022-04-22T14:33:57Z</time>
      </trkpt>
      <trkpt lat="46.60382" lon="5.41016">
        <ele>211.2</ele>
        <time>2022-04-22T14:33:59Z</time>
      </trkpt>
      <trkpt lat="46.60344" lon="5.40991">
        <ele>210.4</ele>
        <time>2022-04-22T14:34:04Z</time>
      </trkpt>
      <trkpt lat="46.60337" lon="5.40983">
        <ele>209.6</ele>
        <time>2022-04-22T14:34:05Z</time>
      </trkpt>
      <trkpt lat="46.60331" lon="5.40974">
        <ele>209.2</ele>
        <time>2022-04-22T14:34:06Z</time>
      </trkpt>
      <trkpt lat="46.60325" lon="5.40963">
        <ele>208.8</ele>
        <time>2022-04-22T14:34:07Z</time>
      </trkpt>
      <trkpt lat="46.60312" lon="5.40939">
        <ele>208</ele>
        <time>2022-04-22T14:34:09Z</time>
      </trkpt>
      <trkpt lat="46.60306" lon="5.40926">
        <ele>206.2</ele>
        <time>2022-04-22T14:34:10Z</time>
      </trkpt>
      <trkpt lat="46.60298" lon="5.40914">
        <ele>205.8</ele>
        <time>2022-04-22T14:34:11Z</time>
      </trkpt>
      <trkpt lat="46.6029" lon="5.40904">
        <ele>205</ele>
        <time>2022-04-22T14:34:12Z</time>
      </trkpt>
      <trkpt lat="46.60281" lon="5.40895">
        <ele>204.4</ele>
        <time>2022-04-22T14:34:13Z</time>
      </trkpt>
      <trkpt lat="46.60272" lon="5.40886">
        <ele>203</ele>
        <time>2022-04-22T14:34:14Z</time>
      </trkpt>
      <trkpt lat="46.60262" lon="5.40878">
        <ele>202.6</ele>
        <time>2022-04-22T14:34:15Z</time>
      </trkpt>
      <trkpt lat="46.60253" lon="5.40871">
        <ele>202</ele>
        <time>2022-04-22T14:34:16Z</time>
      </trkpt>
      <trkpt lat="46.60235" lon="5.40857">
        <ele>200.8</ele>
        <time>2022-04-22T14:34:18Z</time>
      </trkpt>
      <trkpt lat="46.60217" lon="5.40843">
        <ele>199.6</ele>
        <time>2022-04-22T14:34:20Z</time>
      </trkpt>
      <trkpt lat="46.60208" lon="5.40835">
        <ele>199</ele>
        <time>2022-04-22T14:34:21Z</time>
      </trkpt>
      <trkpt lat="46.60192" lon="5.40819">
        <ele>198.6</ele>
        <time>2022-04-22T14:34:23Z</time>
      </trkpt>
      <trkpt lat="46.60182" lon="5.40803">
        <ele>198.6</ele>
        <time>2022-04-22T14:34:25Z</time>
      </trkpt>
      <trkpt lat="46.60174" lon="5.40778">
        <ele>198.4</ele>
        <time>2022-04-22T14:34:28Z</time>
      </trkpt>
      <trkpt lat="46.60173" lon="5.4077">
        <ele>198.4</ele>
        <time>2022-04-22T14:34:29Z</time>
      </trkpt>
      <trkpt lat="46.60174" lon="5.40753">
        <ele>198.6</ele>
        <time>2022-04-22T14:34:31Z</time>
      </trkpt>
      <trkpt lat="46.60179" lon="5.40722">
        <ele>198.8</ele>
        <time>2022-04-22T14:34:34Z</time>
      </trkpt>
      <trkpt lat="46.60181" lon="5.40712">
        <ele>198.8</ele>
        <time>2022-04-22T14:34:35Z</time>
      </trkpt>
      <trkpt lat="46.60184" lon="5.40703">
        <ele>198.8</ele>
        <time>2022-04-22T14:34:36Z</time>
      </trkpt>
      <trkpt lat="46.60198" lon="5.40678">
        <ele>198.8</ele>
        <time>2022-04-22T14:34:39Z</time>
      </trkpt>
      <trkpt lat="46.60233" lon="5.40612">
        <ele>199</ele>
        <time>2022-04-22T14:34:47Z</time>
      </trkpt>
      <trkpt lat="46.60237" lon="5.40593">
        <ele>199.2</ele>
        <time>2022-04-22T14:34:49Z</time>
      </trkpt>
      <trkpt lat="46.60238" lon="5.40572">
        <ele>199.4</ele>
        <time>2022-04-22T14:34:51Z</time>
      </trkpt>
      <trkpt lat="46.60229" lon="5.40523">
        <ele>199.6</ele>
        <time>2022-04-22T14:34:56Z</time>
      </trkpt>
      <trkpt lat="46.60219" lon="5.40457">
        <ele>200.4</ele>
        <time>2022-04-22T14:35:03Z</time>
      </trkpt>
      <trkpt lat="46.60219" lon="5.40448">
        <ele>200.6</ele>
        <time>2022-04-22T14:35:04Z</time>
      </trkpt>
      <trkpt lat="46.60221" lon="5.40415">
        <ele>201.2</ele>
        <time>2022-04-22T14:35:08Z</time>
      </trkpt>
      <trkpt lat="46.60222" lon="5.40393">
        <ele>202</ele>
        <time>2022-04-22T14:35:11Z</time>
      </trkpt>
      <trkpt lat="46.60222" lon="5.40373">
        <ele>202.8</ele>
        <time>2022-04-22T14:35:14Z</time>
      </trkpt>
      <trkpt lat="46.60221" lon="5.40367">
        <ele>203.2</ele>
        <time>2022-04-22T14:35:15Z</time>
      </trkpt>
      <trkpt lat="46.60218" lon="5.40347">
        <ele>204.4</ele>
        <time>2022-04-22T14:35:18Z</time>
      </trkpt>
      <trkpt lat="46.60215" lon="5.40332">
        <ele>204.8</ele>
        <time>2022-04-22T14:35:20Z</time>
      </trkpt>
      <trkpt lat="46.60197" lon="5.40281">
        <ele>205</ele>
        <time>2022-04-22T14:35:26Z</time>
      </trkpt>
      <trkpt lat="46.6018" lon="5.40237">
        <ele>205</ele>
        <time>2022-04-22T14:35:31Z</time>
      </trkpt>
      <trkpt lat="46.60178" lon="5.40228">
        <ele>205</ele>
        <time>2022-04-22T14:35:32Z</time>
      </trkpt>
      <trkpt lat="46.60177" lon="5.40218">
        <ele>205</ele>
        <time>2022-04-22T14:35:33Z</time>
      </trkpt>
      <trkpt lat="46.60178" lon="5.40191">
        <ele>204.8</ele>
        <time>2022-04-22T14:35:36Z</time>
      </trkpt>
      <trkpt lat="46.60189" lon="5.40138">
        <ele>204.6</ele>
        <time>2022-04-22T14:35:42Z</time>
      </trkpt>
      <trkpt lat="46.60191" lon="5.40128">
        <ele>204.6</ele>
        <time>2022-04-22T14:35:43Z</time>
      </trkpt>
      <trkpt lat="46.60193" lon="5.40088">
        <ele>204.6</ele>
        <time>2022-04-22T14:35:47Z</time>
      </trkpt>
      <trkpt lat="46.6019" lon="5.40019">
        <ele>203.8</ele>
        <time>2022-04-22T14:35:53Z</time>
      </trkpt>
      <trkpt lat="46.60189" lon="5.39998">
        <ele>203.4</ele>
        <time>2022-04-22T14:35:55Z</time>
      </trkpt>
      <trkpt lat="46.60189" lon="5.39961">
        <ele>202.6</ele>
        <time>2022-04-22T14:35:58Z</time>
      </trkpt>
      <trkpt lat="46.60189" lon="5.39951">
        <ele>202.2</ele>
        <time>2022-04-22T14:35:59Z</time>
      </trkpt>
      <trkpt lat="46.60188" lon="5.39939">
        <ele>201.8</ele>
        <time>2022-04-22T14:36:00Z</time>
      </trkpt>
      <trkpt lat="46.60181" lon="5.39912">
        <ele>201</ele>
        <time>2022-04-22T14:36:02Z</time>
      </trkpt>
      <trkpt lat="46.60171" lon="5.39893">
        <ele>200.6</ele>
        <time>2022-04-22T14:36:04Z</time>
      </trkpt>
      <trkpt lat="46.60163" lon="5.39883">
        <ele>200.4</ele>
        <time>2022-04-22T14:36:05Z</time>
      </trkpt>
      <trkpt lat="46.6014" lon="5.39862">
        <ele>200</ele>
        <time>2022-04-22T14:36:08Z</time>
      </trkpt>
      <trkpt lat="46.60117" lon="5.39842">
        <ele>199.6</ele>
        <time>2022-04-22T14:36:11Z</time>
      </trkpt>
      <trkpt lat="46.60097" lon="5.39821">
        <ele>199.4</ele>
        <time>2022-04-22T14:36:14Z</time>
      </trkpt>
      <trkpt lat="46.60091" lon="5.39812">
        <ele>199.4</ele>
        <time>2022-04-22T14:36:15Z</time>
      </trkpt>
      <trkpt lat="46.60086" lon="5.39803">
        <ele>199.4</ele>
        <time>2022-04-22T14:36:16Z</time>
      </trkpt>
      <trkpt lat="46.60079" lon="5.39785">
        <ele>199.4</ele>
        <time>2022-04-22T14:36:18Z</time>
      </trkpt>
      <trkpt lat="46.60066" lon="5.39743">
        <ele>199.6</ele>
        <time>2022-04-22T14:36:22Z</time>
      </trkpt>
      <trkpt lat="46.60064" lon="5.39732">
        <ele>199.8</ele>
        <time>2022-04-22T14:36:23Z</time>
      </trkpt>
      <trkpt lat="46.60065" lon="5.39722">
        <ele>200</ele>
        <time>2022-04-22T14:36:24Z</time>
      </trkpt>
      <trkpt lat="46.60069" lon="5.39704">
        <ele>200.2</ele>
        <time>2022-04-22T14:36:26Z</time>
      </trkpt>
      <trkpt lat="46.60081" lon="5.39677">
        <ele>200.6</ele>
        <time>2022-04-22T14:36:29Z</time>
      </trkpt>
      <trkpt lat="46.60084" lon="5.39668">
        <ele>200.8</ele>
        <time>2022-04-22T14:36:30Z</time>
      </trkpt>
      <trkpt lat="46.60088" lon="5.39652">
        <ele>201</ele>
        <time>2022-04-22T14:36:32Z</time>
      </trkpt>
      <trkpt lat="46.6009" lon="5.39634">
        <ele>201.4</ele>
        <time>2022-04-22T14:36:34Z</time>
      </trkpt>
      <trkpt lat="46.60088" lon="5.39609">
        <ele>202</ele>
        <time>2022-04-22T14:36:37Z</time>
      </trkpt>
      <trkpt lat="46.60086" lon="5.39601">
        <ele>202.2</ele>
        <time>2022-04-22T14:36:38Z</time>
      </trkpt>
      <trkpt lat="46.6008" lon="5.3958">
        <ele>204</ele>
        <time>2022-04-22T14:36:41Z</time>
      </trkpt>
      <trkpt lat="46.60071" lon="5.3956">
        <ele>204.8</ele>
        <time>2022-04-22T14:36:44Z</time>
      </trkpt>
      <trkpt lat="46.60068" lon="5.39553">
        <ele>205.2</ele>
        <time>2022-04-22T14:36:45Z</time>
      </trkpt>
      <trkpt lat="46.60058" lon="5.39534">
        <ele>206.2</ele>
        <time>2022-04-22T14:36:48Z</time>
      </trkpt>
      <trkpt lat="46.60041" lon="5.39495">
        <ele>207</ele>
        <time>2022-04-22T14:36:54Z</time>
      </trkpt>
      <trkpt lat="46.60039" lon="5.39488">
        <ele>207.2</ele>
        <time>2022-04-22T14:36:55Z</time>
      </trkpt>
      <trkpt lat="46.60034" lon="5.39467">
        <ele>208.2</ele>
        <time>2022-04-22T14:36:58Z</time>
      </trkpt>
      <trkpt lat="46.60033" lon="5.39459">
        <ele>208.6</ele>
        <time>2022-04-22T14:36:59Z</time>
      </trkpt>
      <trkpt lat="46.60033" lon="5.39451">
        <ele>208.8</ele>
        <time>2022-04-22T14:37:00Z</time>
      </trkpt>
      <trkpt lat="46.60033" lon="5.39434">
        <ele>209</ele>
        <time>2022-04-22T14:37:02Z</time>
      </trkpt>
      <trkpt lat="46.60039" lon="5.3941">
        <ele>209.2</ele>
        <time>2022-04-22T14:37:05Z</time>
      </trkpt>
      <trkpt lat="46.60051" lon="5.39352">
        <ele>209.2</ele>
        <time>2022-04-22T14:37:11Z</time>
      </trkpt>
      <trkpt lat="46.60055" lon="5.39313">
        <ele>208.6</ele>
        <time>2022-04-22T14:37:15Z</time>
      </trkpt>
      <trkpt lat="46.60055" lon="5.39295">
        <ele>208.6</ele>
        <time>2022-04-22T14:37:17Z</time>
      </trkpt>
      <trkpt lat="46.60054" lon="5.39286">
        <ele>208.8</ele>
        <time>2022-04-22T14:37:18Z</time>
      </trkpt>
      <trkpt lat="46.60049" lon="5.39256">
        <ele>209.4</ele>
        <time>2022-04-22T14:37:22Z</time>
      </trkpt>
      <trkpt lat="46.60047" lon="5.3925">
        <ele>209.6</ele>
        <time>2022-04-22T14:37:23Z</time>
      </trkpt>
      <trkpt lat="46.60039" lon="5.39233">
        <ele>210.8</ele>
        <time>2022-04-22T14:37:26Z</time>
      </trkpt>
      <trkpt lat="46.60037" lon="5.39227">
        <ele>211.2</ele>
        <time>2022-04-22T14:37:27Z</time>
      </trkpt>
      <trkpt lat="46.60034" lon="5.39222">
        <ele>211.4</ele>
        <time>2022-04-22T14:37:28Z</time>
      </trkpt>
      <trkpt lat="46.6003" lon="5.39217">
        <ele>212</ele>
        <time>2022-04-22T14:37:29Z</time>
      </trkpt>
      <trkpt lat="46.60019" lon="5.39205">
        <ele>213.2</ele>
        <time>2022-04-22T14:37:32Z</time>
      </trkpt>
      <trkpt lat="46.60006" lon="5.39195">
        <ele>214</ele>
        <time>2022-04-22T14:37:35Z</time>
      </trkpt>
      <trkpt lat="46.59991" lon="5.39188">
        <ele>214.6</ele>
        <time>2022-04-22T14:37:38Z</time>
      </trkpt>
      <trkpt lat="46.59958" lon="5.39184">
        <ele>215.2</ele>
        <time>2022-04-22T14:37:44Z</time>
      </trkpt>
      <trkpt lat="46.59931" lon="5.3918">
        <ele>216</ele>
        <time>2022-04-22T14:37:50Z</time>
      </trkpt>
      <trkpt lat="46.59925" lon="5.39178">
        <ele>216.4</ele>
        <time>2022-04-22T14:37:52Z</time>
      </trkpt>
      <trkpt lat="46.59913" lon="5.39179">
        <ele>217.2</ele>
        <time>2022-04-22T14:37:55Z</time>
      </trkpt>
      <trkpt lat="46.59897" lon="5.39187">
        <ele>217.4</ele>
        <time>2022-04-22T14:37:58Z</time>
      </trkpt>
      <trkpt lat="46.59892" lon="5.39189">
        <ele>217.4</ele>
        <time>2022-04-22T14:37:59Z</time>
      </trkpt>
      <trkpt lat="46.59868" lon="5.39194">
        <ele>218</ele>
        <time>2022-04-22T14:38:03Z</time>
      </trkpt>
      <trkpt lat="46.59856" lon="5.39194">
        <ele>218</ele>
        <time>2022-04-22T14:38:05Z</time>
      </trkpt>
      <trkpt lat="46.59808" lon="5.3919">
        <ele>218</ele>
        <time>2022-04-22T14:38:13Z</time>
      </trkpt>
      <trkpt lat="46.59778" lon="5.39197">
        <ele>218.4</ele>
        <time>2022-04-22T14:38:18Z</time>
      </trkpt>
      <trkpt lat="46.59772" lon="5.39199">
        <ele>218.4</ele>
        <time>2022-04-22T14:38:19Z</time>
      </trkpt>
      <trkpt lat="46.5975" lon="5.3921">
        <ele>218.8</ele>
        <time>2022-04-22T14:38:23Z</time>
      </trkpt>
      <trkpt lat="46.59744" lon="5.39211">
        <ele>219.2</ele>
        <time>2022-04-22T14:38:24Z</time>
      </trkpt>
      <trkpt lat="46.59738" lon="5.3921">
        <ele>219.2</ele>
        <time>2022-04-22T14:38:25Z</time>
      </trkpt>
      <trkpt lat="46.59719" lon="5.39203">
        <ele>219.2</ele>
        <time>2022-04-22T14:38:28Z</time>
      </trkpt>
      <trkpt lat="46.59713" lon="5.392">
        <ele>219.4</ele>
        <time>2022-04-22T14:38:29Z</time>
      </trkpt>
      <trkpt lat="46.59681" lon="5.39193">
        <ele>220</ele>
        <time>2022-04-22T14:38:34Z</time>
      </trkpt>
      <trkpt lat="46.59636" lon="5.39185">
        <ele>219.8</ele>
        <time>2022-04-22T14:38:40Z</time>
      </trkpt>
      <trkpt lat="46.59613" lon="5.39187">
        <ele>219.4</ele>
        <time>2022-04-22T14:38:43Z</time>
      </trkpt>
      <trkpt lat="46.59598" lon="5.39192">
        <ele>219</ele>
        <time>2022-04-22T14:38:45Z</time>
      </trkpt>
      <trkpt lat="46.59569" lon="5.39206">
        <ele>218.4</ele>
        <time>2022-04-22T14:38:49Z</time>
      </trkpt>
      <trkpt lat="46.59554" lon="5.39209">
        <ele>218.2</ele>
        <time>2022-04-22T14:38:51Z</time>
      </trkpt>
      <trkpt lat="46.59546" lon="5.3921">
        <ele>218</ele>
        <time>2022-04-22T14:38:52Z</time>
      </trkpt>
      <trkpt lat="46.5953" lon="5.39207">
        <ele>218</ele>
        <time>2022-04-22T14:38:54Z</time>
      </trkpt>
      <trkpt lat="46.59522" lon="5.39203">
        <ele>218</ele>
        <time>2022-04-22T14:38:55Z</time>
      </trkpt>
      <trkpt lat="46.59515" lon="5.39197">
        <ele>217.8</ele>
        <time>2022-04-22T14:38:56Z</time>
      </trkpt>
      <trkpt lat="46.59506" lon="5.39181">
        <ele>217.8</ele>
        <time>2022-04-22T14:38:58Z</time>
      </trkpt>
      <trkpt lat="46.59498" lon="5.39137">
        <ele>217.4</ele>
        <time>2022-04-22T14:39:02Z</time>
      </trkpt>
      <trkpt lat="46.59496" lon="5.39114">
        <ele>217.4</ele>
        <time>2022-04-22T14:39:04Z</time>
      </trkpt>
      <trkpt lat="46.59486" lon="5.39029">
        <ele>216.6</ele>
        <time>2022-04-22T14:39:11Z</time>
      </trkpt>
      <trkpt lat="46.59473" lon="5.3895">
        <ele>216.4</ele>
        <time>2022-04-22T14:39:18Z</time>
      </trkpt>
      <trkpt lat="46.5947" lon="5.3894">
        <ele>216.4</ele>
        <time>2022-04-22T14:39:19Z</time>
      </trkpt>
      <trkpt lat="46.59456" lon="5.38903">
        <ele>216.6</ele>
        <time>2022-04-22T14:39:23Z</time>
      </trkpt>
      <trkpt lat="46.59454" lon="5.38892">
        <ele>216.8</ele>
        <time>2022-04-22T14:39:24Z</time>
      </trkpt>
      <trkpt lat="46.5945" lon="5.38861">
        <ele>216.8</ele>
        <time>2022-04-22T14:39:27Z</time>
      </trkpt>
      <trkpt lat="46.59441" lon="5.38801">
        <ele>217.4</ele>
        <time>2022-04-22T14:39:33Z</time>
      </trkpt>
      <trkpt lat="46.59433" lon="5.38782">
        <ele>217.2</ele>
        <time>2022-04-22T14:39:35Z</time>
      </trkpt>
      <trkpt lat="46.59422" lon="5.38768">
        <ele>217.2</ele>
        <time>2022-04-22T14:39:37Z</time>
      </trkpt>
      <trkpt lat="46.59379" lon="5.38722">
        <ele>217</ele>
        <time>2022-04-22T14:39:44Z</time>
      </trkpt>
      <trkpt lat="46.59336" lon="5.38675">
        <ele>216.4</ele>
        <time>2022-04-22T14:39:51Z</time>
      </trkpt>
      <trkpt lat="46.59329" lon="5.38669">
        <ele>216.2</ele>
        <time>2022-04-22T14:39:52Z</time>
      </trkpt>
      <trkpt lat="46.59304" lon="5.38642">
        <ele>216</ele>
        <time>2022-04-22T14:39:56Z</time>
      </trkpt>
      <trkpt lat="46.59256" lon="5.38588">
        <ele>216.2</ele>
        <time>2022-04-22T14:40:04Z</time>
      </trkpt>
      <trkpt lat="46.59216" lon="5.38545">
        <ele>216.4</ele>
        <time>2022-04-22T14:40:11Z</time>
      </trkpt>
      <trkpt lat="46.5918" lon="5.38505">
        <ele>216.4</ele>
        <time>2022-04-22T14:40:17Z</time>
      </trkpt>
      <trkpt lat="46.59151" lon="5.38461">
        <ele>215.8</ele>
        <time>2022-04-22T14:40:22Z</time>
      </trkpt>
      <trkpt lat="46.59135" lon="5.38433">
        <ele>215.2</ele>
        <time>2022-04-22T14:40:25Z</time>
      </trkpt>
      <trkpt lat="46.59115" lon="5.38408">
        <ele>214.4</ele>
        <time>2022-04-22T14:40:28Z</time>
      </trkpt>
      <trkpt lat="46.59107" lon="5.384">
        <ele>214.2</ele>
        <time>2022-04-22T14:40:29Z</time>
      </trkpt>
      <trkpt lat="46.59091" lon="5.38386">
        <ele>213</ele>
        <time>2022-04-22T14:40:31Z</time>
      </trkpt>
      <trkpt lat="46.59066" lon="5.38365">
        <ele>211.6</ele>
        <time>2022-04-22T14:40:34Z</time>
      </trkpt>
      <trkpt lat="46.5904" lon="5.38344">
        <ele>210.4</ele>
        <time>2022-04-22T14:40:37Z</time>
      </trkpt>
      <trkpt lat="46.59015" lon="5.38324">
        <ele>209.4</ele>
        <time>2022-04-22T14:40:40Z</time>
      </trkpt>
      <trkpt lat="46.58999" lon="5.3831">
        <ele>209</ele>
        <time>2022-04-22T14:40:42Z</time>
      </trkpt>
      <trkpt lat="46.5896" lon="5.38277">
        <ele>208.4</ele>
        <time>2022-04-22T14:40:47Z</time>
      </trkpt>
      <trkpt lat="46.58946" lon="5.38265">
        <ele>208.4</ele>
        <time>2022-04-22T14:40:49Z</time>
      </trkpt>
      <trkpt lat="46.5891" lon="5.38226">
        <ele>209.4</ele>
        <time>2022-04-22T14:40:55Z</time>
      </trkpt>
      <trkpt lat="46.58879" lon="5.38187">
        <ele>210.6</ele>
        <time>2022-04-22T14:41:01Z</time>
      </trkpt>
      <trkpt lat="46.58857" lon="5.3816">
        <ele>211.6</ele>
        <time>2022-04-22T14:41:05Z</time>
      </trkpt>
      <trkpt lat="46.58821" lon="5.38117">
        <ele>212.4</ele>
        <time>2022-04-22T14:41:12Z</time>
      </trkpt>
      <trkpt lat="46.58799" lon="5.38092">
        <ele>212.8</ele>
        <time>2022-04-22T14:41:16Z</time>
      </trkpt>
      <trkpt lat="46.58788" lon="5.38079">
        <ele>213</ele>
        <time>2022-04-22T14:41:18Z</time>
      </trkpt>
      <trkpt lat="46.58775" lon="5.38068">
        <ele>213.4</ele>
        <time>2022-04-22T14:41:20Z</time>
      </trkpt>
      <trkpt lat="46.58767" lon="5.38065">
        <ele>213.4</ele>
        <time>2022-04-22T14:41:21Z</time>
      </trkpt>
      <trkpt lat="46.58745" lon="5.38058">
        <ele>213.2</ele>
        <time>2022-04-22T14:41:24Z</time>
      </trkpt>
      <trkpt lat="46.58691" lon="5.38053">
        <ele>212.4</ele>
        <time>2022-04-22T14:41:31Z</time>
      </trkpt>
      <trkpt lat="46.58644" lon="5.38048">
        <ele>211.8</ele>
        <time>2022-04-22T14:41:37Z</time>
      </trkpt>
      <trkpt lat="46.58628" lon="5.38044">
        <ele>211.6</ele>
        <time>2022-04-22T14:41:39Z</time>
      </trkpt>
      <trkpt lat="46.58621" lon="5.3804">
        <ele>211.6</ele>
        <time>2022-04-22T14:41:40Z</time>
      </trkpt>
      <trkpt lat="46.58613" lon="5.38036">
        <ele>211.4</ele>
        <time>2022-04-22T14:41:41Z</time>
      </trkpt>
      <trkpt lat="46.58584" lon="5.38009">
        <ele>210.8</ele>
        <time>2022-04-22T14:41:45Z</time>
      </trkpt>
      <trkpt lat="46.58577" lon="5.38004">
        <ele>210.8</ele>
        <time>2022-04-22T14:41:46Z</time>
      </trkpt>
      <trkpt lat="46.58569" lon="5.38">
        <ele>210.8</ele>
        <time>2022-04-22T14:41:47Z</time>
      </trkpt>
      <trkpt lat="46.58562" lon="5.37999">
        <ele>210.6</ele>
        <time>2022-04-22T14:41:48Z</time>
      </trkpt>
      <trkpt lat="46.58555" lon="5.38001">
        <ele>210.6</ele>
        <time>2022-04-22T14:41:49Z</time>
      </trkpt>
      <trkpt lat="46.58534" lon="5.38014">
        <ele>209.2</ele>
        <time>2022-04-22T14:41:52Z</time>
      </trkpt>
      <trkpt lat="46.58519" lon="5.38022">
        <ele>209.2</ele>
        <time>2022-04-22T14:41:54Z</time>
      </trkpt>
      <trkpt lat="46.58497" lon="5.38028">
        <ele>209.4</ele>
        <time>2022-04-22T14:41:57Z</time>
      </trkpt>
      <trkpt lat="46.58489" lon="5.38028">
        <ele>209.4</ele>
        <time>2022-04-22T14:41:58Z</time>
      </trkpt>
      <trkpt lat="46.58446" lon="5.38015">
        <ele>209.8</ele>
        <time>2022-04-22T14:42:03Z</time>
      </trkpt>
      <trkpt lat="46.58389" lon="5.37994">
        <ele>208</ele>
        <time>2022-04-22T14:42:09Z</time>
      </trkpt>
      <trkpt lat="46.58379" lon="5.3799">
        <ele>207.6</ele>
        <time>2022-04-22T14:42:10Z</time>
      </trkpt>
      <trkpt lat="46.58369" lon="5.37986">
        <ele>206.8</ele>
        <time>2022-04-22T14:42:11Z</time>
      </trkpt>
      <trkpt lat="46.5833" lon="5.37969">
        <ele>205.2</ele>
        <time>2022-04-22T14:42:15Z</time>
      </trkpt>
      <trkpt lat="46.58311" lon="5.37959">
        <ele>204.2</ele>
        <time>2022-04-22T14:42:17Z</time>
      </trkpt>
      <trkpt lat="46.58302" lon="5.37953">
        <ele>204</ele>
        <time>2022-04-22T14:42:18Z</time>
      </trkpt>
      <trkpt lat="46.58247" lon="5.37919">
        <ele>203</ele>
        <time>2022-04-22T14:42:23Z</time>
      </trkpt>
      <trkpt lat="46.58238" lon="5.37912">
        <ele>202.4</ele>
        <time>2022-04-22T14:42:25Z</time>
      </trkpt>
      <trkpt lat="46.58211" lon="5.37895">
        <ele>201.8</ele>
        <time>2022-04-22T14:42:28Z</time>
      </trkpt>
      <trkpt lat="46.58181" lon="5.37879">
        <ele>201.4</ele>
        <time>2022-04-22T14:42:31Z</time>
      </trkpt>
      <trkpt lat="46.58171" lon="5.37876">
        <ele>201</ele>
        <time>2022-04-22T14:42:32Z</time>
      </trkpt>
      <trkpt lat="46.5816" lon="5.37877">
        <ele>200.8</ele>
        <time>2022-04-22T14:42:33Z</time>
      </trkpt>
      <trkpt lat="46.58143" lon="5.37885">
        <ele>200.4</ele>
        <time>2022-04-22T14:42:35Z</time>
      </trkpt>
      <trkpt lat="46.58117" lon="5.37905">
        <ele>199.8</ele>
        <time>2022-04-22T14:42:38Z</time>
      </trkpt>
      <trkpt lat="46.58109" lon="5.37911">
        <ele>199.8</ele>
        <time>2022-04-22T14:42:39Z</time>
      </trkpt>
      <trkpt lat="46.58091" lon="5.37919">
        <ele>199.8</ele>
        <time>2022-04-22T14:42:40Z</time>
      </trkpt>
      <trkpt lat="46.58053" lon="5.3793">
        <ele>199.4</ele>
        <time>2022-04-22T14:42:44Z</time>
      </trkpt>
      <trkpt lat="46.58027" lon="5.37939">
        <ele>198.8</ele>
        <time>2022-04-22T14:42:48Z</time>
      </trkpt>
      <trkpt lat="46.58004" lon="5.37948">
        <ele>198.8</ele>
        <time>2022-04-22T14:42:50Z</time>
      </trkpt>
      <trkpt lat="46.57996" lon="5.37953">
        <ele>198.8</ele>
        <time>2022-04-22T14:42:51Z</time>
      </trkpt>
      <trkpt lat="46.57975" lon="5.3797">
        <ele>198.8</ele>
        <time>2022-04-22T14:42:54Z</time>
      </trkpt>
      <trkpt lat="46.57934" lon="5.37995">
        <ele>199.8</ele>
        <time>2022-04-22T14:43:00Z</time>
      </trkpt>
      <trkpt lat="46.57928" lon="5.38">
        <ele>200</ele>
        <time>2022-04-22T14:43:01Z</time>
      </trkpt>
      <trkpt lat="46.57913" lon="5.38019">
        <ele>200.6</ele>
        <time>2022-04-22T14:43:04Z</time>
      </trkpt>
      <trkpt lat="46.57906" lon="5.38035">
        <ele>201.4</ele>
        <time>2022-04-22T14:43:06Z</time>
      </trkpt>
      <trkpt lat="46.579" lon="5.38051">
        <ele>202.2</ele>
        <time>2022-04-22T14:43:09Z</time>
      </trkpt>
      <trkpt lat="46.57891" lon="5.38079">
        <ele>202.6</ele>
        <time>2022-04-22T14:43:11Z</time>
      </trkpt>
      <trkpt lat="46.57876" lon="5.38128">
        <ele>203</ele>
        <time>2022-04-22T14:43:16Z</time>
      </trkpt>
      <trkpt lat="46.57849" lon="5.38191">
        <ele>203.4</ele>
        <time>2022-04-22T14:43:23Z</time>
      </trkpt>
      <trkpt lat="46.57837" lon="5.38204">
        <ele>203.4</ele>
        <time>2022-04-22T14:43:25Z</time>
      </trkpt>
      <trkpt lat="46.57824" lon="5.38216">
        <ele>203.4</ele>
        <time>2022-04-22T14:43:27Z</time>
      </trkpt>
      <trkpt lat="46.578" lon="5.38238">
        <ele>203.6</ele>
        <time>2022-04-22T14:43:31Z</time>
      </trkpt>
      <trkpt lat="46.57766" lon="5.38273">
        <ele>203.8</ele>
        <time>2022-04-22T14:43:37Z</time>
      </trkpt>
      <trkpt lat="46.57733" lon="5.38295">
        <ele>204</ele>
        <time>2022-04-22T14:43:42Z</time>
      </trkpt>
      <trkpt lat="46.57695" lon="5.38308">
        <ele>204.8</ele>
        <time>2022-04-22T14:43:48Z</time>
      </trkpt>
      <trkpt lat="46.57653" lon="5.38315">
        <ele>205</ele>
        <time>2022-04-22T14:43:54Z</time>
      </trkpt>
      <trkpt lat="46.57647" lon="5.38318">
        <ele>205</ele>
        <time>2022-04-22T14:43:55Z</time>
      </trkpt>
      <trkpt lat="46.5764" lon="5.38321">
        <ele>204.8</ele>
        <time>2022-04-22T14:43:56Z</time>
      </trkpt>
      <trkpt lat="46.57628" lon="5.38323">
        <ele>204.4</ele>
        <time>2022-04-22T14:43:58Z</time>
      </trkpt>
      <trkpt lat="46.57623" lon="5.38322">
        <ele>204.2</ele>
        <time>2022-04-22T14:43:59Z</time>
      </trkpt>
      <trkpt lat="46.57618" lon="5.38321">
        <ele>204.2</ele>
        <time>2022-04-22T14:44:00Z</time>
      </trkpt>
      <trkpt lat="46.57608" lon="5.383">
        <ele>204</ele>
        <time>2022-04-22T14:44:02Z</time>
      </trkpt>
      <trkpt lat="46.57603" lon="5.38287">
        <ele>203.6</ele>
        <time>2022-04-22T14:44:03Z</time>
      </trkpt>
      <trkpt lat="46.57584" lon="5.38251">
        <ele>202.4</ele>
        <time>2022-04-22T14:44:06Z</time>
      </trkpt>
      <trkpt lat="46.5757" lon="5.38231">
        <ele>201.6</ele>
        <time>2022-04-22T14:44:08Z</time>
      </trkpt>
      <trkpt lat="46.57562" lon="5.38223">
        <ele>201</ele>
        <time>2022-04-22T14:44:09Z</time>
      </trkpt>
      <trkpt lat="46.57554" lon="5.38216">
        <ele>200</ele>
        <time>2022-04-22T14:44:10Z</time>
      </trkpt>
      <trkpt lat="46.57524" lon="5.38191">
        <ele>198.8</ele>
        <time>2022-04-22T14:44:14Z</time>
      </trkpt>
      <trkpt lat="46.57502" lon="5.38172">
        <ele>198.4</ele>
        <time>2022-04-22T14:44:17Z</time>
      </trkpt>
      <trkpt lat="46.57452" lon="5.38132">
        <ele>198.4</ele>
        <time>2022-04-22T14:44:24Z</time>
      </trkpt>
      <trkpt lat="46.57437" lon="5.38121">
        <ele>198.8</ele>
        <time>2022-04-22T14:44:26Z</time>
      </trkpt>
      <trkpt lat="46.57384" lon="5.38075">
        <ele>199.4</ele>
        <time>2022-04-22T14:44:34Z</time>
      </trkpt>
      <trkpt lat="46.57379" lon="5.38067">
        <ele>199.6</ele>
        <time>2022-04-22T14:44:35Z</time>
      </trkpt>
      <trkpt lat="46.57371" lon="5.38053">
        <ele>199.6</ele>
        <time>2022-04-22T14:44:37Z</time>
      </trkpt>
      <trkpt lat="46.57368" lon="5.38045">
        <ele>199.8</ele>
        <time>2022-04-22T14:44:38Z</time>
      </trkpt>
      <trkpt lat="46.57347" lon="5.38003">
        <ele>201.2</ele>
        <time>2022-04-22T14:44:44Z</time>
      </trkpt>
      <trkpt lat="46.57337" lon="5.37984">
        <ele>202.4</ele>
        <time>2022-04-22T14:44:47Z</time>
      </trkpt>
      <trkpt lat="46.5733" lon="5.37972">
        <ele>203</ele>
        <time>2022-04-22T14:44:49Z</time>
      </trkpt>
      <trkpt lat="46.57325" lon="5.3796">
        <ele>203.8</ele>
        <time>2022-04-22T14:44:51Z</time>
      </trkpt>
      <trkpt lat="46.57316" lon="5.37941">
        <ele>204.8</ele>
        <time>2022-04-22T14:44:54Z</time>
      </trkpt>
      <trkpt lat="46.57313" lon="5.37934">
        <ele>205</ele>
        <time>2022-04-22T14:44:55Z</time>
      </trkpt>
      <trkpt lat="46.57297" lon="5.37902">
        <ele>205.8</ele>
        <time>2022-04-22T14:45:00Z</time>
      </trkpt>
      <trkpt lat="46.57291" lon="5.37889">
        <ele>206.2</ele>
        <time>2022-04-22T14:45:02Z</time>
      </trkpt>
      <trkpt lat="46.57278" lon="5.37863">
        <ele>207</ele>
        <time>2022-04-22T14:45:06Z</time>
      </trkpt>
      <trkpt lat="46.57263" lon="5.37837">
        <ele>208.2</ele>
        <time>2022-04-22T14:45:10Z</time>
      </trkpt>
      <trkpt lat="46.5726" lon="5.37832">
        <ele>208.2</ele>
        <time>2022-04-22T14:45:11Z</time>
      </trkpt>
      <trkpt lat="46.57243" lon="5.37802">
        <ele>209.4</ele>
        <time>2022-04-22T14:45:16Z</time>
      </trkpt>
      <trkpt lat="46.5724" lon="5.37796">
        <ele>209.8</ele>
        <time>2022-04-22T14:45:18Z</time>
      </trkpt>
      <trkpt lat="46.57229" lon="5.37769">
        <ele>210.4</ele>
        <time>2022-04-22T14:45:21Z</time>
      </trkpt>
      <trkpt lat="46.57225" lon="5.37764">
        <ele>210.6</ele>
        <time>2022-04-22T14:45:22Z</time>
      </trkpt>
      <trkpt lat="46.57221" lon="5.37762">
        <ele>211</ele>
        <time>2022-04-22T14:45:23Z</time>
      </trkpt>
      <trkpt lat="46.57211" lon="5.37761">
        <ele>211.4</ele>
        <time>2022-04-22T14:45:25Z</time>
      </trkpt>
      <trkpt lat="46.57206" lon="5.37763">
        <ele>211.6</ele>
        <time>2022-04-22T14:45:26Z</time>
      </trkpt>
      <trkpt lat="46.57202" lon="5.37767">
        <ele>211.6</ele>
        <time>2022-04-22T14:45:27Z</time>
      </trkpt>
      <trkpt lat="46.57194" lon="5.37776">
        <ele>212.6</ele>
        <time>2022-04-22T14:45:29Z</time>
      </trkpt>
      <trkpt lat="46.5719" lon="5.37781">
        <ele>212.8</ele>
        <time>2022-04-22T14:45:30Z</time>
      </trkpt>
      <trkpt lat="46.57161" lon="5.37813">
        <ele>213</ele>
        <time>2022-04-22T14:45:36Z</time>
      </trkpt>
      <trkpt lat="46.57122" lon="5.37852">
        <ele>212.2</ele>
        <time>2022-04-22T14:45:42Z</time>
      </trkpt>
      <trkpt lat="46.57106" lon="5.37867">
        <ele>211.8</ele>
        <time>2022-04-22T14:45:44Z</time>
      </trkpt>
      <trkpt lat="46.571" lon="5.37873">
        <ele>210.6</ele>
        <time>2022-04-22T14:45:46Z</time>
      </trkpt>
      <trkpt lat="46.57078" lon="5.37892">
        <ele>209.8</ele>
        <time>2022-04-22T14:45:48Z</time>
      </trkpt>
      <trkpt lat="46.5707" lon="5.37899">
        <ele>209.4</ele>
        <time>2022-04-22T14:45:49Z</time>
      </trkpt>
      <trkpt lat="46.57013" lon="5.37944">
        <ele>208.8</ele>
        <time>2022-04-22T14:45:57Z</time>
      </trkpt>
      <trkpt lat="46.57008" lon="5.37948">
        <ele>208.8</ele>
        <time>2022-04-22T14:45:58Z</time>
      </trkpt>
      <trkpt lat="46.56962" lon="5.37979">
        <ele>209.6</ele>
        <time>2022-04-22T14:46:05Z</time>
      </trkpt>
      <trkpt lat="46.56949" lon="5.37987">
        <ele>210</ele>
        <time>2022-04-22T14:46:07Z</time>
      </trkpt>
      <trkpt lat="46.56935" lon="5.37991">
        <ele>210.2</ele>
        <time>2022-04-22T14:46:09Z</time>
      </trkpt>
      <trkpt lat="46.56928" lon="5.37991">
        <ele>210.4</ele>
        <time>2022-04-22T14:46:10Z</time>
      </trkpt>
      <trkpt lat="46.56921" lon="5.3799">
        <ele>210.6</ele>
        <time>2022-04-22T14:46:11Z</time>
      </trkpt>
      <trkpt lat="46.56893" lon="5.37984">
        <ele>211</ele>
        <time>2022-04-22T14:46:15Z</time>
      </trkpt>
      <trkpt lat="46.56871" lon="5.37979">
        <ele>211.8</ele>
        <time>2022-04-22T14:46:18Z</time>
      </trkpt>
      <trkpt lat="46.56833" lon="5.37969">
        <ele>212.8</ele>
        <time>2022-04-22T14:46:23Z</time>
      </trkpt>
      <trkpt lat="46.56825" lon="5.37967">
        <ele>213</ele>
        <time>2022-04-22T14:46:24Z</time>
      </trkpt>
      <trkpt lat="46.56771" lon="5.37954">
        <ele>213.8</ele>
        <time>2022-04-22T14:46:31Z</time>
      </trkpt>
      <trkpt lat="46.56763" lon="5.37952">
        <ele>213.8</ele>
        <time>2022-04-22T14:46:32Z</time>
      </trkpt>
      <trkpt lat="46.56756" lon="5.3795">
        <ele>214</ele>
        <time>2022-04-22T14:46:33Z</time>
      </trkpt>
      <trkpt lat="46.56698" lon="5.37937">
        <ele>214.4</ele>
        <time>2022-04-22T14:46:41Z</time>
      </trkpt>
      <trkpt lat="46.56677" lon="5.37932">
        <ele>214.8</ele>
        <time>2022-04-22T14:46:44Z</time>
      </trkpt>
      <trkpt lat="46.56656" lon="5.37927">
        <ele>214.8</ele>
        <time>2022-04-22T14:46:48Z</time>
      </trkpt>
      <trkpt lat="46.56621" lon="5.3792">
        <ele>215.2</ele>
        <time>2022-04-22T14:46:52Z</time>
      </trkpt>
      <trkpt lat="46.56577" lon="5.37915">
        <ele>215.4</ele>
        <time>2022-04-22T14:46:58Z</time>
      </trkpt>
      <trkpt lat="46.56563" lon="5.37918">
        <ele>215.4</ele>
        <time>2022-04-22T14:47:00Z</time>
      </trkpt>
      <trkpt lat="46.56528" lon="5.3794">
        <ele>215.4</ele>
        <time>2022-04-22T14:47:05Z</time>
      </trkpt>
      <trkpt lat="46.56513" lon="5.37947">
        <ele>215</ele>
        <time>2022-04-22T14:47:07Z</time>
      </trkpt>
      <trkpt lat="46.56496" lon="5.3795">
        <ele>214.8</ele>
        <time>2022-04-22T14:47:09Z</time>
      </trkpt>
      <trkpt lat="46.56479" lon="5.37947">
        <ele>214.6</ele>
        <time>2022-04-22T14:47:11Z</time>
      </trkpt>
      <trkpt lat="46.56456" lon="5.37941">
        <ele>214.2</ele>
        <time>2022-04-22T14:47:14Z</time>
      </trkpt>
      <trkpt lat="46.56422" lon="5.37932">
        <ele>213.8</ele>
        <time>2022-04-22T14:47:18Z</time>
      </trkpt>
      <trkpt lat="46.56397" lon="5.37929">
        <ele>213.4</ele>
        <time>2022-04-22T14:47:21Z</time>
      </trkpt>
      <trkpt lat="46.56389" lon="5.37929">
        <ele>213.4</ele>
        <time>2022-04-22T14:47:22Z</time>
      </trkpt>
      <trkpt lat="46.56381" lon="5.37932">
        <ele>213.2</ele>
        <time>2022-04-22T14:47:23Z</time>
      </trkpt>
      <trkpt lat="46.56356" lon="5.37944">
        <ele>213</ele>
        <time>2022-04-22T14:47:26Z</time>
      </trkpt>
      <trkpt lat="46.56339" lon="5.37951">
        <ele>212.8</ele>
        <time>2022-04-22T14:47:28Z</time>
      </trkpt>
      <trkpt lat="46.5633" lon="5.37952">
        <ele>212.6</ele>
        <time>2022-04-22T14:47:29Z</time>
      </trkpt>
      <trkpt lat="46.56322" lon="5.37952">
        <ele>212.4</ele>
        <time>2022-04-22T14:47:30Z</time>
      </trkpt>
      <trkpt lat="46.56296" lon="5.37949">
        <ele>212</ele>
        <time>2022-04-22T14:47:33Z</time>
      </trkpt>
      <trkpt lat="46.56279" lon="5.37953">
        <ele>211.8</ele>
        <time>2022-04-22T14:47:35Z</time>
      </trkpt>
      <trkpt lat="46.56255" lon="5.37963">
        <ele>211.4</ele>
        <time>2022-04-22T14:47:38Z</time>
      </trkpt>
      <trkpt lat="46.56226" lon="5.37979">
        <ele>211.2</ele>
        <time>2022-04-22T14:47:42Z</time>
      </trkpt>
      <trkpt lat="46.56213" lon="5.3799">
        <ele>211.2</ele>
        <time>2022-04-22T14:47:44Z</time>
      </trkpt>
      <trkpt lat="46.56201" lon="5.38004">
        <ele>211.2</ele>
        <time>2022-04-22T14:47:46Z</time>
      </trkpt>
      <trkpt lat="46.56176" lon="5.38045">
        <ele>211.6</ele>
        <time>2022-04-22T14:47:51Z</time>
      </trkpt>
      <trkpt lat="46.56152" lon="5.38087">
        <ele>212.4</ele>
        <time>2022-04-22T14:47:56Z</time>
      </trkpt>
      <trkpt lat="46.5614" lon="5.38101">
        <ele>212.4</ele>
        <time>2022-04-22T14:47:58Z</time>
      </trkpt>
      <trkpt lat="46.561" lon="5.38132">
        <ele>212.6</ele>
        <time>2022-04-22T14:48:04Z</time>
      </trkpt>
      <trkpt lat="46.56061" lon="5.38159">
        <ele>213.4</ele>
        <time>2022-04-22T14:48:10Z</time>
      </trkpt>
      <trkpt lat="46.56047" lon="5.38169">
        <ele>213.6</ele>
        <time>2022-04-22T14:48:12Z</time>
      </trkpt>
      <trkpt lat="46.56027" lon="5.38185">
        <ele>213.8</ele>
        <time>2022-04-22T14:48:15Z</time>
      </trkpt>
      <trkpt lat="46.56017" lon="5.38199">
        <ele>214</ele>
        <time>2022-04-22T14:48:17Z</time>
      </trkpt>
      <trkpt lat="46.56009" lon="5.38217">
        <ele>214.2</ele>
        <time>2022-04-22T14:48:19Z</time>
      </trkpt>
      <trkpt lat="46.56006" lon="5.38228">
        <ele>214.4</ele>
        <time>2022-04-22T14:48:20Z</time>
      </trkpt>
      <trkpt lat="46.55995" lon="5.38305">
        <ele>214.4</ele>
        <time>2022-04-22T14:48:27Z</time>
      </trkpt>
      <trkpt lat="46.55988" lon="5.38348">
        <ele>214.6</ele>
        <time>2022-04-22T14:48:31Z</time>
      </trkpt>
      <trkpt lat="46.55985" lon="5.38366">
        <ele>214.8</ele>
        <time>2022-04-22T14:48:33Z</time>
      </trkpt>
      <trkpt lat="46.5598" lon="5.38418">
        <ele>216.2</ele>
        <time>2022-04-22T14:48:38Z</time>
      </trkpt>
      <trkpt lat="46.55978" lon="5.38436">
        <ele>216.6</ele>
        <time>2022-04-22T14:48:40Z</time>
      </trkpt>
      <trkpt lat="46.55977" lon="5.38453">
        <ele>216.8</ele>
        <time>2022-04-22T14:48:42Z</time>
      </trkpt>
      <trkpt lat="46.55977" lon="5.38471">
        <ele>217.2</ele>
        <time>2022-04-22T14:48:44Z</time>
      </trkpt>
      <trkpt lat="46.55977" lon="5.38481">
        <ele>217.4</ele>
        <time>2022-04-22T14:48:45Z</time>
      </trkpt>
      <trkpt lat="46.55981" lon="5.38533">
        <ele>218</ele>
        <time>2022-04-22T14:48:50Z</time>
      </trkpt>
      <trkpt lat="46.55983" lon="5.38554">
        <ele>218</ele>
        <time>2022-04-22T14:48:52Z</time>
      </trkpt>
      <trkpt lat="46.55987" lon="5.38586">
        <ele>218</ele>
        <time>2022-04-22T14:48:55Z</time>
      </trkpt>
      <trkpt lat="46.55999" lon="5.38662">
        <ele>217.6</ele>
        <time>2022-04-22T14:49:02Z</time>
      </trkpt>
      <trkpt lat="46.56005" lon="5.38737">
        <ele>217.8</ele>
        <time>2022-04-22T14:49:09Z</time>
      </trkpt>
      <trkpt lat="46.56009" lon="5.38787">
        <ele>217.8</ele>
        <time>2022-04-22T14:49:13Z</time>
      </trkpt>
      <trkpt lat="46.56002" lon="5.38842">
        <ele>216.4</ele>
        <time>2022-04-22T14:49:17Z</time>
      </trkpt>
      <trkpt lat="46.55992" lon="5.38883">
        <ele>215.2</ele>
        <time>2022-04-22T14:49:20Z</time>
      </trkpt>
      <trkpt lat="46.55984" lon="5.38909">
        <ele>214</ele>
        <time>2022-04-22T14:49:22Z</time>
      </trkpt>
      <trkpt lat="46.55976" lon="5.38933">
        <ele>213</ele>
        <time>2022-04-22T14:49:24Z</time>
      </trkpt>
      <trkpt lat="46.55955" lon="5.3899">
        <ele>212</ele>
        <time>2022-04-22T14:49:29Z</time>
      </trkpt>
      <trkpt lat="46.55951" lon="5.39001">
        <ele>211.8</ele>
        <time>2022-04-22T14:49:30Z</time>
      </trkpt>
      <trkpt lat="46.55944" lon="5.39035">
        <ele>211.8</ele>
        <time>2022-04-22T14:49:33Z</time>
      </trkpt>
      <trkpt lat="46.55938" lon="5.39094">
        <ele>212.8</ele>
        <time>2022-04-22T14:49:39Z</time>
      </trkpt>
      <trkpt lat="46.55937" lon="5.39103">
        <ele>213.2</ele>
        <time>2022-04-22T14:49:40Z</time>
      </trkpt>
      <trkpt lat="46.55936" lon="5.3914">
        <ele>214.8</ele>
        <time>2022-04-22T14:49:44Z</time>
      </trkpt>
      <trkpt lat="46.55936" lon="5.3916">
        <ele>215.4</ele>
        <time>2022-04-22T14:49:46Z</time>
      </trkpt>
      <trkpt lat="46.55936" lon="5.39169">
        <ele>216</ele>
        <time>2022-04-22T14:49:47Z</time>
      </trkpt>
      <trkpt lat="46.55934" lon="5.39228">
        <ele>216.8</ele>
        <time>2022-04-22T14:49:53Z</time>
      </trkpt>
      <trkpt lat="46.55933" lon="5.39237">
        <ele>217</ele>
        <time>2022-04-22T14:49:54Z</time>
      </trkpt>
      <trkpt lat="46.55924" lon="5.39312">
        <ele>218</ele>
        <time>2022-04-22T14:50:02Z</time>
      </trkpt>
      <trkpt lat="46.55923" lon="5.39321">
        <ele>218</ele>
        <time>2022-04-22T14:50:03Z</time>
      </trkpt>
      <trkpt lat="46.55913" lon="5.39402">
        <ele>219</ele>
        <time>2022-04-22T14:50:12Z</time>
      </trkpt>
      <trkpt lat="46.55913" lon="5.3941">
        <ele>219.2</ele>
        <time>2022-04-22T14:50:13Z</time>
      </trkpt>
      <trkpt lat="46.55912" lon="5.39419">
        <ele>219.2</ele>
        <time>2022-04-22T14:50:14Z</time>
      </trkpt>
      <trkpt lat="46.55906" lon="5.39472">
        <ele>220.4</ele>
        <time>2022-04-22T14:50:20Z</time>
      </trkpt>
      <trkpt lat="46.55903" lon="5.39499">
        <ele>220.6</ele>
        <time>2022-04-22T14:50:23Z</time>
      </trkpt>
      <trkpt lat="46.55895" lon="5.39563">
        <ele>221.6</ele>
        <time>2022-04-22T14:50:30Z</time>
      </trkpt>
      <trkpt lat="46.55888" lon="5.39619">
        <ele>221.8</ele>
        <time>2022-04-22T14:50:36Z</time>
      </trkpt>
      <trkpt lat="46.55874" lon="5.3968">
        <ele>222.2</ele>
        <time>2022-04-22T14:50:43Z</time>
      </trkpt>
      <trkpt lat="46.55861" lon="5.39731">
        <ele>222.4</ele>
        <time>2022-04-22T14:50:49Z</time>
      </trkpt>
      <trkpt lat="46.55852" lon="5.39764">
        <ele>223</ele>
        <time>2022-04-22T14:50:53Z</time>
      </trkpt>
      <trkpt lat="46.55841" lon="5.39804">
        <ele>223.6</ele>
        <time>2022-04-22T14:50:58Z</time>
      </trkpt>
      <trkpt lat="46.55836" lon="5.3983">
        <ele>223.8</ele>
        <time>2022-04-22T14:51:01Z</time>
      </trkpt>
      <trkpt lat="46.55829" lon="5.39858">
        <ele>224.4</ele>
        <time>2022-04-22T14:51:04Z</time>
      </trkpt>
      <trkpt lat="46.55821" lon="5.39887">
        <ele>224.8</ele>
        <time>2022-04-22T14:51:07Z</time>
      </trkpt>
      <trkpt lat="46.55815" lon="5.39905">
        <ele>224.8</ele>
        <time>2022-04-22T14:51:09Z</time>
      </trkpt>
      <trkpt lat="46.55806" lon="5.39916">
        <ele>224.4</ele>
        <time>2022-04-22T14:51:11Z</time>
      </trkpt>
      <trkpt lat="46.55795" lon="5.39914">
        <ele>224.4</ele>
        <time>2022-04-22T14:51:13Z</time>
      </trkpt>
      <trkpt lat="46.55766" lon="5.3989">
        <ele>223.8</ele>
        <time>2022-04-22T14:51:18Z</time>
      </trkpt>
      <trkpt lat="46.55727" lon="5.39852">
        <ele>224.2</ele>
        <time>2022-04-22T14:51:25Z</time>
      </trkpt>
      <trkpt lat="46.55693" lon="5.39818">
        <ele>226.2</ele>
        <time>2022-04-22T14:51:32Z</time>
      </trkpt>
      <trkpt lat="46.55687" lon="5.39814">
        <ele>226.4</ele>
        <time>2022-04-22T14:51:33Z</time>
      </trkpt>
      <trkpt lat="46.55677" lon="5.39805">
        <ele>227.4</ele>
        <time>2022-04-22T14:51:35Z</time>
      </trkpt>
      <trkpt lat="46.55654" lon="5.39789">
        <ele>228.6</ele>
        <time>2022-04-22T14:51:39Z</time>
      </trkpt>
      <trkpt lat="46.55648" lon="5.39784">
        <ele>228.6</ele>
        <time>2022-04-22T14:51:40Z</time>
      </trkpt>
      <trkpt lat="46.55606" lon="5.39756">
        <ele>228.6</ele>
        <time>2022-04-22T14:51:46Z</time>
      </trkpt>
      <trkpt lat="46.55584" lon="5.39738">
        <ele>227.4</ele>
        <time>2022-04-22T14:51:49Z</time>
      </trkpt>
      <trkpt lat="46.55556" lon="5.39715">
        <ele>226.4</ele>
        <time>2022-04-22T14:51:53Z</time>
      </trkpt>
      <trkpt lat="46.55543" lon="5.39704">
        <ele>226</ele>
        <time>2022-04-22T14:51:55Z</time>
      </trkpt>
      <trkpt lat="46.55519" lon="5.39683">
        <ele>225.8</ele>
        <time>2022-04-22T14:51:59Z</time>
      </trkpt>
      <trkpt lat="46.55468" lon="5.39642">
        <ele>226.6</ele>
        <time>2022-04-22T14:52:07Z</time>
      </trkpt>
      <trkpt lat="46.55443" lon="5.39622">
        <ele>227</ele>
        <time>2022-04-22T14:52:11Z</time>
      </trkpt>
      <trkpt lat="46.55417" lon="5.396">
        <ele>228</ele>
        <time>2022-04-22T14:52:16Z</time>
      </trkpt>
      <trkpt lat="46.55392" lon="5.39579">
        <ele>229.2</ele>
        <time>2022-04-22T14:52:21Z</time>
      </trkpt>
      <trkpt lat="46.55371" lon="5.39561">
        <ele>230.6</ele>
        <time>2022-04-22T14:52:25Z</time>
      </trkpt>
      <trkpt lat="46.55333" lon="5.39531">
        <ele>231.4</ele>
        <time>2022-04-22T14:52:32Z</time>
      </trkpt>
      <trkpt lat="46.55322" lon="5.39522">
        <ele>231.4</ele>
        <time>2022-04-22T14:52:34Z</time>
      </trkpt>
      <trkpt lat="46.55281" lon="5.39491">
        <ele>231.4</ele>
        <time>2022-04-22T14:52:41Z</time>
      </trkpt>
      <trkpt lat="46.55242" lon="5.39459">
        <ele>231.2</ele>
        <time>2022-04-22T14:52:47Z</time>
      </trkpt>
      <trkpt lat="46.55237" lon="5.39452">
        <ele>231</ele>
        <time>2022-04-22T14:52:48Z</time>
      </trkpt>
      <trkpt lat="46.55226" lon="5.39437">
        <ele>231</ele>
        <time>2022-04-22T14:52:50Z</time>
      </trkpt>
      <trkpt lat="46.5522" lon="5.39431">
        <ele>230.8</ele>
        <time>2022-04-22T14:52:51Z</time>
      </trkpt>
      <trkpt lat="46.55212" lon="5.39427">
        <ele>230.8</ele>
        <time>2022-04-22T14:52:52Z</time>
      </trkpt>
      <trkpt lat="46.55197" lon="5.39424">
        <ele>230.6</ele>
        <time>2022-04-22T14:52:54Z</time>
      </trkpt>
      <trkpt lat="46.55146" lon="5.39415">
        <ele>230.8</ele>
        <time>2022-04-22T14:53:01Z</time>
      </trkpt>
      <trkpt lat="46.55091" lon="5.3939">
        <ele>231.4</ele>
        <time>2022-04-22T14:53:09Z</time>
      </trkpt>
      <trkpt lat="46.55084" lon="5.39386">
        <ele>231.4</ele>
        <time>2022-04-22T14:53:10Z</time>
      </trkpt>
      <trkpt lat="46.55033" lon="5.39358">
        <ele>231</ele>
        <time>2022-04-22T14:53:17Z</time>
      </trkpt>
      <trkpt lat="46.55025" lon="5.39353">
        <ele>230.6</ele>
        <time>2022-04-22T14:53:18Z</time>
      </trkpt>
      <trkpt lat="46.5499" lon="5.39331">
        <ele>229</ele>
        <time>2022-04-22T14:53:22Z</time>
      </trkpt>
      <trkpt lat="46.5498" lon="5.39327">
        <ele>228.4</ele>
        <time>2022-04-22T14:53:23Z</time>
      </trkpt>
      <trkpt lat="46.5497" lon="5.39322">
        <ele>227.6</ele>
        <time>2022-04-22T14:53:24Z</time>
      </trkpt>
      <trkpt lat="46.54951" lon="5.39314">
        <ele>226.4</ele>
        <time>2022-04-22T14:53:26Z</time>
      </trkpt>
      <trkpt lat="46.54926" lon="5.39304">
        <ele>225.2</ele>
        <time>2022-04-22T14:53:29Z</time>
      </trkpt>
      <trkpt lat="46.54889" lon="5.39294">
        <ele>225.2</ele>
        <time>2022-04-22T14:53:34Z</time>
      </trkpt>
      <trkpt lat="46.54868" lon="5.39285">
        <ele>226.8</ele>
        <time>2022-04-22T14:53:37Z</time>
      </trkpt>
      <trkpt lat="46.54847" lon="5.39276">
        <ele>228</ele>
        <time>2022-04-22T14:53:40Z</time>
      </trkpt>
      <trkpt lat="46.54827" lon="5.39266">
        <ele>229</ele>
        <time>2022-04-22T14:53:43Z</time>
      </trkpt>
      <trkpt lat="46.548" lon="5.39255">
        <ele>230.2</ele>
        <time>2022-04-22T14:53:47Z</time>
      </trkpt>
      <trkpt lat="46.54779" lon="5.39245">
        <ele>231.4</ele>
        <time>2022-04-22T14:53:50Z</time>
      </trkpt>
      <trkpt lat="46.54731" lon="5.3922">
        <ele>232.6</ele>
        <time>2022-04-22T14:53:57Z</time>
      </trkpt>
      <trkpt lat="46.54711" lon="5.3921">
        <ele>233</ele>
        <time>2022-04-22T14:54:00Z</time>
      </trkpt>
      <trkpt lat="46.54685" lon="5.39197">
        <ele>234</ele>
        <time>2022-04-22T14:54:04Z</time>
      </trkpt>
      <trkpt lat="46.54651" lon="5.39181">
        <ele>234.6</ele>
        <time>2022-04-22T14:54:09Z</time>
      </trkpt>
      <trkpt lat="46.54594" lon="5.39156">
        <ele>234.6</ele>
        <time>2022-04-22T14:54:17Z</time>
      </trkpt>
      <trkpt lat="46.5458" lon="5.39149">
        <ele>234.4</ele>
        <time>2022-04-22T14:54:19Z</time>
      </trkpt>
      <trkpt lat="46.54548" lon="5.39131">
        <ele>234.4</ele>
        <time>2022-04-22T14:54:24Z</time>
      </trkpt>
      <trkpt lat="46.54536" lon="5.39124">
        <ele>234.4</ele>
        <time>2022-04-22T14:54:26Z</time>
      </trkpt>
      <trkpt lat="46.54531" lon="5.3912">
        <ele>235</ele>
        <time>2022-04-22T14:54:27Z</time>
      </trkpt>
      <trkpt lat="46.5452" lon="5.39114">
        <ele>235.6</ele>
        <time>2022-04-22T14:54:29Z</time>
      </trkpt>
      <trkpt lat="46.5451" lon="5.39113">
        <ele>236.2</ele>
        <time>2022-04-22T14:54:31Z</time>
      </trkpt>
      <trkpt lat="46.54503" lon="5.39121">
        <ele>236.6</ele>
        <time>2022-04-22T14:54:33Z</time>
      </trkpt>
      <trkpt lat="46.54501" lon="5.39128">
        <ele>237.4</ele>
        <time>2022-04-22T14:54:34Z</time>
      </trkpt>
      <trkpt lat="46.54496" lon="5.39141">
        <ele>238</ele>
        <time>2022-04-22T14:54:36Z</time>
      </trkpt>
      <trkpt lat="46.54492" lon="5.39146">
        <ele>238.2</ele>
        <time>2022-04-22T14:54:37Z</time>
      </trkpt>
      <trkpt lat="46.54486" lon="5.39149">
        <ele>238.4</ele>
        <time>2022-04-22T14:54:38Z</time>
      </trkpt>
      <trkpt lat="46.54472" lon="5.39145">
        <ele>238.8</ele>
        <time>2022-04-22T14:54:40Z</time>
      </trkpt>
      <trkpt lat="46.54439" lon="5.3913">
        <ele>237.6</ele>
        <time>2022-04-22T14:54:44Z</time>
      </trkpt>
      <trkpt lat="46.5443" lon="5.39128">
        <ele>237</ele>
        <time>2022-04-22T14:54:45Z</time>
      </trkpt>
      <trkpt lat="46.54411" lon="5.39123">
        <ele>236</ele>
        <time>2022-04-22T14:54:47Z</time>
      </trkpt>
      <trkpt lat="46.54384" lon="5.39112">
        <ele>234.4</ele>
        <time>2022-04-22T14:54:50Z</time>
      </trkpt>
      <trkpt lat="46.54365" lon="5.39106">
        <ele>233.2</ele>
        <time>2022-04-22T14:54:52Z</time>
      </trkpt>
      <trkpt lat="46.54329" lon="5.39091">
        <ele>232.2</ele>
        <time>2022-04-22T14:54:56Z</time>
      </trkpt>
      <trkpt lat="46.54321" lon="5.39086">
        <ele>231.8</ele>
        <time>2022-04-22T14:54:57Z</time>
      </trkpt>
      <trkpt lat="46.54264" lon="5.39055">
        <ele>231.4</ele>
        <time>2022-04-22T14:55:04Z</time>
      </trkpt>
      <trkpt lat="46.54248" lon="5.39047">
        <ele>231.2</ele>
        <time>2022-04-22T14:55:06Z</time>
      </trkpt>
      <trkpt lat="46.54193" lon="5.3902">
        <ele>231.6</ele>
        <time>2022-04-22T14:55:13Z</time>
      </trkpt>
      <trkpt lat="46.54179" lon="5.39013">
        <ele>231.6</ele>
        <time>2022-04-22T14:55:15Z</time>
      </trkpt>
      <trkpt lat="46.54126" lon="5.38994">
        <ele>232.4</ele>
        <time>2022-04-22T14:55:22Z</time>
      </trkpt>
      <trkpt lat="46.5411" lon="5.38988">
        <ele>232.6</ele>
        <time>2022-04-22T14:55:24Z</time>
      </trkpt>
      <trkpt lat="46.54057" lon="5.38965">
        <ele>233.2</ele>
        <time>2022-04-22T14:55:31Z</time>
      </trkpt>
      <trkpt lat="46.54041" lon="5.38959">
        <ele>233.2</ele>
        <time>2022-04-22T14:55:33Z</time>
      </trkpt>
      <trkpt lat="46.53995" lon="5.38946">
        <ele>233.4</ele>
        <time>2022-04-22T14:55:39Z</time>
      </trkpt>
      <trkpt lat="46.53942" lon="5.38937">
        <ele>233.4</ele>
        <time>2022-04-22T14:55:46Z</time>
      </trkpt>
      <trkpt lat="46.53934" lon="5.38937">
        <ele>233.4</ele>
        <time>2022-04-22T14:55:47Z</time>
      </trkpt>
      <trkpt lat="46.53911" lon="5.38935">
        <ele>233.4</ele>
        <time>2022-04-22T14:55:50Z</time>
      </trkpt>
      <trkpt lat="46.53858" lon="5.38932">
        <ele>234.2</ele>
        <time>2022-04-22T14:55:57Z</time>
      </trkpt>
      <trkpt lat="46.53851" lon="5.3893">
        <ele>234.4</ele>
        <time>2022-04-22T14:55:58Z</time>
      </trkpt>
      <trkpt lat="46.53845" lon="5.38928">
        <ele>234.6</ele>
        <time>2022-04-22T14:55:59Z</time>
      </trkpt>
      <trkpt lat="46.53828" lon="5.3892">
        <ele>234.8</ele>
        <time>2022-04-22T14:56:02Z</time>
      </trkpt>
      <trkpt lat="46.53798" lon="5.38908">
        <ele>234.8</ele>
        <time>2022-04-22T14:56:07Z</time>
      </trkpt>
      <trkpt lat="46.53742" lon="5.3889">
        <ele>234.8</ele>
        <time>2022-04-22T14:56:15Z</time>
      </trkpt>
      <trkpt lat="46.53685" lon="5.38867">
        <ele>234.8</ele>
        <time>2022-04-22T14:56:23Z</time>
      </trkpt>
      <trkpt lat="46.53678" lon="5.38864">
        <ele>234.8</ele>
        <time>2022-04-22T14:56:24Z</time>
      </trkpt>
      <trkpt lat="46.53639" lon="5.38846">
        <ele>235</ele>
        <time>2022-04-22T14:56:30Z</time>
      </trkpt>
      <trkpt lat="46.53608" lon="5.38828">
        <ele>235.6</ele>
        <time>2022-04-22T14:56:35Z</time>
      </trkpt>
      <trkpt lat="46.53589" lon="5.38817">
        <ele>235.8</ele>
        <time>2022-04-22T14:56:38Z</time>
      </trkpt>
      <trkpt lat="46.53557" lon="5.38795">
        <ele>235.6</ele>
        <time>2022-04-22T14:56:43Z</time>
      </trkpt>
      <trkpt lat="46.53552" lon="5.38788">
        <ele>235.6</ele>
        <time>2022-04-22T14:56:44Z</time>
      </trkpt>
      <trkpt lat="46.53537" lon="5.38762">
        <ele>235.4</ele>
        <time>2022-04-22T14:56:47Z</time>
      </trkpt>
      <trkpt lat="46.53525" lon="5.38749">
        <ele>235</ele>
        <time>2022-04-22T14:56:49Z</time>
      </trkpt>
      <trkpt lat="46.53518" lon="5.38745">
        <ele>234.4</ele>
        <time>2022-04-22T14:56:50Z</time>
      </trkpt>
      <trkpt lat="46.53511" lon="5.38745">
        <ele>234.2</ele>
        <time>2022-04-22T14:56:51Z</time>
      </trkpt>
      <trkpt lat="46.53504" lon="5.38746">
        <ele>233.8</ele>
        <time>2022-04-22T14:56:52Z</time>
      </trkpt>
      <trkpt lat="46.53498" lon="5.38747">
        <ele>233.8</ele>
        <time>2022-04-22T14:56:53Z</time>
      </trkpt>
      <trkpt lat="46.53486" lon="5.3874">
        <ele>233.8</ele>
        <time>2022-04-22T14:56:55Z</time>
      </trkpt>
      <trkpt lat="46.53475" lon="5.38727">
        <ele>233.6</ele>
        <time>2022-04-22T14:56:57Z</time>
      </trkpt>
      <trkpt lat="46.53462" lon="5.38716">
        <ele>233.6</ele>
        <time>2022-04-22T14:56:59Z</time>
      </trkpt>
      <trkpt lat="46.53455" lon="5.38713">
        <ele>233.6</ele>
        <time>2022-04-22T14:57:00Z</time>
      </trkpt>
      <trkpt lat="46.53441" lon="5.38707">
        <ele>233.8</ele>
        <time>2022-04-22T14:57:02Z</time>
      </trkpt>
      <trkpt lat="46.53419" lon="5.38702">
        <ele>233.8</ele>
        <time>2022-04-22T14:57:05Z</time>
      </trkpt>
      <trkpt lat="46.53368" lon="5.38699">
        <ele>233.6</ele>
        <time>2022-04-22T14:57:12Z</time>
      </trkpt>
      <trkpt lat="46.5333" lon="5.38697">
        <ele>233.6</ele>
        <time>2022-04-22T14:57:17Z</time>
      </trkpt>
      <trkpt lat="46.53308" lon="5.3869">
        <ele>233.8</ele>
        <time>2022-04-22T14:57:20Z</time>
      </trkpt>
      <trkpt lat="46.53279" lon="5.38679">
        <ele>233.4</ele>
        <time>2022-04-22T14:57:24Z</time>
      </trkpt>
      <trkpt lat="46.53241" lon="5.38665">
        <ele>232.4</ele>
        <time>2022-04-22T14:57:29Z</time>
      </trkpt>
      <trkpt lat="46.53226" lon="5.38659">
        <ele>231.8</ele>
        <time>2022-04-22T14:57:31Z</time>
      </trkpt>
      <trkpt lat="46.53219" lon="5.38655">
        <ele>231.8</ele>
        <time>2022-04-22T14:57:32Z</time>
      </trkpt>
      <trkpt lat="46.532" lon="5.3864">
        <ele>231</ele>
        <time>2022-04-22T14:57:35Z</time>
      </trkpt>
      <trkpt lat="46.53182" lon="5.38619">
        <ele>229.8</ele>
        <time>2022-04-22T14:57:38Z</time>
      </trkpt>
      <trkpt lat="46.53168" lon="5.38606">
        <ele>229.4</ele>
        <time>2022-04-22T14:57:40Z</time>
      </trkpt>
      <trkpt lat="46.53154" lon="5.38595">
        <ele>228.8</ele>
        <time>2022-04-22T14:57:42Z</time>
      </trkpt>
      <trkpt lat="46.53134" lon="5.38585">
        <ele>227.6</ele>
        <time>2022-04-22T14:57:45Z</time>
      </trkpt>
      <trkpt lat="46.53122" lon="5.38579">
        <ele>227</ele>
        <time>2022-04-22T14:57:47Z</time>
      </trkpt>
      <trkpt lat="46.53108" lon="5.38581">
        <ele>226.6</ele>
        <time>2022-04-22T14:57:49Z</time>
      </trkpt>
      <trkpt lat="46.53068" lon="5.38594">
        <ele>225.8</ele>
        <time>2022-04-22T14:57:54Z</time>
      </trkpt>
      <trkpt lat="46.53052" lon="5.38597">
        <ele>225.4</ele>
        <time>2022-04-22T14:57:56Z</time>
      </trkpt>
      <trkpt lat="46.53029" lon="5.38603">
        <ele>223.8</ele>
        <time>2022-04-22T14:57:59Z</time>
      </trkpt>
      <trkpt lat="46.53021" lon="5.38605">
        <ele>223.8</ele>
        <time>2022-04-22T14:58:00Z</time>
      </trkpt>
      <trkpt lat="46.52981" lon="5.38605">
        <ele>223.2</ele>
        <time>2022-04-22T14:58:05Z</time>
      </trkpt>
      <trkpt lat="46.52971" lon="5.38603">
        <ele>222.8</ele>
        <time>2022-04-22T14:58:07Z</time>
      </trkpt>
      <trkpt lat="46.52968" lon="5.38603">
        <ele>222.6</ele>
        <time>2022-04-22T14:58:08Z</time>
      </trkpt>
      <trkpt lat="46.52969" lon="5.38607">
        <ele>222.4</ele>
        <time>2022-04-22T14:58:10Z</time>
      </trkpt>
      <trkpt lat="46.52977" lon="5.38611">
        <ele>222.2</ele>
        <time>2022-04-22T14:58:15Z</time>
      </trkpt>
      <trkpt lat="46.52977" lon="5.38611">
        <ele>222.2</ele>
        <time>2022-04-22T14:58:18Z</time>
      </trkpt>
      <trkpt lat="46.52971" lon="5.38605">
        <ele>223.6</ele>
        <time>2022-04-22T15:11:51Z</time>
      </trkpt>
      <trkpt lat="46.52962" lon="5.38601">
        <ele>223.6</ele>
        <time>2022-04-22T15:11:53Z</time>
      </trkpt>
      <trkpt lat="46.52956" lon="5.38601">
        <ele>223.6</ele>
        <time>2022-04-22T15:11:54Z</time>
      </trkpt>
      <trkpt lat="46.52931" lon="5.38604">
        <ele>223</ele>
        <time>2022-04-22T15:11:58Z</time>
      </trkpt>
      <trkpt lat="46.52924" lon="5.38603">
        <ele>222.8</ele>
        <time>2022-04-22T15:11:59Z</time>
      </trkpt>
      <trkpt lat="46.52917" lon="5.38603">
        <ele>222.6</ele>
        <time>2022-04-22T15:12:00Z</time>
      </trkpt>
      <trkpt lat="46.52904" lon="5.38608">
        <ele>222</ele>
        <time>2022-04-22T15:12:02Z</time>
      </trkpt>
      <trkpt lat="46.52889" lon="5.38608">
        <ele>221.4</ele>
        <time>2022-04-22T15:12:04Z</time>
      </trkpt>
      <trkpt lat="46.52873" lon="5.38606">
        <ele>220.6</ele>
        <time>2022-04-22T15:12:06Z</time>
      </trkpt>
      <trkpt lat="46.52864" lon="5.38605">
        <ele>220</ele>
        <time>2022-04-22T15:12:07Z</time>
      </trkpt>
      <trkpt lat="46.52832" lon="5.38597">
        <ele>218.6</ele>
        <time>2022-04-22T15:12:11Z</time>
      </trkpt>
      <trkpt lat="46.52824" lon="5.38594">
        <ele>218</ele>
        <time>2022-04-22T15:12:12Z</time>
      </trkpt>
      <trkpt lat="46.52816" lon="5.3859">
        <ele>217.6</ele>
        <time>2022-04-22T15:12:13Z</time>
      </trkpt>
      <trkpt lat="46.52809" lon="5.38585">
        <ele>217.4</ele>
        <time>2022-04-22T15:12:14Z</time>
      </trkpt>
      <trkpt lat="46.52803" lon="5.38578">
        <ele>217.2</ele>
        <time>2022-04-22T15:12:15Z</time>
      </trkpt>
      <trkpt lat="46.5279" lon="5.38552">
        <ele>217</ele>
        <time>2022-04-22T15:12:18Z</time>
      </trkpt>
      <trkpt lat="46.52786" lon="5.38543">
        <ele>217</ele>
        <time>2022-04-22T15:12:19Z</time>
      </trkpt>
      <trkpt lat="46.52781" lon="5.38536">
        <ele>217</ele>
        <time>2022-04-22T15:12:20Z</time>
      </trkpt>
      <trkpt lat="46.52774" lon="5.38531">
        <ele>217.2</ele>
        <time>2022-04-22T15:12:21Z</time>
      </trkpt>
      <trkpt lat="46.52767" lon="5.38529">
        <ele>217.2</ele>
        <time>2022-04-22T15:12:22Z</time>
      </trkpt>
      <trkpt lat="46.52755" lon="5.3853">
        <ele>217.4</ele>
        <time>2022-04-22T15:12:24Z</time>
      </trkpt>
      <trkpt lat="46.52747" lon="5.38532">
        <ele>217.4</ele>
        <time>2022-04-22T15:12:25Z</time>
      </trkpt>
      <trkpt lat="46.52734" lon="5.38534">
        <ele>217.8</ele>
        <time>2022-04-22T15:12:27Z</time>
      </trkpt>
      <trkpt lat="46.52729" lon="5.38533">
        <ele>218</ele>
        <time>2022-04-22T15:12:28Z</time>
      </trkpt>
      <trkpt lat="46.52721" lon="5.38529">
        <ele>218</ele>
        <time>2022-04-22T15:12:29Z</time>
      </trkpt>
      <trkpt lat="46.52702" lon="5.38521">
        <ele>218.6</ele>
        <time>2022-04-22T15:12:32Z</time>
      </trkpt>
      <trkpt lat="46.52687" lon="5.38516">
        <ele>219</ele>
        <time>2022-04-22T15:12:34Z</time>
      </trkpt>
      <trkpt lat="46.52645" lon="5.38508">
        <ele>219.4</ele>
        <time>2022-04-22T15:12:40Z</time>
      </trkpt>
      <trkpt lat="46.52632" lon="5.38506">
        <ele>219.6</ele>
        <time>2022-04-22T15:12:42Z</time>
      </trkpt>
      <trkpt lat="46.526" lon="5.385">
        <ele>220</ele>
        <time>2022-04-22T15:12:47Z</time>
      </trkpt>
      <trkpt lat="46.52559" lon="5.38485">
        <ele>220.2</ele>
        <time>2022-04-22T15:12:54Z</time>
      </trkpt>
      <trkpt lat="46.52549" lon="5.38477">
        <ele>220.6</ele>
        <time>2022-04-22T15:12:56Z</time>
      </trkpt>
      <trkpt lat="46.52544" lon="5.38472">
        <ele>221.2</ele>
        <time>2022-04-22T15:12:57Z</time>
      </trkpt>
      <trkpt lat="46.52536" lon="5.38461">
        <ele>221.4</ele>
        <time>2022-04-22T15:12:59Z</time>
      </trkpt>
      <trkpt lat="46.52529" lon="5.38444">
        <ele>221.6</ele>
        <time>2022-04-22T15:13:01Z</time>
      </trkpt>
      <trkpt lat="46.52525" lon="5.38428">
        <ele>221.6</ele>
        <time>2022-04-22T15:13:03Z</time>
      </trkpt>
      <trkpt lat="46.52525" lon="5.3842">
        <ele>221.8</ele>
        <time>2022-04-22T15:13:04Z</time>
      </trkpt>
      <trkpt lat="46.52525" lon="5.38384">
        <ele>221.8</ele>
        <time>2022-04-22T15:13:08Z</time>
      </trkpt>
      <trkpt lat="46.52521" lon="5.38334">
        <ele>221.8</ele>
        <time>2022-04-22T15:13:13Z</time>
      </trkpt>
      <trkpt lat="46.52515" lon="5.38278">
        <ele>221.2</ele>
        <time>2022-04-22T15:13:18Z</time>
      </trkpt>
      <trkpt lat="46.52515" lon="5.38266">
        <ele>221</ele>
        <time>2022-04-22T15:13:19Z</time>
      </trkpt>
      <trkpt lat="46.52515" lon="5.38254">
        <ele>220.8</ele>
        <time>2022-04-22T15:13:20Z</time>
      </trkpt>
      <trkpt lat="46.52519" lon="5.3823">
        <ele>220</ele>
        <time>2022-04-22T15:13:22Z</time>
      </trkpt>
      <trkpt lat="46.52522" lon="5.38218">
        <ele>219.6</ele>
        <time>2022-04-22T15:13:23Z</time>
      </trkpt>
      <trkpt lat="46.52527" lon="5.38197">
        <ele>218.6</ele>
        <time>2022-04-22T15:13:25Z</time>
      </trkpt>
      <trkpt lat="46.52537" lon="5.3816">
        <ele>217</ele>
        <time>2022-04-22T15:13:28Z</time>
      </trkpt>
      <trkpt lat="46.52539" lon="5.38149">
        <ele>216.8</ele>
        <time>2022-04-22T15:13:29Z</time>
      </trkpt>
      <trkpt lat="46.52544" lon="5.38126">
        <ele>216.2</ele>
        <time>2022-04-22T15:13:31Z</time>
      </trkpt>
      <trkpt lat="46.52545" lon="5.38115">
        <ele>216</ele>
        <time>2022-04-22T15:13:32Z</time>
      </trkpt>
      <trkpt lat="46.52547" lon="5.38093">
        <ele>215.8</ele>
        <time>2022-04-22T15:13:34Z</time>
      </trkpt>
      <trkpt lat="46.52545" lon="5.38051">
        <ele>215.4</ele>
        <time>2022-04-22T15:13:38Z</time>
      </trkpt>
      <trkpt lat="46.52538" lon="5.38009">
        <ele>215</ele>
        <time>2022-04-22T15:13:43Z</time>
      </trkpt>
      <trkpt lat="46.52537" lon="5.38004">
        <ele>215</ele>
        <time>2022-04-22T15:13:44Z</time>
      </trkpt>
      <trkpt lat="46.52537" lon="5.38">
        <ele>215</ele>
        <time>2022-04-22T15:13:46Z</time>
      </trkpt>
      <trkpt lat="46.52537" lon="5.38">
        <ele>215</ele>
        <time>2022-04-22T15:13:49Z</time>
      </trkpt>
      <trkpt lat="46.52535" lon="5.37997">
        <ele>213.6</ele>
        <time>2022-04-22T15:14:33Z</time>
      </trkpt>
      <trkpt lat="46.52534" lon="5.37994">
        <ele>213.6</ele>
        <time>2022-04-22T15:14:34Z</time>
      </trkpt>
      <trkpt lat="46.52528" lon="5.37976">
        <ele>213.6</ele>
        <time>2022-04-22T15:14:37Z</time>
      </trkpt>
      <trkpt lat="46.52521" lon="5.3794">
        <ele>213.6</ele>
        <time>2022-04-22T15:14:41Z</time>
      </trkpt>
      <trkpt lat="46.52521" lon="5.37929">
        <ele>213.6</ele>
        <time>2022-04-22T15:14:42Z</time>
      </trkpt>
      <trkpt lat="46.52522" lon="5.37898">
        <ele>213.4</ele>
        <time>2022-04-22T15:14:45Z</time>
      </trkpt>
      <trkpt lat="46.52527" lon="5.3782">
        <ele>212.8</ele>
        <time>2022-04-22T15:14:52Z</time>
      </trkpt>
      <trkpt lat="46.52532" lon="5.37744">
        <ele>212.8</ele>
        <time>2022-04-22T15:14:59Z</time>
      </trkpt>
      <trkpt lat="46.52535" lon="5.377">
        <ele>212.4</ele>
        <time>2022-04-22T15:15:03Z</time>
      </trkpt>
      <trkpt lat="46.52536" lon="5.37678">
        <ele>212.2</ele>
        <time>2022-04-22T15:15:05Z</time>
      </trkpt>
      <trkpt lat="46.52544" lon="5.3759">
        <ele>212.2</ele>
        <time>2022-04-22T15:15:13Z</time>
      </trkpt>
      <trkpt lat="46.5255" lon="5.37533">
        <ele>212.4</ele>
        <time>2022-04-22T15:15:18Z</time>
      </trkpt>
      <trkpt lat="46.52557" lon="5.37447">
        <ele>212.2</ele>
        <time>2022-04-22T15:15:26Z</time>
      </trkpt>
      <trkpt lat="46.52558" lon="5.37434">
        <ele>212.2</ele>
        <time>2022-04-22T15:15:27Z</time>
      </trkpt>
      <trkpt lat="46.52564" lon="5.37346">
        <ele>212</ele>
        <time>2022-04-22T15:15:35Z</time>
      </trkpt>
      <trkpt lat="46.52564" lon="5.37332">
        <ele>212</ele>
        <time>2022-04-22T15:15:36Z</time>
      </trkpt>
      <trkpt lat="46.52561" lon="5.37266">
        <ele>211.4</ele>
        <time>2022-04-22T15:15:42Z</time>
      </trkpt>
      <trkpt lat="46.52548" lon="5.37224">
        <ele>211</ele>
        <time>2022-04-22T15:15:46Z</time>
      </trkpt>
      <trkpt lat="46.52543" lon="5.37215">
        <ele>211</ele>
        <time>2022-04-22T15:15:47Z</time>
      </trkpt>
      <trkpt lat="46.52533" lon="5.37197">
        <ele>211</ele>
        <time>2022-04-22T15:15:49Z</time>
      </trkpt>
      <trkpt lat="46.52516" lon="5.37175">
        <ele>211</ele>
        <time>2022-04-22T15:15:52Z</time>
      </trkpt>
      <trkpt lat="46.52472" lon="5.3712">
        <ele>210.6</ele>
        <time>2022-04-22T15:15:59Z</time>
      </trkpt>
      <trkpt lat="46.52458" lon="5.37095">
        <ele>210.4</ele>
        <time>2022-04-22T15:16:02Z</time>
      </trkpt>
      <trkpt lat="46.5245" lon="5.37074">
        <ele>210.2</ele>
        <time>2022-04-22T15:16:04Z</time>
      </trkpt>
      <trkpt lat="46.52444" lon="5.37057">
        <ele>210.2</ele>
        <time>2022-04-22T15:16:06Z</time>
      </trkpt>
      <trkpt lat="46.5244" lon="5.37035">
        <ele>210.2</ele>
        <time>2022-04-22T15:16:08Z</time>
      </trkpt>
      <trkpt lat="46.52435" lon="5.3702">
        <ele>210.2</ele>
        <time>2022-04-22T15:16:10Z</time>
      </trkpt>
      <trkpt lat="46.52429" lon="5.37016">
        <ele>210.2</ele>
        <time>2022-04-22T15:16:11Z</time>
      </trkpt>
      <trkpt lat="46.52419" lon="5.37021">
        <ele>210.4</ele>
        <time>2022-04-22T15:16:13Z</time>
      </trkpt>
      <trkpt lat="46.52403" lon="5.37051">
        <ele>210.4</ele>
        <time>2022-04-22T15:16:17Z</time>
      </trkpt>
      <trkpt lat="46.52387" lon="5.37072">
        <ele>210.6</ele>
        <time>2022-04-22T15:16:20Z</time>
      </trkpt>
      <trkpt lat="46.52371" lon="5.37091">
        <ele>210.6</ele>
        <time>2022-04-22T15:16:23Z</time>
      </trkpt>
      <trkpt lat="46.52331" lon="5.37133">
        <ele>211.2</ele>
        <time>2022-04-22T15:16:31Z</time>
      </trkpt>
      <trkpt lat="46.52327" lon="5.37138">
        <ele>211.4</ele>
        <time>2022-04-22T15:16:32Z</time>
      </trkpt>
      <trkpt lat="46.5231" lon="5.37156">
        <ele>212.4</ele>
        <time>2022-04-22T15:16:36Z</time>
      </trkpt>
      <trkpt lat="46.52298" lon="5.3717">
        <ele>213.4</ele>
        <time>2022-04-22T15:16:39Z</time>
      </trkpt>
      <trkpt lat="46.52294" lon="5.37174">
        <ele>214</ele>
        <time>2022-04-22T15:16:40Z</time>
      </trkpt>
      <trkpt lat="46.52278" lon="5.37191">
        <ele>215</ele>
        <time>2022-04-22T15:16:44Z</time>
      </trkpt>
      <trkpt lat="46.52258" lon="5.37212">
        <ele>215.8</ele>
        <time>2022-04-22T15:16:49Z</time>
      </trkpt>
      <trkpt lat="46.52251" lon="5.3722">
        <ele>216.2</ele>
        <time>2022-04-22T15:16:51Z</time>
      </trkpt>
      <trkpt lat="46.52231" lon="5.37239">
        <ele>217.2</ele>
        <time>2022-04-22T15:16:56Z</time>
      </trkpt>
      <trkpt lat="46.52223" lon="5.37246">
        <ele>217.8</ele>
        <time>2022-04-22T15:16:58Z</time>
      </trkpt>
      <trkpt lat="46.52215" lon="5.37253">
        <ele>218.2</ele>
        <time>2022-04-22T15:17:00Z</time>
      </trkpt>
      <trkpt lat="46.52189" lon="5.37272">
        <ele>219.4</ele>
        <time>2022-04-22T15:17:06Z</time>
      </trkpt>
      <trkpt lat="46.52185" lon="5.37276">
        <ele>219.6</ele>
        <time>2022-04-22T15:17:07Z</time>
      </trkpt>
      <trkpt lat="46.52172" lon="5.37285">
        <ele>220.6</ele>
        <time>2022-04-22T15:17:10Z</time>
      </trkpt>
      <trkpt lat="46.52148" lon="5.37302">
        <ele>221.4</ele>
        <time>2022-04-22T15:17:16Z</time>
      </trkpt>
      <trkpt lat="46.52131" lon="5.37314">
        <ele>221.6</ele>
        <time>2022-04-22T15:17:20Z</time>
      </trkpt>
      <trkpt lat="46.52118" lon="5.37324">
        <ele>222.6</ele>
        <time>2022-04-22T15:17:23Z</time>
      </trkpt>
      <trkpt lat="46.52106" lon="5.37333">
        <ele>223.6</ele>
        <time>2022-04-22T15:17:26Z</time>
      </trkpt>
      <trkpt lat="46.52091" lon="5.37345">
        <ele>224.8</ele>
        <time>2022-04-22T15:17:30Z</time>
      </trkpt>
      <trkpt lat="46.52088" lon="5.37349">
        <ele>225.2</ele>
        <time>2022-04-22T15:17:31Z</time>
      </trkpt>
      <trkpt lat="46.52083" lon="5.37358">
        <ele>225.8</ele>
        <time>2022-04-22T15:17:33Z</time>
      </trkpt>
      <trkpt lat="46.52081" lon="5.37364">
        <ele>226</ele>
        <time>2022-04-22T15:17:34Z</time>
      </trkpt>
      <trkpt lat="46.52079" lon="5.3737">
        <ele>226.2</ele>
        <time>2022-04-22T15:17:35Z</time>
      </trkpt>
      <trkpt lat="46.52077" lon="5.37376">
        <ele>226.2</ele>
        <time>2022-04-22T15:17:36Z</time>
      </trkpt>
      <trkpt lat="46.52073" lon="5.37395">
        <ele>227</ele>
        <time>2022-04-22T15:17:39Z</time>
      </trkpt>
      <trkpt lat="46.52068" lon="5.37415">
        <ele>227.6</ele>
        <time>2022-04-22T15:17:42Z</time>
      </trkpt>
      <trkpt lat="46.52063" lon="5.37437">
        <ele>227.8</ele>
        <time>2022-04-22T15:17:45Z</time>
      </trkpt>
      <trkpt lat="46.5206" lon="5.37453">
        <ele>228</ele>
        <time>2022-04-22T15:17:47Z</time>
      </trkpt>
      <trkpt lat="46.5205" lon="5.37497">
        <ele>228</ele>
        <time>2022-04-22T15:17:52Z</time>
      </trkpt>
      <trkpt lat="46.52034" lon="5.37572">
        <ele>227.8</ele>
        <time>2022-04-22T15:18:00Z</time>
      </trkpt>
      <trkpt lat="46.52024" lon="5.37615">
        <ele>228</ele>
        <time>2022-04-22T15:18:05Z</time>
      </trkpt>
      <trkpt lat="46.52013" lon="5.37628">
        <ele>228</ele>
        <time>2022-04-22T15:18:07Z</time>
      </trkpt>
      <trkpt lat="46.51987" lon="5.37631">
        <ele>228.2</ele>
        <time>2022-04-22T15:18:11Z</time>
      </trkpt>
      <trkpt lat="46.51942" lon="5.37639">
        <ele>228</ele>
        <time>2022-04-22T15:18:17Z</time>
      </trkpt>
      <trkpt lat="46.51904" lon="5.37645">
        <ele>227.8</ele>
        <time>2022-04-22T15:18:22Z</time>
      </trkpt>
      <trkpt lat="46.51882" lon="5.37647">
        <ele>227.8</ele>
        <time>2022-04-22T15:18:25Z</time>
      </trkpt>
      <trkpt lat="46.51823" lon="5.37649">
        <ele>228.4</ele>
        <time>2022-04-22T15:18:33Z</time>
      </trkpt>
      <trkpt lat="46.51776" lon="5.37648">
        <ele>228</ele>
        <time>2022-04-22T15:18:39Z</time>
      </trkpt>
      <trkpt lat="46.51769" lon="5.37646">
        <ele>227.6</ele>
        <time>2022-04-22T15:18:40Z</time>
      </trkpt>
      <trkpt lat="46.51745" lon="5.37639">
        <ele>227.2</ele>
        <time>2022-04-22T15:18:43Z</time>
      </trkpt>
      <trkpt lat="46.51705" lon="5.37629">
        <ele>226.4</ele>
        <time>2022-04-22T15:18:48Z</time>
      </trkpt>
      <trkpt lat="46.51698" lon="5.3763">
        <ele>226</ele>
        <time>2022-04-22T15:18:49Z</time>
      </trkpt>
      <trkpt lat="46.51691" lon="5.37633">
        <ele>225.8</ele>
        <time>2022-04-22T15:18:50Z</time>
      </trkpt>
      <trkpt lat="46.51683" lon="5.37637">
        <ele>225.6</ele>
        <time>2022-04-22T15:18:51Z</time>
      </trkpt>
      <trkpt lat="46.51665" lon="5.37651">
        <ele>225</ele>
        <time>2022-04-22T15:18:54Z</time>
      </trkpt>
      <trkpt lat="46.51634" lon="5.37667">
        <ele>224.6</ele>
        <time>2022-04-22T15:18:58Z</time>
      </trkpt>
      <trkpt lat="46.51599" lon="5.37678">
        <ele>224.4</ele>
        <time>2022-04-22T15:19:03Z</time>
      </trkpt>
      <trkpt lat="46.51591" lon="5.37679">
        <ele>224.4</ele>
        <time>2022-04-22T15:19:04Z</time>
      </trkpt>
      <trkpt lat="46.51572" lon="5.37681">
        <ele>224.4</ele>
        <time>2022-04-22T15:19:07Z</time>
      </trkpt>
      <trkpt lat="46.51564" lon="5.37682">
        <ele>224.4</ele>
        <time>2022-04-22T15:19:08Z</time>
      </trkpt>
      <trkpt lat="46.51519" lon="5.37692">
        <ele>225.6</ele>
        <time>2022-04-22T15:19:15Z</time>
      </trkpt>
      <trkpt lat="46.51501" lon="5.37696">
        <ele>226</ele>
        <time>2022-04-22T15:19:18Z</time>
      </trkpt>
      <trkpt lat="46.51477" lon="5.37702">
        <ele>226.6</ele>
        <time>2022-04-22T15:19:22Z</time>
      </trkpt>
      <trkpt lat="46.51458" lon="5.37706">
        <ele>227.2</ele>
        <time>2022-04-22T15:19:25Z</time>
      </trkpt>
      <trkpt lat="46.51421" lon="5.37716">
        <ele>228.2</ele>
        <time>2022-04-22T15:19:31Z</time>
      </trkpt>
      <trkpt lat="46.51415" lon="5.37718">
        <ele>228.4</ele>
        <time>2022-04-22T15:19:32Z</time>
      </trkpt>
      <trkpt lat="46.51373" lon="5.37735">
        <ele>229.4</ele>
        <time>2022-04-22T15:19:39Z</time>
      </trkpt>
      <trkpt lat="46.51344" lon="5.3775">
        <ele>229.6</ele>
        <time>2022-04-22T15:19:44Z</time>
      </trkpt>
      <trkpt lat="46.5131" lon="5.37767">
        <ele>230.2</ele>
        <time>2022-04-22T15:19:50Z</time>
      </trkpt>
      <trkpt lat="46.51293" lon="5.37775">
        <ele>230.8</ele>
        <time>2022-04-22T15:19:53Z</time>
      </trkpt>
      <trkpt lat="46.51277" lon="5.37784">
        <ele>231.8</ele>
        <time>2022-04-22T15:19:56Z</time>
      </trkpt>
      <trkpt lat="46.51247" lon="5.37798">
        <ele>232.2</ele>
        <time>2022-04-22T15:20:01Z</time>
      </trkpt>
      <trkpt lat="46.51236" lon="5.37801">
        <ele>232.8</ele>
        <time>2022-04-22T15:20:03Z</time>
      </trkpt>
      <trkpt lat="46.51203" lon="5.37805">
        <ele>233.4</ele>
        <time>2022-04-22T15:20:08Z</time>
      </trkpt>
      <trkpt lat="46.51173" lon="5.37811">
        <ele>233.8</ele>
        <time>2022-04-22T15:20:13Z</time>
      </trkpt>
      <trkpt lat="46.51168" lon="5.37814">
        <ele>234</ele>
        <time>2022-04-22T15:20:14Z</time>
      </trkpt>
      <trkpt lat="46.51162" lon="5.37818">
        <ele>234</ele>
        <time>2022-04-22T15:20:15Z</time>
      </trkpt>
      <trkpt lat="46.51147" lon="5.37831">
        <ele>235</ele>
        <time>2022-04-22T15:20:18Z</time>
      </trkpt>
      <trkpt lat="46.51132" lon="5.37844">
        <ele>235.4</ele>
        <time>2022-04-22T15:20:21Z</time>
      </trkpt>
      <trkpt lat="46.51102" lon="5.3786">
        <ele>236.2</ele>
        <time>2022-04-22T15:20:26Z</time>
      </trkpt>
      <trkpt lat="46.51085" lon="5.37867">
        <ele>236.8</ele>
        <time>2022-04-22T15:20:29Z</time>
      </trkpt>
      <trkpt lat="46.51074" lon="5.37869">
        <ele>237.4</ele>
        <time>2022-04-22T15:20:31Z</time>
      </trkpt>
      <trkpt lat="46.51046" lon="5.37871">
        <ele>238.4</ele>
        <time>2022-04-22T15:20:36Z</time>
      </trkpt>
      <trkpt lat="46.51041" lon="5.37872">
        <ele>238.4</ele>
        <time>2022-04-22T15:20:37Z</time>
      </trkpt>
      <trkpt lat="46.51009" lon="5.37877">
        <ele>239.6</ele>
        <time>2022-04-22T15:20:43Z</time>
      </trkpt>
      <trkpt lat="46.50997" lon="5.37879">
        <ele>239.8</ele>
        <time>2022-04-22T15:20:45Z</time>
      </trkpt>
      <trkpt lat="46.50975" lon="5.37883">
        <ele>240.8</ele>
        <time>2022-04-22T15:20:49Z</time>
      </trkpt>
      <trkpt lat="46.5094" lon="5.37893">
        <ele>241.2</ele>
        <time>2022-04-22T15:20:55Z</time>
      </trkpt>
      <trkpt lat="46.50907" lon="5.37901">
        <ele>241</ele>
        <time>2022-04-22T15:21:00Z</time>
      </trkpt>
      <trkpt lat="46.50859" lon="5.379">
        <ele>241</ele>
        <time>2022-04-22T15:21:07Z</time>
      </trkpt>
      <trkpt lat="46.50824" lon="5.37894">
        <ele>241</ele>
        <time>2022-04-22T15:21:12Z</time>
      </trkpt>
      <trkpt lat="46.50817" lon="5.37891">
        <ele>241</ele>
        <time>2022-04-22T15:21:13Z</time>
      </trkpt>
      <trkpt lat="46.50811" lon="5.37886">
        <ele>241</ele>
        <time>2022-04-22T15:21:14Z</time>
      </trkpt>
      <trkpt lat="46.50794" lon="5.37867">
        <ele>240.8</ele>
        <time>2022-04-22T15:21:17Z</time>
      </trkpt>
      <trkpt lat="46.50764" lon="5.37818">
        <ele>240.8</ele>
        <time>2022-04-22T15:21:23Z</time>
      </trkpt>
      <trkpt lat="46.5076" lon="5.37808">
        <ele>240.8</ele>
        <time>2022-04-22T15:21:24Z</time>
      </trkpt>
      <trkpt lat="46.50751" lon="5.37776">
        <ele>240.8</ele>
        <time>2022-04-22T15:21:27Z</time>
      </trkpt>
      <trkpt lat="46.50743" lon="5.37719">
        <ele>239.6</ele>
        <time>2022-04-22T15:21:32Z</time>
      </trkpt>
      <trkpt lat="46.50742" lon="5.37707">
        <ele>239.4</ele>
        <time>2022-04-22T15:21:33Z</time>
      </trkpt>
      <trkpt lat="46.50737" lon="5.37632">
        <ele>238.2</ele>
        <time>2022-04-22T15:21:39Z</time>
      </trkpt>
      <trkpt lat="46.50735" lon="5.37619">
        <ele>238</ele>
        <time>2022-04-22T15:21:40Z</time>
      </trkpt>
      <trkpt lat="46.50726" lon="5.37596">
        <ele>237.4</ele>
        <time>2022-04-22T15:21:42Z</time>
      </trkpt>
      <trkpt lat="46.5072" lon="5.37587">
        <ele>237</ele>
        <time>2022-04-22T15:21:43Z</time>
      </trkpt>
      <trkpt lat="46.50709" lon="5.37572">
        <ele>236</ele>
        <time>2022-04-22T15:21:45Z</time>
      </trkpt>
      <trkpt lat="46.507" lon="5.37562">
        <ele>235</ele>
        <time>2022-04-22T15:21:47Z</time>
      </trkpt>
      <trkpt lat="46.50692" lon="5.3756">
        <ele>234.4</ele>
        <time>2022-04-22T15:21:49Z</time>
      </trkpt>
      <trkpt lat="46.50688" lon="5.37562">
        <ele>234.2</ele>
        <time>2022-04-22T15:21:50Z</time>
      </trkpt>
      <trkpt lat="46.50684" lon="5.37566">
        <ele>234</ele>
        <time>2022-04-22T15:21:51Z</time>
      </trkpt>
      <trkpt lat="46.50679" lon="5.37573">
        <ele>234</ele>
        <time>2022-04-22T15:21:52Z</time>
      </trkpt>
      <trkpt lat="46.50675" lon="5.3758">
        <ele>234</ele>
        <time>2022-04-22T15:21:53Z</time>
      </trkpt>
      <trkpt lat="46.50651" lon="5.37616">
        <ele>234.4</ele>
        <time>2022-04-22T15:21:58Z</time>
      </trkpt>
      <trkpt lat="46.5061" lon="5.3768">
        <ele>234.6</ele>
        <time>2022-04-22T15:22:07Z</time>
      </trkpt>
      <trkpt lat="46.50602" lon="5.37692">
        <ele>234.8</ele>
        <time>2022-04-22T15:22:09Z</time>
      </trkpt>
      <trkpt lat="46.5059" lon="5.37711">
        <ele>235.2</ele>
        <time>2022-04-22T15:22:12Z</time>
      </trkpt>
      <trkpt lat="46.50574" lon="5.37736">
        <ele>236.2</ele>
        <time>2022-04-22T15:22:16Z</time>
      </trkpt>
      <trkpt lat="46.50571" lon="5.37741">
        <ele>236.4</ele>
        <time>2022-04-22T15:22:17Z</time>
      </trkpt>
      <trkpt lat="46.50556" lon="5.37765">
        <ele>237.4</ele>
        <time>2022-04-22T15:22:21Z</time>
      </trkpt>
      <trkpt lat="46.50545" lon="5.37782">
        <ele>238.4</ele>
        <time>2022-04-22T15:22:24Z</time>
      </trkpt>
      <trkpt lat="46.50541" lon="5.37787">
        <ele>238.8</ele>
        <time>2022-04-22T15:22:25Z</time>
      </trkpt>
      <trkpt lat="46.50526" lon="5.3781">
        <ele>239.6</ele>
        <time>2022-04-22T15:22:29Z</time>
      </trkpt>
      <trkpt lat="46.50505" lon="5.37843">
        <ele>240.8</ele>
        <time>2022-04-22T15:22:35Z</time>
      </trkpt>
      <trkpt lat="46.505" lon="5.3785">
        <ele>241</ele>
        <time>2022-04-22T15:22:36Z</time>
      </trkpt>
      <trkpt lat="46.5049" lon="5.37865">
        <ele>241.8</ele>
        <time>2022-04-22T15:22:39Z</time>
      </trkpt>
      <trkpt lat="46.50472" lon="5.37891">
        <ele>243</ele>
        <time>2022-04-22T15:22:44Z</time>
      </trkpt>
      <trkpt lat="46.50457" lon="5.37915">
        <ele>243.8</ele>
        <time>2022-04-22T15:22:48Z</time>
      </trkpt>
      <trkpt lat="46.5045" lon="5.37927">
        <ele>244.2</ele>
        <time>2022-04-22T15:22:50Z</time>
      </trkpt>
      <trkpt lat="46.50447" lon="5.37933">
        <ele>244.4</ele>
        <time>2022-04-22T15:22:51Z</time>
      </trkpt>
      <trkpt lat="46.5044" lon="5.37942">
        <ele>244.8</ele>
        <time>2022-04-22T15:22:53Z</time>
      </trkpt>
      <trkpt lat="46.50433" lon="5.37953">
        <ele>245.4</ele>
        <time>2022-04-22T15:22:55Z</time>
      </trkpt>
      <trkpt lat="46.50429" lon="5.37957">
        <ele>245.6</ele>
        <time>2022-04-22T15:22:56Z</time>
      </trkpt>
      <trkpt lat="46.50421" lon="5.37966">
        <ele>246.2</ele>
        <time>2022-04-22T15:22:58Z</time>
      </trkpt>
      <trkpt lat="46.50415" lon="5.37975">
        <ele>246.6</ele>
        <time>2022-04-22T15:23:00Z</time>
      </trkpt>
      <trkpt lat="46.50405" lon="5.37991">
        <ele>247.8</ele>
        <time>2022-04-22T15:23:04Z</time>
      </trkpt>
      <trkpt lat="46.50403" lon="5.37997">
        <ele>248.6</ele>
        <time>2022-04-22T15:23:07Z</time>
      </trkpt>
      <trkpt lat="46.50402" lon="5.38">
        <ele>248.6</ele>
        <time>2022-04-22T15:23:08Z</time>
      </trkpt>
      <trkpt lat="46.50401" lon="5.38004">
        <ele>249</ele>
        <time>2022-04-22T15:23:09Z</time>
      </trkpt>
      <trkpt lat="46.50396" lon="5.38012">
        <ele>249.4</ele>
        <time>2022-04-22T15:23:11Z</time>
      </trkpt>
      <trkpt lat="46.50387" lon="5.38025">
        <ele>249.6</ele>
        <time>2022-04-22T15:23:14Z</time>
      </trkpt>
      <trkpt lat="46.50379" lon="5.38031">
        <ele>249.8</ele>
        <time>2022-04-22T15:23:16Z</time>
      </trkpt>
      <trkpt lat="46.50371" lon="5.38027">
        <ele>250.2</ele>
        <time>2022-04-22T15:23:18Z</time>
      </trkpt>
      <trkpt lat="46.50368" lon="5.38022">
        <ele>250.4</ele>
        <time>2022-04-22T15:23:19Z</time>
      </trkpt>
      <trkpt lat="46.50366" lon="5.38016">
        <ele>250.6</ele>
        <time>2022-04-22T15:23:20Z</time>
      </trkpt>
      <trkpt lat="46.50364" lon="5.38004">
        <ele>250.8</ele>
        <time>2022-04-22T15:23:22Z</time>
      </trkpt>
      <trkpt lat="46.50363" lon="5.37995">
        <ele>251</ele>
        <time>2022-04-22T15:23:23Z</time>
      </trkpt>
      <trkpt lat="46.50364" lon="5.37974">
        <ele>251.2</ele>
        <time>2022-04-22T15:23:26Z</time>
      </trkpt>
      <trkpt lat="46.50364" lon="5.3796">
        <ele>251.6</ele>
        <time>2022-04-22T15:23:28Z</time>
      </trkpt>
      <trkpt lat="46.50363" lon="5.37942">
        <ele>251.8</ele>
        <time>2022-04-22T15:23:30Z</time>
      </trkpt>
      <trkpt lat="46.50359" lon="5.37918">
        <ele>252</ele>
        <time>2022-04-22T15:23:33Z</time>
      </trkpt>
      <trkpt lat="46.50355" lon="5.37908">
        <ele>252</ele>
        <time>2022-04-22T15:23:34Z</time>
      </trkpt>
      <trkpt lat="46.50348" lon="5.37892">
        <ele>252</ele>
        <time>2022-04-22T15:23:36Z</time>
      </trkpt>
      <trkpt lat="46.50339" lon="5.37879">
        <ele>252</ele>
        <time>2022-04-22T15:23:38Z</time>
      </trkpt>
      <trkpt lat="46.50294" lon="5.37834">
        <ele>251</ele>
        <time>2022-04-22T15:23:46Z</time>
      </trkpt>
      <trkpt lat="46.50245" lon="5.37789">
        <ele>250.8</ele>
        <time>2022-04-22T15:23:54Z</time>
      </trkpt>
      <trkpt lat="46.50196" lon="5.37756">
        <ele>250.4</ele>
        <time>2022-04-22T15:24:01Z</time>
      </trkpt>
      <trkpt lat="46.50182" lon="5.3775">
        <ele>250.4</ele>
        <time>2022-04-22T15:24:03Z</time>
      </trkpt>
      <trkpt lat="46.50177" lon="5.37746">
        <ele>249.8</ele>
        <time>2022-04-22T15:24:04Z</time>
      </trkpt>
      <trkpt lat="46.50171" lon="5.37738">
        <ele>249.6</ele>
        <time>2022-04-22T15:24:05Z</time>
      </trkpt>
      <trkpt lat="46.50156" lon="5.37714">
        <ele>249.2</ele>
        <time>2022-04-22T15:24:08Z</time>
      </trkpt>
      <trkpt lat="46.50152" lon="5.37702">
        <ele>249</ele>
        <time>2022-04-22T15:24:09Z</time>
      </trkpt>
      <trkpt lat="46.5015" lon="5.37693">
        <ele>249</ele>
        <time>2022-04-22T15:24:10Z</time>
      </trkpt>
      <trkpt lat="46.50146" lon="5.37668">
        <ele>248.6</ele>
        <time>2022-04-22T15:24:12Z</time>
      </trkpt>
      <trkpt lat="46.50145" lon="5.37655">
        <ele>248.2</ele>
        <time>2022-04-22T15:24:13Z</time>
      </trkpt>
      <trkpt lat="46.50145" lon="5.37638">
        <ele>248</ele>
        <time>2022-04-22T15:24:14Z</time>
      </trkpt>
      <trkpt lat="46.50144" lon="5.37612">
        <ele>246.8</ele>
        <time>2022-04-22T15:24:16Z</time>
      </trkpt>
      <trkpt lat="46.50143" lon="5.37585">
        <ele>246.2</ele>
        <time>2022-04-22T15:24:18Z</time>
      </trkpt>
      <trkpt lat="46.50139" lon="5.37546">
        <ele>245.6</ele>
        <time>2022-04-22T15:24:21Z</time>
      </trkpt>
      <trkpt lat="46.50136" lon="5.37536">
        <ele>245.6</ele>
        <time>2022-04-22T15:24:22Z</time>
      </trkpt>
      <trkpt lat="46.50118" lon="5.3749">
        <ele>245</ele>
        <time>2022-04-22T15:24:26Z</time>
      </trkpt>
      <trkpt lat="46.50087" lon="5.37432">
        <ele>244.8</ele>
        <time>2022-04-22T15:24:32Z</time>
      </trkpt>
      <trkpt lat="46.50082" lon="5.37419">
        <ele>244.8</ele>
        <time>2022-04-22T15:24:33Z</time>
      </trkpt>
      <trkpt lat="46.5008" lon="5.3741">
        <ele>244.6</ele>
        <time>2022-04-22T15:24:34Z</time>
      </trkpt>
      <trkpt lat="46.50069" lon="5.37361">
        <ele>244.4</ele>
        <time>2022-04-22T15:24:38Z</time>
      </trkpt>
      <trkpt lat="46.50057" lon="5.37291">
        <ele>244.2</ele>
        <time>2022-04-22T15:24:44Z</time>
      </trkpt>
      <trkpt lat="46.50047" lon="5.37235">
        <ele>243.6</ele>
        <time>2022-04-22T15:24:48Z</time>
      </trkpt>
      <trkpt lat="46.50045" lon="5.37224">
        <ele>243.2</ele>
        <time>2022-04-22T15:24:49Z</time>
      </trkpt>
      <trkpt lat="46.50039" lon="5.37195">
        <ele>242.2</ele>
        <time>2022-04-22T15:24:51Z</time>
      </trkpt>
      <trkpt lat="46.50027" lon="5.37126">
        <ele>241.4</ele>
        <time>2022-04-22T15:24:56Z</time>
      </trkpt>
      <trkpt lat="46.50016" lon="5.37069">
        <ele>239.8</ele>
        <time>2022-04-22T15:25:00Z</time>
      </trkpt>
      <trkpt lat="46.50006" lon="5.37015">
        <ele>238.8</ele>
        <time>2022-04-22T15:25:04Z</time>
      </trkpt>
      <trkpt lat="46.50002" lon="5.36997">
        <ele>238.8</ele>
        <time>2022-04-22T15:25:05Z</time>
      </trkpt>
      <trkpt lat="46.49986" lon="5.36913">
        <ele>237.2</ele>
        <time>2022-04-22T15:25:11Z</time>
      </trkpt>
      <trkpt lat="46.49978" lon="5.36868">
        <ele>235.8</ele>
        <time>2022-04-22T15:25:14Z</time>
      </trkpt>
      <trkpt lat="46.49975" lon="5.36853">
        <ele>235.4</ele>
        <time>2022-04-22T15:25:15Z</time>
      </trkpt>
      <trkpt lat="46.49969" lon="5.36824">
        <ele>234.8</ele>
        <time>2022-04-22T15:25:17Z</time>
      </trkpt>
      <trkpt lat="46.49959" lon="5.3677">
        <ele>233.4</ele>
        <time>2022-04-22T15:25:21Z</time>
      </trkpt>
      <trkpt lat="46.49948" lon="5.36712">
        <ele>232.2</ele>
        <time>2022-04-22T15:25:25Z</time>
      </trkpt>
      <trkpt lat="46.49943" lon="5.36685">
        <ele>231.8</ele>
        <time>2022-04-22T15:25:27Z</time>
      </trkpt>
      <trkpt lat="46.49936" lon="5.36652">
        <ele>230.8</ele>
        <time>2022-04-22T15:25:30Z</time>
      </trkpt>
      <trkpt lat="46.49933" lon="5.36642">
        <ele>230.8</ele>
        <time>2022-04-22T15:25:31Z</time>
      </trkpt>
      <trkpt lat="46.49922" lon="5.36614">
        <ele>230.6</ele>
        <time>2022-04-22T15:25:35Z</time>
      </trkpt>
      <trkpt lat="46.49911" lon="5.36586">
        <ele>230.6</ele>
        <time>2022-04-22T15:25:38Z</time>
      </trkpt>
      <trkpt lat="46.49907" lon="5.36578">
        <ele>230.6</ele>
        <time>2022-04-22T15:25:39Z</time>
      </trkpt>
      <trkpt lat="46.49895" lon="5.36555">
        <ele>230.6</ele>
        <time>2022-04-22T15:25:41Z</time>
      </trkpt>
      <trkpt lat="46.49876" lon="5.36526">
        <ele>230.4</ele>
        <time>2022-04-22T15:25:44Z</time>
      </trkpt>
      <trkpt lat="46.49851" lon="5.36489">
        <ele>229.6</ele>
        <time>2022-04-22T15:25:48Z</time>
      </trkpt>
      <trkpt lat="46.49831" lon="5.36456">
        <ele>228.4</ele>
        <time>2022-04-22T15:25:51Z</time>
      </trkpt>
      <trkpt lat="46.49815" lon="5.36423">
        <ele>227.2</ele>
        <time>2022-04-22T15:25:54Z</time>
      </trkpt>
      <trkpt lat="46.498" lon="5.36387">
        <ele>226.8</ele>
        <time>2022-04-22T15:25:57Z</time>
      </trkpt>
      <trkpt lat="46.49775" lon="5.36327">
        <ele>226.2</ele>
        <time>2022-04-22T15:26:02Z</time>
      </trkpt>
      <trkpt lat="46.49764" lon="5.36302">
        <ele>226</ele>
        <time>2022-04-22T15:26:04Z</time>
      </trkpt>
      <trkpt lat="46.49747" lon="5.36263">
        <ele>224.8</ele>
        <time>2022-04-22T15:26:07Z</time>
      </trkpt>
      <trkpt lat="46.49724" lon="5.36211">
        <ele>223.6</ele>
        <time>2022-04-22T15:26:11Z</time>
      </trkpt>
      <trkpt lat="46.49698" lon="5.36165">
        <ele>222.2</ele>
        <time>2022-04-22T15:26:15Z</time>
      </trkpt>
      <trkpt lat="46.49685" lon="5.36143">
        <ele>221.8</ele>
        <time>2022-04-22T15:26:17Z</time>
      </trkpt>
      <trkpt lat="46.49661" lon="5.36099">
        <ele>221.2</ele>
        <time>2022-04-22T15:26:21Z</time>
      </trkpt>
      <trkpt lat="46.49657" lon="5.36086">
        <ele>221</ele>
        <time>2022-04-22T15:26:22Z</time>
      </trkpt>
      <trkpt lat="46.4965" lon="5.3606">
        <ele>221</ele>
        <time>2022-04-22T15:26:24Z</time>
      </trkpt>
      <trkpt lat="46.49648" lon="5.36034">
        <ele>221</ele>
        <time>2022-04-22T15:26:26Z</time>
      </trkpt>
      <trkpt lat="46.49642" lon="5.35945">
        <ele>221</ele>
        <time>2022-04-22T15:26:33Z</time>
      </trkpt>
      <trkpt lat="46.49641" lon="5.35933">
        <ele>221.2</ele>
        <time>2022-04-22T15:26:34Z</time>
      </trkpt>
      <trkpt lat="46.49639" lon="5.3585">
        <ele>221.8</ele>
        <time>2022-04-22T15:26:41Z</time>
      </trkpt>
      <trkpt lat="46.49644" lon="5.35819">
        <ele>221.8</ele>
        <time>2022-04-22T15:26:44Z</time>
      </trkpt>
      <trkpt lat="46.49647" lon="5.35809">
        <ele>222</ele>
        <time>2022-04-22T15:26:45Z</time>
      </trkpt>
      <trkpt lat="46.49653" lon="5.35794">
        <ele>222.4</ele>
        <time>2022-04-22T15:26:47Z</time>
      </trkpt>
      <trkpt lat="46.49666" lon="5.35763">
        <ele>223.4</ele>
        <time>2022-04-22T15:26:51Z</time>
      </trkpt>
      <trkpt lat="46.49677" lon="5.35741">
        <ele>224.6</ele>
        <time>2022-04-22T15:26:54Z</time>
      </trkpt>
      <trkpt lat="46.49686" lon="5.35718">
        <ele>225.6</ele>
        <time>2022-04-22T15:26:57Z</time>
      </trkpt>
      <trkpt lat="46.49691" lon="5.35703">
        <ele>226</ele>
        <time>2022-04-22T15:26:59Z</time>
      </trkpt>
      <trkpt lat="46.49697" lon="5.35678">
        <ele>226.4</ele>
        <time>2022-04-22T15:27:02Z</time>
      </trkpt>
      <trkpt lat="46.497" lon="5.35662">
        <ele>226.8</ele>
        <time>2022-04-22T15:27:04Z</time>
      </trkpt>
      <trkpt lat="46.497" lon="5.35653">
        <ele>226.8</ele>
        <time>2022-04-22T15:27:05Z</time>
      </trkpt>
      <trkpt lat="46.49698" lon="5.35646">
        <ele>227</ele>
        <time>2022-04-22T15:27:06Z</time>
      </trkpt>
      <trkpt lat="46.49693" lon="5.3564">
        <ele>227.2</ele>
        <time>2022-04-22T15:27:07Z</time>
      </trkpt>
      <trkpt lat="46.49688" lon="5.35638">
        <ele>227.6</ele>
        <time>2022-04-22T15:27:08Z</time>
      </trkpt>
      <trkpt lat="46.4967" lon="5.35633">
        <ele>228</ele>
        <time>2022-04-22T15:27:11Z</time>
      </trkpt>
      <trkpt lat="46.49623" lon="5.3562">
        <ele>229</ele>
        <time>2022-04-22T15:27:19Z</time>
      </trkpt>
      <trkpt lat="46.49587" lon="5.35608">
        <ele>230.2</ele>
        <time>2022-04-22T15:27:25Z</time>
      </trkpt>
      <trkpt lat="46.49564" lon="5.356">
        <ele>230.6</ele>
        <time>2022-04-22T15:27:29Z</time>
      </trkpt>
      <trkpt lat="46.49521" lon="5.35583">
        <ele>231.4</ele>
        <time>2022-04-22T15:27:36Z</time>
      </trkpt>
      <trkpt lat="46.49515" lon="5.35581">
        <ele>231.4</ele>
        <time>2022-04-22T15:27:37Z</time>
      </trkpt>
      <trkpt lat="46.4946" lon="5.35559">
        <ele>232.4</ele>
        <time>2022-04-22T15:27:46Z</time>
      </trkpt>
      <trkpt lat="46.49453" lon="5.35556">
        <ele>232.4</ele>
        <time>2022-04-22T15:27:47Z</time>
      </trkpt>
      <trkpt lat="46.49409" lon="5.35537">
        <ele>232.6</ele>
        <time>2022-04-22T15:27:54Z</time>
      </trkpt>
      <trkpt lat="46.49369" lon="5.35529">
        <ele>233.2</ele>
        <time>2022-04-22T15:28:00Z</time>
      </trkpt>
      <trkpt lat="46.49349" lon="5.35529">
        <ele>233.6</ele>
        <time>2022-04-22T15:28:03Z</time>
      </trkpt>
      <trkpt lat="46.49335" lon="5.3553">
        <ele>234</ele>
        <time>2022-04-22T15:28:05Z</time>
      </trkpt>
      <trkpt lat="46.49323" lon="5.35532">
        <ele>234.4</ele>
        <time>2022-04-22T15:28:07Z</time>
      </trkpt>
      <trkpt lat="46.4931" lon="5.35533">
        <ele>234.6</ele>
        <time>2022-04-22T15:28:09Z</time>
      </trkpt>
      <trkpt lat="46.49297" lon="5.35534">
        <ele>234.8</ele>
        <time>2022-04-22T15:28:11Z</time>
      </trkpt>
      <trkpt lat="46.4927" lon="5.35537">
        <ele>235.2</ele>
        <time>2022-04-22T15:28:15Z</time>
      </trkpt>
      <trkpt lat="46.4922" lon="5.35541">
        <ele>235.4</ele>
        <time>2022-04-22T15:28:22Z</time>
      </trkpt>
      <trkpt lat="46.49172" lon="5.35544">
        <ele>235.2</ele>
        <time>2022-04-22T15:28:29Z</time>
      </trkpt>
      <trkpt lat="46.49124" lon="5.35546">
        <ele>234.6</ele>
        <time>2022-04-22T15:28:35Z</time>
      </trkpt>
      <trkpt lat="46.49078" lon="5.35549">
        <ele>233.6</ele>
        <time>2022-04-22T15:28:40Z</time>
      </trkpt>
      <trkpt lat="46.49062" lon="5.3555">
        <ele>233.4</ele>
        <time>2022-04-22T15:28:42Z</time>
      </trkpt>
      <trkpt lat="46.49032" lon="5.35551">
        <ele>232.2</ele>
        <time>2022-04-22T15:28:45Z</time>
      </trkpt>
      <trkpt lat="46.48996" lon="5.35552">
        <ele>230.8</ele>
        <time>2022-04-22T15:28:49Z</time>
      </trkpt>
      <trkpt lat="46.48986" lon="5.35553">
        <ele>230.8</ele>
        <time>2022-04-22T15:28:50Z</time>
      </trkpt>
      <trkpt lat="46.48927" lon="5.35556">
        <ele>230.8</ele>
        <time>2022-04-22T15:28:57Z</time>
      </trkpt>
      <trkpt lat="46.48921" lon="5.35556">
        <ele>230.8</ele>
        <time>2022-04-22T15:28:58Z</time>
      </trkpt>
      <trkpt lat="46.48885" lon="5.35558">
        <ele>232</ele>
        <time>2022-04-22T15:29:03Z</time>
      </trkpt>
      <trkpt lat="46.48873" lon="5.35557">
        <ele>232.2</ele>
        <time>2022-04-22T15:29:05Z</time>
      </trkpt>
      <trkpt lat="46.48849" lon="5.3556">
        <ele>232.6</ele>
        <time>2022-04-22T15:29:09Z</time>
      </trkpt>
      <trkpt lat="46.48843" lon="5.35564">
        <ele>232.6</ele>
        <time>2022-04-22T15:29:10Z</time>
      </trkpt>
      <trkpt lat="46.48835" lon="5.35573">
        <ele>232.8</ele>
        <time>2022-04-22T15:29:12Z</time>
      </trkpt>
      <trkpt lat="46.4883" lon="5.35581">
        <ele>233.2</ele>
        <time>2022-04-22T15:29:13Z</time>
      </trkpt>
      <trkpt lat="46.48814" lon="5.35615">
        <ele>233.8</ele>
        <time>2022-04-22T15:29:17Z</time>
      </trkpt>
      <trkpt lat="46.48806" lon="5.35634">
        <ele>234.2</ele>
        <time>2022-04-22T15:29:19Z</time>
      </trkpt>
      <trkpt lat="46.48783" lon="5.35684">
        <ele>234.6</ele>
        <time>2022-04-22T15:29:25Z</time>
      </trkpt>
      <trkpt lat="46.48754" lon="5.35753">
        <ele>234.4</ele>
        <time>2022-04-22T15:29:33Z</time>
      </trkpt>
      <trkpt lat="46.48728" lon="5.35812">
        <ele>234.6</ele>
        <time>2022-04-22T15:29:40Z</time>
      </trkpt>
      <trkpt lat="46.48709" lon="5.35861">
        <ele>235</ele>
        <time>2022-04-22T15:29:46Z</time>
      </trkpt>
      <trkpt lat="46.48706" lon="5.35867">
        <ele>235</ele>
        <time>2022-04-22T15:29:47Z</time>
      </trkpt>
      <trkpt lat="46.48699" lon="5.35886">
        <ele>235.2</ele>
        <time>2022-04-22T15:29:49Z</time>
      </trkpt>
      <trkpt lat="46.48693" lon="5.35902">
        <ele>235.4</ele>
        <time>2022-04-22T15:29:51Z</time>
      </trkpt>
      <trkpt lat="46.48688" lon="5.35916">
        <ele>235.6</ele>
        <time>2022-04-22T15:29:53Z</time>
      </trkpt>
      <trkpt lat="46.48683" lon="5.35944">
        <ele>236.4</ele>
        <time>2022-04-22T15:29:56Z</time>
      </trkpt>
      <trkpt lat="46.48674" lon="5.36">
        <ele>237.4</ele>
        <time>2022-04-22T15:30:02Z</time>
      </trkpt>
      <trkpt lat="46.48666" lon="5.36042">
        <ele>237.4</ele>
        <time>2022-04-22T15:30:06Z</time>
      </trkpt>
      <trkpt lat="46.48651" lon="5.36112">
        <ele>236.6</ele>
        <time>2022-04-22T15:30:12Z</time>
      </trkpt>
      <trkpt lat="46.48646" lon="5.36136">
        <ele>235.8</ele>
        <time>2022-04-22T15:30:14Z</time>
      </trkpt>
      <trkpt lat="46.48642" lon="5.3618">
        <ele>234.8</ele>
        <time>2022-04-22T15:30:18Z</time>
      </trkpt>
      <trkpt lat="46.48641" lon="5.36191">
        <ele>234.8</ele>
        <time>2022-04-22T15:30:19Z</time>
      </trkpt>
      <trkpt lat="46.48635" lon="5.36251">
        <ele>234.8</ele>
        <time>2022-04-22T15:30:25Z</time>
      </trkpt>
      <trkpt lat="46.48627" lon="5.36298">
        <ele>235.8</ele>
        <time>2022-04-22T15:30:30Z</time>
      </trkpt>
      <trkpt lat="46.48624" lon="5.36305">
        <ele>236.2</ele>
        <time>2022-04-22T15:30:31Z</time>
      </trkpt>
      <trkpt lat="46.4862" lon="5.36311">
        <ele>236.4</ele>
        <time>2022-04-22T15:30:32Z</time>
      </trkpt>
      <trkpt lat="46.48617" lon="5.36314">
        <ele>237</ele>
        <time>2022-04-22T15:30:33Z</time>
      </trkpt>
      <trkpt lat="46.48611" lon="5.36318">
        <ele>237</ele>
        <time>2022-04-22T15:30:34Z</time>
      </trkpt>
      <trkpt lat="46.48591" lon="5.36321">
        <ele>238.2</ele>
        <time>2022-04-22T15:30:38Z</time>
      </trkpt>
      <trkpt lat="46.48585" lon="5.36322">
        <ele>238.4</ele>
        <time>2022-04-22T15:30:39Z</time>
      </trkpt>
      <trkpt lat="46.48561" lon="5.36324">
        <ele>239.8</ele>
        <time>2022-04-22T15:30:44Z</time>
      </trkpt>
      <trkpt lat="46.48539" lon="5.36326">
        <ele>240.4</ele>
        <time>2022-04-22T15:30:48Z</time>
      </trkpt>
      <trkpt lat="46.48533" lon="5.36328">
        <ele>240.6</ele>
        <time>2022-04-22T15:30:49Z</time>
      </trkpt>
      <trkpt lat="46.48495" lon="5.36335">
        <ele>242</ele>
        <time>2022-04-22T15:30:56Z</time>
      </trkpt>
      <trkpt lat="46.48491" lon="5.36336">
        <ele>242.2</ele>
        <time>2022-04-22T15:30:57Z</time>
      </trkpt>
      <trkpt lat="46.48437" lon="5.36345">
        <ele>242.6</ele>
        <time>2022-04-22T15:31:06Z</time>
      </trkpt>
      <trkpt lat="46.48419" lon="5.36353">
        <ele>242.8</ele>
        <time>2022-04-22T15:31:09Z</time>
      </trkpt>
      <trkpt lat="46.48401" lon="5.36365">
        <ele>243</ele>
        <time>2022-04-22T15:31:12Z</time>
      </trkpt>
      <trkpt lat="46.48389" lon="5.36377">
        <ele>243</ele>
        <time>2022-04-22T15:31:14Z</time>
      </trkpt>
      <trkpt lat="46.48363" lon="5.36404">
        <ele>243.2</ele>
        <time>2022-04-22T15:31:19Z</time>
      </trkpt>
      <trkpt lat="46.48319" lon="5.36453">
        <ele>244.4</ele>
        <time>2022-04-22T15:31:28Z</time>
      </trkpt>
      <trkpt lat="46.48313" lon="5.36459">
        <ele>244.4</ele>
        <time>2022-04-22T15:31:29Z</time>
      </trkpt>
      <trkpt lat="46.48285" lon="5.3649">
        <ele>245.4</ele>
        <time>2022-04-22T15:31:35Z</time>
      </trkpt>
      <trkpt lat="46.48271" lon="5.36507">
        <ele>246</ele>
        <time>2022-04-22T15:31:38Z</time>
      </trkpt>
      <trkpt lat="46.48263" lon="5.36515">
        <ele>246.4</ele>
        <time>2022-04-22T15:31:40Z</time>
      </trkpt>
      <trkpt lat="46.48233" lon="5.36548">
        <ele>247.4</ele>
        <time>2022-04-22T15:31:47Z</time>
      </trkpt>
      <trkpt lat="46.48224" lon="5.36556">
        <ele>247.6</ele>
        <time>2022-04-22T15:31:49Z</time>
      </trkpt>
      <trkpt lat="46.48214" lon="5.36559">
        <ele>247.6</ele>
        <time>2022-04-22T15:31:51Z</time>
      </trkpt>
      <trkpt lat="46.48203" lon="5.3656">
        <ele>247.8</ele>
        <time>2022-04-22T15:31:53Z</time>
      </trkpt>
      <trkpt lat="46.48194" lon="5.36568">
        <ele>248</ele>
        <time>2022-04-22T15:31:55Z</time>
      </trkpt>
      <trkpt lat="46.48186" lon="5.3659">
        <ele>248.4</ele>
        <time>2022-04-22T15:31:58Z</time>
      </trkpt>
      <trkpt lat="46.48183" lon="5.36598">
        <ele>248.8</ele>
        <time>2022-04-22T15:31:59Z</time>
      </trkpt>
      <trkpt lat="46.48179" lon="5.36604">
        <ele>249</ele>
        <time>2022-04-22T15:32:00Z</time>
      </trkpt>
      <trkpt lat="46.48166" lon="5.3662">
        <ele>249.2</ele>
        <time>2022-04-22T15:32:03Z</time>
      </trkpt>
      <trkpt lat="46.48157" lon="5.36629">
        <ele>249.4</ele>
        <time>2022-04-22T15:32:05Z</time>
      </trkpt>
      <trkpt lat="46.48141" lon="5.36644">
        <ele>249.6</ele>
        <time>2022-04-22T15:32:08Z</time>
      </trkpt>
      <trkpt lat="46.48137" lon="5.36649">
        <ele>249.8</ele>
        <time>2022-04-22T15:32:09Z</time>
      </trkpt>
      <trkpt lat="46.48124" lon="5.36664">
        <ele>250.4</ele>
        <time>2022-04-22T15:32:12Z</time>
      </trkpt>
      <trkpt lat="46.4811" lon="5.36683">
        <ele>250.8</ele>
        <time>2022-04-22T15:32:16Z</time>
      </trkpt>
      <trkpt lat="46.48107" lon="5.36688">
        <ele>250.8</ele>
        <time>2022-04-22T15:32:17Z</time>
      </trkpt>
      <trkpt lat="46.48106" lon="5.36695">
        <ele>251.2</ele>
        <time>2022-04-22T15:32:18Z</time>
      </trkpt>
      <trkpt lat="46.48111" lon="5.36706">
        <ele>251.4</ele>
        <time>2022-04-22T15:32:20Z</time>
      </trkpt>
      <trkpt lat="46.48123" lon="5.36717">
        <ele>252.2</ele>
        <time>2022-04-22T15:32:23Z</time>
      </trkpt>
      <trkpt lat="46.4814" lon="5.36732">
        <ele>252.8</ele>
        <time>2022-04-22T15:32:27Z</time>
      </trkpt>
      <trkpt lat="46.48153" lon="5.36742">
        <ele>253.2</ele>
        <time>2022-04-22T15:32:30Z</time>
      </trkpt>
      <trkpt lat="46.48157" lon="5.36744">
        <ele>253.2</ele>
        <time>2022-04-22T15:32:31Z</time>
      </trkpt>
      <trkpt lat="46.48168" lon="5.36754">
        <ele>254.2</ele>
        <time>2022-04-22T15:32:34Z</time>
      </trkpt>
      <trkpt lat="46.48191" lon="5.36775">
        <ele>255.4</ele>
        <time>2022-04-22T15:32:40Z</time>
      </trkpt>
      <trkpt lat="46.48206" lon="5.36788">
        <ele>256.6</ele>
        <time>2022-04-22T15:32:44Z</time>
      </trkpt>
      <trkpt lat="46.48222" lon="5.36801">
        <ele>258</ele>
        <time>2022-04-22T15:32:48Z</time>
      </trkpt>
      <trkpt lat="46.48229" lon="5.36807">
        <ele>258.6</ele>
        <time>2022-04-22T15:32:50Z</time>
      </trkpt>
      <trkpt lat="46.48236" lon="5.36813">
        <ele>259</ele>
        <time>2022-04-22T15:32:52Z</time>
      </trkpt>
      <trkpt lat="46.4824" lon="5.36816">
        <ele>259.4</ele>
        <time>2022-04-22T15:32:53Z</time>
      </trkpt>
      <trkpt lat="46.48256" lon="5.36829">
        <ele>259.8</ele>
        <time>2022-04-22T15:32:57Z</time>
      </trkpt>
      <trkpt lat="46.48259" lon="5.36832">
        <ele>260.4</ele>
        <time>2022-04-22T15:32:58Z</time>
      </trkpt>
    </trkseg>
  </trk>
</gpx>